<?xml version="1.0" encoding="UTF-8" standalone="no" ?>
<gpx xmlns="http://www.topografix.com/GPX/1/1" xmlns:xsi="http://www.w3.org/2001/XMLSchema-instance" xsi:schemaLocation="http://www.topografix.com/GPX/1/1 http://www.topografix.com/GPX/1/1/gpx.xsd" version="1.1" creator="VisuGPX - https://www.visugpx.com">
  <metadata>
    <name>66km st antonin</name>
  </metadata>
  <trk>
    <name><![CDATA[66km st antonin_1]]></name>
    <extensions>
      <line xmlns="http://www.topografix.com/GPX/gpx_style/0/2">
        <color>00FF00</color>
        <width>4</width>
      </line>
    </extensions>
    <trkseg>
      <trkpt lat="44.15598" lon="1.78764">
        <ele>155.3</ele>
        <time>2019-03-10T07:37:30Z</time>
      </trkpt>
      <trkpt lat="44.15598" lon="1.78764">
        <ele>130.3</ele>
        <time>2019-03-10T07:37:30Z</time>
      </trkpt>
      <trkpt lat="44.15586" lon="1.78763">
        <ele>129.4</ele>
        <time>2019-03-10T07:37:34Z</time>
      </trkpt>
      <trkpt lat="44.15584" lon="1.78775">
        <ele>130.2</ele>
        <time>2019-03-10T07:37:38Z</time>
      </trkpt>
      <trkpt lat="44.15582" lon="1.78787">
        <ele>131</ele>
        <time>2019-03-10T07:37:42Z</time>
      </trkpt>
      <trkpt lat="44.15577" lon="1.788">
        <ele>132</ele>
        <time>2019-03-10T07:37:46Z</time>
      </trkpt>
      <trkpt lat="44.15579" lon="1.78807">
        <ele>132.7</ele>
        <time>2019-03-10T07:37:50Z</time>
      </trkpt>
      <trkpt lat="44.15577" lon="1.7882">
        <ele>134.1</ele>
        <time>2019-03-10T07:37:54Z</time>
      </trkpt>
      <trkpt lat="44.15567" lon="1.7883">
        <ele>135.4</ele>
        <time>2019-03-10T07:37:58Z</time>
      </trkpt>
      <trkpt lat="44.15561" lon="1.78845">
        <ele>136.4</ele>
        <time>2019-03-10T07:38:02Z</time>
      </trkpt>
      <trkpt lat="44.15566" lon="1.78853">
        <ele>137.5</ele>
        <time>2019-03-10T07:38:06Z</time>
      </trkpt>
      <trkpt lat="44.15564" lon="1.78862">
        <ele>138.6</ele>
        <time>2019-03-10T07:38:10Z</time>
      </trkpt>
      <trkpt lat="44.15564" lon="1.78874">
        <ele>139.7</ele>
        <time>2019-03-10T07:38:14Z</time>
      </trkpt>
      <trkpt lat="44.15559" lon="1.78882">
        <ele>140.9</ele>
        <time>2019-03-10T07:38:18Z</time>
      </trkpt>
      <trkpt lat="44.15557" lon="1.78889">
        <ele>142.1</ele>
        <time>2019-03-10T07:38:22Z</time>
      </trkpt>
      <trkpt lat="44.15549" lon="1.78901">
        <ele>143.1</ele>
        <time>2019-03-10T07:38:26Z</time>
      </trkpt>
      <trkpt lat="44.15547" lon="1.78911">
        <ele>144.9</ele>
        <time>2019-03-10T07:38:30Z</time>
      </trkpt>
      <trkpt lat="44.15545" lon="1.78926">
        <ele>146</ele>
        <time>2019-03-10T07:38:34Z</time>
      </trkpt>
      <trkpt lat="44.15546" lon="1.78934">
        <ele>147.6</ele>
        <time>2019-03-10T07:38:38Z</time>
      </trkpt>
      <trkpt lat="44.15542" lon="1.78946">
        <ele>148.7</ele>
        <time>2019-03-10T07:38:42Z</time>
      </trkpt>
      <trkpt lat="44.15538" lon="1.78956">
        <ele>149.8</ele>
        <time>2019-03-10T07:38:46Z</time>
      </trkpt>
      <trkpt lat="44.15535" lon="1.78968">
        <ele>151</ele>
        <time>2019-03-10T07:38:50Z</time>
      </trkpt>
      <trkpt lat="44.15532" lon="1.78983">
        <ele>152.4</ele>
        <time>2019-03-10T07:38:54Z</time>
      </trkpt>
      <trkpt lat="44.15528" lon="1.7899">
        <ele>154</ele>
        <time>2019-03-10T07:38:58Z</time>
      </trkpt>
      <trkpt lat="44.15527" lon="1.78999">
        <ele>155.1</ele>
        <time>2019-03-10T07:39:02Z</time>
      </trkpt>
      <trkpt lat="44.15525" lon="1.79009">
        <ele>156.5</ele>
        <time>2019-03-10T07:39:06Z</time>
      </trkpt>
      <trkpt lat="44.15514" lon="1.79021">
        <ele>157.8</ele>
        <time>2019-03-10T07:39:10Z</time>
      </trkpt>
      <trkpt lat="44.15507" lon="1.79031">
        <ele>159</ele>
        <time>2019-03-10T07:39:14Z</time>
      </trkpt>
      <trkpt lat="44.15506" lon="1.79039">
        <ele>160</ele>
        <time>2019-03-10T07:39:18Z</time>
      </trkpt>
      <trkpt lat="44.15495" lon="1.79049">
        <ele>161.2</ele>
        <time>2019-03-10T07:39:22Z</time>
      </trkpt>
      <trkpt lat="44.15493" lon="1.7906">
        <ele>162.1</ele>
        <time>2019-03-10T07:39:26Z</time>
      </trkpt>
      <trkpt lat="44.15486" lon="1.79066">
        <ele>163.2</ele>
        <time>2019-03-10T07:39:30Z</time>
      </trkpt>
      <trkpt lat="44.15476" lon="1.79079">
        <ele>164.4</ele>
        <time>2019-03-10T07:39:34Z</time>
      </trkpt>
      <trkpt lat="44.15475" lon="1.79086">
        <ele>165</ele>
        <time>2019-03-10T07:39:38Z</time>
      </trkpt>
      <trkpt lat="44.15464" lon="1.79092">
        <ele>165.8</ele>
        <time>2019-03-10T07:39:42Z</time>
      </trkpt>
      <trkpt lat="44.15453" lon="1.79102">
        <ele>167</ele>
        <time>2019-03-10T07:39:46Z</time>
      </trkpt>
      <trkpt lat="44.15447" lon="1.79109">
        <ele>168.3</ele>
        <time>2019-03-10T07:39:50Z</time>
      </trkpt>
      <trkpt lat="44.15445" lon="1.79119">
        <ele>169.3</ele>
        <time>2019-03-10T07:39:54Z</time>
      </trkpt>
      <trkpt lat="44.15438" lon="1.79126">
        <ele>170.4</ele>
        <time>2019-03-10T07:39:58Z</time>
      </trkpt>
      <trkpt lat="44.15428" lon="1.79131">
        <ele>171.6</ele>
        <time>2019-03-10T07:40:02Z</time>
      </trkpt>
      <trkpt lat="44.1542" lon="1.79136">
        <ele>172.8</ele>
        <time>2019-03-10T07:40:06Z</time>
      </trkpt>
      <trkpt lat="44.15408" lon="1.79148">
        <ele>173.8</ele>
        <time>2019-03-10T07:40:10Z</time>
      </trkpt>
      <trkpt lat="44.15405" lon="1.79155">
        <ele>174.6</ele>
        <time>2019-03-10T07:40:14Z</time>
      </trkpt>
      <trkpt lat="44.15403" lon="1.79167">
        <ele>176</ele>
        <time>2019-03-10T07:40:18Z</time>
      </trkpt>
      <trkpt lat="44.15398" lon="1.79177">
        <ele>177.5</ele>
        <time>2019-03-10T07:40:22Z</time>
      </trkpt>
      <trkpt lat="44.15394" lon="1.7919">
        <ele>178.8</ele>
        <time>2019-03-10T07:40:26Z</time>
      </trkpt>
      <trkpt lat="44.15386" lon="1.792">
        <ele>179.9</ele>
        <time>2019-03-10T07:40:30Z</time>
      </trkpt>
      <trkpt lat="44.15386" lon="1.79212">
        <ele>180.9</ele>
        <time>2019-03-10T07:40:34Z</time>
      </trkpt>
      <trkpt lat="44.15382" lon="1.79223">
        <ele>182.7</ele>
        <time>2019-03-10T07:40:38Z</time>
      </trkpt>
      <trkpt lat="44.15382" lon="1.79229">
        <ele>183.8</ele>
        <time>2019-03-10T07:40:42Z</time>
      </trkpt>
      <trkpt lat="44.15379" lon="1.79239">
        <ele>185.4</ele>
        <time>2019-03-10T07:40:46Z</time>
      </trkpt>
      <trkpt lat="44.15373" lon="1.79232">
        <ele>186.3</ele>
        <time>2019-03-10T07:40:50Z</time>
      </trkpt>
      <trkpt lat="44.15359" lon="1.79231">
        <ele>186.8</ele>
        <time>2019-03-10T07:40:54Z</time>
      </trkpt>
      <trkpt lat="44.1535" lon="1.79233">
        <ele>186.7</ele>
        <time>2019-03-10T07:40:58Z</time>
      </trkpt>
      <trkpt lat="44.15342" lon="1.79233">
        <ele>187</ele>
        <time>2019-03-10T07:41:02Z</time>
      </trkpt>
      <trkpt lat="44.15332" lon="1.79226">
        <ele>187.6</ele>
        <time>2019-03-10T07:41:06Z</time>
      </trkpt>
      <trkpt lat="44.15322" lon="1.79217">
        <ele>187.6</ele>
        <time>2019-03-10T07:41:10Z</time>
      </trkpt>
      <trkpt lat="44.15313" lon="1.79208">
        <ele>190.1</ele>
        <time>2019-03-10T07:41:14Z</time>
      </trkpt>
      <trkpt lat="44.15305" lon="1.79196">
        <ele>191.4</ele>
        <time>2019-03-10T07:41:18Z</time>
      </trkpt>
      <trkpt lat="44.15298" lon="1.79183">
        <ele>192.1</ele>
        <time>2019-03-10T07:41:22Z</time>
      </trkpt>
      <trkpt lat="44.15289" lon="1.79171">
        <ele>192.8</ele>
        <time>2019-03-10T07:41:26Z</time>
      </trkpt>
      <trkpt lat="44.15282" lon="1.79157">
        <ele>193.4</ele>
        <time>2019-03-10T07:41:30Z</time>
      </trkpt>
      <trkpt lat="44.15274" lon="1.79142">
        <ele>194.2</ele>
        <time>2019-03-10T07:41:34Z</time>
      </trkpt>
      <trkpt lat="44.15268" lon="1.79128">
        <ele>195</ele>
        <time>2019-03-10T07:41:38Z</time>
      </trkpt>
      <trkpt lat="44.15261" lon="1.79113">
        <ele>195</ele>
        <time>2019-03-10T07:41:42Z</time>
      </trkpt>
      <trkpt lat="44.15255" lon="1.79099">
        <ele>195.2</ele>
        <time>2019-03-10T07:41:46Z</time>
      </trkpt>
      <trkpt lat="44.15248" lon="1.79085">
        <ele>195.2</ele>
        <time>2019-03-10T07:41:50Z</time>
      </trkpt>
      <trkpt lat="44.15242" lon="1.79071">
        <ele>196.3</ele>
        <time>2019-03-10T07:41:54Z</time>
      </trkpt>
      <trkpt lat="44.15234" lon="1.79057">
        <ele>197</ele>
        <time>2019-03-10T07:41:58Z</time>
      </trkpt>
      <trkpt lat="44.15228" lon="1.79044">
        <ele>197</ele>
        <time>2019-03-10T07:42:02Z</time>
      </trkpt>
      <trkpt lat="44.15223" lon="1.79031">
        <ele>198.1</ele>
        <time>2019-03-10T07:42:06Z</time>
      </trkpt>
      <trkpt lat="44.15219" lon="1.79015">
        <ele>198.9</ele>
        <time>2019-03-10T07:42:10Z</time>
      </trkpt>
      <trkpt lat="44.15215" lon="1.79">
        <ele>199.7</ele>
        <time>2019-03-10T07:42:14Z</time>
      </trkpt>
      <trkpt lat="44.15212" lon="1.78986">
        <ele>200.3</ele>
        <time>2019-03-10T07:42:18Z</time>
      </trkpt>
      <trkpt lat="44.15207" lon="1.78977">
        <ele>201.2</ele>
        <time>2019-03-10T07:42:22Z</time>
      </trkpt>
      <trkpt lat="44.15198" lon="1.78972">
        <ele>201.4</ele>
        <time>2019-03-10T07:42:26Z</time>
      </trkpt>
      <trkpt lat="44.15195" lon="1.7897">
        <ele>202.5</ele>
        <time>2019-03-10T07:42:30Z</time>
      </trkpt>
      <trkpt lat="44.15188" lon="1.78969">
        <ele>203.8</ele>
        <time>2019-03-10T07:42:34Z</time>
      </trkpt>
      <trkpt lat="44.15186" lon="1.78961">
        <ele>204.5</ele>
        <time>2019-03-10T07:42:38Z</time>
      </trkpt>
      <trkpt lat="44.15184" lon="1.78961">
        <ele>204.6</ele>
        <time>2019-03-10T07:42:42Z</time>
      </trkpt>
      <trkpt lat="44.15188" lon="1.78958">
        <ele>204.7</ele>
        <time>2019-03-10T07:42:46Z</time>
      </trkpt>
      <trkpt lat="44.15191" lon="1.78958">
        <ele>204.4</ele>
        <time>2019-03-10T07:45:10Z</time>
      </trkpt>
      <trkpt lat="44.15186" lon="1.78965">
        <ele>204.4</ele>
        <time>2019-03-10T07:45:14Z</time>
      </trkpt>
      <trkpt lat="44.15181" lon="1.78972">
        <ele>204.7</ele>
        <time>2019-03-10T07:45:18Z</time>
      </trkpt>
      <trkpt lat="44.15176" lon="1.78979">
        <ele>205.3</ele>
        <time>2019-03-10T07:45:22Z</time>
      </trkpt>
      <trkpt lat="44.15172" lon="1.78989">
        <ele>206.2</ele>
        <time>2019-03-10T07:45:26Z</time>
      </trkpt>
      <trkpt lat="44.15165" lon="1.78995">
        <ele>207.2</ele>
        <time>2019-03-10T07:45:30Z</time>
      </trkpt>
      <trkpt lat="44.15161" lon="1.78998">
        <ele>209.9</ele>
        <time>2019-03-10T07:45:34Z</time>
      </trkpt>
      <trkpt lat="44.15161" lon="1.79">
        <ele>211.1</ele>
        <time>2019-03-10T07:45:38Z</time>
      </trkpt>
      <trkpt lat="44.15151" lon="1.79009">
        <ele>213.3</ele>
        <time>2019-03-10T07:45:42Z</time>
      </trkpt>
      <trkpt lat="44.15147" lon="1.79012">
        <ele>214.4</ele>
        <time>2019-03-10T07:45:46Z</time>
      </trkpt>
      <trkpt lat="44.15149" lon="1.79022">
        <ele>215.3</ele>
        <time>2019-03-10T07:45:50Z</time>
      </trkpt>
      <trkpt lat="44.15143" lon="1.79031">
        <ele>216.2</ele>
        <time>2019-03-10T07:45:54Z</time>
      </trkpt>
      <trkpt lat="44.15142" lon="1.79034">
        <ele>217.3</ele>
        <time>2019-03-10T07:45:58Z</time>
      </trkpt>
      <trkpt lat="44.15136" lon="1.79039">
        <ele>217.9</ele>
        <time>2019-03-10T07:46:02Z</time>
      </trkpt>
      <trkpt lat="44.1513" lon="1.79043">
        <ele>218.8</ele>
        <time>2019-03-10T07:46:06Z</time>
      </trkpt>
      <trkpt lat="44.15124" lon="1.79049">
        <ele>220</ele>
        <time>2019-03-10T07:46:10Z</time>
      </trkpt>
      <trkpt lat="44.15119" lon="1.79053">
        <ele>221.1</ele>
        <time>2019-03-10T07:46:14Z</time>
      </trkpt>
      <trkpt lat="44.15115" lon="1.79065">
        <ele>222.2</ele>
        <time>2019-03-10T07:46:18Z</time>
      </trkpt>
      <trkpt lat="44.15111" lon="1.7907">
        <ele>223.2</ele>
        <time>2019-03-10T07:46:22Z</time>
      </trkpt>
      <trkpt lat="44.15109" lon="1.79073">
        <ele>224.4</ele>
        <time>2019-03-10T07:46:26Z</time>
      </trkpt>
      <trkpt lat="44.15103" lon="1.79073">
        <ele>225.5</ele>
        <time>2019-03-10T07:46:30Z</time>
      </trkpt>
      <trkpt lat="44.15095" lon="1.79078">
        <ele>226.5</ele>
        <time>2019-03-10T07:46:34Z</time>
      </trkpt>
      <trkpt lat="44.15094" lon="1.79087">
        <ele>227.3</ele>
        <time>2019-03-10T07:46:38Z</time>
      </trkpt>
      <trkpt lat="44.15089" lon="1.79091">
        <ele>228.1</ele>
        <time>2019-03-10T07:46:42Z</time>
      </trkpt>
      <trkpt lat="44.15089" lon="1.79097">
        <ele>229.9</ele>
        <time>2019-03-10T07:46:46Z</time>
      </trkpt>
      <trkpt lat="44.15088" lon="1.79102">
        <ele>230.5</ele>
        <time>2019-03-10T07:46:50Z</time>
      </trkpt>
      <trkpt lat="44.15092" lon="1.79104">
        <ele>231.2</ele>
        <time>2019-03-10T07:46:54Z</time>
      </trkpt>
      <trkpt lat="44.15078" lon="1.79118">
        <ele>232.1</ele>
        <time>2019-03-10T07:47:02Z</time>
      </trkpt>
      <trkpt lat="44.15079" lon="1.79123">
        <ele>233</ele>
        <time>2019-03-10T07:47:06Z</time>
      </trkpt>
      <trkpt lat="44.1507" lon="1.7913">
        <ele>234.1</ele>
        <time>2019-03-10T07:47:10Z</time>
      </trkpt>
      <trkpt lat="44.15071" lon="1.79135">
        <ele>235.1</ele>
        <time>2019-03-10T07:47:14Z</time>
      </trkpt>
      <trkpt lat="44.15073" lon="1.7914">
        <ele>236</ele>
        <time>2019-03-10T07:47:18Z</time>
      </trkpt>
      <trkpt lat="44.1507" lon="1.79148">
        <ele>236.9</ele>
        <time>2019-03-10T07:47:22Z</time>
      </trkpt>
      <trkpt lat="44.15071" lon="1.79158">
        <ele>239.3</ele>
        <time>2019-03-10T07:47:26Z</time>
      </trkpt>
      <trkpt lat="44.15081" lon="1.79163">
        <ele>240.4</ele>
        <time>2019-03-10T07:47:30Z</time>
      </trkpt>
      <trkpt lat="44.15085" lon="1.79173">
        <ele>240.9</ele>
        <time>2019-03-10T07:47:34Z</time>
      </trkpt>
      <trkpt lat="44.15092" lon="1.79184">
        <ele>241.9</ele>
        <time>2019-03-10T07:47:38Z</time>
      </trkpt>
      <trkpt lat="44.15103" lon="1.79191">
        <ele>242.5</ele>
        <time>2019-03-10T07:47:42Z</time>
      </trkpt>
      <trkpt lat="44.15111" lon="1.79199">
        <ele>242.7</ele>
        <time>2019-03-10T07:47:46Z</time>
      </trkpt>
      <trkpt lat="44.15116" lon="1.79212">
        <ele>244.1</ele>
        <time>2019-03-10T07:47:50Z</time>
      </trkpt>
      <trkpt lat="44.15122" lon="1.79224">
        <ele>244.4</ele>
        <time>2019-03-10T07:47:54Z</time>
      </trkpt>
      <trkpt lat="44.15124" lon="1.79237">
        <ele>244.8</ele>
        <time>2019-03-10T07:47:58Z</time>
      </trkpt>
      <trkpt lat="44.15126" lon="1.79252">
        <ele>244.8</ele>
        <time>2019-03-10T07:48:02Z</time>
      </trkpt>
      <trkpt lat="44.15134" lon="1.79269">
        <ele>245</ele>
        <time>2019-03-10T07:48:06Z</time>
      </trkpt>
      <trkpt lat="44.15137" lon="1.79282">
        <ele>245</ele>
        <time>2019-03-10T07:48:10Z</time>
      </trkpt>
      <trkpt lat="44.15134" lon="1.79294">
        <ele>246.3</ele>
        <time>2019-03-10T07:48:14Z</time>
      </trkpt>
      <trkpt lat="44.15129" lon="1.79309">
        <ele>246.3</ele>
        <time>2019-03-10T07:48:18Z</time>
      </trkpt>
      <trkpt lat="44.15135" lon="1.79327">
        <ele>246.9</ele>
        <time>2019-03-10T07:48:22Z</time>
      </trkpt>
      <trkpt lat="44.15133" lon="1.79339">
        <ele>246.7</ele>
        <time>2019-03-10T07:48:26Z</time>
      </trkpt>
      <trkpt lat="44.15124" lon="1.79349">
        <ele>247.1</ele>
        <time>2019-03-10T07:48:30Z</time>
      </trkpt>
      <trkpt lat="44.15111" lon="1.79359">
        <ele>247.5</ele>
        <time>2019-03-10T07:48:34Z</time>
      </trkpt>
      <trkpt lat="44.15099" lon="1.79371">
        <ele>247.7</ele>
        <time>2019-03-10T07:48:38Z</time>
      </trkpt>
      <trkpt lat="44.15095" lon="1.79385">
        <ele>247.8</ele>
        <time>2019-03-10T07:48:42Z</time>
      </trkpt>
      <trkpt lat="44.1509" lon="1.79399">
        <ele>248.4</ele>
        <time>2019-03-10T07:48:46Z</time>
      </trkpt>
      <trkpt lat="44.15091" lon="1.79415">
        <ele>248.4</ele>
        <time>2019-03-10T07:48:50Z</time>
      </trkpt>
      <trkpt lat="44.15092" lon="1.79433">
        <ele>248.2</ele>
        <time>2019-03-10T07:48:54Z</time>
      </trkpt>
      <trkpt lat="44.15092" lon="1.79451">
        <ele>249.1</ele>
        <time>2019-03-10T07:48:58Z</time>
      </trkpt>
      <trkpt lat="44.15095" lon="1.79471">
        <ele>249.6</ele>
        <time>2019-03-10T07:49:02Z</time>
      </trkpt>
      <trkpt lat="44.15101" lon="1.79487">
        <ele>249.7</ele>
        <time>2019-03-10T07:49:06Z</time>
      </trkpt>
      <trkpt lat="44.15104" lon="1.79505">
        <ele>248.9</ele>
        <time>2019-03-10T07:49:10Z</time>
      </trkpt>
      <trkpt lat="44.15109" lon="1.79524">
        <ele>249.4</ele>
        <time>2019-03-10T07:49:14Z</time>
      </trkpt>
      <trkpt lat="44.15112" lon="1.79546">
        <ele>249.2</ele>
        <time>2019-03-10T07:49:18Z</time>
      </trkpt>
      <trkpt lat="44.1512" lon="1.79565">
        <ele>249.2</ele>
        <time>2019-03-10T07:49:22Z</time>
      </trkpt>
      <trkpt lat="44.15127" lon="1.79585">
        <ele>250.1</ele>
        <time>2019-03-10T07:49:26Z</time>
      </trkpt>
      <trkpt lat="44.15132" lon="1.79604">
        <ele>250.1</ele>
        <time>2019-03-10T07:49:30Z</time>
      </trkpt>
      <trkpt lat="44.15135" lon="1.79624">
        <ele>250.1</ele>
        <time>2019-03-10T07:49:34Z</time>
      </trkpt>
      <trkpt lat="44.15144" lon="1.7964">
        <ele>250.3</ele>
        <time>2019-03-10T07:49:38Z</time>
      </trkpt>
      <trkpt lat="44.15156" lon="1.79656">
        <ele>251</ele>
        <time>2019-03-10T07:49:42Z</time>
      </trkpt>
      <trkpt lat="44.15167" lon="1.79673">
        <ele>251.3</ele>
        <time>2019-03-10T07:49:46Z</time>
      </trkpt>
      <trkpt lat="44.15169" lon="1.79691">
        <ele>251.6</ele>
        <time>2019-03-10T07:49:50Z</time>
      </trkpt>
      <trkpt lat="44.1517" lon="1.79707">
        <ele>251.6</ele>
        <time>2019-03-10T07:49:54Z</time>
      </trkpt>
      <trkpt lat="44.15173" lon="1.79724">
        <ele>252.3</ele>
        <time>2019-03-10T07:49:58Z</time>
      </trkpt>
      <trkpt lat="44.15186" lon="1.79742">
        <ele>252.7</ele>
        <time>2019-03-10T07:50:02Z</time>
      </trkpt>
      <trkpt lat="44.15189" lon="1.79755">
        <ele>252.8</ele>
        <time>2019-03-10T07:50:06Z</time>
      </trkpt>
      <trkpt lat="44.15194" lon="1.79768">
        <ele>252.8</ele>
        <time>2019-03-10T07:50:10Z</time>
      </trkpt>
      <trkpt lat="44.152" lon="1.79785">
        <ele>253.3</ele>
        <time>2019-03-10T07:50:14Z</time>
      </trkpt>
      <trkpt lat="44.15202" lon="1.79797">
        <ele>253.9</ele>
        <time>2019-03-10T07:50:18Z</time>
      </trkpt>
      <trkpt lat="44.15206" lon="1.79809">
        <ele>254</ele>
        <time>2019-03-10T07:50:22Z</time>
      </trkpt>
      <trkpt lat="44.15224" lon="1.7982">
        <ele>255.3</ele>
        <time>2019-03-10T07:50:26Z</time>
      </trkpt>
      <trkpt lat="44.15236" lon="1.79833">
        <ele>256.5</ele>
        <time>2019-03-10T07:50:30Z</time>
      </trkpt>
      <trkpt lat="44.15246" lon="1.79847">
        <ele>256.8</ele>
        <time>2019-03-10T07:50:34Z</time>
      </trkpt>
      <trkpt lat="44.15256" lon="1.79859">
        <ele>257.5</ele>
        <time>2019-03-10T07:50:38Z</time>
      </trkpt>
      <trkpt lat="44.15266" lon="1.79873">
        <ele>258.1</ele>
        <time>2019-03-10T07:50:42Z</time>
      </trkpt>
      <trkpt lat="44.15281" lon="1.79881">
        <ele>258.4</ele>
        <time>2019-03-10T07:50:46Z</time>
      </trkpt>
      <trkpt lat="44.15293" lon="1.79885">
        <ele>258.1</ele>
        <time>2019-03-10T07:50:50Z</time>
      </trkpt>
      <trkpt lat="44.15303" lon="1.7989">
        <ele>259.2</ele>
        <time>2019-03-10T07:50:54Z</time>
      </trkpt>
      <trkpt lat="44.15314" lon="1.79891">
        <ele>261.3</ele>
        <time>2019-03-10T07:50:58Z</time>
      </trkpt>
      <trkpt lat="44.15322" lon="1.79897">
        <ele>262.6</ele>
        <time>2019-03-10T07:51:02Z</time>
      </trkpt>
      <trkpt lat="44.15332" lon="1.79901">
        <ele>263.5</ele>
        <time>2019-03-10T07:51:06Z</time>
      </trkpt>
      <trkpt lat="44.15338" lon="1.79907">
        <ele>264.4</ele>
        <time>2019-03-10T07:51:10Z</time>
      </trkpt>
      <trkpt lat="44.15346" lon="1.79915">
        <ele>265.5</ele>
        <time>2019-03-10T07:51:14Z</time>
      </trkpt>
      <trkpt lat="44.15355" lon="1.79918">
        <ele>267.2</ele>
        <time>2019-03-10T07:51:18Z</time>
      </trkpt>
      <trkpt lat="44.15363" lon="1.79925">
        <ele>268.6</ele>
        <time>2019-03-10T07:51:22Z</time>
      </trkpt>
      <trkpt lat="44.15374" lon="1.79936">
        <ele>269.7</ele>
        <time>2019-03-10T07:51:26Z</time>
      </trkpt>
      <trkpt lat="44.15385" lon="1.79944">
        <ele>270.2</ele>
        <time>2019-03-10T07:51:30Z</time>
      </trkpt>
      <trkpt lat="44.15395" lon="1.79955">
        <ele>270.4</ele>
        <time>2019-03-10T07:51:34Z</time>
      </trkpt>
      <trkpt lat="44.15403" lon="1.7997">
        <ele>270.7</ele>
        <time>2019-03-10T07:51:38Z</time>
      </trkpt>
      <trkpt lat="44.15413" lon="1.79983">
        <ele>270.1</ele>
        <time>2019-03-10T07:51:42Z</time>
      </trkpt>
      <trkpt lat="44.1543" lon="1.80002">
        <ele>270.1</ele>
        <time>2019-03-10T07:51:46Z</time>
      </trkpt>
      <trkpt lat="44.15447" lon="1.80027">
        <ele>268.3</ele>
        <time>2019-03-10T07:51:50Z</time>
      </trkpt>
      <trkpt lat="44.15462" lon="1.80056">
        <ele>267.5</ele>
        <time>2019-03-10T07:51:54Z</time>
      </trkpt>
      <trkpt lat="44.15473" lon="1.80087">
        <ele>266.6</ele>
        <time>2019-03-10T07:51:58Z</time>
      </trkpt>
      <trkpt lat="44.15477" lon="1.80119">
        <ele>265.9</ele>
        <time>2019-03-10T07:52:02Z</time>
      </trkpt>
      <trkpt lat="44.15477" lon="1.8014">
        <ele>267.2</ele>
        <time>2019-03-10T07:52:06Z</time>
      </trkpt>
      <trkpt lat="44.15472" lon="1.80154">
        <ele>269.5</ele>
        <time>2019-03-10T07:52:10Z</time>
      </trkpt>
      <trkpt lat="44.1547" lon="1.80166">
        <ele>271</ele>
        <time>2019-03-10T07:52:14Z</time>
      </trkpt>
      <trkpt lat="44.15469" lon="1.80179">
        <ele>272</ele>
        <time>2019-03-10T07:52:18Z</time>
      </trkpt>
      <trkpt lat="44.15463" lon="1.80192">
        <ele>274.7</ele>
        <time>2019-03-10T07:52:22Z</time>
      </trkpt>
      <trkpt lat="44.15458" lon="1.80208">
        <ele>276.2</ele>
        <time>2019-03-10T07:52:26Z</time>
      </trkpt>
      <trkpt lat="44.15452" lon="1.8022">
        <ele>277.4</ele>
        <time>2019-03-10T07:52:30Z</time>
      </trkpt>
      <trkpt lat="44.15452" lon="1.80234">
        <ele>278.8</ele>
        <time>2019-03-10T07:52:34Z</time>
      </trkpt>
      <trkpt lat="44.15451" lon="1.80246">
        <ele>280</ele>
        <time>2019-03-10T07:52:38Z</time>
      </trkpt>
      <trkpt lat="44.15443" lon="1.80261">
        <ele>281.2</ele>
        <time>2019-03-10T07:52:42Z</time>
      </trkpt>
      <trkpt lat="44.15443" lon="1.80276">
        <ele>282.3</ele>
        <time>2019-03-10T07:52:46Z</time>
      </trkpt>
      <trkpt lat="44.15441" lon="1.80292">
        <ele>283.3</ele>
        <time>2019-03-10T07:52:50Z</time>
      </trkpt>
      <trkpt lat="44.15435" lon="1.8031">
        <ele>284.5</ele>
        <time>2019-03-10T07:52:54Z</time>
      </trkpt>
      <trkpt lat="44.15437" lon="1.80329">
        <ele>285</ele>
        <time>2019-03-10T07:52:58Z</time>
      </trkpt>
      <trkpt lat="44.15437" lon="1.80348">
        <ele>285</ele>
        <time>2019-03-10T07:53:02Z</time>
      </trkpt>
      <trkpt lat="44.15443" lon="1.80379">
        <ele>283.7</ele>
        <time>2019-03-10T07:53:06Z</time>
      </trkpt>
      <trkpt lat="44.15449" lon="1.80419">
        <ele>282.6</ele>
        <time>2019-03-10T07:53:10Z</time>
      </trkpt>
      <trkpt lat="44.15453" lon="1.80454">
        <ele>282.3</ele>
        <time>2019-03-10T07:53:14Z</time>
      </trkpt>
      <trkpt lat="44.15455" lon="1.80488">
        <ele>281.5</ele>
        <time>2019-03-10T07:53:18Z</time>
      </trkpt>
      <trkpt lat="44.15466" lon="1.80522">
        <ele>282.4</ele>
        <time>2019-03-10T07:53:22Z</time>
      </trkpt>
      <trkpt lat="44.15475" lon="1.80552">
        <ele>282.4</ele>
        <time>2019-03-10T07:53:26Z</time>
      </trkpt>
      <trkpt lat="44.15488" lon="1.80581">
        <ele>282.3</ele>
        <time>2019-03-10T07:53:30Z</time>
      </trkpt>
      <trkpt lat="44.155" lon="1.80608">
        <ele>283.5</ele>
        <time>2019-03-10T07:53:34Z</time>
      </trkpt>
      <trkpt lat="44.15507" lon="1.80632">
        <ele>283.5</ele>
        <time>2019-03-10T07:53:38Z</time>
      </trkpt>
      <trkpt lat="44.15516" lon="1.80654">
        <ele>285.8</ele>
        <time>2019-03-10T07:53:42Z</time>
      </trkpt>
      <trkpt lat="44.15524" lon="1.80672">
        <ele>287.5</ele>
        <time>2019-03-10T07:53:46Z</time>
      </trkpt>
      <trkpt lat="44.15527" lon="1.80689">
        <ele>288.5</ele>
        <time>2019-03-10T07:53:50Z</time>
      </trkpt>
      <trkpt lat="44.15525" lon="1.80705">
        <ele>289.9</ele>
        <time>2019-03-10T07:53:54Z</time>
      </trkpt>
      <trkpt lat="44.15527" lon="1.80721">
        <ele>291.9</ele>
        <time>2019-03-10T07:53:58Z</time>
      </trkpt>
      <trkpt lat="44.15527" lon="1.80734">
        <ele>294</ele>
        <time>2019-03-10T07:54:02Z</time>
      </trkpt>
      <trkpt lat="44.15532" lon="1.80751">
        <ele>295.5</ele>
        <time>2019-03-10T07:54:06Z</time>
      </trkpt>
      <trkpt lat="44.15535" lon="1.80763">
        <ele>297.2</ele>
        <time>2019-03-10T07:54:10Z</time>
      </trkpt>
      <trkpt lat="44.15542" lon="1.80777">
        <ele>298.4</ele>
        <time>2019-03-10T07:54:14Z</time>
      </trkpt>
      <trkpt lat="44.15546" lon="1.80793">
        <ele>298.8</ele>
        <time>2019-03-10T07:54:18Z</time>
      </trkpt>
      <trkpt lat="44.15554" lon="1.80811">
        <ele>298.3</ele>
        <time>2019-03-10T07:54:22Z</time>
      </trkpt>
      <trkpt lat="44.15554" lon="1.80839">
        <ele>298.3</ele>
        <time>2019-03-10T07:54:26Z</time>
      </trkpt>
      <trkpt lat="44.1556" lon="1.80865">
        <ele>297.2</ele>
        <time>2019-03-10T07:54:30Z</time>
      </trkpt>
      <trkpt lat="44.15562" lon="1.80894">
        <ele>296.7</ele>
        <time>2019-03-10T07:54:34Z</time>
      </trkpt>
      <trkpt lat="44.15571" lon="1.8093">
        <ele>295.4</ele>
        <time>2019-03-10T07:54:38Z</time>
      </trkpt>
      <trkpt lat="44.15578" lon="1.80969">
        <ele>294.2</ele>
        <time>2019-03-10T07:54:42Z</time>
      </trkpt>
      <trkpt lat="44.15583" lon="1.81007">
        <ele>292.6</ele>
        <time>2019-03-10T07:54:46Z</time>
      </trkpt>
      <trkpt lat="44.15589" lon="1.81045">
        <ele>292.2</ele>
        <time>2019-03-10T07:54:50Z</time>
      </trkpt>
      <trkpt lat="44.15596" lon="1.81077">
        <ele>291.3</ele>
        <time>2019-03-10T07:54:54Z</time>
      </trkpt>
      <trkpt lat="44.15605" lon="1.8111">
        <ele>291</ele>
        <time>2019-03-10T07:54:58Z</time>
      </trkpt>
      <trkpt lat="44.15618" lon="1.81139">
        <ele>291</ele>
        <time>2019-03-10T07:55:02Z</time>
      </trkpt>
      <trkpt lat="44.15627" lon="1.81171">
        <ele>291.8</ele>
        <time>2019-03-10T07:55:06Z</time>
      </trkpt>
      <trkpt lat="44.15634" lon="1.81197">
        <ele>292.5</ele>
        <time>2019-03-10T07:55:10Z</time>
      </trkpt>
      <trkpt lat="44.15641" lon="1.81224">
        <ele>292.5</ele>
        <time>2019-03-10T07:55:14Z</time>
      </trkpt>
      <trkpt lat="44.15648" lon="1.8125">
        <ele>293.3</ele>
        <time>2019-03-10T07:55:18Z</time>
      </trkpt>
      <trkpt lat="44.1565" lon="1.81276">
        <ele>294</ele>
        <time>2019-03-10T07:55:22Z</time>
      </trkpt>
      <trkpt lat="44.15655" lon="1.81299">
        <ele>295.1</ele>
        <time>2019-03-10T07:55:26Z</time>
      </trkpt>
      <trkpt lat="44.15656" lon="1.81322">
        <ele>295.9</ele>
        <time>2019-03-10T07:55:30Z</time>
      </trkpt>
      <trkpt lat="44.15662" lon="1.81339">
        <ele>295.9</ele>
        <time>2019-03-10T07:55:34Z</time>
      </trkpt>
      <trkpt lat="44.15665" lon="1.81356">
        <ele>298.3</ele>
        <time>2019-03-10T07:55:38Z</time>
      </trkpt>
      <trkpt lat="44.15667" lon="1.81373">
        <ele>298.9</ele>
        <time>2019-03-10T07:55:42Z</time>
      </trkpt>
      <trkpt lat="44.15671" lon="1.81387">
        <ele>300.2</ele>
        <time>2019-03-10T07:55:46Z</time>
      </trkpt>
      <trkpt lat="44.15673" lon="1.81401">
        <ele>301</ele>
        <time>2019-03-10T07:55:50Z</time>
      </trkpt>
      <trkpt lat="44.1567" lon="1.81417">
        <ele>301.3</ele>
        <time>2019-03-10T07:55:54Z</time>
      </trkpt>
      <trkpt lat="44.15674" lon="1.81433">
        <ele>301.8</ele>
        <time>2019-03-10T07:55:58Z</time>
      </trkpt>
      <trkpt lat="44.15679" lon="1.81445">
        <ele>302.2</ele>
        <time>2019-03-10T07:56:02Z</time>
      </trkpt>
      <trkpt lat="44.15682" lon="1.81455">
        <ele>302.7</ele>
        <time>2019-03-10T07:56:06Z</time>
      </trkpt>
      <trkpt lat="44.15688" lon="1.81467">
        <ele>303.1</ele>
        <time>2019-03-10T07:56:10Z</time>
      </trkpt>
      <trkpt lat="44.15687" lon="1.81487">
        <ele>303.1</ele>
        <time>2019-03-10T07:56:14Z</time>
      </trkpt>
      <trkpt lat="44.15685" lon="1.81515">
        <ele>302.6</ele>
        <time>2019-03-10T07:56:18Z</time>
      </trkpt>
      <trkpt lat="44.15684" lon="1.81541">
        <ele>301.3</ele>
        <time>2019-03-10T07:56:22Z</time>
      </trkpt>
      <trkpt lat="44.15687" lon="1.81567">
        <ele>301.1</ele>
        <time>2019-03-10T07:56:26Z</time>
      </trkpt>
      <trkpt lat="44.15681" lon="1.81599">
        <ele>301.8</ele>
        <time>2019-03-10T07:56:30Z</time>
      </trkpt>
      <trkpt lat="44.15682" lon="1.81629">
        <ele>301.8</ele>
        <time>2019-03-10T07:56:34Z</time>
      </trkpt>
      <trkpt lat="44.15683" lon="1.81655">
        <ele>301.8</ele>
        <time>2019-03-10T07:56:38Z</time>
      </trkpt>
      <trkpt lat="44.1568" lon="1.81676">
        <ele>303.1</ele>
        <time>2019-03-10T07:56:42Z</time>
      </trkpt>
      <trkpt lat="44.15677" lon="1.81697">
        <ele>304</ele>
        <time>2019-03-10T07:56:46Z</time>
      </trkpt>
      <trkpt lat="44.15684" lon="1.81714">
        <ele>304.7</ele>
        <time>2019-03-10T07:56:50Z</time>
      </trkpt>
      <trkpt lat="44.15679" lon="1.81736">
        <ele>305.7</ele>
        <time>2019-03-10T07:56:54Z</time>
      </trkpt>
      <trkpt lat="44.1568" lon="1.81754">
        <ele>306.7</ele>
        <time>2019-03-10T07:56:58Z</time>
      </trkpt>
      <trkpt lat="44.15677" lon="1.81773">
        <ele>307.7</ele>
        <time>2019-03-10T07:57:02Z</time>
      </trkpt>
      <trkpt lat="44.15675" lon="1.81788">
        <ele>308.5</ele>
        <time>2019-03-10T07:57:06Z</time>
      </trkpt>
      <trkpt lat="44.1567" lon="1.81805">
        <ele>308.9</ele>
        <time>2019-03-10T07:57:10Z</time>
      </trkpt>
      <trkpt lat="44.15672" lon="1.81826">
        <ele>309.9</ele>
        <time>2019-03-10T07:57:14Z</time>
      </trkpt>
      <trkpt lat="44.15671" lon="1.81844">
        <ele>310.9</ele>
        <time>2019-03-10T07:57:18Z</time>
      </trkpt>
      <trkpt lat="44.15674" lon="1.8186">
        <ele>310.9</ele>
        <time>2019-03-10T07:57:22Z</time>
      </trkpt>
      <trkpt lat="44.15672" lon="1.81875">
        <ele>311.9</ele>
        <time>2019-03-10T07:57:26Z</time>
      </trkpt>
      <trkpt lat="44.15665" lon="1.81892">
        <ele>312.5</ele>
        <time>2019-03-10T07:57:30Z</time>
      </trkpt>
      <trkpt lat="44.15663" lon="1.81903">
        <ele>313.1</ele>
        <time>2019-03-10T07:57:34Z</time>
      </trkpt>
      <trkpt lat="44.15664" lon="1.81915">
        <ele>313.8</ele>
        <time>2019-03-10T07:57:38Z</time>
      </trkpt>
      <trkpt lat="44.15662" lon="1.81931">
        <ele>314.6</ele>
        <time>2019-03-10T07:57:42Z</time>
      </trkpt>
      <trkpt lat="44.15658" lon="1.81952">
        <ele>315.2</ele>
        <time>2019-03-10T07:57:46Z</time>
      </trkpt>
      <trkpt lat="44.15657" lon="1.81962">
        <ele>316.1</ele>
        <time>2019-03-10T07:57:50Z</time>
      </trkpt>
      <trkpt lat="44.15657" lon="1.81981">
        <ele>316.8</ele>
        <time>2019-03-10T07:57:54Z</time>
      </trkpt>
      <trkpt lat="44.15649" lon="1.81993">
        <ele>317.4</ele>
        <time>2019-03-10T07:57:58Z</time>
      </trkpt>
      <trkpt lat="44.15645" lon="1.82003">
        <ele>317.6</ele>
        <time>2019-03-10T07:58:02Z</time>
      </trkpt>
      <trkpt lat="44.15635" lon="1.82018">
        <ele>318.4</ele>
        <time>2019-03-10T07:58:06Z</time>
      </trkpt>
      <trkpt lat="44.15629" lon="1.82038">
        <ele>318.7</ele>
        <time>2019-03-10T07:58:10Z</time>
      </trkpt>
      <trkpt lat="44.15619" lon="1.82053">
        <ele>318.7</ele>
        <time>2019-03-10T07:58:14Z</time>
      </trkpt>
      <trkpt lat="44.15626" lon="1.82067">
        <ele>319.2</ele>
        <time>2019-03-10T07:58:18Z</time>
      </trkpt>
      <trkpt lat="44.15632" lon="1.82085">
        <ele>319.3</ele>
        <time>2019-03-10T07:58:22Z</time>
      </trkpt>
      <trkpt lat="44.15632" lon="1.82107">
        <ele>319.3</ele>
        <time>2019-03-10T07:58:26Z</time>
      </trkpt>
      <trkpt lat="44.15638" lon="1.8213">
        <ele>319.2</ele>
        <time>2019-03-10T07:58:30Z</time>
      </trkpt>
      <trkpt lat="44.15648" lon="1.82148">
        <ele>319.2</ele>
        <time>2019-03-10T07:58:34Z</time>
      </trkpt>
      <trkpt lat="44.15656" lon="1.82168">
        <ele>319.8</ele>
        <time>2019-03-10T07:58:38Z</time>
      </trkpt>
      <trkpt lat="44.15654" lon="1.82192">
        <ele>320.9</ele>
        <time>2019-03-10T07:58:42Z</time>
      </trkpt>
      <trkpt lat="44.15666" lon="1.8221">
        <ele>321.1</ele>
        <time>2019-03-10T07:58:46Z</time>
      </trkpt>
      <trkpt lat="44.15678" lon="1.82229">
        <ele>321.3</ele>
        <time>2019-03-10T07:58:50Z</time>
      </trkpt>
      <trkpt lat="44.15686" lon="1.82247">
        <ele>321.6</ele>
        <time>2019-03-10T07:58:54Z</time>
      </trkpt>
      <trkpt lat="44.15697" lon="1.82261">
        <ele>322.2</ele>
        <time>2019-03-10T07:58:58Z</time>
      </trkpt>
      <trkpt lat="44.157" lon="1.82276">
        <ele>322.4</ele>
        <time>2019-03-10T07:59:02Z</time>
      </trkpt>
      <trkpt lat="44.15711" lon="1.82287">
        <ele>322.4</ele>
        <time>2019-03-10T07:59:06Z</time>
      </trkpt>
      <trkpt lat="44.15721" lon="1.82304">
        <ele>323.4</ele>
        <time>2019-03-10T07:59:10Z</time>
      </trkpt>
      <trkpt lat="44.15728" lon="1.8232">
        <ele>324.2</ele>
        <time>2019-03-10T07:59:14Z</time>
      </trkpt>
      <trkpt lat="44.15729" lon="1.8234">
        <ele>324.4</ele>
        <time>2019-03-10T07:59:18Z</time>
      </trkpt>
      <trkpt lat="44.15729" lon="1.82366">
        <ele>323</ele>
        <time>2019-03-10T07:59:22Z</time>
      </trkpt>
      <trkpt lat="44.1572" lon="1.82394">
        <ele>322</ele>
        <time>2019-03-10T07:59:26Z</time>
      </trkpt>
      <trkpt lat="44.15714" lon="1.82427">
        <ele>320.4</ele>
        <time>2019-03-10T07:59:30Z</time>
      </trkpt>
      <trkpt lat="44.15709" lon="1.82459">
        <ele>318.9</ele>
        <time>2019-03-10T07:59:34Z</time>
      </trkpt>
      <trkpt lat="44.15698" lon="1.825">
        <ele>317.2</ele>
        <time>2019-03-10T07:59:38Z</time>
      </trkpt>
      <trkpt lat="44.15703" lon="1.82543">
        <ele>315.7</ele>
        <time>2019-03-10T07:59:42Z</time>
      </trkpt>
      <trkpt lat="44.15705" lon="1.82594">
        <ele>314</ele>
        <time>2019-03-10T07:59:46Z</time>
      </trkpt>
      <trkpt lat="44.15711" lon="1.82641">
        <ele>312.1</ele>
        <time>2019-03-10T07:59:50Z</time>
      </trkpt>
      <trkpt lat="44.15706" lon="1.82693">
        <ele>309.8</ele>
        <time>2019-03-10T07:59:54Z</time>
      </trkpt>
      <trkpt lat="44.15708" lon="1.82743">
        <ele>308.6</ele>
        <time>2019-03-10T07:59:58Z</time>
      </trkpt>
      <trkpt lat="44.1569" lon="1.8279">
        <ele>306.3</ele>
        <time>2019-03-10T08:00:02Z</time>
      </trkpt>
      <trkpt lat="44.15665" lon="1.82836">
        <ele>304.7</ele>
        <time>2019-03-10T08:00:06Z</time>
      </trkpt>
      <trkpt lat="44.15644" lon="1.82873">
        <ele>303.2</ele>
        <time>2019-03-10T08:00:10Z</time>
      </trkpt>
      <trkpt lat="44.1562" lon="1.82904">
        <ele>301.6</ele>
        <time>2019-03-10T08:00:14Z</time>
      </trkpt>
      <trkpt lat="44.15592" lon="1.82932">
        <ele>300.8</ele>
        <time>2019-03-10T08:00:18Z</time>
      </trkpt>
      <trkpt lat="44.15566" lon="1.82951">
        <ele>299</ele>
        <time>2019-03-10T08:00:22Z</time>
      </trkpt>
      <trkpt lat="44.15552" lon="1.82963">
        <ele>297.6</ele>
        <time>2019-03-10T08:00:26Z</time>
      </trkpt>
      <trkpt lat="44.15536" lon="1.82975">
        <ele>296.7</ele>
        <time>2019-03-10T08:00:30Z</time>
      </trkpt>
      <trkpt lat="44.15532" lon="1.82976">
        <ele>296.5</ele>
        <time>2019-03-10T08:00:34Z</time>
      </trkpt>
      <trkpt lat="44.15533" lon="1.82973">
        <ele>297</ele>
        <time>2019-03-10T08:00:38Z</time>
      </trkpt>
      <trkpt lat="44.1553" lon="1.82975">
        <ele>296.7</ele>
        <time>2019-03-10T08:00:42Z</time>
      </trkpt>
      <trkpt lat="44.15537" lon="1.82972">
        <ele>296.7</ele>
        <time>2019-03-10T08:00:46Z</time>
      </trkpt>
      <trkpt lat="44.15546" lon="1.82967">
        <ele>296.9</ele>
        <time>2019-03-10T08:00:50Z</time>
      </trkpt>
      <trkpt lat="44.15558" lon="1.82958">
        <ele>297.4</ele>
        <time>2019-03-10T08:00:54Z</time>
      </trkpt>
      <trkpt lat="44.15572" lon="1.82945">
        <ele>297.4</ele>
        <time>2019-03-10T08:00:58Z</time>
      </trkpt>
      <trkpt lat="44.15582" lon="1.82939">
        <ele>297.4</ele>
        <time>2019-03-10T08:01:02Z</time>
      </trkpt>
      <trkpt lat="44.15598" lon="1.82923">
        <ele>297.8</ele>
        <time>2019-03-10T08:01:06Z</time>
      </trkpt>
      <trkpt lat="44.15617" lon="1.8291">
        <ele>297.8</ele>
        <time>2019-03-10T08:01:10Z</time>
      </trkpt>
      <trkpt lat="44.15625" lon="1.82901">
        <ele>299.2</ele>
        <time>2019-03-10T08:01:14Z</time>
      </trkpt>
      <trkpt lat="44.15633" lon="1.82887">
        <ele>299.6</ele>
        <time>2019-03-10T08:01:18Z</time>
      </trkpt>
      <trkpt lat="44.15643" lon="1.8287">
        <ele>300.2</ele>
        <time>2019-03-10T08:01:22Z</time>
      </trkpt>
      <trkpt lat="44.15651" lon="1.8286">
        <ele>301</ele>
        <time>2019-03-10T08:01:26Z</time>
      </trkpt>
      <trkpt lat="44.15657" lon="1.82846">
        <ele>301.5</ele>
        <time>2019-03-10T08:01:30Z</time>
      </trkpt>
      <trkpt lat="44.15666" lon="1.82829">
        <ele>302.3</ele>
        <time>2019-03-10T08:01:34Z</time>
      </trkpt>
      <trkpt lat="44.15669" lon="1.82811">
        <ele>302.7</ele>
        <time>2019-03-10T08:01:38Z</time>
      </trkpt>
      <trkpt lat="44.15675" lon="1.82796">
        <ele>302.7</ele>
        <time>2019-03-10T08:01:42Z</time>
      </trkpt>
      <trkpt lat="44.15686" lon="1.82778">
        <ele>303.4</ele>
        <time>2019-03-10T08:01:46Z</time>
      </trkpt>
      <trkpt lat="44.15698" lon="1.82757">
        <ele>304</ele>
        <time>2019-03-10T08:01:50Z</time>
      </trkpt>
      <trkpt lat="44.15701" lon="1.82741">
        <ele>305</ele>
        <time>2019-03-10T08:01:54Z</time>
      </trkpt>
      <trkpt lat="44.15703" lon="1.82722">
        <ele>305.3</ele>
        <time>2019-03-10T08:01:58Z</time>
      </trkpt>
      <trkpt lat="44.15704" lon="1.827">
        <ele>306.7</ele>
        <time>2019-03-10T08:02:02Z</time>
      </trkpt>
      <trkpt lat="44.1571" lon="1.82676">
        <ele>307.6</ele>
        <time>2019-03-10T08:02:06Z</time>
      </trkpt>
      <trkpt lat="44.1571" lon="1.82657">
        <ele>308.7</ele>
        <time>2019-03-10T08:02:10Z</time>
      </trkpt>
      <trkpt lat="44.15715" lon="1.82632">
        <ele>309.5</ele>
        <time>2019-03-10T08:02:14Z</time>
      </trkpt>
      <trkpt lat="44.15717" lon="1.82613">
        <ele>310.2</ele>
        <time>2019-03-10T08:02:18Z</time>
      </trkpt>
      <trkpt lat="44.15719" lon="1.82595">
        <ele>311.3</ele>
        <time>2019-03-10T08:02:22Z</time>
      </trkpt>
      <trkpt lat="44.15712" lon="1.82573">
        <ele>312.1</ele>
        <time>2019-03-10T08:02:26Z</time>
      </trkpt>
      <trkpt lat="44.15714" lon="1.82552">
        <ele>312.5</ele>
        <time>2019-03-10T08:02:30Z</time>
      </trkpt>
      <trkpt lat="44.15711" lon="1.82532">
        <ele>313.6</ele>
        <time>2019-03-10T08:02:34Z</time>
      </trkpt>
      <trkpt lat="44.15712" lon="1.82514">
        <ele>314.3</ele>
        <time>2019-03-10T08:02:38Z</time>
      </trkpt>
      <trkpt lat="44.15709" lon="1.82497">
        <ele>315</ele>
        <time>2019-03-10T08:02:42Z</time>
      </trkpt>
      <trkpt lat="44.15716" lon="1.82474">
        <ele>316</ele>
        <time>2019-03-10T08:02:46Z</time>
      </trkpt>
      <trkpt lat="44.15714" lon="1.8246">
        <ele>316.6</ele>
        <time>2019-03-10T08:02:50Z</time>
      </trkpt>
      <trkpt lat="44.15715" lon="1.82442">
        <ele>317.3</ele>
        <time>2019-03-10T08:02:54Z</time>
      </trkpt>
      <trkpt lat="44.15713" lon="1.82425">
        <ele>318.1</ele>
        <time>2019-03-10T08:02:58Z</time>
      </trkpt>
      <trkpt lat="44.15718" lon="1.82406">
        <ele>319.1</ele>
        <time>2019-03-10T08:03:02Z</time>
      </trkpt>
      <trkpt lat="44.15718" lon="1.82393">
        <ele>320.1</ele>
        <time>2019-03-10T08:03:06Z</time>
      </trkpt>
      <trkpt lat="44.1572" lon="1.82378">
        <ele>321</ele>
        <time>2019-03-10T08:03:10Z</time>
      </trkpt>
      <trkpt lat="44.15718" lon="1.82364">
        <ele>321.7</ele>
        <time>2019-03-10T08:03:14Z</time>
      </trkpt>
      <trkpt lat="44.15718" lon="1.82347">
        <ele>322.5</ele>
        <time>2019-03-10T08:03:18Z</time>
      </trkpt>
      <trkpt lat="44.15724" lon="1.82333">
        <ele>323.7</ele>
        <time>2019-03-10T08:03:22Z</time>
      </trkpt>
      <trkpt lat="44.15727" lon="1.82321">
        <ele>324.6</ele>
        <time>2019-03-10T08:03:26Z</time>
      </trkpt>
      <trkpt lat="44.1574" lon="1.82312">
        <ele>324.6</ele>
        <time>2019-03-10T08:03:30Z</time>
      </trkpt>
      <trkpt lat="44.15748" lon="1.8231">
        <ele>326.2</ele>
        <time>2019-03-10T08:03:34Z</time>
      </trkpt>
      <trkpt lat="44.15752" lon="1.82314">
        <ele>326.5</ele>
        <time>2019-03-10T08:03:38Z</time>
      </trkpt>
      <trkpt lat="44.1575" lon="1.82324">
        <ele>326.5</ele>
        <time>2019-03-10T08:03:42Z</time>
      </trkpt>
      <trkpt lat="44.15754" lon="1.82337">
        <ele>327.5</ele>
        <time>2019-03-10T08:03:46Z</time>
      </trkpt>
      <trkpt lat="44.15757" lon="1.82353">
        <ele>328.3</ele>
        <time>2019-03-10T08:03:50Z</time>
      </trkpt>
      <trkpt lat="44.15764" lon="1.82364">
        <ele>329.6</ele>
        <time>2019-03-10T08:03:54Z</time>
      </trkpt>
      <trkpt lat="44.15767" lon="1.82372">
        <ele>329.6</ele>
        <time>2019-03-10T08:03:58Z</time>
      </trkpt>
      <trkpt lat="44.15768" lon="1.82387">
        <ele>330.6</ele>
        <time>2019-03-10T08:04:02Z</time>
      </trkpt>
      <trkpt lat="44.15766" lon="1.82396">
        <ele>331.2</ele>
        <time>2019-03-10T08:04:06Z</time>
      </trkpt>
      <trkpt lat="44.15763" lon="1.82408">
        <ele>331.7</ele>
        <time>2019-03-10T08:04:10Z</time>
      </trkpt>
      <trkpt lat="44.15766" lon="1.82418">
        <ele>332.7</ele>
        <time>2019-03-10T08:04:14Z</time>
      </trkpt>
      <trkpt lat="44.15769" lon="1.82429">
        <ele>332.7</ele>
        <time>2019-03-10T08:04:18Z</time>
      </trkpt>
      <trkpt lat="44.15775" lon="1.82436">
        <ele>333.5</ele>
        <time>2019-03-10T08:04:22Z</time>
      </trkpt>
      <trkpt lat="44.15778" lon="1.8245">
        <ele>333.9</ele>
        <time>2019-03-10T08:04:26Z</time>
      </trkpt>
      <trkpt lat="44.15783" lon="1.82462">
        <ele>334.9</ele>
        <time>2019-03-10T08:04:30Z</time>
      </trkpt>
      <trkpt lat="44.15775" lon="1.82473">
        <ele>335.5</ele>
        <time>2019-03-10T08:04:34Z</time>
      </trkpt>
      <trkpt lat="44.15771" lon="1.82488">
        <ele>336</ele>
        <time>2019-03-10T08:04:38Z</time>
      </trkpt>
      <trkpt lat="44.15768" lon="1.82507">
        <ele>336.6</ele>
        <time>2019-03-10T08:04:42Z</time>
      </trkpt>
      <trkpt lat="44.15766" lon="1.82519">
        <ele>337.6</ele>
        <time>2019-03-10T08:04:46Z</time>
      </trkpt>
      <trkpt lat="44.15765" lon="1.8253">
        <ele>338</ele>
        <time>2019-03-10T08:04:50Z</time>
      </trkpt>
      <trkpt lat="44.15769" lon="1.82542">
        <ele>339.3</ele>
        <time>2019-03-10T08:04:54Z</time>
      </trkpt>
      <trkpt lat="44.15774" lon="1.82551">
        <ele>339.4</ele>
        <time>2019-03-10T08:04:58Z</time>
      </trkpt>
      <trkpt lat="44.15773" lon="1.82561">
        <ele>339.1</ele>
        <time>2019-03-10T08:05:02Z</time>
      </trkpt>
      <trkpt lat="44.15771" lon="1.82571">
        <ele>340.4</ele>
        <time>2019-03-10T08:05:06Z</time>
      </trkpt>
      <trkpt lat="44.15775" lon="1.82588">
        <ele>340</ele>
        <time>2019-03-10T08:05:10Z</time>
      </trkpt>
      <trkpt lat="44.15771" lon="1.82603">
        <ele>340.4</ele>
        <time>2019-03-10T08:05:14Z</time>
      </trkpt>
      <trkpt lat="44.15774" lon="1.8262">
        <ele>341.4</ele>
        <time>2019-03-10T08:05:18Z</time>
      </trkpt>
      <trkpt lat="44.15772" lon="1.82641">
        <ele>341.7</ele>
        <time>2019-03-10T08:05:22Z</time>
      </trkpt>
      <trkpt lat="44.15769" lon="1.82664">
        <ele>342.3</ele>
        <time>2019-03-10T08:05:26Z</time>
      </trkpt>
      <trkpt lat="44.15771" lon="1.82684">
        <ele>341.7</ele>
        <time>2019-03-10T08:05:30Z</time>
      </trkpt>
      <trkpt lat="44.15784" lon="1.82697">
        <ele>341.9</ele>
        <time>2019-03-10T08:05:34Z</time>
      </trkpt>
      <trkpt lat="44.15799" lon="1.8271">
        <ele>341.5</ele>
        <time>2019-03-10T08:05:38Z</time>
      </trkpt>
      <trkpt lat="44.15805" lon="1.82731">
        <ele>341.5</ele>
        <time>2019-03-10T08:05:42Z</time>
      </trkpt>
      <trkpt lat="44.15805" lon="1.82755">
        <ele>340.3</ele>
        <time>2019-03-10T08:05:46Z</time>
      </trkpt>
      <trkpt lat="44.15795" lon="1.82782">
        <ele>340.5</ele>
        <time>2019-03-10T08:05:50Z</time>
      </trkpt>
      <trkpt lat="44.15793" lon="1.82802">
        <ele>340.8</ele>
        <time>2019-03-10T08:05:54Z</time>
      </trkpt>
      <trkpt lat="44.15788" lon="1.82827">
        <ele>340.5</ele>
        <time>2019-03-10T08:05:58Z</time>
      </trkpt>
      <trkpt lat="44.15788" lon="1.82849">
        <ele>340.2</ele>
        <time>2019-03-10T08:06:02Z</time>
      </trkpt>
      <trkpt lat="44.15787" lon="1.82869">
        <ele>340.2</ele>
        <time>2019-03-10T08:06:06Z</time>
      </trkpt>
      <trkpt lat="44.1578" lon="1.8289">
        <ele>339.6</ele>
        <time>2019-03-10T08:06:10Z</time>
      </trkpt>
      <trkpt lat="44.15771" lon="1.82904">
        <ele>339.7</ele>
        <time>2019-03-10T08:06:14Z</time>
      </trkpt>
      <trkpt lat="44.15769" lon="1.82915">
        <ele>340.5</ele>
        <time>2019-03-10T08:06:18Z</time>
      </trkpt>
      <trkpt lat="44.15761" lon="1.82932">
        <ele>340.7</ele>
        <time>2019-03-10T08:06:22Z</time>
      </trkpt>
      <trkpt lat="44.15758" lon="1.82946">
        <ele>340.7</ele>
        <time>2019-03-10T08:06:26Z</time>
      </trkpt>
      <trkpt lat="44.15755" lon="1.82971">
        <ele>341.3</ele>
        <time>2019-03-10T08:06:30Z</time>
      </trkpt>
      <trkpt lat="44.15753" lon="1.82999">
        <ele>340</ele>
        <time>2019-03-10T08:06:34Z</time>
      </trkpt>
      <trkpt lat="44.15756" lon="1.83029">
        <ele>338.9</ele>
        <time>2019-03-10T08:06:38Z</time>
      </trkpt>
      <trkpt lat="44.15764" lon="1.83056">
        <ele>336.2</ele>
        <time>2019-03-10T08:06:42Z</time>
      </trkpt>
      <trkpt lat="44.15766" lon="1.83083">
        <ele>333.3</ele>
        <time>2019-03-10T08:06:46Z</time>
      </trkpt>
      <trkpt lat="44.1577" lon="1.83115">
        <ele>331.4</ele>
        <time>2019-03-10T08:06:50Z</time>
      </trkpt>
      <trkpt lat="44.15782" lon="1.83157">
        <ele>328.1</ele>
        <time>2019-03-10T08:06:54Z</time>
      </trkpt>
      <trkpt lat="44.15771" lon="1.83181">
        <ele>327</ele>
        <time>2019-03-10T08:06:58Z</time>
      </trkpt>
      <trkpt lat="44.15779" lon="1.83204">
        <ele>327.3</ele>
        <time>2019-03-10T08:07:02Z</time>
      </trkpt>
      <trkpt lat="44.15792" lon="1.83229">
        <ele>327.8</ele>
        <time>2019-03-10T08:07:06Z</time>
      </trkpt>
      <trkpt lat="44.15783" lon="1.83261">
        <ele>326.8</ele>
        <time>2019-03-10T08:07:10Z</time>
      </trkpt>
      <trkpt lat="44.15785" lon="1.83285">
        <ele>326.6</ele>
        <time>2019-03-10T08:07:14Z</time>
      </trkpt>
      <trkpt lat="44.15785" lon="1.83306">
        <ele>326.7</ele>
        <time>2019-03-10T08:07:18Z</time>
      </trkpt>
      <trkpt lat="44.15791" lon="1.83327">
        <ele>327.5</ele>
        <time>2019-03-10T08:07:22Z</time>
      </trkpt>
      <trkpt lat="44.15796" lon="1.83359">
        <ele>328.3</ele>
        <time>2019-03-10T08:07:26Z</time>
      </trkpt>
      <trkpt lat="44.15795" lon="1.83386">
        <ele>329.1</ele>
        <time>2019-03-10T08:07:30Z</time>
      </trkpt>
      <trkpt lat="44.15801" lon="1.83413">
        <ele>330</ele>
        <time>2019-03-10T08:07:34Z</time>
      </trkpt>
      <trkpt lat="44.15802" lon="1.83436">
        <ele>330</ele>
        <time>2019-03-10T08:07:38Z</time>
      </trkpt>
      <trkpt lat="44.15807" lon="1.83456">
        <ele>329.1</ele>
        <time>2019-03-10T08:07:42Z</time>
      </trkpt>
      <trkpt lat="44.15809" lon="1.83483">
        <ele>329.1</ele>
        <time>2019-03-10T08:07:46Z</time>
      </trkpt>
      <trkpt lat="44.15813" lon="1.83504">
        <ele>328.6</ele>
        <time>2019-03-10T08:07:50Z</time>
      </trkpt>
      <trkpt lat="44.15813" lon="1.83526">
        <ele>328.6</ele>
        <time>2019-03-10T08:07:54Z</time>
      </trkpt>
      <trkpt lat="44.15811" lon="1.8355">
        <ele>329.4</ele>
        <time>2019-03-10T08:07:58Z</time>
      </trkpt>
      <trkpt lat="44.1581" lon="1.83579">
        <ele>329</ele>
        <time>2019-03-10T08:08:02Z</time>
      </trkpt>
      <trkpt lat="44.15823" lon="1.83604">
        <ele>328.9</ele>
        <time>2019-03-10T08:08:06Z</time>
      </trkpt>
      <trkpt lat="44.15827" lon="1.83618">
        <ele>329.9</ele>
        <time>2019-03-10T08:08:10Z</time>
      </trkpt>
      <trkpt lat="44.15827" lon="1.83636">
        <ele>330.5</ele>
        <time>2019-03-10T08:08:14Z</time>
      </trkpt>
      <trkpt lat="44.15818" lon="1.83653">
        <ele>330.9</ele>
        <time>2019-03-10T08:08:18Z</time>
      </trkpt>
      <trkpt lat="44.1582" lon="1.8367">
        <ele>330.8</ele>
        <time>2019-03-10T08:08:22Z</time>
      </trkpt>
      <trkpt lat="44.15815" lon="1.83694">
        <ele>330.8</ele>
        <time>2019-03-10T08:08:26Z</time>
      </trkpt>
      <trkpt lat="44.15817" lon="1.8373">
        <ele>329.5</ele>
        <time>2019-03-10T08:08:30Z</time>
      </trkpt>
      <trkpt lat="44.15827" lon="1.83762">
        <ele>326.6</ele>
        <time>2019-03-10T08:08:34Z</time>
      </trkpt>
      <trkpt lat="44.15846" lon="1.83808">
        <ele>320.3</ele>
        <time>2019-03-10T08:08:38Z</time>
      </trkpt>
      <trkpt lat="44.15847" lon="1.83852">
        <ele>316.1</ele>
        <time>2019-03-10T08:08:42Z</time>
      </trkpt>
      <trkpt lat="44.15862" lon="1.83871">
        <ele>313.8</ele>
        <time>2019-03-10T08:08:46Z</time>
      </trkpt>
      <trkpt lat="44.15884" lon="1.83895">
        <ele>311</ele>
        <time>2019-03-10T08:08:50Z</time>
      </trkpt>
      <trkpt lat="44.15916" lon="1.83926">
        <ele>308.2</ele>
        <time>2019-03-10T08:08:54Z</time>
      </trkpt>
      <trkpt lat="44.15939" lon="1.83955">
        <ele>307.4</ele>
        <time>2019-03-10T08:08:58Z</time>
      </trkpt>
      <trkpt lat="44.15962" lon="1.83974">
        <ele>304.3</ele>
        <time>2019-03-10T08:09:02Z</time>
      </trkpt>
      <trkpt lat="44.15998" lon="1.83982">
        <ele>301.1</ele>
        <time>2019-03-10T08:09:06Z</time>
      </trkpt>
      <trkpt lat="44.16028" lon="1.83984">
        <ele>300</ele>
        <time>2019-03-10T08:09:10Z</time>
      </trkpt>
      <trkpt lat="44.16043" lon="1.83996">
        <ele>300</ele>
        <time>2019-03-10T08:09:14Z</time>
      </trkpt>
      <trkpt lat="44.16045" lon="1.84009">
        <ele>302.2</ele>
        <time>2019-03-10T08:09:18Z</time>
      </trkpt>
      <trkpt lat="44.16048" lon="1.84018">
        <ele>303.3</ele>
        <time>2019-03-10T08:09:22Z</time>
      </trkpt>
      <trkpt lat="44.1606" lon="1.84024">
        <ele>304.6</ele>
        <time>2019-03-10T08:09:26Z</time>
      </trkpt>
      <trkpt lat="44.16074" lon="1.84026">
        <ele>305.6</ele>
        <time>2019-03-10T08:09:30Z</time>
      </trkpt>
      <trkpt lat="44.1608" lon="1.84033">
        <ele>306.6</ele>
        <time>2019-03-10T08:09:34Z</time>
      </trkpt>
      <trkpt lat="44.16082" lon="1.84045">
        <ele>307.3</ele>
        <time>2019-03-10T08:09:38Z</time>
      </trkpt>
      <trkpt lat="44.1609" lon="1.84056">
        <ele>308.1</ele>
        <time>2019-03-10T08:09:42Z</time>
      </trkpt>
      <trkpt lat="44.16092" lon="1.84061">
        <ele>308.6</ele>
        <time>2019-03-10T08:09:46Z</time>
      </trkpt>
      <trkpt lat="44.16105" lon="1.8407">
        <ele>309.3</ele>
        <time>2019-03-10T08:09:50Z</time>
      </trkpt>
      <trkpt lat="44.16107" lon="1.84085">
        <ele>309.6</ele>
        <time>2019-03-10T08:09:54Z</time>
      </trkpt>
      <trkpt lat="44.16118" lon="1.84098">
        <ele>310.3</ele>
        <time>2019-03-10T08:09:58Z</time>
      </trkpt>
      <trkpt lat="44.16132" lon="1.84112">
        <ele>310.6</ele>
        <time>2019-03-10T08:10:02Z</time>
      </trkpt>
      <trkpt lat="44.16149" lon="1.84134">
        <ele>309</ele>
        <time>2019-03-10T08:10:06Z</time>
      </trkpt>
      <trkpt lat="44.16164" lon="1.84149">
        <ele>306.6</ele>
        <time>2019-03-10T08:10:10Z</time>
      </trkpt>
      <trkpt lat="44.16178" lon="1.84172">
        <ele>303.3</ele>
        <time>2019-03-10T08:10:14Z</time>
      </trkpt>
      <trkpt lat="44.16186" lon="1.84211">
        <ele>297.6</ele>
        <time>2019-03-10T08:10:18Z</time>
      </trkpt>
      <trkpt lat="44.16182" lon="1.84257">
        <ele>291.5</ele>
        <time>2019-03-10T08:10:22Z</time>
      </trkpt>
      <trkpt lat="44.16184" lon="1.84315">
        <ele>283.5</ele>
        <time>2019-03-10T08:10:26Z</time>
      </trkpt>
      <trkpt lat="44.16195" lon="1.84362">
        <ele>274.4</ele>
        <time>2019-03-10T08:10:30Z</time>
      </trkpt>
      <trkpt lat="44.162" lon="1.84413">
        <ele>266.7</ele>
        <time>2019-03-10T08:10:34Z</time>
      </trkpt>
      <trkpt lat="44.16204" lon="1.84453">
        <ele>261.7</ele>
        <time>2019-03-10T08:10:38Z</time>
      </trkpt>
      <trkpt lat="44.16208" lon="1.84483">
        <ele>258.6</ele>
        <time>2019-03-10T08:10:42Z</time>
      </trkpt>
      <trkpt lat="44.1621" lon="1.84509">
        <ele>256.6</ele>
        <time>2019-03-10T08:10:46Z</time>
      </trkpt>
      <trkpt lat="44.16201" lon="1.84547">
        <ele>256.2</ele>
        <time>2019-03-10T08:10:50Z</time>
      </trkpt>
      <trkpt lat="44.16204" lon="1.8457">
        <ele>254.5</ele>
        <time>2019-03-10T08:10:54Z</time>
      </trkpt>
      <trkpt lat="44.16198" lon="1.84589">
        <ele>253.2</ele>
        <time>2019-03-10T08:10:58Z</time>
      </trkpt>
      <trkpt lat="44.16179" lon="1.846">
        <ele>253.7</ele>
        <time>2019-03-10T08:11:02Z</time>
      </trkpt>
      <trkpt lat="44.16162" lon="1.84607">
        <ele>253.7</ele>
        <time>2019-03-10T08:11:06Z</time>
      </trkpt>
      <trkpt lat="44.1615" lon="1.84625">
        <ele>253.5</ele>
        <time>2019-03-10T08:11:10Z</time>
      </trkpt>
      <trkpt lat="44.16136" lon="1.84662">
        <ele>250.3</ele>
        <time>2019-03-10T08:11:14Z</time>
      </trkpt>
      <trkpt lat="44.16134" lon="1.84683">
        <ele>247.6</ele>
        <time>2019-03-10T08:11:18Z</time>
      </trkpt>
      <trkpt lat="44.1612" lon="1.84676">
        <ele>244</ele>
        <time>2019-03-10T08:11:22Z</time>
      </trkpt>
      <trkpt lat="44.16101" lon="1.84653">
        <ele>242.3</ele>
        <time>2019-03-10T08:11:26Z</time>
      </trkpt>
      <trkpt lat="44.16091" lon="1.84624">
        <ele>241.3</ele>
        <time>2019-03-10T08:11:30Z</time>
      </trkpt>
      <trkpt lat="44.16066" lon="1.846">
        <ele>236.3</ele>
        <time>2019-03-10T08:11:34Z</time>
      </trkpt>
      <trkpt lat="44.16036" lon="1.84595">
        <ele>232.1</ele>
        <time>2019-03-10T08:11:38Z</time>
      </trkpt>
      <trkpt lat="44.16014" lon="1.84594">
        <ele>231.5</ele>
        <time>2019-03-10T08:11:42Z</time>
      </trkpt>
      <trkpt lat="44.15993" lon="1.84601">
        <ele>229.9</ele>
        <time>2019-03-10T08:11:46Z</time>
      </trkpt>
      <trkpt lat="44.15986" lon="1.84609">
        <ele>231.1</ele>
        <time>2019-03-10T08:11:50Z</time>
      </trkpt>
      <trkpt lat="44.15981" lon="1.84623">
        <ele>233.7</ele>
        <time>2019-03-10T08:11:54Z</time>
      </trkpt>
      <trkpt lat="44.15985" lon="1.8464">
        <ele>233.7</ele>
        <time>2019-03-10T08:11:58Z</time>
      </trkpt>
      <trkpt lat="44.15983" lon="1.84666">
        <ele>233</ele>
        <time>2019-03-10T08:12:02Z</time>
      </trkpt>
      <trkpt lat="44.15989" lon="1.84698">
        <ele>231.9</ele>
        <time>2019-03-10T08:12:06Z</time>
      </trkpt>
      <trkpt lat="44.15992" lon="1.84745">
        <ele>230.6</ele>
        <time>2019-03-10T08:12:10Z</time>
      </trkpt>
      <trkpt lat="44.15996" lon="1.8479">
        <ele>229.7</ele>
        <time>2019-03-10T08:12:14Z</time>
      </trkpt>
      <trkpt lat="44.15997" lon="1.84835">
        <ele>225.2</ele>
        <time>2019-03-10T08:12:18Z</time>
      </trkpt>
      <trkpt lat="44.15997" lon="1.8488">
        <ele>220.9</ele>
        <time>2019-03-10T08:12:22Z</time>
      </trkpt>
      <trkpt lat="44.16006" lon="1.84928">
        <ele>216.5</ele>
        <time>2019-03-10T08:12:26Z</time>
      </trkpt>
      <trkpt lat="44.16014" lon="1.84975">
        <ele>215</ele>
        <time>2019-03-10T08:12:30Z</time>
      </trkpt>
      <trkpt lat="44.16025" lon="1.85016">
        <ele>210.8</ele>
        <time>2019-03-10T08:12:34Z</time>
      </trkpt>
      <trkpt lat="44.16031" lon="1.85048">
        <ele>206.5</ele>
        <time>2019-03-10T08:12:38Z</time>
      </trkpt>
      <trkpt lat="44.16031" lon="1.85084">
        <ele>206</ele>
        <time>2019-03-10T08:12:42Z</time>
      </trkpt>
      <trkpt lat="44.16022" lon="1.85107">
        <ele>206</ele>
        <time>2019-03-10T08:12:46Z</time>
      </trkpt>
      <trkpt lat="44.16017" lon="1.85136">
        <ele>205.6</ele>
        <time>2019-03-10T08:12:50Z</time>
      </trkpt>
      <trkpt lat="44.16009" lon="1.85165">
        <ele>205.6</ele>
        <time>2019-03-10T08:12:54Z</time>
      </trkpt>
      <trkpt lat="44.16003" lon="1.85199">
        <ele>205.6</ele>
        <time>2019-03-10T08:12:58Z</time>
      </trkpt>
      <trkpt lat="44.15993" lon="1.85222">
        <ele>205.6</ele>
        <time>2019-03-10T08:13:02Z</time>
      </trkpt>
      <trkpt lat="44.15976" lon="1.85268">
        <ele>203.3</ele>
        <time>2019-03-10T08:13:06Z</time>
      </trkpt>
      <trkpt lat="44.15963" lon="1.8531">
        <ele>200.2</ele>
        <time>2019-03-10T08:13:10Z</time>
      </trkpt>
      <trkpt lat="44.15941" lon="1.85352">
        <ele>197.1</ele>
        <time>2019-03-10T08:13:14Z</time>
      </trkpt>
      <trkpt lat="44.15893" lon="1.85391">
        <ele>193.9</ele>
        <time>2019-03-10T08:13:18Z</time>
      </trkpt>
      <trkpt lat="44.15846" lon="1.85423">
        <ele>189.9</ele>
        <time>2019-03-10T08:13:22Z</time>
      </trkpt>
      <trkpt lat="44.15816" lon="1.85456">
        <ele>185.1</ele>
        <time>2019-03-10T08:13:26Z</time>
      </trkpt>
      <trkpt lat="44.15784" lon="1.85484">
        <ele>179.6</ele>
        <time>2019-03-10T08:13:30Z</time>
      </trkpt>
      <trkpt lat="44.15754" lon="1.85509">
        <ele>175.1</ele>
        <time>2019-03-10T08:13:34Z</time>
      </trkpt>
      <trkpt lat="44.15727" lon="1.85545">
        <ele>174</ele>
        <time>2019-03-10T08:13:38Z</time>
      </trkpt>
      <trkpt lat="44.15702" lon="1.85573">
        <ele>169.2</ele>
        <time>2019-03-10T08:13:42Z</time>
      </trkpt>
      <trkpt lat="44.15674" lon="1.85606">
        <ele>164.7</ele>
        <time>2019-03-10T08:13:46Z</time>
      </trkpt>
      <trkpt lat="44.15643" lon="1.85629">
        <ele>162.4</ele>
        <time>2019-03-10T08:13:50Z</time>
      </trkpt>
      <trkpt lat="44.15595" lon="1.85656">
        <ele>159.5</ele>
        <time>2019-03-10T08:13:54Z</time>
      </trkpt>
      <trkpt lat="44.15555" lon="1.85676">
        <ele>156.9</ele>
        <time>2019-03-10T08:13:58Z</time>
      </trkpt>
      <trkpt lat="44.15516" lon="1.85696">
        <ele>154.5</ele>
        <time>2019-03-10T08:14:02Z</time>
      </trkpt>
      <trkpt lat="44.15467" lon="1.85705">
        <ele>153</ele>
        <time>2019-03-10T08:14:06Z</time>
      </trkpt>
      <trkpt lat="44.15429" lon="1.85724">
        <ele>148.3</ele>
        <time>2019-03-10T08:14:10Z</time>
      </trkpt>
      <trkpt lat="44.15403" lon="1.85744">
        <ele>143.3</ele>
        <time>2019-03-10T08:14:14Z</time>
      </trkpt>
      <trkpt lat="44.15372" lon="1.85763">
        <ele>139.2</ele>
        <time>2019-03-10T08:14:18Z</time>
      </trkpt>
      <trkpt lat="44.15338" lon="1.85768">
        <ele>136.3</ele>
        <time>2019-03-10T08:14:22Z</time>
      </trkpt>
      <trkpt lat="44.15317" lon="1.85789">
        <ele>133.2</ele>
        <time>2019-03-10T08:14:26Z</time>
      </trkpt>
      <trkpt lat="44.15308" lon="1.8583">
        <ele>130.8</ele>
        <time>2019-03-10T08:14:30Z</time>
      </trkpt>
      <trkpt lat="44.15298" lon="1.85875">
        <ele>129.3</ele>
        <time>2019-03-10T08:14:34Z</time>
      </trkpt>
      <trkpt lat="44.15287" lon="1.85924">
        <ele>127.2</ele>
        <time>2019-03-10T08:14:38Z</time>
      </trkpt>
      <trkpt lat="44.15261" lon="1.85957">
        <ele>124.2</ele>
        <time>2019-03-10T08:14:42Z</time>
      </trkpt>
      <trkpt lat="44.15232" lon="1.85981">
        <ele>122</ele>
        <time>2019-03-10T08:14:46Z</time>
      </trkpt>
      <trkpt lat="44.15221" lon="1.8601">
        <ele>120.9</ele>
        <time>2019-03-10T08:14:50Z</time>
      </trkpt>
      <trkpt lat="44.1522" lon="1.86051">
        <ele>118.2</ele>
        <time>2019-03-10T08:14:54Z</time>
      </trkpt>
      <trkpt lat="44.15216" lon="1.86058">
        <ele>115.7</ele>
        <time>2019-03-10T08:14:58Z</time>
      </trkpt>
      <trkpt lat="44.15214" lon="1.86063">
        <ele>115.4</ele>
        <time>2019-03-10T08:15:02Z</time>
      </trkpt>
      <trkpt lat="44.15218" lon="1.86063">
        <ele>115.3</ele>
        <time>2019-03-10T08:15:06Z</time>
      </trkpt>
      <trkpt lat="44.15221" lon="1.86075">
        <ele>115.4</ele>
        <time>2019-03-10T08:15:10Z</time>
      </trkpt>
      <trkpt lat="44.15222" lon="1.86085">
        <ele>115.3</ele>
        <time>2019-03-10T08:15:14Z</time>
      </trkpt>
      <trkpt lat="44.15231" lon="1.86113">
        <ele>115.6</ele>
        <time>2019-03-10T08:15:18Z</time>
      </trkpt>
      <trkpt lat="44.15234" lon="1.86134">
        <ele>115.6</ele>
        <time>2019-03-10T08:15:22Z</time>
      </trkpt>
      <trkpt lat="44.15245" lon="1.86154">
        <ele>115.9</ele>
        <time>2019-03-10T08:15:26Z</time>
      </trkpt>
      <trkpt lat="44.15255" lon="1.8617">
        <ele>116.8</ele>
        <time>2019-03-10T08:15:30Z</time>
      </trkpt>
      <trkpt lat="44.15262" lon="1.86181">
        <ele>116.8</ele>
        <time>2019-03-10T08:15:34Z</time>
      </trkpt>
      <trkpt lat="44.15271" lon="1.86186">
        <ele>117.8</ele>
        <time>2019-03-10T08:15:38Z</time>
      </trkpt>
      <trkpt lat="44.15277" lon="1.8619">
        <ele>119.1</ele>
        <time>2019-03-10T08:15:42Z</time>
      </trkpt>
      <trkpt lat="44.15282" lon="1.86194">
        <ele>120.9</ele>
        <time>2019-03-10T08:15:46Z</time>
      </trkpt>
      <trkpt lat="44.15289" lon="1.86196">
        <ele>121.8</ele>
        <time>2019-03-10T08:15:50Z</time>
      </trkpt>
      <trkpt lat="44.15295" lon="1.86198">
        <ele>123.1</ele>
        <time>2019-03-10T08:15:54Z</time>
      </trkpt>
      <trkpt lat="44.15304" lon="1.86199">
        <ele>124.4</ele>
        <time>2019-03-10T08:15:58Z</time>
      </trkpt>
      <trkpt lat="44.1531" lon="1.86205">
        <ele>125.9</ele>
        <time>2019-03-10T08:16:02Z</time>
      </trkpt>
      <trkpt lat="44.15315" lon="1.8621">
        <ele>127.5</ele>
        <time>2019-03-10T08:16:06Z</time>
      </trkpt>
      <trkpt lat="44.15323" lon="1.8622">
        <ele>129.1</ele>
        <time>2019-03-10T08:16:10Z</time>
      </trkpt>
      <trkpt lat="44.15332" lon="1.86226">
        <ele>130.5</ele>
        <time>2019-03-10T08:16:14Z</time>
      </trkpt>
      <trkpt lat="44.15339" lon="1.86233">
        <ele>132</ele>
        <time>2019-03-10T08:16:18Z</time>
      </trkpt>
      <trkpt lat="44.15344" lon="1.86243">
        <ele>133.4</ele>
        <time>2019-03-10T08:16:22Z</time>
      </trkpt>
      <trkpt lat="44.1535" lon="1.86251">
        <ele>134.8</ele>
        <time>2019-03-10T08:16:26Z</time>
      </trkpt>
      <trkpt lat="44.15356" lon="1.86261">
        <ele>136.3</ele>
        <time>2019-03-10T08:16:30Z</time>
      </trkpt>
      <trkpt lat="44.15358" lon="1.8627">
        <ele>137.7</ele>
        <time>2019-03-10T08:16:34Z</time>
      </trkpt>
      <trkpt lat="44.15358" lon="1.86277">
        <ele>138.5</ele>
        <time>2019-03-10T08:16:38Z</time>
      </trkpt>
      <trkpt lat="44.15357" lon="1.86282">
        <ele>138.8</ele>
        <time>2019-03-10T08:16:42Z</time>
      </trkpt>
      <trkpt lat="44.15358" lon="1.86287">
        <ele>138.7</ele>
        <time>2019-03-10T08:16:46Z</time>
      </trkpt>
      <trkpt lat="44.15357" lon="1.86291">
        <ele>139.6</ele>
        <time>2019-03-10T08:16:50Z</time>
      </trkpt>
      <trkpt lat="44.15352" lon="1.86303">
        <ele>139.9</ele>
        <time>2019-03-10T08:16:54Z</time>
      </trkpt>
      <trkpt lat="44.15351" lon="1.8631">
        <ele>139.9</ele>
        <time>2019-03-10T08:16:58Z</time>
      </trkpt>
      <trkpt lat="44.1535" lon="1.86318">
        <ele>141.1</ele>
        <time>2019-03-10T08:17:02Z</time>
      </trkpt>
      <trkpt lat="44.15346" lon="1.86327">
        <ele>141.4</ele>
        <time>2019-03-10T08:17:06Z</time>
      </trkpt>
      <trkpt lat="44.15347" lon="1.8634">
        <ele>142.5</ele>
        <time>2019-03-10T08:17:10Z</time>
      </trkpt>
      <trkpt lat="44.15341" lon="1.86354">
        <ele>143.3</ele>
        <time>2019-03-10T08:17:14Z</time>
      </trkpt>
      <trkpt lat="44.15334" lon="1.86363">
        <ele>144.1</ele>
        <time>2019-03-10T08:17:18Z</time>
      </trkpt>
      <trkpt lat="44.15337" lon="1.8637">
        <ele>145</ele>
        <time>2019-03-10T08:17:22Z</time>
      </trkpt>
      <trkpt lat="44.15341" lon="1.86376">
        <ele>146</ele>
        <time>2019-03-10T08:17:26Z</time>
      </trkpt>
      <trkpt lat="44.15341" lon="1.86387">
        <ele>146.7</ele>
        <time>2019-03-10T08:17:30Z</time>
      </trkpt>
      <trkpt lat="44.15332" lon="1.864">
        <ele>146.7</ele>
        <time>2019-03-10T08:17:34Z</time>
      </trkpt>
      <trkpt lat="44.15332" lon="1.86408">
        <ele>148.2</ele>
        <time>2019-03-10T08:17:38Z</time>
      </trkpt>
      <trkpt lat="44.15322" lon="1.86426">
        <ele>148.9</ele>
        <time>2019-03-10T08:17:42Z</time>
      </trkpt>
      <trkpt lat="44.15324" lon="1.86436">
        <ele>149.1</ele>
        <time>2019-03-10T08:17:46Z</time>
      </trkpt>
      <trkpt lat="44.15325" lon="1.86438">
        <ele>149.1</ele>
        <time>2019-03-10T08:17:50Z</time>
      </trkpt>
      <trkpt lat="44.15357" lon="1.86462">
        <ele>148.6</ele>
        <time>2019-03-10T08:17:54Z</time>
      </trkpt>
      <trkpt lat="44.15372" lon="1.86468">
        <ele>148.6</ele>
        <time>2019-03-10T08:17:58Z</time>
      </trkpt>
      <trkpt lat="44.15384" lon="1.8647">
        <ele>149.5</ele>
        <time>2019-03-10T08:18:02Z</time>
      </trkpt>
      <trkpt lat="44.15394" lon="1.86477">
        <ele>149.7</ele>
        <time>2019-03-10T08:18:06Z</time>
      </trkpt>
      <trkpt lat="44.15406" lon="1.86478">
        <ele>149.5</ele>
        <time>2019-03-10T08:18:10Z</time>
      </trkpt>
      <trkpt lat="44.15423" lon="1.86482">
        <ele>149.4</ele>
        <time>2019-03-10T08:18:14Z</time>
      </trkpt>
      <trkpt lat="44.15434" lon="1.86489">
        <ele>150.7</ele>
        <time>2019-03-10T08:18:18Z</time>
      </trkpt>
      <trkpt lat="44.15448" lon="1.86494">
        <ele>150.3</ele>
        <time>2019-03-10T08:18:22Z</time>
      </trkpt>
      <trkpt lat="44.15458" lon="1.86498">
        <ele>150.3</ele>
        <time>2019-03-10T08:18:26Z</time>
      </trkpt>
      <trkpt lat="44.1547" lon="1.86501">
        <ele>151.1</ele>
        <time>2019-03-10T08:18:30Z</time>
      </trkpt>
      <trkpt lat="44.15479" lon="1.86511">
        <ele>151.1</ele>
        <time>2019-03-10T08:18:34Z</time>
      </trkpt>
      <trkpt lat="44.15483" lon="1.86529">
        <ele>151.7</ele>
        <time>2019-03-10T08:18:38Z</time>
      </trkpt>
      <trkpt lat="44.15493" lon="1.86539">
        <ele>152.6</ele>
        <time>2019-03-10T08:18:42Z</time>
      </trkpt>
      <trkpt lat="44.15498" lon="1.86556">
        <ele>153.7</ele>
        <time>2019-03-10T08:18:46Z</time>
      </trkpt>
      <trkpt lat="44.15506" lon="1.86569">
        <ele>154.5</ele>
        <time>2019-03-10T08:18:50Z</time>
      </trkpt>
      <trkpt lat="44.15512" lon="1.86582">
        <ele>154.5</ele>
        <time>2019-03-10T08:18:54Z</time>
      </trkpt>
      <trkpt lat="44.1552" lon="1.86592">
        <ele>155.7</ele>
        <time>2019-03-10T08:18:58Z</time>
      </trkpt>
      <trkpt lat="44.15526" lon="1.86604">
        <ele>156.8</ele>
        <time>2019-03-10T08:19:02Z</time>
      </trkpt>
      <trkpt lat="44.15533" lon="1.86615">
        <ele>157.8</ele>
        <time>2019-03-10T08:19:06Z</time>
      </trkpt>
      <trkpt lat="44.15542" lon="1.86624">
        <ele>158.7</ele>
        <time>2019-03-10T08:19:10Z</time>
      </trkpt>
      <trkpt lat="44.1555" lon="1.86632">
        <ele>160.1</ele>
        <time>2019-03-10T08:19:14Z</time>
      </trkpt>
      <trkpt lat="44.15558" lon="1.86642">
        <ele>161.1</ele>
        <time>2019-03-10T08:19:18Z</time>
      </trkpt>
      <trkpt lat="44.15569" lon="1.86649">
        <ele>162.3</ele>
        <time>2019-03-10T08:19:22Z</time>
      </trkpt>
      <trkpt lat="44.15579" lon="1.86655">
        <ele>162.6</ele>
        <time>2019-03-10T08:19:26Z</time>
      </trkpt>
      <trkpt lat="44.15595" lon="1.86655">
        <ele>163</ele>
        <time>2019-03-10T08:19:30Z</time>
      </trkpt>
      <trkpt lat="44.15607" lon="1.86648">
        <ele>162.7</ele>
        <time>2019-03-10T08:19:34Z</time>
      </trkpt>
      <trkpt lat="44.15614" lon="1.86636">
        <ele>163</ele>
        <time>2019-03-10T08:19:38Z</time>
      </trkpt>
      <trkpt lat="44.15616" lon="1.86623">
        <ele>163.6</ele>
        <time>2019-03-10T08:19:42Z</time>
      </trkpt>
      <trkpt lat="44.15618" lon="1.8661">
        <ele>165.2</ele>
        <time>2019-03-10T08:19:46Z</time>
      </trkpt>
      <trkpt lat="44.15619" lon="1.86598">
        <ele>166</ele>
        <time>2019-03-10T08:19:50Z</time>
      </trkpt>
      <trkpt lat="44.1562" lon="1.86585">
        <ele>167.1</ele>
        <time>2019-03-10T08:19:54Z</time>
      </trkpt>
      <trkpt lat="44.15618" lon="1.86575">
        <ele>168.1</ele>
        <time>2019-03-10T08:19:58Z</time>
      </trkpt>
      <trkpt lat="44.15618" lon="1.8656">
        <ele>169</ele>
        <time>2019-03-10T08:20:02Z</time>
      </trkpt>
      <trkpt lat="44.15626" lon="1.86547">
        <ele>169</ele>
        <time>2019-03-10T08:20:06Z</time>
      </trkpt>
      <trkpt lat="44.1563" lon="1.86537">
        <ele>170</ele>
        <time>2019-03-10T08:20:10Z</time>
      </trkpt>
      <trkpt lat="44.15635" lon="1.86524">
        <ele>170.6</ele>
        <time>2019-03-10T08:20:14Z</time>
      </trkpt>
      <trkpt lat="44.15642" lon="1.86514">
        <ele>171.6</ele>
        <time>2019-03-10T08:20:18Z</time>
      </trkpt>
      <trkpt lat="44.1565" lon="1.86497">
        <ele>172.1</ele>
        <time>2019-03-10T08:20:22Z</time>
      </trkpt>
      <trkpt lat="44.15649" lon="1.86482">
        <ele>172.1</ele>
        <time>2019-03-10T08:20:26Z</time>
      </trkpt>
      <trkpt lat="44.15651" lon="1.86469">
        <ele>173</ele>
        <time>2019-03-10T08:20:30Z</time>
      </trkpt>
      <trkpt lat="44.15656" lon="1.8646">
        <ele>173.9</ele>
        <time>2019-03-10T08:20:34Z</time>
      </trkpt>
      <trkpt lat="44.15664" lon="1.86454">
        <ele>174.8</ele>
        <time>2019-03-10T08:20:38Z</time>
      </trkpt>
      <trkpt lat="44.15671" lon="1.86456">
        <ele>175.2</ele>
        <time>2019-03-10T08:20:42Z</time>
      </trkpt>
      <trkpt lat="44.15682" lon="1.86461">
        <ele>175.2</ele>
        <time>2019-03-10T08:20:46Z</time>
      </trkpt>
      <trkpt lat="44.15699" lon="1.86464">
        <ele>175.5</ele>
        <time>2019-03-10T08:20:50Z</time>
      </trkpt>
      <trkpt lat="44.1572" lon="1.86466">
        <ele>174.9</ele>
        <time>2019-03-10T08:20:54Z</time>
      </trkpt>
      <trkpt lat="44.15737" lon="1.86458">
        <ele>175.6</ele>
        <time>2019-03-10T08:20:58Z</time>
      </trkpt>
      <trkpt lat="44.15755" lon="1.86457">
        <ele>175.7</ele>
        <time>2019-03-10T08:21:02Z</time>
      </trkpt>
      <trkpt lat="44.15766" lon="1.86458">
        <ele>176.6</ele>
        <time>2019-03-10T08:21:06Z</time>
      </trkpt>
      <trkpt lat="44.15775" lon="1.86459">
        <ele>177.6</ele>
        <time>2019-03-10T08:21:10Z</time>
      </trkpt>
      <trkpt lat="44.15786" lon="1.86464">
        <ele>178.7</ele>
        <time>2019-03-10T08:21:14Z</time>
      </trkpt>
      <trkpt lat="44.15794" lon="1.86473">
        <ele>179.2</ele>
        <time>2019-03-10T08:21:18Z</time>
      </trkpt>
      <trkpt lat="44.15808" lon="1.86481">
        <ele>180.1</ele>
        <time>2019-03-10T08:21:22Z</time>
      </trkpt>
      <trkpt lat="44.1582" lon="1.86489">
        <ele>180.5</ele>
        <time>2019-03-10T08:21:26Z</time>
      </trkpt>
      <trkpt lat="44.15831" lon="1.86494">
        <ele>181.3</ele>
        <time>2019-03-10T08:21:30Z</time>
      </trkpt>
      <trkpt lat="44.15839" lon="1.86502">
        <ele>182.1</ele>
        <time>2019-03-10T08:21:34Z</time>
      </trkpt>
      <trkpt lat="44.15854" lon="1.86503">
        <ele>182.2</ele>
        <time>2019-03-10T08:21:38Z</time>
      </trkpt>
      <trkpt lat="44.15865" lon="1.86508">
        <ele>183.1</ele>
        <time>2019-03-10T08:21:42Z</time>
      </trkpt>
      <trkpt lat="44.15872" lon="1.86511">
        <ele>183.7</ele>
        <time>2019-03-10T08:21:46Z</time>
      </trkpt>
      <trkpt lat="44.15879" lon="1.86522">
        <ele>183.9</ele>
        <time>2019-03-10T08:21:50Z</time>
      </trkpt>
      <trkpt lat="44.15893" lon="1.86526">
        <ele>185</ele>
        <time>2019-03-10T08:21:54Z</time>
      </trkpt>
      <trkpt lat="44.15904" lon="1.8653">
        <ele>185.8</ele>
        <time>2019-03-10T08:21:58Z</time>
      </trkpt>
      <trkpt lat="44.15913" lon="1.86532">
        <ele>185.9</ele>
        <time>2019-03-10T08:22:02Z</time>
      </trkpt>
      <trkpt lat="44.15923" lon="1.86538">
        <ele>186.9</ele>
        <time>2019-03-10T08:22:06Z</time>
      </trkpt>
      <trkpt lat="44.15934" lon="1.86538">
        <ele>186.9</ele>
        <time>2019-03-10T08:22:10Z</time>
      </trkpt>
      <trkpt lat="44.15945" lon="1.86535">
        <ele>187.3</ele>
        <time>2019-03-10T08:22:14Z</time>
      </trkpt>
      <trkpt lat="44.15958" lon="1.86533">
        <ele>188.1</ele>
        <time>2019-03-10T08:22:18Z</time>
      </trkpt>
      <trkpt lat="44.15967" lon="1.86525">
        <ele>188.9</ele>
        <time>2019-03-10T08:22:22Z</time>
      </trkpt>
      <trkpt lat="44.15977" lon="1.86526">
        <ele>189.3</ele>
        <time>2019-03-10T08:22:26Z</time>
      </trkpt>
      <trkpt lat="44.15987" lon="1.86526">
        <ele>190.4</ele>
        <time>2019-03-10T08:22:30Z</time>
      </trkpt>
      <trkpt lat="44.16002" lon="1.8653">
        <ele>191.5</ele>
        <time>2019-03-10T08:22:34Z</time>
      </trkpt>
      <trkpt lat="44.16021" lon="1.8653">
        <ele>192.8</ele>
        <time>2019-03-10T08:22:38Z</time>
      </trkpt>
      <trkpt lat="44.16034" lon="1.8653">
        <ele>193.7</ele>
        <time>2019-03-10T08:22:42Z</time>
      </trkpt>
      <trkpt lat="44.16046" lon="1.86537">
        <ele>193.7</ele>
        <time>2019-03-10T08:22:46Z</time>
      </trkpt>
      <trkpt lat="44.16055" lon="1.86541">
        <ele>193.7</ele>
        <time>2019-03-10T08:22:50Z</time>
      </trkpt>
      <trkpt lat="44.16069" lon="1.86548">
        <ele>194.8</ele>
        <time>2019-03-10T08:22:54Z</time>
      </trkpt>
      <trkpt lat="44.16078" lon="1.86556">
        <ele>195.3</ele>
        <time>2019-03-10T08:22:58Z</time>
      </trkpt>
      <trkpt lat="44.16087" lon="1.86566">
        <ele>196.5</ele>
        <time>2019-03-10T08:23:02Z</time>
      </trkpt>
      <trkpt lat="44.16098" lon="1.86575">
        <ele>197</ele>
        <time>2019-03-10T08:23:06Z</time>
      </trkpt>
      <trkpt lat="44.16105" lon="1.86581">
        <ele>197</ele>
        <time>2019-03-10T08:23:10Z</time>
      </trkpt>
      <trkpt lat="44.16117" lon="1.86582">
        <ele>198.2</ele>
        <time>2019-03-10T08:23:14Z</time>
      </trkpt>
      <trkpt lat="44.1612" lon="1.86596">
        <ele>198.6</ele>
        <time>2019-03-10T08:23:18Z</time>
      </trkpt>
      <trkpt lat="44.16132" lon="1.86606">
        <ele>199.5</ele>
        <time>2019-03-10T08:23:22Z</time>
      </trkpt>
      <trkpt lat="44.16143" lon="1.86618">
        <ele>200.2</ele>
        <time>2019-03-10T08:23:26Z</time>
      </trkpt>
      <trkpt lat="44.1615" lon="1.86636">
        <ele>201.4</ele>
        <time>2019-03-10T08:23:30Z</time>
      </trkpt>
      <trkpt lat="44.1616" lon="1.86644">
        <ele>201.4</ele>
        <time>2019-03-10T08:23:34Z</time>
      </trkpt>
      <trkpt lat="44.16169" lon="1.8665">
        <ele>201.8</ele>
        <time>2019-03-10T08:23:38Z</time>
      </trkpt>
      <trkpt lat="44.16182" lon="1.86657">
        <ele>202.9</ele>
        <time>2019-03-10T08:23:42Z</time>
      </trkpt>
      <trkpt lat="44.16193" lon="1.86669">
        <ele>202.9</ele>
        <time>2019-03-10T08:23:46Z</time>
      </trkpt>
      <trkpt lat="44.16203" lon="1.86672">
        <ele>203.9</ele>
        <time>2019-03-10T08:23:50Z</time>
      </trkpt>
      <trkpt lat="44.16211" lon="1.86685">
        <ele>204.8</ele>
        <time>2019-03-10T08:23:54Z</time>
      </trkpt>
      <trkpt lat="44.1622" lon="1.86692">
        <ele>205.1</ele>
        <time>2019-03-10T08:23:58Z</time>
      </trkpt>
      <trkpt lat="44.16227" lon="1.86709">
        <ele>205.9</ele>
        <time>2019-03-10T08:24:02Z</time>
      </trkpt>
      <trkpt lat="44.16229" lon="1.86721">
        <ele>206.9</ele>
        <time>2019-03-10T08:24:06Z</time>
      </trkpt>
      <trkpt lat="44.16233" lon="1.86733">
        <ele>207.4</ele>
        <time>2019-03-10T08:24:10Z</time>
      </trkpt>
      <trkpt lat="44.16235" lon="1.86751">
        <ele>208.2</ele>
        <time>2019-03-10T08:24:14Z</time>
      </trkpt>
      <trkpt lat="44.16236" lon="1.86768">
        <ele>208.7</ele>
        <time>2019-03-10T08:24:18Z</time>
      </trkpt>
      <trkpt lat="44.16235" lon="1.8677">
        <ele>209.4</ele>
        <time>2019-03-10T08:24:22Z</time>
      </trkpt>
      <trkpt lat="44.16235" lon="1.86769">
        <ele>209.5</ele>
        <time>2019-03-10T08:24:26Z</time>
      </trkpt>
      <trkpt lat="44.16235" lon="1.86768">
        <ele>210.1</ele>
        <time>2019-03-10T08:24:30Z</time>
      </trkpt>
      <trkpt lat="44.16226" lon="1.8676">
        <ele>210.6</ele>
        <time>2019-03-10T08:24:42Z</time>
      </trkpt>
      <trkpt lat="44.16219" lon="1.8675">
        <ele>211.2</ele>
        <time>2019-03-10T08:24:46Z</time>
      </trkpt>
      <trkpt lat="44.16211" lon="1.86738">
        <ele>211.7</ele>
        <time>2019-03-10T08:24:50Z</time>
      </trkpt>
      <trkpt lat="44.16199" lon="1.86726">
        <ele>212.6</ele>
        <time>2019-03-10T08:24:54Z</time>
      </trkpt>
      <trkpt lat="44.16186" lon="1.86716">
        <ele>213.4</ele>
        <time>2019-03-10T08:24:58Z</time>
      </trkpt>
      <trkpt lat="44.16172" lon="1.86704">
        <ele>213.5</ele>
        <time>2019-03-10T08:25:02Z</time>
      </trkpt>
      <trkpt lat="44.16159" lon="1.86693">
        <ele>213.1</ele>
        <time>2019-03-10T08:25:06Z</time>
      </trkpt>
      <trkpt lat="44.16146" lon="1.86683">
        <ele>214.8</ele>
        <time>2019-03-10T08:25:10Z</time>
      </trkpt>
      <trkpt lat="44.16136" lon="1.86677">
        <ele>215.6</ele>
        <time>2019-03-10T08:25:14Z</time>
      </trkpt>
      <trkpt lat="44.16129" lon="1.86682">
        <ele>216.8</ele>
        <time>2019-03-10T08:25:18Z</time>
      </trkpt>
      <trkpt lat="44.16127" lon="1.86691">
        <ele>218.5</ele>
        <time>2019-03-10T08:25:22Z</time>
      </trkpt>
      <trkpt lat="44.16125" lon="1.86698">
        <ele>220.6</ele>
        <time>2019-03-10T08:25:26Z</time>
      </trkpt>
      <trkpt lat="44.1612" lon="1.86704">
        <ele>222.6</ele>
        <time>2019-03-10T08:25:30Z</time>
      </trkpt>
      <trkpt lat="44.16111" lon="1.86711">
        <ele>224.8</ele>
        <time>2019-03-10T08:25:34Z</time>
      </trkpt>
      <trkpt lat="44.16108" lon="1.86721">
        <ele>227.4</ele>
        <time>2019-03-10T08:25:38Z</time>
      </trkpt>
      <trkpt lat="44.16102" lon="1.86732">
        <ele>229</ele>
        <time>2019-03-10T08:25:42Z</time>
      </trkpt>
      <trkpt lat="44.161" lon="1.86746">
        <ele>231.2</ele>
        <time>2019-03-10T08:25:46Z</time>
      </trkpt>
      <trkpt lat="44.16103" lon="1.86753">
        <ele>233.9</ele>
        <time>2019-03-10T08:25:50Z</time>
      </trkpt>
      <trkpt lat="44.16103" lon="1.86763">
        <ele>235.6</ele>
        <time>2019-03-10T08:25:54Z</time>
      </trkpt>
      <trkpt lat="44.16107" lon="1.86773">
        <ele>237.9</ele>
        <time>2019-03-10T08:25:58Z</time>
      </trkpt>
      <trkpt lat="44.16106" lon="1.8678">
        <ele>239.6</ele>
        <time>2019-03-10T08:26:02Z</time>
      </trkpt>
      <trkpt lat="44.16106" lon="1.86789">
        <ele>241.3</ele>
        <time>2019-03-10T08:26:06Z</time>
      </trkpt>
      <trkpt lat="44.1611" lon="1.86791">
        <ele>243.6</ele>
        <time>2019-03-10T08:26:10Z</time>
      </trkpt>
      <trkpt lat="44.16108" lon="1.86793">
        <ele>244.6</ele>
        <time>2019-03-10T08:26:14Z</time>
      </trkpt>
      <trkpt lat="44.16106" lon="1.86797">
        <ele>244.5</ele>
        <time>2019-03-10T08:26:18Z</time>
      </trkpt>
      <trkpt lat="44.16104" lon="1.86802">
        <ele>244.7</ele>
        <time>2019-03-10T08:26:22Z</time>
      </trkpt>
      <trkpt lat="44.16109" lon="1.86825">
        <ele>247.9</ele>
        <time>2019-03-10T08:26:46Z</time>
      </trkpt>
      <trkpt lat="44.16109" lon="1.86828">
        <ele>249.5</ele>
        <time>2019-03-10T08:26:50Z</time>
      </trkpt>
      <trkpt lat="44.16114" lon="1.86836">
        <ele>251.4</ele>
        <time>2019-03-10T08:27:22Z</time>
      </trkpt>
      <trkpt lat="44.16113" lon="1.86844">
        <ele>252.3</ele>
        <time>2019-03-10T08:27:26Z</time>
      </trkpt>
      <trkpt lat="44.1611" lon="1.86862">
        <ele>253.8</ele>
        <time>2019-03-10T08:27:30Z</time>
      </trkpt>
      <trkpt lat="44.16111" lon="1.86874">
        <ele>255.7</ele>
        <time>2019-03-10T08:27:34Z</time>
      </trkpt>
      <trkpt lat="44.1611" lon="1.86886">
        <ele>257.5</ele>
        <time>2019-03-10T08:27:38Z</time>
      </trkpt>
      <trkpt lat="44.1611" lon="1.86895">
        <ele>259.1</ele>
        <time>2019-03-10T08:27:42Z</time>
      </trkpt>
      <trkpt lat="44.16107" lon="1.86901">
        <ele>262</ele>
        <time>2019-03-10T08:27:46Z</time>
      </trkpt>
      <trkpt lat="44.16097" lon="1.86905">
        <ele>264.6</ele>
        <time>2019-03-10T08:27:50Z</time>
      </trkpt>
      <trkpt lat="44.16089" lon="1.86903">
        <ele>265.8</ele>
        <time>2019-03-10T08:27:54Z</time>
      </trkpt>
      <trkpt lat="44.16078" lon="1.86901">
        <ele>266.6</ele>
        <time>2019-03-10T08:27:58Z</time>
      </trkpt>
      <trkpt lat="44.16067" lon="1.86898">
        <ele>267.3</ele>
        <time>2019-03-10T08:28:02Z</time>
      </trkpt>
      <trkpt lat="44.16058" lon="1.86897">
        <ele>268.3</ele>
        <time>2019-03-10T08:28:06Z</time>
      </trkpt>
      <trkpt lat="44.16051" lon="1.86897">
        <ele>269.1</ele>
        <time>2019-03-10T08:28:10Z</time>
      </trkpt>
      <trkpt lat="44.16047" lon="1.86894">
        <ele>269.7</ele>
        <time>2019-03-10T08:28:14Z</time>
      </trkpt>
      <trkpt lat="44.16041" lon="1.86902">
        <ele>270.3</ele>
        <time>2019-03-10T08:28:18Z</time>
      </trkpt>
      <trkpt lat="44.16035" lon="1.86915">
        <ele>271.6</ele>
        <time>2019-03-10T08:28:22Z</time>
      </trkpt>
      <trkpt lat="44.16033" lon="1.86928">
        <ele>272.6</ele>
        <time>2019-03-10T08:28:26Z</time>
      </trkpt>
      <trkpt lat="44.16032" lon="1.86934">
        <ele>273.2</ele>
        <time>2019-03-10T08:28:30Z</time>
      </trkpt>
      <trkpt lat="44.16027" lon="1.86946">
        <ele>274.1</ele>
        <time>2019-03-10T08:28:34Z</time>
      </trkpt>
      <trkpt lat="44.16027" lon="1.86953">
        <ele>274.6</ele>
        <time>2019-03-10T08:28:38Z</time>
      </trkpt>
      <trkpt lat="44.16024" lon="1.86969">
        <ele>275.5</ele>
        <time>2019-03-10T08:28:42Z</time>
      </trkpt>
      <trkpt lat="44.16029" lon="1.86985">
        <ele>275.6</ele>
        <time>2019-03-10T08:28:46Z</time>
      </trkpt>
      <trkpt lat="44.16028" lon="1.87">
        <ele>276.1</ele>
        <time>2019-03-10T08:28:50Z</time>
      </trkpt>
      <trkpt lat="44.16024" lon="1.8701">
        <ele>276.8</ele>
        <time>2019-03-10T08:28:54Z</time>
      </trkpt>
      <trkpt lat="44.16026" lon="1.87026">
        <ele>277</ele>
        <time>2019-03-10T08:28:58Z</time>
      </trkpt>
      <trkpt lat="44.1602" lon="1.87045">
        <ele>277.8</ele>
        <time>2019-03-10T08:29:02Z</time>
      </trkpt>
      <trkpt lat="44.16022" lon="1.87059">
        <ele>277.8</ele>
        <time>2019-03-10T08:29:06Z</time>
      </trkpt>
      <trkpt lat="44.16019" lon="1.87074">
        <ele>277.7</ele>
        <time>2019-03-10T08:29:10Z</time>
      </trkpt>
      <trkpt lat="44.16017" lon="1.87089">
        <ele>279.1</ele>
        <time>2019-03-10T08:29:14Z</time>
      </trkpt>
      <trkpt lat="44.16014" lon="1.87107">
        <ele>280.5</ele>
        <time>2019-03-10T08:29:18Z</time>
      </trkpt>
      <trkpt lat="44.16012" lon="1.87122">
        <ele>281.4</ele>
        <time>2019-03-10T08:29:22Z</time>
      </trkpt>
      <trkpt lat="44.16011" lon="1.87137">
        <ele>282.8</ele>
        <time>2019-03-10T08:29:26Z</time>
      </trkpt>
      <trkpt lat="44.16007" lon="1.87151">
        <ele>282.1</ele>
        <time>2019-03-10T08:29:30Z</time>
      </trkpt>
      <trkpt lat="44.15998" lon="1.87158">
        <ele>281.7</ele>
        <time>2019-03-10T08:29:34Z</time>
      </trkpt>
      <trkpt lat="44.15983" lon="1.87157">
        <ele>282.3</ele>
        <time>2019-03-10T08:29:38Z</time>
      </trkpt>
      <trkpt lat="44.1596" lon="1.87157">
        <ele>281</ele>
        <time>2019-03-10T08:29:42Z</time>
      </trkpt>
      <trkpt lat="44.15934" lon="1.87155">
        <ele>280</ele>
        <time>2019-03-10T08:29:46Z</time>
      </trkpt>
      <trkpt lat="44.15909" lon="1.87144">
        <ele>277.2</ele>
        <time>2019-03-10T08:29:50Z</time>
      </trkpt>
      <trkpt lat="44.15893" lon="1.87156">
        <ele>276.2</ele>
        <time>2019-03-10T08:29:54Z</time>
      </trkpt>
      <trkpt lat="44.1587" lon="1.87154">
        <ele>273.8</ele>
        <time>2019-03-10T08:29:58Z</time>
      </trkpt>
      <trkpt lat="44.15852" lon="1.87155">
        <ele>272.6</ele>
        <time>2019-03-10T08:30:02Z</time>
      </trkpt>
      <trkpt lat="44.15826" lon="1.87155">
        <ele>272.3</ele>
        <time>2019-03-10T08:30:06Z</time>
      </trkpt>
      <trkpt lat="44.15803" lon="1.87159">
        <ele>271.7</ele>
        <time>2019-03-10T08:30:10Z</time>
      </trkpt>
      <trkpt lat="44.15779" lon="1.8716">
        <ele>272.7</ele>
        <time>2019-03-10T08:30:14Z</time>
      </trkpt>
      <trkpt lat="44.15764" lon="1.87167">
        <ele>273.1</ele>
        <time>2019-03-10T08:30:18Z</time>
      </trkpt>
      <trkpt lat="44.15744" lon="1.87176">
        <ele>273.8</ele>
        <time>2019-03-10T08:30:22Z</time>
      </trkpt>
      <trkpt lat="44.1573" lon="1.87181">
        <ele>273.8</ele>
        <time>2019-03-10T08:30:26Z</time>
      </trkpt>
      <trkpt lat="44.1571" lon="1.87186">
        <ele>274.4</ele>
        <time>2019-03-10T08:30:30Z</time>
      </trkpt>
      <trkpt lat="44.15688" lon="1.87196">
        <ele>274.9</ele>
        <time>2019-03-10T08:30:34Z</time>
      </trkpt>
      <trkpt lat="44.15672" lon="1.8721">
        <ele>275.4</ele>
        <time>2019-03-10T08:30:38Z</time>
      </trkpt>
      <trkpt lat="44.15659" lon="1.87219">
        <ele>275.9</ele>
        <time>2019-03-10T08:30:42Z</time>
      </trkpt>
      <trkpt lat="44.15637" lon="1.87233">
        <ele>275.2</ele>
        <time>2019-03-10T08:30:46Z</time>
      </trkpt>
      <trkpt lat="44.15614" lon="1.87249">
        <ele>275.2</ele>
        <time>2019-03-10T08:30:50Z</time>
      </trkpt>
      <trkpt lat="44.15604" lon="1.87256">
        <ele>274.6</ele>
        <time>2019-03-10T08:30:54Z</time>
      </trkpt>
      <trkpt lat="44.15589" lon="1.8727">
        <ele>275</ele>
        <time>2019-03-10T08:30:58Z</time>
      </trkpt>
      <trkpt lat="44.15577" lon="1.8728">
        <ele>275.8</ele>
        <time>2019-03-10T08:31:02Z</time>
      </trkpt>
      <trkpt lat="44.15559" lon="1.87292">
        <ele>276</ele>
        <time>2019-03-10T08:31:06Z</time>
      </trkpt>
      <trkpt lat="44.15543" lon="1.87303">
        <ele>277</ele>
        <time>2019-03-10T08:31:10Z</time>
      </trkpt>
      <trkpt lat="44.15528" lon="1.87311">
        <ele>277.7</ele>
        <time>2019-03-10T08:31:14Z</time>
      </trkpt>
      <trkpt lat="44.15513" lon="1.87321">
        <ele>276.9</ele>
        <time>2019-03-10T08:31:18Z</time>
      </trkpt>
      <trkpt lat="44.15507" lon="1.87333">
        <ele>277.6</ele>
        <time>2019-03-10T08:31:22Z</time>
      </trkpt>
      <trkpt lat="44.15512" lon="1.87353">
        <ele>277.6</ele>
        <time>2019-03-10T08:31:26Z</time>
      </trkpt>
      <trkpt lat="44.15514" lon="1.87377">
        <ele>276.5</ele>
        <time>2019-03-10T08:31:30Z</time>
      </trkpt>
      <trkpt lat="44.15517" lon="1.87398">
        <ele>276.5</ele>
        <time>2019-03-10T08:31:34Z</time>
      </trkpt>
      <trkpt lat="44.1553" lon="1.87419">
        <ele>275.3</ele>
        <time>2019-03-10T08:31:38Z</time>
      </trkpt>
      <trkpt lat="44.1553" lon="1.87448">
        <ele>273.4</ele>
        <time>2019-03-10T08:31:42Z</time>
      </trkpt>
      <trkpt lat="44.15538" lon="1.87473">
        <ele>272.3</ele>
        <time>2019-03-10T08:31:46Z</time>
      </trkpt>
      <trkpt lat="44.15551" lon="1.87486">
        <ele>270</ele>
        <time>2019-03-10T08:31:50Z</time>
      </trkpt>
      <trkpt lat="44.15567" lon="1.87498">
        <ele>270</ele>
        <time>2019-03-10T08:31:54Z</time>
      </trkpt>
      <trkpt lat="44.1558" lon="1.87511">
        <ele>269.1</ele>
        <time>2019-03-10T08:31:58Z</time>
      </trkpt>
      <trkpt lat="44.15602" lon="1.87531">
        <ele>270</ele>
        <time>2019-03-10T08:32:02Z</time>
      </trkpt>
      <trkpt lat="44.15619" lon="1.87539">
        <ele>270.5</ele>
        <time>2019-03-10T08:32:06Z</time>
      </trkpt>
      <trkpt lat="44.15631" lon="1.8755">
        <ele>270.9</ele>
        <time>2019-03-10T08:32:10Z</time>
      </trkpt>
      <trkpt lat="44.15643" lon="1.87562">
        <ele>272.1</ele>
        <time>2019-03-10T08:32:14Z</time>
      </trkpt>
      <trkpt lat="44.15656" lon="1.87565">
        <ele>273.7</ele>
        <time>2019-03-10T08:32:18Z</time>
      </trkpt>
      <trkpt lat="44.15671" lon="1.87565">
        <ele>275.5</ele>
        <time>2019-03-10T08:32:22Z</time>
      </trkpt>
      <trkpt lat="44.1568" lon="1.87569">
        <ele>276.6</ele>
        <time>2019-03-10T08:32:26Z</time>
      </trkpt>
      <trkpt lat="44.15691" lon="1.87573">
        <ele>276.6</ele>
        <time>2019-03-10T08:32:30Z</time>
      </trkpt>
      <trkpt lat="44.15705" lon="1.8758">
        <ele>276.3</ele>
        <time>2019-03-10T08:32:34Z</time>
      </trkpt>
      <trkpt lat="44.15717" lon="1.87589">
        <ele>277.2</ele>
        <time>2019-03-10T08:32:38Z</time>
      </trkpt>
      <trkpt lat="44.15731" lon="1.87598">
        <ele>277.5</ele>
        <time>2019-03-10T08:32:42Z</time>
      </trkpt>
      <trkpt lat="44.15745" lon="1.87601">
        <ele>277.8</ele>
        <time>2019-03-10T08:32:46Z</time>
      </trkpt>
      <trkpt lat="44.15756" lon="1.87601">
        <ele>278</ele>
        <time>2019-03-10T08:32:50Z</time>
      </trkpt>
      <trkpt lat="44.1577" lon="1.87614">
        <ele>278</ele>
        <time>2019-03-10T08:32:54Z</time>
      </trkpt>
      <trkpt lat="44.15785" lon="1.87628">
        <ele>277.4</ele>
        <time>2019-03-10T08:32:58Z</time>
      </trkpt>
      <trkpt lat="44.158" lon="1.8764">
        <ele>277.7</ele>
        <time>2019-03-10T08:33:02Z</time>
      </trkpt>
      <trkpt lat="44.15814" lon="1.87646">
        <ele>276.7</ele>
        <time>2019-03-10T08:33:06Z</time>
      </trkpt>
      <trkpt lat="44.15833" lon="1.8765">
        <ele>276.4</ele>
        <time>2019-03-10T08:33:10Z</time>
      </trkpt>
      <trkpt lat="44.1585" lon="1.87659">
        <ele>276.7</ele>
        <time>2019-03-10T08:33:14Z</time>
      </trkpt>
      <trkpt lat="44.15865" lon="1.87674">
        <ele>275.4</ele>
        <time>2019-03-10T08:33:18Z</time>
      </trkpt>
      <trkpt lat="44.15879" lon="1.87695">
        <ele>275.6</ele>
        <time>2019-03-10T08:33:22Z</time>
      </trkpt>
      <trkpt lat="44.15901" lon="1.87711">
        <ele>274.1</ele>
        <time>2019-03-10T08:33:26Z</time>
      </trkpt>
      <trkpt lat="44.15912" lon="1.87736">
        <ele>270.5</ele>
        <time>2019-03-10T08:33:30Z</time>
      </trkpt>
      <trkpt lat="44.15921" lon="1.87769">
        <ele>268.6</ele>
        <time>2019-03-10T08:33:34Z</time>
      </trkpt>
      <trkpt lat="44.1593" lon="1.87817">
        <ele>263.8</ele>
        <time>2019-03-10T08:33:38Z</time>
      </trkpt>
      <trkpt lat="44.15935" lon="1.87853">
        <ele>257.4</ele>
        <time>2019-03-10T08:33:42Z</time>
      </trkpt>
      <trkpt lat="44.15936" lon="1.87902">
        <ele>253.5</ele>
        <time>2019-03-10T08:33:46Z</time>
      </trkpt>
      <trkpt lat="44.15942" lon="1.87945">
        <ele>248.2</ele>
        <time>2019-03-10T08:33:50Z</time>
      </trkpt>
      <trkpt lat="44.15941" lon="1.87979">
        <ele>243.8</ele>
        <time>2019-03-10T08:33:54Z</time>
      </trkpt>
      <trkpt lat="44.15931" lon="1.88001">
        <ele>241.1</ele>
        <time>2019-03-10T08:33:58Z</time>
      </trkpt>
      <trkpt lat="44.15929" lon="1.88017">
        <ele>239.9</ele>
        <time>2019-03-10T08:34:02Z</time>
      </trkpt>
      <trkpt lat="44.15931" lon="1.88039">
        <ele>239.8</ele>
        <time>2019-03-10T08:34:06Z</time>
      </trkpt>
      <trkpt lat="44.15943" lon="1.88054">
        <ele>240.4</ele>
        <time>2019-03-10T08:34:10Z</time>
      </trkpt>
      <trkpt lat="44.15962" lon="1.88071">
        <ele>239.8</ele>
        <time>2019-03-10T08:34:14Z</time>
      </trkpt>
      <trkpt lat="44.15981" lon="1.88103">
        <ele>237.4</ele>
        <time>2019-03-10T08:34:18Z</time>
      </trkpt>
      <trkpt lat="44.16009" lon="1.88131">
        <ele>235.6</ele>
        <time>2019-03-10T08:34:22Z</time>
      </trkpt>
      <trkpt lat="44.16033" lon="1.8816">
        <ele>229.2</ele>
        <time>2019-03-10T08:34:26Z</time>
      </trkpt>
      <trkpt lat="44.16056" lon="1.882">
        <ele>225.9</ele>
        <time>2019-03-10T08:34:30Z</time>
      </trkpt>
      <trkpt lat="44.16079" lon="1.88251">
        <ele>220.9</ele>
        <time>2019-03-10T08:34:34Z</time>
      </trkpt>
      <trkpt lat="44.16091" lon="1.883">
        <ele>219</ele>
        <time>2019-03-10T08:34:38Z</time>
      </trkpt>
      <trkpt lat="44.16099" lon="1.88344">
        <ele>211.6</ele>
        <time>2019-03-10T08:34:42Z</time>
      </trkpt>
      <trkpt lat="44.16114" lon="1.8839">
        <ele>207.1</ele>
        <time>2019-03-10T08:34:46Z</time>
      </trkpt>
      <trkpt lat="44.16121" lon="1.88447">
        <ele>202.8</ele>
        <time>2019-03-10T08:34:50Z</time>
      </trkpt>
      <trkpt lat="44.16124" lon="1.8849">
        <ele>196</ele>
        <time>2019-03-10T08:34:54Z</time>
      </trkpt>
      <trkpt lat="44.16138" lon="1.88519">
        <ele>190</ele>
        <time>2019-03-10T08:34:58Z</time>
      </trkpt>
      <trkpt lat="44.16163" lon="1.88547">
        <ele>185.2</ele>
        <time>2019-03-10T08:35:02Z</time>
      </trkpt>
      <trkpt lat="44.16181" lon="1.88557">
        <ele>181</ele>
        <time>2019-03-10T08:35:06Z</time>
      </trkpt>
      <trkpt lat="44.16197" lon="1.88563">
        <ele>178.1</ele>
        <time>2019-03-10T08:35:10Z</time>
      </trkpt>
      <trkpt lat="44.16217" lon="1.88584">
        <ele>176</ele>
        <time>2019-03-10T08:35:14Z</time>
      </trkpt>
      <trkpt lat="44.16223" lon="1.88589">
        <ele>173.1</ele>
        <time>2019-03-10T08:35:18Z</time>
      </trkpt>
      <trkpt lat="44.16225" lon="1.8858">
        <ele>172.1</ele>
        <time>2019-03-10T08:35:22Z</time>
      </trkpt>
      <trkpt lat="44.16224" lon="1.8857">
        <ele>173.8</ele>
        <time>2019-03-10T08:35:26Z</time>
      </trkpt>
      <trkpt lat="44.16223" lon="1.88558">
        <ele>174.6</ele>
        <time>2019-03-10T08:35:30Z</time>
      </trkpt>
      <trkpt lat="44.16222" lon="1.88542">
        <ele>176</ele>
        <time>2019-03-10T08:35:34Z</time>
      </trkpt>
      <trkpt lat="44.16222" lon="1.88527">
        <ele>176.8</ele>
        <time>2019-03-10T08:35:38Z</time>
      </trkpt>
      <trkpt lat="44.16224" lon="1.88513">
        <ele>178.1</ele>
        <time>2019-03-10T08:35:42Z</time>
      </trkpt>
      <trkpt lat="44.16227" lon="1.885">
        <ele>179.2</ele>
        <time>2019-03-10T08:35:46Z</time>
      </trkpt>
      <trkpt lat="44.16227" lon="1.88487">
        <ele>180.4</ele>
        <time>2019-03-10T08:35:50Z</time>
      </trkpt>
      <trkpt lat="44.1623" lon="1.88472">
        <ele>181.8</ele>
        <time>2019-03-10T08:35:54Z</time>
      </trkpt>
      <trkpt lat="44.16234" lon="1.88463">
        <ele>183.2</ele>
        <time>2019-03-10T08:35:58Z</time>
      </trkpt>
      <trkpt lat="44.16237" lon="1.8846">
        <ele>184.9</ele>
        <time>2019-03-10T08:36:02Z</time>
      </trkpt>
      <trkpt lat="44.16242" lon="1.88457">
        <ele>186.6</ele>
        <time>2019-03-10T08:36:06Z</time>
      </trkpt>
      <trkpt lat="44.16249" lon="1.88454">
        <ele>188.7</ele>
        <time>2019-03-10T08:36:11Z</time>
      </trkpt>
      <trkpt lat="44.16255" lon="1.88452">
        <ele>189.6</ele>
        <time>2019-03-10T08:36:15Z</time>
      </trkpt>
      <trkpt lat="44.16262" lon="1.88448">
        <ele>190.9</ele>
        <time>2019-03-10T08:36:19Z</time>
      </trkpt>
      <trkpt lat="44.16273" lon="1.88441">
        <ele>192.7</ele>
        <time>2019-03-10T08:36:23Z</time>
      </trkpt>
      <trkpt lat="44.16282" lon="1.88437">
        <ele>194</ele>
        <time>2019-03-10T08:36:27Z</time>
      </trkpt>
      <trkpt lat="44.16293" lon="1.88429">
        <ele>195.3</ele>
        <time>2019-03-10T08:36:31Z</time>
      </trkpt>
      <trkpt lat="44.16299" lon="1.88426">
        <ele>196.2</ele>
        <time>2019-03-10T08:36:35Z</time>
      </trkpt>
      <trkpt lat="44.16307" lon="1.88422">
        <ele>197.4</ele>
        <time>2019-03-10T08:36:39Z</time>
      </trkpt>
      <trkpt lat="44.16317" lon="1.88422">
        <ele>199.2</ele>
        <time>2019-03-10T08:36:43Z</time>
      </trkpt>
      <trkpt lat="44.16326" lon="1.88421">
        <ele>200.6</ele>
        <time>2019-03-10T08:36:47Z</time>
      </trkpt>
      <trkpt lat="44.16333" lon="1.88419">
        <ele>201.9</ele>
        <time>2019-03-10T08:36:51Z</time>
      </trkpt>
      <trkpt lat="44.16339" lon="1.88416">
        <ele>203.1</ele>
        <time>2019-03-10T08:36:55Z</time>
      </trkpt>
      <trkpt lat="44.16348" lon="1.88414">
        <ele>204.1</ele>
        <time>2019-03-10T08:36:59Z</time>
      </trkpt>
      <trkpt lat="44.16356" lon="1.88411">
        <ele>205.6</ele>
        <time>2019-03-10T08:37:03Z</time>
      </trkpt>
      <trkpt lat="44.16362" lon="1.88405">
        <ele>207.1</ele>
        <time>2019-03-10T08:37:07Z</time>
      </trkpt>
      <trkpt lat="44.16369" lon="1.884">
        <ele>208.1</ele>
        <time>2019-03-10T08:37:11Z</time>
      </trkpt>
      <trkpt lat="44.16377" lon="1.88392">
        <ele>209.7</ele>
        <time>2019-03-10T08:37:15Z</time>
      </trkpt>
      <trkpt lat="44.16382" lon="1.88383">
        <ele>211</ele>
        <time>2019-03-10T08:37:19Z</time>
      </trkpt>
      <trkpt lat="44.16388" lon="1.88373">
        <ele>212.6</ele>
        <time>2019-03-10T08:37:23Z</time>
      </trkpt>
      <trkpt lat="44.16391" lon="1.88363">
        <ele>213.8</ele>
        <time>2019-03-10T08:37:27Z</time>
      </trkpt>
      <trkpt lat="44.16395" lon="1.88356">
        <ele>215.2</ele>
        <time>2019-03-10T08:37:31Z</time>
      </trkpt>
      <trkpt lat="44.16398" lon="1.88347">
        <ele>216.2</ele>
        <time>2019-03-10T08:37:35Z</time>
      </trkpt>
      <trkpt lat="44.16403" lon="1.88339">
        <ele>217.4</ele>
        <time>2019-03-10T08:37:39Z</time>
      </trkpt>
      <trkpt lat="44.16405" lon="1.88331">
        <ele>218.6</ele>
        <time>2019-03-10T08:37:43Z</time>
      </trkpt>
      <trkpt lat="44.16407" lon="1.88324">
        <ele>219.2</ele>
        <time>2019-03-10T08:37:47Z</time>
      </trkpt>
      <trkpt lat="44.16408" lon="1.88315">
        <ele>220.6</ele>
        <time>2019-03-10T08:37:51Z</time>
      </trkpt>
      <trkpt lat="44.16411" lon="1.88306">
        <ele>222</ele>
        <time>2019-03-10T08:37:55Z</time>
      </trkpt>
      <trkpt lat="44.16414" lon="1.88299">
        <ele>223.2</ele>
        <time>2019-03-10T08:37:59Z</time>
      </trkpt>
      <trkpt lat="44.16417" lon="1.8829">
        <ele>224.6</ele>
        <time>2019-03-10T08:38:03Z</time>
      </trkpt>
      <trkpt lat="44.16419" lon="1.88279">
        <ele>226.2</ele>
        <time>2019-03-10T08:38:07Z</time>
      </trkpt>
      <trkpt lat="44.16423" lon="1.88271">
        <ele>227.4</ele>
        <time>2019-03-10T08:38:11Z</time>
      </trkpt>
      <trkpt lat="44.16426" lon="1.88264">
        <ele>228.9</ele>
        <time>2019-03-10T08:38:15Z</time>
      </trkpt>
      <trkpt lat="44.1643" lon="1.88256">
        <ele>230.9</ele>
        <time>2019-03-10T08:38:19Z</time>
      </trkpt>
      <trkpt lat="44.16431" lon="1.88248">
        <ele>232.1</ele>
        <time>2019-03-10T08:38:23Z</time>
      </trkpt>
      <trkpt lat="44.16437" lon="1.88241">
        <ele>233</ele>
        <time>2019-03-10T08:38:27Z</time>
      </trkpt>
      <trkpt lat="44.16441" lon="1.88234">
        <ele>234.4</ele>
        <time>2019-03-10T08:38:31Z</time>
      </trkpt>
      <trkpt lat="44.16442" lon="1.88222">
        <ele>235</ele>
        <time>2019-03-10T08:38:35Z</time>
      </trkpt>
      <trkpt lat="44.16444" lon="1.88211">
        <ele>234.9</ele>
        <time>2019-03-10T08:38:39Z</time>
      </trkpt>
      <trkpt lat="44.16449" lon="1.88201">
        <ele>235.9</ele>
        <time>2019-03-10T08:38:43Z</time>
      </trkpt>
      <trkpt lat="44.16455" lon="1.88191">
        <ele>237.3</ele>
        <time>2019-03-10T08:38:47Z</time>
      </trkpt>
      <trkpt lat="44.1646" lon="1.88181">
        <ele>237.7</ele>
        <time>2019-03-10T08:38:51Z</time>
      </trkpt>
      <trkpt lat="44.16465" lon="1.88171">
        <ele>238.7</ele>
        <time>2019-03-10T08:38:55Z</time>
      </trkpt>
      <trkpt lat="44.16471" lon="1.88164">
        <ele>239.6</ele>
        <time>2019-03-10T08:38:59Z</time>
      </trkpt>
      <trkpt lat="44.16475" lon="1.88156">
        <ele>239.8</ele>
        <time>2019-03-10T08:39:03Z</time>
      </trkpt>
      <trkpt lat="44.16479" lon="1.8815">
        <ele>240.4</ele>
        <time>2019-03-10T08:39:07Z</time>
      </trkpt>
      <trkpt lat="44.16482" lon="1.88146">
        <ele>241</ele>
        <time>2019-03-10T08:39:11Z</time>
      </trkpt>
      <trkpt lat="44.16486" lon="1.88141">
        <ele>241.4</ele>
        <time>2019-03-10T08:39:15Z</time>
      </trkpt>
      <trkpt lat="44.16489" lon="1.88136">
        <ele>242.2</ele>
        <time>2019-03-10T08:39:19Z</time>
      </trkpt>
      <trkpt lat="44.16492" lon="1.88132">
        <ele>242.2</ele>
        <time>2019-03-10T08:39:23Z</time>
      </trkpt>
      <trkpt lat="44.16497" lon="1.88124">
        <ele>243.2</ele>
        <time>2019-03-10T08:39:27Z</time>
      </trkpt>
      <trkpt lat="44.16502" lon="1.88118">
        <ele>243.9</ele>
        <time>2019-03-10T08:39:31Z</time>
      </trkpt>
      <trkpt lat="44.16506" lon="1.88113">
        <ele>244.5</ele>
        <time>2019-03-10T08:39:35Z</time>
      </trkpt>
      <trkpt lat="44.16508" lon="1.8811">
        <ele>244.8</ele>
        <time>2019-03-10T08:39:39Z</time>
      </trkpt>
      <trkpt lat="44.16511" lon="1.88106">
        <ele>245.3</ele>
        <time>2019-03-10T08:39:43Z</time>
      </trkpt>
      <trkpt lat="44.16515" lon="1.88101">
        <ele>246</ele>
        <time>2019-03-10T08:39:47Z</time>
      </trkpt>
      <trkpt lat="44.1652" lon="1.88096">
        <ele>246.5</ele>
        <time>2019-03-10T08:39:51Z</time>
      </trkpt>
      <trkpt lat="44.16525" lon="1.88089">
        <ele>247.1</ele>
        <time>2019-03-10T08:39:55Z</time>
      </trkpt>
      <trkpt lat="44.16529" lon="1.88085">
        <ele>247.3</ele>
        <time>2019-03-10T08:39:59Z</time>
      </trkpt>
      <trkpt lat="44.16533" lon="1.88078">
        <ele>247.8</ele>
        <time>2019-03-10T08:40:03Z</time>
      </trkpt>
      <trkpt lat="44.16537" lon="1.88074">
        <ele>248.1</ele>
        <time>2019-03-10T08:40:07Z</time>
      </trkpt>
      <trkpt lat="44.16542" lon="1.88069">
        <ele>248.7</ele>
        <time>2019-03-10T08:40:11Z</time>
      </trkpt>
      <trkpt lat="44.16545" lon="1.88066">
        <ele>249.1</ele>
        <time>2019-03-10T08:40:15Z</time>
      </trkpt>
      <trkpt lat="44.1655" lon="1.88062">
        <ele>249.6</ele>
        <time>2019-03-10T08:40:19Z</time>
      </trkpt>
      <trkpt lat="44.16554" lon="1.88056">
        <ele>250</ele>
        <time>2019-03-10T08:40:23Z</time>
      </trkpt>
      <trkpt lat="44.1656" lon="1.88052">
        <ele>250.7</ele>
        <time>2019-03-10T08:40:27Z</time>
      </trkpt>
      <trkpt lat="44.16565" lon="1.88048">
        <ele>251.3</ele>
        <time>2019-03-10T08:40:31Z</time>
      </trkpt>
      <trkpt lat="44.16571" lon="1.88043">
        <ele>251.3</ele>
        <time>2019-03-10T08:40:35Z</time>
      </trkpt>
      <trkpt lat="44.16575" lon="1.88038">
        <ele>252.5</ele>
        <time>2019-03-10T08:40:39Z</time>
      </trkpt>
      <trkpt lat="44.16579" lon="1.88032">
        <ele>252.9</ele>
        <time>2019-03-10T08:40:43Z</time>
      </trkpt>
      <trkpt lat="44.16584" lon="1.88027">
        <ele>253.4</ele>
        <time>2019-03-10T08:40:47Z</time>
      </trkpt>
      <trkpt lat="44.1659" lon="1.88024">
        <ele>254.1</ele>
        <time>2019-03-10T08:40:51Z</time>
      </trkpt>
      <trkpt lat="44.16595" lon="1.88026">
        <ele>255</ele>
        <time>2019-03-10T08:40:55Z</time>
      </trkpt>
      <trkpt lat="44.166" lon="1.88029">
        <ele>255.7</ele>
        <time>2019-03-10T08:40:59Z</time>
      </trkpt>
      <trkpt lat="44.16606" lon="1.88033">
        <ele>256.4</ele>
        <time>2019-03-10T08:41:03Z</time>
      </trkpt>
      <trkpt lat="44.16611" lon="1.88037">
        <ele>257</ele>
        <time>2019-03-10T08:41:07Z</time>
      </trkpt>
      <trkpt lat="44.16617" lon="1.88041">
        <ele>257.7</ele>
        <time>2019-03-10T08:41:11Z</time>
      </trkpt>
      <trkpt lat="44.16625" lon="1.88045">
        <ele>258.4</ele>
        <time>2019-03-10T08:41:15Z</time>
      </trkpt>
      <trkpt lat="44.16634" lon="1.88047">
        <ele>259.7</ele>
        <time>2019-03-10T08:41:19Z</time>
      </trkpt>
      <trkpt lat="44.16641" lon="1.88052">
        <ele>260.7</ele>
        <time>2019-03-10T08:41:23Z</time>
      </trkpt>
      <trkpt lat="44.16643" lon="1.88055">
        <ele>262</ele>
        <time>2019-03-10T08:41:27Z</time>
      </trkpt>
      <trkpt lat="44.16651" lon="1.8806">
        <ele>263</ele>
        <time>2019-03-10T08:41:31Z</time>
      </trkpt>
      <trkpt lat="44.16663" lon="1.8806">
        <ele>264.1</ele>
        <time>2019-03-10T08:41:35Z</time>
      </trkpt>
      <trkpt lat="44.16669" lon="1.88066">
        <ele>265.4</ele>
        <time>2019-03-10T08:41:39Z</time>
      </trkpt>
      <trkpt lat="44.16674" lon="1.8807">
        <ele>266.4</ele>
        <time>2019-03-10T08:41:43Z</time>
      </trkpt>
      <trkpt lat="44.16683" lon="1.8807">
        <ele>268.1</ele>
        <time>2019-03-10T08:41:47Z</time>
      </trkpt>
      <trkpt lat="44.16692" lon="1.8807">
        <ele>269.3</ele>
        <time>2019-03-10T08:41:51Z</time>
      </trkpt>
      <trkpt lat="44.16697" lon="1.88077">
        <ele>270.8</ele>
        <time>2019-03-10T08:41:55Z</time>
      </trkpt>
      <trkpt lat="44.167" lon="1.88082">
        <ele>271.7</ele>
        <time>2019-03-10T08:41:59Z</time>
      </trkpt>
      <trkpt lat="44.16706" lon="1.88081">
        <ele>272.7</ele>
        <time>2019-03-10T08:42:03Z</time>
      </trkpt>
      <trkpt lat="44.16709" lon="1.88085">
        <ele>273.6</ele>
        <time>2019-03-10T08:42:07Z</time>
      </trkpt>
      <trkpt lat="44.16718" lon="1.88087">
        <ele>274.9</ele>
        <time>2019-03-10T08:42:11Z</time>
      </trkpt>
      <trkpt lat="44.16727" lon="1.88085">
        <ele>276.1</ele>
        <time>2019-03-10T08:42:15Z</time>
      </trkpt>
      <trkpt lat="44.16735" lon="1.88089">
        <ele>277.1</ele>
        <time>2019-03-10T08:42:19Z</time>
      </trkpt>
      <trkpt lat="44.16741" lon="1.88091">
        <ele>277.8</ele>
        <time>2019-03-10T08:42:23Z</time>
      </trkpt>
      <trkpt lat="44.16747" lon="1.8809">
        <ele>278.8</ele>
        <time>2019-03-10T08:42:27Z</time>
      </trkpt>
      <trkpt lat="44.16752" lon="1.88096">
        <ele>279.5</ele>
        <time>2019-03-10T08:42:31Z</time>
      </trkpt>
      <trkpt lat="44.16762" lon="1.8809">
        <ele>280.4</ele>
        <time>2019-03-10T08:42:35Z</time>
      </trkpt>
      <trkpt lat="44.1677" lon="1.88091">
        <ele>281.3</ele>
        <time>2019-03-10T08:42:39Z</time>
      </trkpt>
      <trkpt lat="44.16773" lon="1.88101">
        <ele>281.7</ele>
        <time>2019-03-10T08:42:43Z</time>
      </trkpt>
      <trkpt lat="44.16778" lon="1.88103">
        <ele>282.5</ele>
        <time>2019-03-10T08:42:47Z</time>
      </trkpt>
      <trkpt lat="44.16785" lon="1.88104">
        <ele>283.7</ele>
        <time>2019-03-10T08:42:51Z</time>
      </trkpt>
      <trkpt lat="44.16793" lon="1.88109">
        <ele>284.1</ele>
        <time>2019-03-10T08:42:55Z</time>
      </trkpt>
      <trkpt lat="44.168" lon="1.88112">
        <ele>284.6</ele>
        <time>2019-03-10T08:42:59Z</time>
      </trkpt>
      <trkpt lat="44.16804" lon="1.88113">
        <ele>285.1</ele>
        <time>2019-03-10T08:43:03Z</time>
      </trkpt>
      <trkpt lat="44.16815" lon="1.88114">
        <ele>285.9</ele>
        <time>2019-03-10T08:43:07Z</time>
      </trkpt>
      <trkpt lat="44.16823" lon="1.88117">
        <ele>286.6</ele>
        <time>2019-03-10T08:43:11Z</time>
      </trkpt>
      <trkpt lat="44.16834" lon="1.88116">
        <ele>287.3</ele>
        <time>2019-03-10T08:43:15Z</time>
      </trkpt>
      <trkpt lat="44.16845" lon="1.88115">
        <ele>287.9</ele>
        <time>2019-03-10T08:43:19Z</time>
      </trkpt>
      <trkpt lat="44.16856" lon="1.88119">
        <ele>288.7</ele>
        <time>2019-03-10T08:43:23Z</time>
      </trkpt>
      <trkpt lat="44.16868" lon="1.88113">
        <ele>289.5</ele>
        <time>2019-03-10T08:43:27Z</time>
      </trkpt>
      <trkpt lat="44.16872" lon="1.88115">
        <ele>290.3</ele>
        <time>2019-03-10T08:43:31Z</time>
      </trkpt>
      <trkpt lat="44.16883" lon="1.88117">
        <ele>291.1</ele>
        <time>2019-03-10T08:43:35Z</time>
      </trkpt>
      <trkpt lat="44.16893" lon="1.88113">
        <ele>291.1</ele>
        <time>2019-03-10T08:43:39Z</time>
      </trkpt>
      <trkpt lat="44.16902" lon="1.88105">
        <ele>292.2</ele>
        <time>2019-03-10T08:43:43Z</time>
      </trkpt>
      <trkpt lat="44.16912" lon="1.881">
        <ele>292.8</ele>
        <time>2019-03-10T08:43:47Z</time>
      </trkpt>
      <trkpt lat="44.16922" lon="1.88101">
        <ele>293.5</ele>
        <time>2019-03-10T08:43:51Z</time>
      </trkpt>
      <trkpt lat="44.16929" lon="1.88097">
        <ele>293.5</ele>
        <time>2019-03-10T08:43:55Z</time>
      </trkpt>
      <trkpt lat="44.16942" lon="1.8809">
        <ele>294</ele>
        <time>2019-03-10T08:43:59Z</time>
      </trkpt>
      <trkpt lat="44.1695" lon="1.88073">
        <ele>294</ele>
        <time>2019-03-10T08:44:03Z</time>
      </trkpt>
      <trkpt lat="44.16954" lon="1.88056">
        <ele>292.7</ele>
        <time>2019-03-10T08:44:07Z</time>
      </trkpt>
      <trkpt lat="44.16973" lon="1.8806">
        <ele>291.5</ele>
        <time>2019-03-10T08:44:11Z</time>
      </trkpt>
      <trkpt lat="44.16988" lon="1.88085">
        <ele>288.7</ele>
        <time>2019-03-10T08:44:15Z</time>
      </trkpt>
      <trkpt lat="44.17029" lon="1.88095">
        <ele>283.2</ele>
        <time>2019-03-10T08:44:19Z</time>
      </trkpt>
      <trkpt lat="44.17071" lon="1.88107">
        <ele>276.3</ele>
        <time>2019-03-10T08:44:23Z</time>
      </trkpt>
      <trkpt lat="44.17121" lon="1.88103">
        <ele>271.8</ele>
        <time>2019-03-10T08:44:27Z</time>
      </trkpt>
      <trkpt lat="44.17156" lon="1.88091">
        <ele>270.7</ele>
        <time>2019-03-10T08:44:31Z</time>
      </trkpt>
      <trkpt lat="44.17174" lon="1.88088">
        <ele>270.6</ele>
        <time>2019-03-10T08:44:35Z</time>
      </trkpt>
      <trkpt lat="44.17189" lon="1.88088">
        <ele>271.3</ele>
        <time>2019-03-10T08:44:39Z</time>
      </trkpt>
      <trkpt lat="44.17191" lon="1.88073">
        <ele>272.8</ele>
        <time>2019-03-10T08:44:43Z</time>
      </trkpt>
      <trkpt lat="44.17188" lon="1.88054">
        <ele>272.8</ele>
        <time>2019-03-10T08:44:47Z</time>
      </trkpt>
      <trkpt lat="44.17184" lon="1.88027">
        <ele>272.1</ele>
        <time>2019-03-10T08:44:51Z</time>
      </trkpt>
      <trkpt lat="44.17187" lon="1.88008">
        <ele>272.3</ele>
        <time>2019-03-10T08:44:55Z</time>
      </trkpt>
      <trkpt lat="44.17181" lon="1.87976">
        <ele>271.4</ele>
        <time>2019-03-10T08:44:59Z</time>
      </trkpt>
      <trkpt lat="44.17186" lon="1.87941">
        <ele>269</ele>
        <time>2019-03-10T08:45:03Z</time>
      </trkpt>
      <trkpt lat="44.17192" lon="1.87898">
        <ele>267.7</ele>
        <time>2019-03-10T08:45:07Z</time>
      </trkpt>
      <trkpt lat="44.17193" lon="1.8785">
        <ele>265.4</ele>
        <time>2019-03-10T08:45:11Z</time>
      </trkpt>
      <trkpt lat="44.172" lon="1.87814">
        <ele>261.5</ele>
        <time>2019-03-10T08:45:15Z</time>
      </trkpt>
      <trkpt lat="44.17174" lon="1.87792">
        <ele>256</ele>
        <time>2019-03-10T08:45:19Z</time>
      </trkpt>
      <trkpt lat="44.17162" lon="1.87772">
        <ele>251.4</ele>
        <time>2019-03-10T08:45:23Z</time>
      </trkpt>
      <trkpt lat="44.17168" lon="1.87742">
        <ele>249.9</ele>
        <time>2019-03-10T08:45:27Z</time>
      </trkpt>
      <trkpt lat="44.17174" lon="1.87697">
        <ele>248.1</ele>
        <time>2019-03-10T08:45:31Z</time>
      </trkpt>
      <trkpt lat="44.1718" lon="1.87641">
        <ele>242.5</ele>
        <time>2019-03-10T08:45:35Z</time>
      </trkpt>
      <trkpt lat="44.17184" lon="1.87578">
        <ele>234.4</ele>
        <time>2019-03-10T08:45:39Z</time>
      </trkpt>
      <trkpt lat="44.17181" lon="1.87518">
        <ele>227.9</ele>
        <time>2019-03-10T08:45:43Z</time>
      </trkpt>
      <trkpt lat="44.17181" lon="1.87458">
        <ele>218.4</ele>
        <time>2019-03-10T08:45:47Z</time>
      </trkpt>
      <trkpt lat="44.17193" lon="1.87401">
        <ele>207.4</ele>
        <time>2019-03-10T08:45:51Z</time>
      </trkpt>
      <trkpt lat="44.17204" lon="1.87346">
        <ele>195.3</ele>
        <time>2019-03-10T08:45:55Z</time>
      </trkpt>
      <trkpt lat="44.17205" lon="1.87292">
        <ele>183.2</ele>
        <time>2019-03-10T08:45:59Z</time>
      </trkpt>
      <trkpt lat="44.17205" lon="1.87245">
        <ele>175.1</ele>
        <time>2019-03-10T08:46:03Z</time>
      </trkpt>
      <trkpt lat="44.17216" lon="1.87217">
        <ele>175.1</ele>
        <time>2019-03-10T08:46:07Z</time>
      </trkpt>
      <trkpt lat="44.17219" lon="1.87196">
        <ele>175.8</ele>
        <time>2019-03-10T08:46:11Z</time>
      </trkpt>
      <trkpt lat="44.1722" lon="1.87183">
        <ele>175.6</ele>
        <time>2019-03-10T08:46:15Z</time>
      </trkpt>
      <trkpt lat="44.17223" lon="1.87169">
        <ele>175.6</ele>
        <time>2019-03-10T08:46:19Z</time>
      </trkpt>
      <trkpt lat="44.17225" lon="1.87159">
        <ele>176.9</ele>
        <time>2019-03-10T08:46:23Z</time>
      </trkpt>
      <trkpt lat="44.17231" lon="1.87154">
        <ele>177.9</ele>
        <time>2019-03-10T08:46:27Z</time>
      </trkpt>
      <trkpt lat="44.17241" lon="1.87152">
        <ele>179</ele>
        <time>2019-03-10T08:46:31Z</time>
      </trkpt>
      <trkpt lat="44.17253" lon="1.87152">
        <ele>180.2</ele>
        <time>2019-03-10T08:46:35Z</time>
      </trkpt>
      <trkpt lat="44.17264" lon="1.87154">
        <ele>182.8</ele>
        <time>2019-03-10T08:46:39Z</time>
      </trkpt>
      <trkpt lat="44.17279" lon="1.87157">
        <ele>184</ele>
        <time>2019-03-10T08:46:43Z</time>
      </trkpt>
      <trkpt lat="44.17294" lon="1.87157">
        <ele>184</ele>
        <time>2019-03-10T08:46:47Z</time>
      </trkpt>
      <trkpt lat="44.17309" lon="1.87161">
        <ele>184.7</ele>
        <time>2019-03-10T08:46:51Z</time>
      </trkpt>
      <trkpt lat="44.17329" lon="1.87158">
        <ele>184.1</ele>
        <time>2019-03-10T08:46:55Z</time>
      </trkpt>
      <trkpt lat="44.17354" lon="1.87152">
        <ele>182.9</ele>
        <time>2019-03-10T08:46:59Z</time>
      </trkpt>
      <trkpt lat="44.17379" lon="1.87147">
        <ele>181.9</ele>
        <time>2019-03-10T08:47:03Z</time>
      </trkpt>
      <trkpt lat="44.17408" lon="1.87141">
        <ele>180.3</ele>
        <time>2019-03-10T08:47:07Z</time>
      </trkpt>
      <trkpt lat="44.17434" lon="1.87137">
        <ele>177.6</ele>
        <time>2019-03-10T08:47:11Z</time>
      </trkpt>
      <trkpt lat="44.17452" lon="1.87133">
        <ele>176.5</ele>
        <time>2019-03-10T08:47:15Z</time>
      </trkpt>
      <trkpt lat="44.17485" lon="1.87126">
        <ele>176.9</ele>
        <time>2019-03-10T08:47:19Z</time>
      </trkpt>
      <trkpt lat="44.17499" lon="1.87113">
        <ele>176.9</ele>
        <time>2019-03-10T08:47:23Z</time>
      </trkpt>
      <trkpt lat="44.17513" lon="1.87098">
        <ele>177.2</ele>
        <time>2019-03-10T08:47:27Z</time>
      </trkpt>
      <trkpt lat="44.17526" lon="1.87074">
        <ele>175.6</ele>
        <time>2019-03-10T08:47:31Z</time>
      </trkpt>
      <trkpt lat="44.17537" lon="1.87052">
        <ele>171.7</ele>
        <time>2019-03-10T08:47:35Z</time>
      </trkpt>
      <trkpt lat="44.17551" lon="1.87046">
        <ele>168.8</ele>
        <time>2019-03-10T08:47:39Z</time>
      </trkpt>
      <trkpt lat="44.17573" lon="1.87038">
        <ele>168.8</ele>
        <time>2019-03-10T08:47:43Z</time>
      </trkpt>
      <trkpt lat="44.17593" lon="1.87041">
        <ele>167.4</ele>
        <time>2019-03-10T08:47:47Z</time>
      </trkpt>
      <trkpt lat="44.17612" lon="1.87043">
        <ele>168.4</ele>
        <time>2019-03-10T08:47:51Z</time>
      </trkpt>
      <trkpt lat="44.17626" lon="1.87044">
        <ele>168.5</ele>
        <time>2019-03-10T08:47:55Z</time>
      </trkpt>
      <trkpt lat="44.17625" lon="1.87044">
        <ele>167.8</ele>
        <time>2019-03-10T08:47:59Z</time>
      </trkpt>
      <trkpt lat="44.17636" lon="1.87045">
        <ele>168.1</ele>
        <time>2019-03-10T08:48:03Z</time>
      </trkpt>
      <trkpt lat="44.17647" lon="1.8705">
        <ele>168.3</ele>
        <time>2019-03-10T08:48:07Z</time>
      </trkpt>
      <trkpt lat="44.17663" lon="1.87052">
        <ele>168.3</ele>
        <time>2019-03-10T08:48:11Z</time>
      </trkpt>
      <trkpt lat="44.17686" lon="1.87069">
        <ele>169.5</ele>
        <time>2019-03-10T08:48:15Z</time>
      </trkpt>
      <trkpt lat="44.177" lon="1.87068">
        <ele>170.3</ele>
        <time>2019-03-10T08:48:19Z</time>
      </trkpt>
      <trkpt lat="44.17712" lon="1.87071">
        <ele>169.2</ele>
        <time>2019-03-10T08:48:23Z</time>
      </trkpt>
      <trkpt lat="44.17725" lon="1.87079">
        <ele>166.7</ele>
        <time>2019-03-10T08:48:27Z</time>
      </trkpt>
      <trkpt lat="44.17731" lon="1.87068">
        <ele>166.7</ele>
        <time>2019-03-10T08:48:31Z</time>
      </trkpt>
      <trkpt lat="44.1774" lon="1.87064">
        <ele>167.6</ele>
        <time>2019-03-10T08:48:35Z</time>
      </trkpt>
      <trkpt lat="44.17753" lon="1.87059">
        <ele>169.5</ele>
        <time>2019-03-10T08:48:39Z</time>
      </trkpt>
      <trkpt lat="44.17765" lon="1.8705">
        <ele>170.1</ele>
        <time>2019-03-10T08:48:43Z</time>
      </trkpt>
      <trkpt lat="44.17776" lon="1.87042">
        <ele>170.1</ele>
        <time>2019-03-10T08:48:47Z</time>
      </trkpt>
      <trkpt lat="44.17785" lon="1.87039">
        <ele>169.9</ele>
        <time>2019-03-10T08:48:51Z</time>
      </trkpt>
      <trkpt lat="44.17794" lon="1.87032">
        <ele>170.6</ele>
        <time>2019-03-10T08:48:55Z</time>
      </trkpt>
      <trkpt lat="44.17806" lon="1.87019">
        <ele>171.3</ele>
        <time>2019-03-10T08:48:59Z</time>
      </trkpt>
      <trkpt lat="44.17813" lon="1.87015">
        <ele>172.7</ele>
        <time>2019-03-10T08:49:03Z</time>
      </trkpt>
      <trkpt lat="44.17815" lon="1.87016">
        <ele>174.6</ele>
        <time>2019-03-10T08:49:07Z</time>
      </trkpt>
      <trkpt lat="44.17826" lon="1.87012">
        <ele>175.9</ele>
        <time>2019-03-10T08:49:11Z</time>
      </trkpt>
      <trkpt lat="44.1784" lon="1.87009">
        <ele>176.9</ele>
        <time>2019-03-10T08:49:15Z</time>
      </trkpt>
      <trkpt lat="44.17854" lon="1.86994">
        <ele>177.8</ele>
        <time>2019-03-10T08:49:19Z</time>
      </trkpt>
      <trkpt lat="44.17861" lon="1.86993">
        <ele>178.7</ele>
        <time>2019-03-10T08:49:23Z</time>
      </trkpt>
      <trkpt lat="44.17873" lon="1.86988">
        <ele>178.9</ele>
        <time>2019-03-10T08:49:27Z</time>
      </trkpt>
      <trkpt lat="44.17898" lon="1.86993">
        <ele>177.7</ele>
        <time>2019-03-10T08:49:31Z</time>
      </trkpt>
      <trkpt lat="44.17917" lon="1.87004">
        <ele>176.6</ele>
        <time>2019-03-10T08:49:35Z</time>
      </trkpt>
      <trkpt lat="44.17932" lon="1.87017">
        <ele>176.2</ele>
        <time>2019-03-10T08:49:39Z</time>
      </trkpt>
      <trkpt lat="44.17949" lon="1.8703">
        <ele>177.1</ele>
        <time>2019-03-10T08:49:43Z</time>
      </trkpt>
      <trkpt lat="44.17966" lon="1.87042">
        <ele>176</ele>
        <time>2019-03-10T08:49:47Z</time>
      </trkpt>
      <trkpt lat="44.17979" lon="1.87051">
        <ele>176</ele>
        <time>2019-03-10T08:49:51Z</time>
      </trkpt>
      <trkpt lat="44.17995" lon="1.87064">
        <ele>175.8</ele>
        <time>2019-03-10T08:49:55Z</time>
      </trkpt>
      <trkpt lat="44.18004" lon="1.87078">
        <ele>175</ele>
        <time>2019-03-10T08:49:59Z</time>
      </trkpt>
      <trkpt lat="44.18014" lon="1.87089">
        <ele>176.2</ele>
        <time>2019-03-10T08:50:03Z</time>
      </trkpt>
      <trkpt lat="44.18023" lon="1.87102">
        <ele>175.9</ele>
        <time>2019-03-10T08:50:07Z</time>
      </trkpt>
      <trkpt lat="44.18033" lon="1.87111">
        <ele>177.2</ele>
        <time>2019-03-10T08:50:11Z</time>
      </trkpt>
      <trkpt lat="44.1804" lon="1.87116">
        <ele>177.9</ele>
        <time>2019-03-10T08:50:15Z</time>
      </trkpt>
      <trkpt lat="44.18052" lon="1.87124">
        <ele>177.9</ele>
        <time>2019-03-10T08:50:19Z</time>
      </trkpt>
      <trkpt lat="44.18063" lon="1.87135">
        <ele>177.7</ele>
        <time>2019-03-10T08:50:23Z</time>
      </trkpt>
      <trkpt lat="44.18076" lon="1.87148">
        <ele>177.9</ele>
        <time>2019-03-10T08:50:27Z</time>
      </trkpt>
      <trkpt lat="44.18086" lon="1.87159">
        <ele>178.7</ele>
        <time>2019-03-10T08:50:31Z</time>
      </trkpt>
      <trkpt lat="44.18097" lon="1.87171">
        <ele>179.6</ele>
        <time>2019-03-10T08:50:35Z</time>
      </trkpt>
      <trkpt lat="44.18106" lon="1.87177">
        <ele>179.6</ele>
        <time>2019-03-10T08:50:39Z</time>
      </trkpt>
      <trkpt lat="44.18118" lon="1.87191">
        <ele>180.6</ele>
        <time>2019-03-10T08:50:43Z</time>
      </trkpt>
      <trkpt lat="44.1813" lon="1.87207">
        <ele>180.6</ele>
        <time>2019-03-10T08:50:47Z</time>
      </trkpt>
      <trkpt lat="44.18141" lon="1.87218">
        <ele>181.3</ele>
        <time>2019-03-10T08:50:51Z</time>
      </trkpt>
      <trkpt lat="44.18154" lon="1.87233">
        <ele>180.8</ele>
        <time>2019-03-10T08:50:55Z</time>
      </trkpt>
      <trkpt lat="44.18175" lon="1.87252">
        <ele>179</ele>
        <time>2019-03-10T08:50:59Z</time>
      </trkpt>
      <trkpt lat="44.18198" lon="1.87269">
        <ele>175.8</ele>
        <time>2019-03-10T08:51:03Z</time>
      </trkpt>
      <trkpt lat="44.18217" lon="1.87274">
        <ele>173.1</ele>
        <time>2019-03-10T08:51:07Z</time>
      </trkpt>
      <trkpt lat="44.18234" lon="1.87282">
        <ele>171.8</ele>
        <time>2019-03-10T08:51:11Z</time>
      </trkpt>
      <trkpt lat="44.18252" lon="1.87287">
        <ele>171.8</ele>
        <time>2019-03-10T08:51:15Z</time>
      </trkpt>
      <trkpt lat="44.1827" lon="1.87288">
        <ele>172.7</ele>
        <time>2019-03-10T08:51:19Z</time>
      </trkpt>
      <trkpt lat="44.18282" lon="1.87287">
        <ele>172</ele>
        <time>2019-03-10T08:51:23Z</time>
      </trkpt>
      <trkpt lat="44.18291" lon="1.87282">
        <ele>172.8</ele>
        <time>2019-03-10T08:51:27Z</time>
      </trkpt>
      <trkpt lat="44.18301" lon="1.87283">
        <ele>173.3</ele>
        <time>2019-03-10T08:51:31Z</time>
      </trkpt>
      <trkpt lat="44.18317" lon="1.87287">
        <ele>174.7</ele>
        <time>2019-03-10T08:51:35Z</time>
      </trkpt>
      <trkpt lat="44.18328" lon="1.87287">
        <ele>176</ele>
        <time>2019-03-10T08:51:39Z</time>
      </trkpt>
      <trkpt lat="44.18343" lon="1.87288">
        <ele>178.6</ele>
        <time>2019-03-10T08:51:43Z</time>
      </trkpt>
      <trkpt lat="44.18358" lon="1.8729">
        <ele>180.9</ele>
        <time>2019-03-10T08:51:47Z</time>
      </trkpt>
      <trkpt lat="44.18372" lon="1.87296">
        <ele>180.9</ele>
        <time>2019-03-10T08:51:51Z</time>
      </trkpt>
      <trkpt lat="44.18385" lon="1.87303">
        <ele>180.9</ele>
        <time>2019-03-10T08:51:55Z</time>
      </trkpt>
      <trkpt lat="44.18395" lon="1.87314">
        <ele>180.9</ele>
        <time>2019-03-10T08:51:59Z</time>
      </trkpt>
      <trkpt lat="44.18408" lon="1.87324">
        <ele>180.6</ele>
        <time>2019-03-10T08:52:03Z</time>
      </trkpt>
      <trkpt lat="44.18425" lon="1.87332">
        <ele>180.6</ele>
        <time>2019-03-10T08:52:07Z</time>
      </trkpt>
      <trkpt lat="44.18448" lon="1.87345">
        <ele>179.5</ele>
        <time>2019-03-10T08:52:11Z</time>
      </trkpt>
      <trkpt lat="44.18467" lon="1.8736">
        <ele>177.2</ele>
        <time>2019-03-10T08:52:15Z</time>
      </trkpt>
      <trkpt lat="44.18494" lon="1.87378">
        <ele>174.7</ele>
        <time>2019-03-10T08:52:19Z</time>
      </trkpt>
      <trkpt lat="44.18515" lon="1.874">
        <ele>173.6</ele>
        <time>2019-03-10T08:52:23Z</time>
      </trkpt>
      <trkpt lat="44.18535" lon="1.87421">
        <ele>173.4</ele>
        <time>2019-03-10T08:52:27Z</time>
      </trkpt>
      <trkpt lat="44.18551" lon="1.8744">
        <ele>175</ele>
        <time>2019-03-10T08:52:31Z</time>
      </trkpt>
      <trkpt lat="44.18561" lon="1.87466">
        <ele>175.8</ele>
        <time>2019-03-10T08:52:35Z</time>
      </trkpt>
      <trkpt lat="44.18568" lon="1.87489">
        <ele>177.1</ele>
        <time>2019-03-10T08:52:39Z</time>
      </trkpt>
      <trkpt lat="44.18574" lon="1.87516">
        <ele>178.6</ele>
        <time>2019-03-10T08:52:43Z</time>
      </trkpt>
      <trkpt lat="44.18576" lon="1.87542">
        <ele>179.6</ele>
        <time>2019-03-10T08:52:47Z</time>
      </trkpt>
      <trkpt lat="44.18579" lon="1.87569">
        <ele>180.4</ele>
        <time>2019-03-10T08:52:51Z</time>
      </trkpt>
      <trkpt lat="44.1858" lon="1.87597">
        <ele>181.3</ele>
        <time>2019-03-10T08:52:55Z</time>
      </trkpt>
      <trkpt lat="44.18582" lon="1.87618">
        <ele>182.5</ele>
        <time>2019-03-10T08:52:59Z</time>
      </trkpt>
      <trkpt lat="44.18584" lon="1.87649">
        <ele>183.4</ele>
        <time>2019-03-10T08:53:03Z</time>
      </trkpt>
      <trkpt lat="44.18589" lon="1.87672">
        <ele>184.4</ele>
        <time>2019-03-10T08:53:07Z</time>
      </trkpt>
      <trkpt lat="44.18602" lon="1.8769">
        <ele>185.3</ele>
        <time>2019-03-10T08:53:11Z</time>
      </trkpt>
      <trkpt lat="44.18616" lon="1.87697">
        <ele>186.2</ele>
        <time>2019-03-10T08:53:15Z</time>
      </trkpt>
      <trkpt lat="44.18628" lon="1.87705">
        <ele>186.9</ele>
        <time>2019-03-10T08:53:19Z</time>
      </trkpt>
      <trkpt lat="44.18637" lon="1.87697">
        <ele>188.2</ele>
        <time>2019-03-10T08:53:23Z</time>
      </trkpt>
      <trkpt lat="44.1865" lon="1.87695">
        <ele>188.3</ele>
        <time>2019-03-10T08:53:27Z</time>
      </trkpt>
      <trkpt lat="44.18661" lon="1.87694">
        <ele>188.3</ele>
        <time>2019-03-10T08:53:31Z</time>
      </trkpt>
      <trkpt lat="44.18672" lon="1.87691">
        <ele>190</ele>
        <time>2019-03-10T08:53:35Z</time>
      </trkpt>
      <trkpt lat="44.18678" lon="1.87674">
        <ele>191.1</ele>
        <time>2019-03-10T08:53:39Z</time>
      </trkpt>
      <trkpt lat="44.18685" lon="1.87657">
        <ele>191.3</ele>
        <time>2019-03-10T08:53:43Z</time>
      </trkpt>
      <trkpt lat="44.18693" lon="1.87642">
        <ele>191.3</ele>
        <time>2019-03-10T08:53:47Z</time>
      </trkpt>
      <trkpt lat="44.187" lon="1.8764">
        <ele>190.8</ele>
        <time>2019-03-10T08:53:51Z</time>
      </trkpt>
      <trkpt lat="44.18701" lon="1.8764">
        <ele>190.6</ele>
        <time>2019-03-10T08:53:55Z</time>
      </trkpt>
      <trkpt lat="44.1871" lon="1.8763">
        <ele>190.8</ele>
        <time>2019-03-10T09:04:07Z</time>
      </trkpt>
      <trkpt lat="44.18716" lon="1.87626">
        <ele>190.7</ele>
        <time>2019-03-10T09:04:11Z</time>
      </trkpt>
      <trkpt lat="44.18721" lon="1.87625">
        <ele>190.9</ele>
        <time>2019-03-10T09:04:15Z</time>
      </trkpt>
      <trkpt lat="44.18729" lon="1.87623">
        <ele>191</ele>
        <time>2019-03-10T09:04:19Z</time>
      </trkpt>
      <trkpt lat="44.18742" lon="1.87628">
        <ele>189.6</ele>
        <time>2019-03-10T09:04:23Z</time>
      </trkpt>
      <trkpt lat="44.18762" lon="1.87623">
        <ele>188.6</ele>
        <time>2019-03-10T09:04:27Z</time>
      </trkpt>
      <trkpt lat="44.18772" lon="1.87602">
        <ele>188.6</ele>
        <time>2019-03-10T09:04:31Z</time>
      </trkpt>
      <trkpt lat="44.1878" lon="1.87575">
        <ele>185.4</ele>
        <time>2019-03-10T09:04:35Z</time>
      </trkpt>
      <trkpt lat="44.18788" lon="1.87557">
        <ele>181</ele>
        <time>2019-03-10T09:04:39Z</time>
      </trkpt>
      <trkpt lat="44.18794" lon="1.87548">
        <ele>179.3</ele>
        <time>2019-03-10T09:04:43Z</time>
      </trkpt>
      <trkpt lat="44.18798" lon="1.8753">
        <ele>178.4</ele>
        <time>2019-03-10T09:04:47Z</time>
      </trkpt>
      <trkpt lat="44.18806" lon="1.87503">
        <ele>174.3</ele>
        <time>2019-03-10T09:04:51Z</time>
      </trkpt>
      <trkpt lat="44.18822" lon="1.87507">
        <ele>170.5</ele>
        <time>2019-03-10T09:04:55Z</time>
      </trkpt>
      <trkpt lat="44.18849" lon="1.87521">
        <ele>169.2</ele>
        <time>2019-03-10T09:04:59Z</time>
      </trkpt>
      <trkpt lat="44.18879" lon="1.87539">
        <ele>166.6</ele>
        <time>2019-03-10T09:05:03Z</time>
      </trkpt>
      <trkpt lat="44.1891" lon="1.87554">
        <ele>164.3</ele>
        <time>2019-03-10T09:05:07Z</time>
      </trkpt>
      <trkpt lat="44.18944" lon="1.87559">
        <ele>163.7</ele>
        <time>2019-03-10T09:05:11Z</time>
      </trkpt>
      <trkpt lat="44.1897" lon="1.87568">
        <ele>163.7</ele>
        <time>2019-03-10T09:05:15Z</time>
      </trkpt>
      <trkpt lat="44.18992" lon="1.87585">
        <ele>163.4</ele>
        <time>2019-03-10T09:05:19Z</time>
      </trkpt>
      <trkpt lat="44.19011" lon="1.87597">
        <ele>164.4</ele>
        <time>2019-03-10T09:05:23Z</time>
      </trkpt>
      <trkpt lat="44.19031" lon="1.87604">
        <ele>164.8</ele>
        <time>2019-03-10T09:05:27Z</time>
      </trkpt>
      <trkpt lat="44.19054" lon="1.87614">
        <ele>165.3</ele>
        <time>2019-03-10T09:05:31Z</time>
      </trkpt>
      <trkpt lat="44.1907" lon="1.87629">
        <ele>165.5</ele>
        <time>2019-03-10T09:05:35Z</time>
      </trkpt>
      <trkpt lat="44.19086" lon="1.87651">
        <ele>166.7</ele>
        <time>2019-03-10T09:05:39Z</time>
      </trkpt>
      <trkpt lat="44.19098" lon="1.87664">
        <ele>167.4</ele>
        <time>2019-03-10T09:05:43Z</time>
      </trkpt>
      <trkpt lat="44.19109" lon="1.8768">
        <ele>167.4</ele>
        <time>2019-03-10T09:05:47Z</time>
      </trkpt>
      <trkpt lat="44.19126" lon="1.8769">
        <ele>169.3</ele>
        <time>2019-03-10T09:05:51Z</time>
      </trkpt>
      <trkpt lat="44.1914" lon="1.87705">
        <ele>170.8</ele>
        <time>2019-03-10T09:05:55Z</time>
      </trkpt>
      <trkpt lat="44.19154" lon="1.87718">
        <ele>171.9</ele>
        <time>2019-03-10T09:05:59Z</time>
      </trkpt>
      <trkpt lat="44.19167" lon="1.87726">
        <ele>173.4</ele>
        <time>2019-03-10T09:06:03Z</time>
      </trkpt>
      <trkpt lat="44.19176" lon="1.87732">
        <ele>174.7</ele>
        <time>2019-03-10T09:06:07Z</time>
      </trkpt>
      <trkpt lat="44.19183" lon="1.87744">
        <ele>175.4</ele>
        <time>2019-03-10T09:06:11Z</time>
      </trkpt>
      <trkpt lat="44.19197" lon="1.87754">
        <ele>176.7</ele>
        <time>2019-03-10T09:06:15Z</time>
      </trkpt>
      <trkpt lat="44.19204" lon="1.8776">
        <ele>178.3</ele>
        <time>2019-03-10T09:06:19Z</time>
      </trkpt>
      <trkpt lat="44.19216" lon="1.87764">
        <ele>179.9</ele>
        <time>2019-03-10T09:06:23Z</time>
      </trkpt>
      <trkpt lat="44.19223" lon="1.87769">
        <ele>180.8</ele>
        <time>2019-03-10T09:06:27Z</time>
      </trkpt>
      <trkpt lat="44.19226" lon="1.87775">
        <ele>182.1</ele>
        <time>2019-03-10T09:06:31Z</time>
      </trkpt>
      <trkpt lat="44.1923" lon="1.87775">
        <ele>183.9</ele>
        <time>2019-03-10T09:06:35Z</time>
      </trkpt>
      <trkpt lat="44.19234" lon="1.87777">
        <ele>185.7</ele>
        <time>2019-03-10T09:06:39Z</time>
      </trkpt>
      <trkpt lat="44.19242" lon="1.87771">
        <ele>186.9</ele>
        <time>2019-03-10T09:06:43Z</time>
      </trkpt>
      <trkpt lat="44.19248" lon="1.87772">
        <ele>187.6</ele>
        <time>2019-03-10T09:06:47Z</time>
      </trkpt>
      <trkpt lat="44.19259" lon="1.87773">
        <ele>188.3</ele>
        <time>2019-03-10T09:06:51Z</time>
      </trkpt>
      <trkpt lat="44.19263" lon="1.8778">
        <ele>189</ele>
        <time>2019-03-10T09:06:55Z</time>
      </trkpt>
      <trkpt lat="44.1927" lon="1.8778">
        <ele>190</ele>
        <time>2019-03-10T09:06:59Z</time>
      </trkpt>
      <trkpt lat="44.19275" lon="1.87785">
        <ele>190.9</ele>
        <time>2019-03-10T09:07:03Z</time>
      </trkpt>
      <trkpt lat="44.19277" lon="1.87785">
        <ele>192.8</ele>
        <time>2019-03-10T09:07:07Z</time>
      </trkpt>
      <trkpt lat="44.19286" lon="1.87786">
        <ele>194.4</ele>
        <time>2019-03-10T09:07:11Z</time>
      </trkpt>
      <trkpt lat="44.19297" lon="1.87784">
        <ele>195.2</ele>
        <time>2019-03-10T09:07:15Z</time>
      </trkpt>
      <trkpt lat="44.1931" lon="1.87787">
        <ele>196.9</ele>
        <time>2019-03-10T09:07:19Z</time>
      </trkpt>
      <trkpt lat="44.19317" lon="1.87783">
        <ele>198.5</ele>
        <time>2019-03-10T09:07:23Z</time>
      </trkpt>
      <trkpt lat="44.19326" lon="1.87783">
        <ele>200.2</ele>
        <time>2019-03-10T09:07:27Z</time>
      </trkpt>
      <trkpt lat="44.19333" lon="1.87783">
        <ele>201.9</ele>
        <time>2019-03-10T09:07:31Z</time>
      </trkpt>
      <trkpt lat="44.19342" lon="1.87775">
        <ele>204.2</ele>
        <time>2019-03-10T09:07:35Z</time>
      </trkpt>
      <trkpt lat="44.19349" lon="1.87771">
        <ele>205.7</ele>
        <time>2019-03-10T09:07:39Z</time>
      </trkpt>
      <trkpt lat="44.19357" lon="1.8777">
        <ele>207.4</ele>
        <time>2019-03-10T09:07:43Z</time>
      </trkpt>
      <trkpt lat="44.19367" lon="1.87776">
        <ele>209.4</ele>
        <time>2019-03-10T09:07:47Z</time>
      </trkpt>
      <trkpt lat="44.19374" lon="1.87777">
        <ele>211.7</ele>
        <time>2019-03-10T09:07:51Z</time>
      </trkpt>
      <trkpt lat="44.19384" lon="1.87778">
        <ele>212.4</ele>
        <time>2019-03-10T09:07:55Z</time>
      </trkpt>
      <trkpt lat="44.19391" lon="1.87786">
        <ele>212.9</ele>
        <time>2019-03-10T09:07:59Z</time>
      </trkpt>
      <trkpt lat="44.19404" lon="1.87792">
        <ele>213.8</ele>
        <time>2019-03-10T09:08:03Z</time>
      </trkpt>
      <trkpt lat="44.1941" lon="1.87796">
        <ele>214.7</ele>
        <time>2019-03-10T09:08:07Z</time>
      </trkpt>
      <trkpt lat="44.19417" lon="1.878">
        <ele>215.9</ele>
        <time>2019-03-10T09:08:11Z</time>
      </trkpt>
      <trkpt lat="44.19422" lon="1.87808">
        <ele>216.5</ele>
        <time>2019-03-10T09:08:15Z</time>
      </trkpt>
      <trkpt lat="44.19427" lon="1.87811">
        <ele>218.3</ele>
        <time>2019-03-10T09:08:19Z</time>
      </trkpt>
      <trkpt lat="44.19433" lon="1.87823">
        <ele>219.4</ele>
        <time>2019-03-10T09:08:23Z</time>
      </trkpt>
      <trkpt lat="44.19443" lon="1.87827">
        <ele>220.9</ele>
        <time>2019-03-10T09:08:27Z</time>
      </trkpt>
      <trkpt lat="44.19446" lon="1.87834">
        <ele>222.4</ele>
        <time>2019-03-10T09:08:31Z</time>
      </trkpt>
      <trkpt lat="44.19458" lon="1.87841">
        <ele>224</ele>
        <time>2019-03-10T09:08:35Z</time>
      </trkpt>
      <trkpt lat="44.19464" lon="1.87848">
        <ele>227</ele>
        <time>2019-03-10T09:08:39Z</time>
      </trkpt>
      <trkpt lat="44.1947" lon="1.87855">
        <ele>229.6</ele>
        <time>2019-03-10T09:08:43Z</time>
      </trkpt>
      <trkpt lat="44.19475" lon="1.87861">
        <ele>232</ele>
        <time>2019-03-10T09:08:47Z</time>
      </trkpt>
      <trkpt lat="44.1948" lon="1.87863">
        <ele>234.6</ele>
        <time>2019-03-10T09:08:51Z</time>
      </trkpt>
      <trkpt lat="44.19482" lon="1.87871">
        <ele>236.9</ele>
        <time>2019-03-10T09:08:55Z</time>
      </trkpt>
      <trkpt lat="44.19483" lon="1.87876">
        <ele>238.4</ele>
        <time>2019-03-10T09:08:59Z</time>
      </trkpt>
      <trkpt lat="44.19484" lon="1.8788">
        <ele>238.5</ele>
        <time>2019-03-10T09:09:03Z</time>
      </trkpt>
      <trkpt lat="44.19495" lon="1.87881">
        <ele>240.7</ele>
        <time>2019-03-10T09:09:27Z</time>
      </trkpt>
      <trkpt lat="44.19499" lon="1.87881">
        <ele>241.4</ele>
        <time>2019-03-10T09:09:31Z</time>
      </trkpt>
      <trkpt lat="44.19503" lon="1.87876">
        <ele>242.3</ele>
        <time>2019-03-10T09:09:35Z</time>
      </trkpt>
      <trkpt lat="44.19511" lon="1.87871">
        <ele>243.1</ele>
        <time>2019-03-10T09:09:39Z</time>
      </trkpt>
      <trkpt lat="44.19518" lon="1.87862">
        <ele>243.8</ele>
        <time>2019-03-10T09:09:43Z</time>
      </trkpt>
      <trkpt lat="44.19523" lon="1.87857">
        <ele>244.8</ele>
        <time>2019-03-10T09:09:47Z</time>
      </trkpt>
      <trkpt lat="44.19531" lon="1.87859">
        <ele>247.6</ele>
        <time>2019-03-10T09:09:51Z</time>
      </trkpt>
      <trkpt lat="44.19534" lon="1.8787">
        <ele>248.6</ele>
        <time>2019-03-10T09:09:55Z</time>
      </trkpt>
      <trkpt lat="44.19537" lon="1.87879">
        <ele>249.9</ele>
        <time>2019-03-10T09:09:59Z</time>
      </trkpt>
      <trkpt lat="44.19542" lon="1.87881">
        <ele>251</ele>
        <time>2019-03-10T09:10:03Z</time>
      </trkpt>
      <trkpt lat="44.19547" lon="1.87874">
        <ele>252</ele>
        <time>2019-03-10T09:10:07Z</time>
      </trkpt>
      <trkpt lat="44.19559" lon="1.87858">
        <ele>252</ele>
        <time>2019-03-10T09:10:11Z</time>
      </trkpt>
      <trkpt lat="44.19571" lon="1.87838">
        <ele>250.6</ele>
        <time>2019-03-10T09:10:15Z</time>
      </trkpt>
      <trkpt lat="44.19586" lon="1.87823">
        <ele>249.8</ele>
        <time>2019-03-10T09:10:19Z</time>
      </trkpt>
      <trkpt lat="44.19598" lon="1.87796">
        <ele>248.2</ele>
        <time>2019-03-10T09:10:23Z</time>
      </trkpt>
      <trkpt lat="44.19602" lon="1.87754">
        <ele>245.9</ele>
        <time>2019-03-10T09:10:27Z</time>
      </trkpt>
      <trkpt lat="44.19599" lon="1.87709">
        <ele>242.6</ele>
        <time>2019-03-10T09:10:31Z</time>
      </trkpt>
      <trkpt lat="44.19583" lon="1.87664">
        <ele>235.7</ele>
        <time>2019-03-10T09:10:35Z</time>
      </trkpt>
      <trkpt lat="44.19576" lon="1.87624">
        <ele>231.8</ele>
        <time>2019-03-10T09:10:39Z</time>
      </trkpt>
      <trkpt lat="44.19571" lon="1.87579">
        <ele>228.3</ele>
        <time>2019-03-10T09:10:43Z</time>
      </trkpt>
      <trkpt lat="44.19564" lon="1.87524">
        <ele>218.4</ele>
        <time>2019-03-10T09:10:47Z</time>
      </trkpt>
      <trkpt lat="44.19564" lon="1.87485">
        <ele>210.2</ele>
        <time>2019-03-10T09:10:51Z</time>
      </trkpt>
      <trkpt lat="44.19539" lon="1.87451">
        <ele>204.8</ele>
        <time>2019-03-10T09:10:55Z</time>
      </trkpt>
      <trkpt lat="44.19523" lon="1.87408">
        <ele>198.5</ele>
        <time>2019-03-10T09:10:59Z</time>
      </trkpt>
      <trkpt lat="44.19511" lon="1.8738">
        <ele>194.7</ele>
        <time>2019-03-10T09:11:03Z</time>
      </trkpt>
      <trkpt lat="44.19493" lon="1.87347">
        <ele>192.2</ele>
        <time>2019-03-10T09:11:07Z</time>
      </trkpt>
      <trkpt lat="44.19477" lon="1.87303">
        <ele>190</ele>
        <time>2019-03-10T09:11:11Z</time>
      </trkpt>
      <trkpt lat="44.19461" lon="1.87253">
        <ele>185.5</ele>
        <time>2019-03-10T09:11:15Z</time>
      </trkpt>
      <trkpt lat="44.19449" lon="1.87215">
        <ele>178.8</ele>
        <time>2019-03-10T09:11:19Z</time>
      </trkpt>
      <trkpt lat="44.19458" lon="1.87205">
        <ele>174.3</ele>
        <time>2019-03-10T09:11:23Z</time>
      </trkpt>
      <trkpt lat="44.19468" lon="1.87206">
        <ele>173.8</ele>
        <time>2019-03-10T09:11:27Z</time>
      </trkpt>
      <trkpt lat="44.19476" lon="1.87207">
        <ele>174.9</ele>
        <time>2019-03-10T09:11:31Z</time>
      </trkpt>
      <trkpt lat="44.1949" lon="1.87209">
        <ele>176.5</ele>
        <time>2019-03-10T09:11:35Z</time>
      </trkpt>
      <trkpt lat="44.19503" lon="1.87208">
        <ele>177.4</ele>
        <time>2019-03-10T09:11:39Z</time>
      </trkpt>
      <trkpt lat="44.19507" lon="1.87209">
        <ele>178.5</ele>
        <time>2019-03-10T09:11:43Z</time>
      </trkpt>
      <trkpt lat="44.19516" lon="1.87205">
        <ele>179.3</ele>
        <time>2019-03-10T09:11:47Z</time>
      </trkpt>
      <trkpt lat="44.19526" lon="1.87206">
        <ele>180.2</ele>
        <time>2019-03-10T09:11:51Z</time>
      </trkpt>
      <trkpt lat="44.19535" lon="1.87203">
        <ele>181.4</ele>
        <time>2019-03-10T09:11:55Z</time>
      </trkpt>
      <trkpt lat="44.19546" lon="1.87205">
        <ele>182.1</ele>
        <time>2019-03-10T09:11:59Z</time>
      </trkpt>
      <trkpt lat="44.19555" lon="1.872">
        <ele>182.8</ele>
        <time>2019-03-10T09:12:03Z</time>
      </trkpt>
      <trkpt lat="44.1957" lon="1.87196">
        <ele>183.8</ele>
        <time>2019-03-10T09:12:07Z</time>
      </trkpt>
      <trkpt lat="44.19582" lon="1.87192">
        <ele>187.4</ele>
        <time>2019-03-10T09:12:11Z</time>
      </trkpt>
      <trkpt lat="44.19591" lon="1.87187">
        <ele>187.8</ele>
        <time>2019-03-10T09:12:15Z</time>
      </trkpt>
      <trkpt lat="44.19599" lon="1.87186">
        <ele>187.8</ele>
        <time>2019-03-10T09:12:19Z</time>
      </trkpt>
      <trkpt lat="44.19607" lon="1.87188">
        <ele>188.9</ele>
        <time>2019-03-10T09:12:23Z</time>
      </trkpt>
      <trkpt lat="44.19613" lon="1.87184">
        <ele>190.1</ele>
        <time>2019-03-10T09:12:27Z</time>
      </trkpt>
      <trkpt lat="44.19617" lon="1.87178">
        <ele>191.1</ele>
        <time>2019-03-10T09:12:31Z</time>
      </trkpt>
      <trkpt lat="44.19626" lon="1.87169">
        <ele>192.6</ele>
        <time>2019-03-10T09:12:35Z</time>
      </trkpt>
      <trkpt lat="44.19628" lon="1.87161">
        <ele>193.8</ele>
        <time>2019-03-10T09:12:39Z</time>
      </trkpt>
      <trkpt lat="44.19635" lon="1.87152">
        <ele>195.3</ele>
        <time>2019-03-10T09:12:43Z</time>
      </trkpt>
      <trkpt lat="44.19644" lon="1.87141">
        <ele>196.5</ele>
        <time>2019-03-10T09:12:47Z</time>
      </trkpt>
      <trkpt lat="44.19651" lon="1.87133">
        <ele>197.3</ele>
        <time>2019-03-10T09:12:51Z</time>
      </trkpt>
      <trkpt lat="44.1966" lon="1.8713">
        <ele>198</ele>
        <time>2019-03-10T09:12:55Z</time>
      </trkpt>
      <trkpt lat="44.19673" lon="1.87129">
        <ele>199</ele>
        <time>2019-03-10T09:12:59Z</time>
      </trkpt>
      <trkpt lat="44.19681" lon="1.87124">
        <ele>200.2</ele>
        <time>2019-03-10T09:13:03Z</time>
      </trkpt>
      <trkpt lat="44.19694" lon="1.87122">
        <ele>201.1</ele>
        <time>2019-03-10T09:13:07Z</time>
      </trkpt>
      <trkpt lat="44.19707" lon="1.87121">
        <ele>201.9</ele>
        <time>2019-03-10T09:13:11Z</time>
      </trkpt>
      <trkpt lat="44.19718" lon="1.87117">
        <ele>202.6</ele>
        <time>2019-03-10T09:13:15Z</time>
      </trkpt>
      <trkpt lat="44.19726" lon="1.87116">
        <ele>203.7</ele>
        <time>2019-03-10T09:13:19Z</time>
      </trkpt>
      <trkpt lat="44.19738" lon="1.8712">
        <ele>204.9</ele>
        <time>2019-03-10T09:13:23Z</time>
      </trkpt>
      <trkpt lat="44.1975" lon="1.87121">
        <ele>206.5</ele>
        <time>2019-03-10T09:13:27Z</time>
      </trkpt>
      <trkpt lat="44.19755" lon="1.8712">
        <ele>208.1</ele>
        <time>2019-03-10T09:13:31Z</time>
      </trkpt>
      <trkpt lat="44.19766" lon="1.87121">
        <ele>209.4</ele>
        <time>2019-03-10T09:13:35Z</time>
      </trkpt>
      <trkpt lat="44.19776" lon="1.87116">
        <ele>211.3</ele>
        <time>2019-03-10T09:13:39Z</time>
      </trkpt>
      <trkpt lat="44.19786" lon="1.87112">
        <ele>213.4</ele>
        <time>2019-03-10T09:13:43Z</time>
      </trkpt>
      <trkpt lat="44.19797" lon="1.87111">
        <ele>214.8</ele>
        <time>2019-03-10T09:13:47Z</time>
      </trkpt>
      <trkpt lat="44.19805" lon="1.87109">
        <ele>215.8</ele>
        <time>2019-03-10T09:13:51Z</time>
      </trkpt>
      <trkpt lat="44.19814" lon="1.87106">
        <ele>217.2</ele>
        <time>2019-03-10T09:13:55Z</time>
      </trkpt>
      <trkpt lat="44.19824" lon="1.871">
        <ele>218.4</ele>
        <time>2019-03-10T09:13:59Z</time>
      </trkpt>
      <trkpt lat="44.19831" lon="1.87099">
        <ele>220.2</ele>
        <time>2019-03-10T09:14:03Z</time>
      </trkpt>
      <trkpt lat="44.1984" lon="1.87099">
        <ele>222.2</ele>
        <time>2019-03-10T09:14:07Z</time>
      </trkpt>
      <trkpt lat="44.19849" lon="1.87095">
        <ele>223.9</ele>
        <time>2019-03-10T09:14:11Z</time>
      </trkpt>
      <trkpt lat="44.19859" lon="1.87092">
        <ele>224.9</ele>
        <time>2019-03-10T09:14:15Z</time>
      </trkpt>
      <trkpt lat="44.19873" lon="1.87092">
        <ele>226</ele>
        <time>2019-03-10T09:14:19Z</time>
      </trkpt>
      <trkpt lat="44.19881" lon="1.87093">
        <ele>227.3</ele>
        <time>2019-03-10T09:14:23Z</time>
      </trkpt>
      <trkpt lat="44.19888" lon="1.87092">
        <ele>228.8</ele>
        <time>2019-03-10T09:14:27Z</time>
      </trkpt>
      <trkpt lat="44.19896" lon="1.87088">
        <ele>229.8</ele>
        <time>2019-03-10T09:14:31Z</time>
      </trkpt>
      <trkpt lat="44.19904" lon="1.87082">
        <ele>231.2</ele>
        <time>2019-03-10T09:14:35Z</time>
      </trkpt>
      <trkpt lat="44.19911" lon="1.87087">
        <ele>232.2</ele>
        <time>2019-03-10T09:14:39Z</time>
      </trkpt>
      <trkpt lat="44.19917" lon="1.87087">
        <ele>233.2</ele>
        <time>2019-03-10T09:14:43Z</time>
      </trkpt>
      <trkpt lat="44.19927" lon="1.87092">
        <ele>234.7</ele>
        <time>2019-03-10T09:14:47Z</time>
      </trkpt>
      <trkpt lat="44.19936" lon="1.87096">
        <ele>236</ele>
        <time>2019-03-10T09:14:51Z</time>
      </trkpt>
      <trkpt lat="44.1994" lon="1.87098">
        <ele>237.7</ele>
        <time>2019-03-10T09:14:55Z</time>
      </trkpt>
      <trkpt lat="44.19949" lon="1.87101">
        <ele>239.4</ele>
        <time>2019-03-10T09:14:59Z</time>
      </trkpt>
      <trkpt lat="44.19951" lon="1.871">
        <ele>240.8</ele>
        <time>2019-03-10T09:15:03Z</time>
      </trkpt>
      <trkpt lat="44.19958" lon="1.87101">
        <ele>241.8</ele>
        <time>2019-03-10T09:15:07Z</time>
      </trkpt>
      <trkpt lat="44.19971" lon="1.87106">
        <ele>243.4</ele>
        <time>2019-03-10T09:15:11Z</time>
      </trkpt>
      <trkpt lat="44.19984" lon="1.87106">
        <ele>244.9</ele>
        <time>2019-03-10T09:15:15Z</time>
      </trkpt>
      <trkpt lat="44.1999" lon="1.87106">
        <ele>245.6</ele>
        <time>2019-03-10T09:15:19Z</time>
      </trkpt>
      <trkpt lat="44.19997" lon="1.87107">
        <ele>245.6</ele>
        <time>2019-03-10T09:15:23Z</time>
      </trkpt>
      <trkpt lat="44.2001" lon="1.87109">
        <ele>247.1</ele>
        <time>2019-03-10T09:15:27Z</time>
      </trkpt>
      <trkpt lat="44.20021" lon="1.8711">
        <ele>247.8</ele>
        <time>2019-03-10T09:15:31Z</time>
      </trkpt>
      <trkpt lat="44.20032" lon="1.87113">
        <ele>248.7</ele>
        <time>2019-03-10T09:15:35Z</time>
      </trkpt>
      <trkpt lat="44.20035" lon="1.87119">
        <ele>249.4</ele>
        <time>2019-03-10T09:15:39Z</time>
      </trkpt>
      <trkpt lat="44.20042" lon="1.87128">
        <ele>250</ele>
        <time>2019-03-10T09:15:43Z</time>
      </trkpt>
      <trkpt lat="44.20053" lon="1.87134">
        <ele>251.5</ele>
        <time>2019-03-10T09:15:47Z</time>
      </trkpt>
      <trkpt lat="44.20064" lon="1.87142">
        <ele>251.5</ele>
        <time>2019-03-10T09:15:51Z</time>
      </trkpt>
      <trkpt lat="44.20071" lon="1.87147">
        <ele>252.7</ele>
        <time>2019-03-10T09:15:55Z</time>
      </trkpt>
      <trkpt lat="44.20079" lon="1.87153">
        <ele>252.8</ele>
        <time>2019-03-10T09:15:59Z</time>
      </trkpt>
      <trkpt lat="44.20088" lon="1.87158">
        <ele>254</ele>
        <time>2019-03-10T09:16:03Z</time>
      </trkpt>
      <trkpt lat="44.20096" lon="1.87165">
        <ele>254.9</ele>
        <time>2019-03-10T09:16:07Z</time>
      </trkpt>
      <trkpt lat="44.20101" lon="1.8718">
        <ele>255.8</ele>
        <time>2019-03-10T09:16:11Z</time>
      </trkpt>
      <trkpt lat="44.20107" lon="1.87195">
        <ele>256.2</ele>
        <time>2019-03-10T09:16:15Z</time>
      </trkpt>
      <trkpt lat="44.20112" lon="1.87203">
        <ele>256.3</ele>
        <time>2019-03-10T09:16:19Z</time>
      </trkpt>
      <trkpt lat="44.20115" lon="1.8722">
        <ele>256.8</ele>
        <time>2019-03-10T09:16:23Z</time>
      </trkpt>
      <trkpt lat="44.20119" lon="1.87239">
        <ele>257.4</ele>
        <time>2019-03-10T09:16:27Z</time>
      </trkpt>
      <trkpt lat="44.20126" lon="1.87256">
        <ele>258.2</ele>
        <time>2019-03-10T09:16:31Z</time>
      </trkpt>
      <trkpt lat="44.20123" lon="1.87273">
        <ele>258.9</ele>
        <time>2019-03-10T09:16:35Z</time>
      </trkpt>
      <trkpt lat="44.20129" lon="1.8729">
        <ele>259.3</ele>
        <time>2019-03-10T09:16:39Z</time>
      </trkpt>
      <trkpt lat="44.20128" lon="1.87306">
        <ele>259.7</ele>
        <time>2019-03-10T09:16:43Z</time>
      </trkpt>
      <trkpt lat="44.20141" lon="1.87327">
        <ele>259.7</ele>
        <time>2019-03-10T09:16:47Z</time>
      </trkpt>
      <trkpt lat="44.20149" lon="1.87341">
        <ele>261.3</ele>
        <time>2019-03-10T09:16:51Z</time>
      </trkpt>
      <trkpt lat="44.20163" lon="1.87351">
        <ele>261.6</ele>
        <time>2019-03-10T09:16:55Z</time>
      </trkpt>
      <trkpt lat="44.2017" lon="1.87357">
        <ele>261.6</ele>
        <time>2019-03-10T09:16:59Z</time>
      </trkpt>
      <trkpt lat="44.20184" lon="1.87367">
        <ele>262.9</ele>
        <time>2019-03-10T09:17:03Z</time>
      </trkpt>
      <trkpt lat="44.20191" lon="1.87367">
        <ele>265.2</ele>
        <time>2019-03-10T09:17:07Z</time>
      </trkpt>
      <trkpt lat="44.20195" lon="1.87367">
        <ele>266.3</ele>
        <time>2019-03-10T09:17:11Z</time>
      </trkpt>
      <trkpt lat="44.20207" lon="1.87379">
        <ele>267.5</ele>
        <time>2019-03-10T09:17:15Z</time>
      </trkpt>
      <trkpt lat="44.20213" lon="1.87381">
        <ele>268.5</ele>
        <time>2019-03-10T09:17:19Z</time>
      </trkpt>
      <trkpt lat="44.20225" lon="1.87385">
        <ele>268.9</ele>
        <time>2019-03-10T09:17:23Z</time>
      </trkpt>
      <trkpt lat="44.20234" lon="1.87384">
        <ele>270.4</ele>
        <time>2019-03-10T09:17:27Z</time>
      </trkpt>
      <trkpt lat="44.20245" lon="1.87382">
        <ele>271.5</ele>
        <time>2019-03-10T09:17:31Z</time>
      </trkpt>
      <trkpt lat="44.20258" lon="1.8738">
        <ele>273.1</ele>
        <time>2019-03-10T09:17:35Z</time>
      </trkpt>
      <trkpt lat="44.20274" lon="1.87377">
        <ele>274.5</ele>
        <time>2019-03-10T09:17:39Z</time>
      </trkpt>
      <trkpt lat="44.20278" lon="1.8738">
        <ele>275</ele>
        <time>2019-03-10T09:17:43Z</time>
      </trkpt>
      <trkpt lat="44.20288" lon="1.87382">
        <ele>276.7</ele>
        <time>2019-03-10T09:17:47Z</time>
      </trkpt>
      <trkpt lat="44.20298" lon="1.87377">
        <ele>277.5</ele>
        <time>2019-03-10T09:17:51Z</time>
      </trkpt>
      <trkpt lat="44.20305" lon="1.87374">
        <ele>278.8</ele>
        <time>2019-03-10T09:17:55Z</time>
      </trkpt>
      <trkpt lat="44.20315" lon="1.87376">
        <ele>280</ele>
        <time>2019-03-10T09:17:59Z</time>
      </trkpt>
      <trkpt lat="44.20326" lon="1.87374">
        <ele>281.6</ele>
        <time>2019-03-10T09:18:03Z</time>
      </trkpt>
      <trkpt lat="44.20333" lon="1.87374">
        <ele>282.4</ele>
        <time>2019-03-10T09:18:07Z</time>
      </trkpt>
      <trkpt lat="44.20344" lon="1.87373">
        <ele>282.4</ele>
        <time>2019-03-10T09:18:11Z</time>
      </trkpt>
      <trkpt lat="44.20359" lon="1.8737">
        <ele>283.6</ele>
        <time>2019-03-10T09:18:15Z</time>
      </trkpt>
      <trkpt lat="44.20366" lon="1.8737">
        <ele>284.7</ele>
        <time>2019-03-10T09:18:19Z</time>
      </trkpt>
      <trkpt lat="44.20377" lon="1.87366">
        <ele>285.2</ele>
        <time>2019-03-10T09:18:23Z</time>
      </trkpt>
      <trkpt lat="44.20389" lon="1.8737">
        <ele>285.6</ele>
        <time>2019-03-10T09:18:27Z</time>
      </trkpt>
      <trkpt lat="44.20398" lon="1.87372">
        <ele>286.2</ele>
        <time>2019-03-10T09:18:31Z</time>
      </trkpt>
      <trkpt lat="44.20408" lon="1.8738">
        <ele>286.8</ele>
        <time>2019-03-10T09:18:35Z</time>
      </trkpt>
      <trkpt lat="44.20419" lon="1.87386">
        <ele>287.5</ele>
        <time>2019-03-10T09:18:39Z</time>
      </trkpt>
      <trkpt lat="44.20429" lon="1.87393">
        <ele>288.6</ele>
        <time>2019-03-10T09:18:43Z</time>
      </trkpt>
      <trkpt lat="44.20443" lon="1.87398">
        <ele>289.9</ele>
        <time>2019-03-10T09:18:47Z</time>
      </trkpt>
      <trkpt lat="44.20453" lon="1.87402">
        <ele>292.1</ele>
        <time>2019-03-10T09:18:51Z</time>
      </trkpt>
      <trkpt lat="44.20461" lon="1.87415">
        <ele>292.8</ele>
        <time>2019-03-10T09:18:55Z</time>
      </trkpt>
      <trkpt lat="44.20473" lon="1.87424">
        <ele>292.9</ele>
        <time>2019-03-10T09:18:59Z</time>
      </trkpt>
      <trkpt lat="44.20484" lon="1.87427">
        <ele>292.2</ele>
        <time>2019-03-10T09:19:03Z</time>
      </trkpt>
      <trkpt lat="44.20495" lon="1.8742">
        <ele>292.2</ele>
        <time>2019-03-10T09:19:07Z</time>
      </trkpt>
      <trkpt lat="44.20501" lon="1.87409">
        <ele>293.2</ele>
        <time>2019-03-10T09:19:11Z</time>
      </trkpt>
      <trkpt lat="44.20501" lon="1.87393">
        <ele>294.2</ele>
        <time>2019-03-10T09:19:15Z</time>
      </trkpt>
      <trkpt lat="44.20505" lon="1.87379">
        <ele>294.8</ele>
        <time>2019-03-10T09:19:19Z</time>
      </trkpt>
      <trkpt lat="44.20512" lon="1.8736">
        <ele>295.8</ele>
        <time>2019-03-10T09:19:23Z</time>
      </trkpt>
      <trkpt lat="44.20524" lon="1.87351">
        <ele>296.6</ele>
        <time>2019-03-10T09:19:27Z</time>
      </trkpt>
      <trkpt lat="44.20538" lon="1.87342">
        <ele>296.6</ele>
        <time>2019-03-10T09:19:31Z</time>
      </trkpt>
      <trkpt lat="44.20552" lon="1.8733">
        <ele>297.1</ele>
        <time>2019-03-10T09:19:35Z</time>
      </trkpt>
      <trkpt lat="44.20565" lon="1.87327">
        <ele>299.2</ele>
        <time>2019-03-10T09:19:39Z</time>
      </trkpt>
      <trkpt lat="44.20574" lon="1.87325">
        <ele>301</ele>
        <time>2019-03-10T09:19:43Z</time>
      </trkpt>
      <trkpt lat="44.20585" lon="1.87319">
        <ele>302.5</ele>
        <time>2019-03-10T09:19:47Z</time>
      </trkpt>
      <trkpt lat="44.206" lon="1.87319">
        <ele>303.6</ele>
        <time>2019-03-10T09:19:51Z</time>
      </trkpt>
      <trkpt lat="44.20611" lon="1.87324">
        <ele>304.3</ele>
        <time>2019-03-10T09:19:55Z</time>
      </trkpt>
      <trkpt lat="44.20622" lon="1.87332">
        <ele>304.5</ele>
        <time>2019-03-10T09:19:59Z</time>
      </trkpt>
      <trkpt lat="44.20634" lon="1.8734">
        <ele>304.5</ele>
        <time>2019-03-10T09:20:03Z</time>
      </trkpt>
      <trkpt lat="44.20647" lon="1.87353">
        <ele>305.1</ele>
        <time>2019-03-10T09:20:07Z</time>
      </trkpt>
      <trkpt lat="44.2064" lon="1.87373">
        <ele>305.1</ele>
        <time>2019-03-10T09:20:11Z</time>
      </trkpt>
      <trkpt lat="44.20631" lon="1.8739">
        <ele>306</ele>
        <time>2019-03-10T09:20:15Z</time>
      </trkpt>
      <trkpt lat="44.2063" lon="1.8741">
        <ele>307.5</ele>
        <time>2019-03-10T09:20:19Z</time>
      </trkpt>
      <trkpt lat="44.20625" lon="1.87427">
        <ele>308.9</ele>
        <time>2019-03-10T09:20:23Z</time>
      </trkpt>
      <trkpt lat="44.20628" lon="1.87447">
        <ele>309.9</ele>
        <time>2019-03-10T09:20:27Z</time>
      </trkpt>
      <trkpt lat="44.20631" lon="1.87467">
        <ele>311.5</ele>
        <time>2019-03-10T09:20:31Z</time>
      </trkpt>
      <trkpt lat="44.20638" lon="1.87485">
        <ele>313.4</ele>
        <time>2019-03-10T09:20:35Z</time>
      </trkpt>
      <trkpt lat="44.20649" lon="1.87498">
        <ele>315.1</ele>
        <time>2019-03-10T09:20:39Z</time>
      </trkpt>
      <trkpt lat="44.20665" lon="1.87509">
        <ele>316.3</ele>
        <time>2019-03-10T09:20:43Z</time>
      </trkpt>
      <trkpt lat="44.20678" lon="1.87514">
        <ele>317</ele>
        <time>2019-03-10T09:20:47Z</time>
      </trkpt>
      <trkpt lat="44.20698" lon="1.87527">
        <ele>317.6</ele>
        <time>2019-03-10T09:20:51Z</time>
      </trkpt>
      <trkpt lat="44.20715" lon="1.87532">
        <ele>318.3</ele>
        <time>2019-03-10T09:20:55Z</time>
      </trkpt>
      <trkpt lat="44.20733" lon="1.87528">
        <ele>317.6</ele>
        <time>2019-03-10T09:20:59Z</time>
      </trkpt>
      <trkpt lat="44.20748" lon="1.87536">
        <ele>317</ele>
        <time>2019-03-10T09:21:03Z</time>
      </trkpt>
      <trkpt lat="44.20766" lon="1.87548">
        <ele>316.9</ele>
        <time>2019-03-10T09:21:07Z</time>
      </trkpt>
      <trkpt lat="44.20785" lon="1.87559">
        <ele>317.2</ele>
        <time>2019-03-10T09:21:11Z</time>
      </trkpt>
      <trkpt lat="44.20807" lon="1.87581">
        <ele>314.5</ele>
        <time>2019-03-10T09:21:15Z</time>
      </trkpt>
      <trkpt lat="44.20834" lon="1.87593">
        <ele>312.3</ele>
        <time>2019-03-10T09:21:19Z</time>
      </trkpt>
      <trkpt lat="44.20859" lon="1.87593">
        <ele>312.1</ele>
        <time>2019-03-10T09:21:23Z</time>
      </trkpt>
      <trkpt lat="44.2088" lon="1.87586">
        <ele>311</ele>
        <time>2019-03-10T09:21:27Z</time>
      </trkpt>
      <trkpt lat="44.20894" lon="1.87569">
        <ele>312</ele>
        <time>2019-03-10T09:21:31Z</time>
      </trkpt>
      <trkpt lat="44.20902" lon="1.87552">
        <ele>313.1</ele>
        <time>2019-03-10T09:21:35Z</time>
      </trkpt>
      <trkpt lat="44.20908" lon="1.87539">
        <ele>314.3</ele>
        <time>2019-03-10T09:21:39Z</time>
      </trkpt>
      <trkpt lat="44.20911" lon="1.87526">
        <ele>315.4</ele>
        <time>2019-03-10T09:21:43Z</time>
      </trkpt>
      <trkpt lat="44.2091" lon="1.87511">
        <ele>318</ele>
        <time>2019-03-10T09:21:47Z</time>
      </trkpt>
      <trkpt lat="44.20911" lon="1.87498">
        <ele>319.3</ele>
        <time>2019-03-10T09:21:51Z</time>
      </trkpt>
      <trkpt lat="44.20917" lon="1.87488">
        <ele>321.4</ele>
        <time>2019-03-10T09:21:55Z</time>
      </trkpt>
      <trkpt lat="44.20925" lon="1.87482">
        <ele>322.8</ele>
        <time>2019-03-10T09:21:59Z</time>
      </trkpt>
      <trkpt lat="44.20935" lon="1.87477">
        <ele>324.2</ele>
        <time>2019-03-10T09:22:03Z</time>
      </trkpt>
      <trkpt lat="44.20946" lon="1.87465">
        <ele>325.3</ele>
        <time>2019-03-10T09:22:07Z</time>
      </trkpt>
      <trkpt lat="44.20959" lon="1.87456">
        <ele>325.8</ele>
        <time>2019-03-10T09:22:11Z</time>
      </trkpt>
      <trkpt lat="44.2097" lon="1.87447">
        <ele>325.8</ele>
        <time>2019-03-10T09:22:15Z</time>
      </trkpt>
      <trkpt lat="44.20983" lon="1.87439">
        <ele>325.3</ele>
        <time>2019-03-10T09:22:19Z</time>
      </trkpt>
      <trkpt lat="44.20996" lon="1.87435">
        <ele>325.7</ele>
        <time>2019-03-10T09:22:23Z</time>
      </trkpt>
      <trkpt lat="44.21008" lon="1.87426">
        <ele>325</ele>
        <time>2019-03-10T09:22:27Z</time>
      </trkpt>
      <trkpt lat="44.21026" lon="1.87416">
        <ele>324.9</ele>
        <time>2019-03-10T09:22:31Z</time>
      </trkpt>
      <trkpt lat="44.21042" lon="1.87416">
        <ele>325.6</ele>
        <time>2019-03-10T09:22:35Z</time>
      </trkpt>
      <trkpt lat="44.21059" lon="1.87412">
        <ele>325.5</ele>
        <time>2019-03-10T09:22:39Z</time>
      </trkpt>
      <trkpt lat="44.21079" lon="1.87411">
        <ele>325.9</ele>
        <time>2019-03-10T09:22:43Z</time>
      </trkpt>
      <trkpt lat="44.21099" lon="1.87411">
        <ele>327</ele>
        <time>2019-03-10T09:22:47Z</time>
      </trkpt>
      <trkpt lat="44.21117" lon="1.87408">
        <ele>327.2</ele>
        <time>2019-03-10T09:22:51Z</time>
      </trkpt>
      <trkpt lat="44.21133" lon="1.87404">
        <ele>326.6</ele>
        <time>2019-03-10T09:22:55Z</time>
      </trkpt>
      <trkpt lat="44.21155" lon="1.87401">
        <ele>326.5</ele>
        <time>2019-03-10T09:22:59Z</time>
      </trkpt>
      <trkpt lat="44.21175" lon="1.87404">
        <ele>325.9</ele>
        <time>2019-03-10T09:23:03Z</time>
      </trkpt>
      <trkpt lat="44.21198" lon="1.87409">
        <ele>324.5</ele>
        <time>2019-03-10T09:23:07Z</time>
      </trkpt>
      <trkpt lat="44.2122" lon="1.87411">
        <ele>324.7</ele>
        <time>2019-03-10T09:23:11Z</time>
      </trkpt>
      <trkpt lat="44.21243" lon="1.87415">
        <ele>323.6</ele>
        <time>2019-03-10T09:23:15Z</time>
      </trkpt>
      <trkpt lat="44.21266" lon="1.87417">
        <ele>322.9</ele>
        <time>2019-03-10T09:23:19Z</time>
      </trkpt>
      <trkpt lat="44.21295" lon="1.87416">
        <ele>321.7</ele>
        <time>2019-03-10T09:23:23Z</time>
      </trkpt>
      <trkpt lat="44.2132" lon="1.87415">
        <ele>319.3</ele>
        <time>2019-03-10T09:23:27Z</time>
      </trkpt>
      <trkpt lat="44.21346" lon="1.87425">
        <ele>319</ele>
        <time>2019-03-10T09:23:31Z</time>
      </trkpt>
      <trkpt lat="44.21373" lon="1.87435">
        <ele>319</ele>
        <time>2019-03-10T09:23:35Z</time>
      </trkpt>
      <trkpt lat="44.21402" lon="1.87438">
        <ele>316.9</ele>
        <time>2019-03-10T09:23:39Z</time>
      </trkpt>
      <trkpt lat="44.21427" lon="1.8744">
        <ele>315.7</ele>
        <time>2019-03-10T09:23:43Z</time>
      </trkpt>
      <trkpt lat="44.21452" lon="1.87441">
        <ele>314.5</ele>
        <time>2019-03-10T09:23:47Z</time>
      </trkpt>
      <trkpt lat="44.21476" lon="1.8744">
        <ele>314.3</ele>
        <time>2019-03-10T09:23:51Z</time>
      </trkpt>
      <trkpt lat="44.215" lon="1.87445">
        <ele>314.3</ele>
        <time>2019-03-10T09:23:55Z</time>
      </trkpt>
      <trkpt lat="44.21523" lon="1.87446">
        <ele>313.2</ele>
        <time>2019-03-10T09:23:59Z</time>
      </trkpt>
      <trkpt lat="44.21546" lon="1.87447">
        <ele>312.1</ele>
        <time>2019-03-10T09:24:03Z</time>
      </trkpt>
      <trkpt lat="44.21566" lon="1.87453">
        <ele>310.9</ele>
        <time>2019-03-10T09:24:07Z</time>
      </trkpt>
      <trkpt lat="44.21595" lon="1.87467">
        <ele>309.1</ele>
        <time>2019-03-10T09:24:11Z</time>
      </trkpt>
      <trkpt lat="44.21616" lon="1.87484">
        <ele>309</ele>
        <time>2019-03-10T09:24:15Z</time>
      </trkpt>
      <trkpt lat="44.21636" lon="1.87492">
        <ele>309.3</ele>
        <time>2019-03-10T09:24:19Z</time>
      </trkpt>
      <trkpt lat="44.21652" lon="1.87495">
        <ele>310.2</ele>
        <time>2019-03-10T09:24:23Z</time>
      </trkpt>
      <trkpt lat="44.21668" lon="1.87495">
        <ele>311.4</ele>
        <time>2019-03-10T09:24:27Z</time>
      </trkpt>
      <trkpt lat="44.21684" lon="1.87495">
        <ele>312.8</ele>
        <time>2019-03-10T09:24:31Z</time>
      </trkpt>
      <trkpt lat="44.21703" lon="1.87495">
        <ele>314.9</ele>
        <time>2019-03-10T09:24:35Z</time>
      </trkpt>
      <trkpt lat="44.21723" lon="1.87497">
        <ele>315.7</ele>
        <time>2019-03-10T09:24:39Z</time>
      </trkpt>
      <trkpt lat="44.21742" lon="1.87498">
        <ele>316.7</ele>
        <time>2019-03-10T09:24:43Z</time>
      </trkpt>
      <trkpt lat="44.21757" lon="1.87501">
        <ele>318.1</ele>
        <time>2019-03-10T09:24:47Z</time>
      </trkpt>
      <trkpt lat="44.21776" lon="1.87503">
        <ele>318.8</ele>
        <time>2019-03-10T09:24:51Z</time>
      </trkpt>
      <trkpt lat="44.21792" lon="1.875">
        <ele>319</ele>
        <time>2019-03-10T09:24:55Z</time>
      </trkpt>
      <trkpt lat="44.21807" lon="1.87498">
        <ele>320.1</ele>
        <time>2019-03-10T09:24:59Z</time>
      </trkpt>
      <trkpt lat="44.21824" lon="1.87494">
        <ele>321.2</ele>
        <time>2019-03-10T09:25:03Z</time>
      </trkpt>
      <trkpt lat="44.21845" lon="1.87492">
        <ele>321.3</ele>
        <time>2019-03-10T09:25:07Z</time>
      </trkpt>
      <trkpt lat="44.21863" lon="1.87486">
        <ele>321.1</ele>
        <time>2019-03-10T09:25:11Z</time>
      </trkpt>
      <trkpt lat="44.21883" lon="1.87481">
        <ele>321.6</ele>
        <time>2019-03-10T09:25:15Z</time>
      </trkpt>
      <trkpt lat="44.21899" lon="1.87476">
        <ele>321.4</ele>
        <time>2019-03-10T09:25:19Z</time>
      </trkpt>
      <trkpt lat="44.21918" lon="1.87476">
        <ele>321.5</ele>
        <time>2019-03-10T09:25:23Z</time>
      </trkpt>
      <trkpt lat="44.21938" lon="1.87479">
        <ele>321.5</ele>
        <time>2019-03-10T09:25:27Z</time>
      </trkpt>
      <trkpt lat="44.21958" lon="1.87482">
        <ele>322.6</ele>
        <time>2019-03-10T09:25:31Z</time>
      </trkpt>
      <trkpt lat="44.21981" lon="1.87479">
        <ele>321.9</ele>
        <time>2019-03-10T09:25:35Z</time>
      </trkpt>
      <trkpt lat="44.21996" lon="1.87476">
        <ele>321.8</ele>
        <time>2019-03-10T09:25:39Z</time>
      </trkpt>
      <trkpt lat="44.22016" lon="1.87477">
        <ele>322.2</ele>
        <time>2019-03-10T09:25:43Z</time>
      </trkpt>
      <trkpt lat="44.22034" lon="1.87478">
        <ele>321.9</ele>
        <time>2019-03-10T09:25:47Z</time>
      </trkpt>
      <trkpt lat="44.22059" lon="1.87482">
        <ele>323.1</ele>
        <time>2019-03-10T09:25:51Z</time>
      </trkpt>
      <trkpt lat="44.22078" lon="1.87484">
        <ele>324.1</ele>
        <time>2019-03-10T09:25:55Z</time>
      </trkpt>
      <trkpt lat="44.22096" lon="1.87487">
        <ele>325.3</ele>
        <time>2019-03-10T09:25:59Z</time>
      </trkpt>
      <trkpt lat="44.22115" lon="1.87486">
        <ele>326.2</ele>
        <time>2019-03-10T09:26:03Z</time>
      </trkpt>
      <trkpt lat="44.22131" lon="1.8749">
        <ele>327.2</ele>
        <time>2019-03-10T09:26:07Z</time>
      </trkpt>
      <trkpt lat="44.22149" lon="1.87493">
        <ele>327.6</ele>
        <time>2019-03-10T09:26:11Z</time>
      </trkpt>
      <trkpt lat="44.22167" lon="1.87485">
        <ele>327.6</ele>
        <time>2019-03-10T09:26:15Z</time>
      </trkpt>
      <trkpt lat="44.22179" lon="1.8747">
        <ele>328.7</ele>
        <time>2019-03-10T09:26:19Z</time>
      </trkpt>
      <trkpt lat="44.22192" lon="1.87459">
        <ele>329.2</ele>
        <time>2019-03-10T09:26:23Z</time>
      </trkpt>
      <trkpt lat="44.22204" lon="1.87448">
        <ele>329.2</ele>
        <time>2019-03-10T09:26:27Z</time>
      </trkpt>
      <trkpt lat="44.22223" lon="1.87429">
        <ele>329.7</ele>
        <time>2019-03-10T09:26:31Z</time>
      </trkpt>
      <trkpt lat="44.2224" lon="1.87424">
        <ele>329.7</ele>
        <time>2019-03-10T09:26:35Z</time>
      </trkpt>
      <trkpt lat="44.22258" lon="1.87417">
        <ele>329.5</ele>
        <time>2019-03-10T09:26:39Z</time>
      </trkpt>
      <trkpt lat="44.22276" lon="1.87409">
        <ele>329.1</ele>
        <time>2019-03-10T09:26:43Z</time>
      </trkpt>
      <trkpt lat="44.22283" lon="1.87402">
        <ele>328.9</ele>
        <time>2019-03-10T09:26:47Z</time>
      </trkpt>
      <trkpt lat="44.22289" lon="1.874">
        <ele>328.9</ele>
        <time>2019-03-10T09:26:51Z</time>
      </trkpt>
      <trkpt lat="44.2229" lon="1.87398">
        <ele>327.9</ele>
        <time>2019-03-10T09:26:55Z</time>
      </trkpt>
      <trkpt lat="44.22303" lon="1.87402">
        <ele>327.9</ele>
        <time>2019-03-10T09:28:11Z</time>
      </trkpt>
      <trkpt lat="44.22318" lon="1.87395">
        <ele>327.9</ele>
        <time>2019-03-10T09:28:15Z</time>
      </trkpt>
      <trkpt lat="44.22334" lon="1.87387">
        <ele>327.7</ele>
        <time>2019-03-10T09:28:19Z</time>
      </trkpt>
      <trkpt lat="44.22353" lon="1.87388">
        <ele>327.6</ele>
        <time>2019-03-10T09:28:23Z</time>
      </trkpt>
      <trkpt lat="44.22375" lon="1.87393">
        <ele>327.5</ele>
        <time>2019-03-10T09:28:27Z</time>
      </trkpt>
      <trkpt lat="44.22393" lon="1.87397">
        <ele>327.2</ele>
        <time>2019-03-10T09:28:31Z</time>
      </trkpt>
      <trkpt lat="44.22408" lon="1.87391">
        <ele>327.4</ele>
        <time>2019-03-10T09:28:35Z</time>
      </trkpt>
      <trkpt lat="44.22426" lon="1.87391">
        <ele>327.4</ele>
        <time>2019-03-10T09:28:39Z</time>
      </trkpt>
      <trkpt lat="44.22443" lon="1.87387">
        <ele>327.2</ele>
        <time>2019-03-10T09:28:43Z</time>
      </trkpt>
      <trkpt lat="44.22461" lon="1.8738">
        <ele>327.4</ele>
        <time>2019-03-10T09:28:47Z</time>
      </trkpt>
      <trkpt lat="44.22474" lon="1.87373">
        <ele>326.8</ele>
        <time>2019-03-10T09:28:51Z</time>
      </trkpt>
      <trkpt lat="44.22494" lon="1.87358">
        <ele>327.6</ele>
        <time>2019-03-10T09:28:55Z</time>
      </trkpt>
      <trkpt lat="44.22513" lon="1.87342">
        <ele>326.5</ele>
        <time>2019-03-10T09:28:59Z</time>
      </trkpt>
      <trkpt lat="44.22533" lon="1.87337">
        <ele>326.2</ele>
        <time>2019-03-10T09:29:03Z</time>
      </trkpt>
      <trkpt lat="44.22558" lon="1.87341">
        <ele>326</ele>
        <time>2019-03-10T09:29:07Z</time>
      </trkpt>
      <trkpt lat="44.22587" lon="1.87341">
        <ele>325</ele>
        <time>2019-03-10T09:29:11Z</time>
      </trkpt>
      <trkpt lat="44.22615" lon="1.87331">
        <ele>323.9</ele>
        <time>2019-03-10T09:29:15Z</time>
      </trkpt>
      <trkpt lat="44.22643" lon="1.87325">
        <ele>322.7</ele>
        <time>2019-03-10T09:29:19Z</time>
      </trkpt>
      <trkpt lat="44.22665" lon="1.87321">
        <ele>321.5</ele>
        <time>2019-03-10T09:29:23Z</time>
      </trkpt>
      <trkpt lat="44.22687" lon="1.87321">
        <ele>321.8</ele>
        <time>2019-03-10T09:29:27Z</time>
      </trkpt>
      <trkpt lat="44.2271" lon="1.87317">
        <ele>321.3</ele>
        <time>2019-03-10T09:29:31Z</time>
      </trkpt>
      <trkpt lat="44.22734" lon="1.87316">
        <ele>321.3</ele>
        <time>2019-03-10T09:29:35Z</time>
      </trkpt>
      <trkpt lat="44.22752" lon="1.87316">
        <ele>322</ele>
        <time>2019-03-10T09:29:39Z</time>
      </trkpt>
      <trkpt lat="44.22771" lon="1.87311">
        <ele>322.6</ele>
        <time>2019-03-10T09:29:43Z</time>
      </trkpt>
      <trkpt lat="44.22795" lon="1.87315">
        <ele>323.1</ele>
        <time>2019-03-10T09:29:47Z</time>
      </trkpt>
      <trkpt lat="44.22818" lon="1.87309">
        <ele>323.6</ele>
        <time>2019-03-10T09:29:51Z</time>
      </trkpt>
      <trkpt lat="44.22839" lon="1.87303">
        <ele>324.1</ele>
        <time>2019-03-10T09:29:55Z</time>
      </trkpt>
      <trkpt lat="44.22864" lon="1.87297">
        <ele>324.1</ele>
        <time>2019-03-10T09:29:59Z</time>
      </trkpt>
      <trkpt lat="44.22888" lon="1.87291">
        <ele>325.9</ele>
        <time>2019-03-10T09:30:03Z</time>
      </trkpt>
      <trkpt lat="44.22909" lon="1.87284">
        <ele>327.2</ele>
        <time>2019-03-10T09:30:07Z</time>
      </trkpt>
      <trkpt lat="44.22928" lon="1.87273">
        <ele>328.2</ele>
        <time>2019-03-10T09:30:11Z</time>
      </trkpt>
      <trkpt lat="44.22951" lon="1.87267">
        <ele>329</ele>
        <time>2019-03-10T09:30:15Z</time>
      </trkpt>
      <trkpt lat="44.22974" lon="1.87259">
        <ele>329.4</ele>
        <time>2019-03-10T09:30:19Z</time>
      </trkpt>
      <trkpt lat="44.22993" lon="1.87255">
        <ele>329.9</ele>
        <time>2019-03-10T09:30:23Z</time>
      </trkpt>
      <trkpt lat="44.23009" lon="1.87257">
        <ele>330.3</ele>
        <time>2019-03-10T09:30:27Z</time>
      </trkpt>
      <trkpt lat="44.23029" lon="1.87265">
        <ele>330.9</ele>
        <time>2019-03-10T09:30:31Z</time>
      </trkpt>
      <trkpt lat="44.23055" lon="1.8727">
        <ele>329.8</ele>
        <time>2019-03-10T09:30:35Z</time>
      </trkpt>
      <trkpt lat="44.23073" lon="1.87269">
        <ele>329.9</ele>
        <time>2019-03-10T09:30:39Z</time>
      </trkpt>
      <trkpt lat="44.23105" lon="1.87263">
        <ele>329</ele>
        <time>2019-03-10T09:30:43Z</time>
      </trkpt>
      <trkpt lat="44.23133" lon="1.87255">
        <ele>327.9</ele>
        <time>2019-03-10T09:30:47Z</time>
      </trkpt>
      <trkpt lat="44.23154" lon="1.87247">
        <ele>327</ele>
        <time>2019-03-10T09:30:51Z</time>
      </trkpt>
      <trkpt lat="44.23173" lon="1.87244">
        <ele>327.5</ele>
        <time>2019-03-10T09:30:55Z</time>
      </trkpt>
      <trkpt lat="44.23199" lon="1.87237">
        <ele>327</ele>
        <time>2019-03-10T09:30:59Z</time>
      </trkpt>
      <trkpt lat="44.23228" lon="1.87242">
        <ele>326</ele>
        <time>2019-03-10T09:31:03Z</time>
      </trkpt>
      <trkpt lat="44.2325" lon="1.87239">
        <ele>325.1</ele>
        <time>2019-03-10T09:31:07Z</time>
      </trkpt>
      <trkpt lat="44.23257" lon="1.87223">
        <ele>324.4</ele>
        <time>2019-03-10T09:31:11Z</time>
      </trkpt>
      <trkpt lat="44.23261" lon="1.87212">
        <ele>325.3</ele>
        <time>2019-03-10T09:31:15Z</time>
      </trkpt>
      <trkpt lat="44.23257" lon="1.87201">
        <ele>326.4</ele>
        <time>2019-03-10T09:31:19Z</time>
      </trkpt>
      <trkpt lat="44.23256" lon="1.87185">
        <ele>327.8</ele>
        <time>2019-03-10T09:31:23Z</time>
      </trkpt>
      <trkpt lat="44.23254" lon="1.87174">
        <ele>329.2</ele>
        <time>2019-03-10T09:31:27Z</time>
      </trkpt>
      <trkpt lat="44.23253" lon="1.8716">
        <ele>331.1</ele>
        <time>2019-03-10T09:31:31Z</time>
      </trkpt>
      <trkpt lat="44.23251" lon="1.87146">
        <ele>332.1</ele>
        <time>2019-03-10T09:31:35Z</time>
      </trkpt>
      <trkpt lat="44.23254" lon="1.87135">
        <ele>332.9</ele>
        <time>2019-03-10T09:31:39Z</time>
      </trkpt>
      <trkpt lat="44.2325" lon="1.8713">
        <ele>334.3</ele>
        <time>2019-03-10T09:31:43Z</time>
      </trkpt>
      <trkpt lat="44.23247" lon="1.87126">
        <ele>335.5</ele>
        <time>2019-03-10T09:31:47Z</time>
      </trkpt>
      <trkpt lat="44.23248" lon="1.87116">
        <ele>337.2</ele>
        <time>2019-03-10T09:31:51Z</time>
      </trkpt>
      <trkpt lat="44.23252" lon="1.87107">
        <ele>338.6</ele>
        <time>2019-03-10T09:31:55Z</time>
      </trkpt>
      <trkpt lat="44.23262" lon="1.871">
        <ele>338.7</ele>
        <time>2019-03-10T09:31:59Z</time>
      </trkpt>
      <trkpt lat="44.23276" lon="1.87093">
        <ele>338.2</ele>
        <time>2019-03-10T09:32:03Z</time>
      </trkpt>
      <trkpt lat="44.2329" lon="1.87091">
        <ele>338.1</ele>
        <time>2019-03-10T09:32:07Z</time>
      </trkpt>
      <trkpt lat="44.23301" lon="1.87084">
        <ele>338.6</ele>
        <time>2019-03-10T09:32:11Z</time>
      </trkpt>
      <trkpt lat="44.23313" lon="1.87082">
        <ele>339</ele>
        <time>2019-03-10T09:32:15Z</time>
      </trkpt>
      <trkpt lat="44.2333" lon="1.87067">
        <ele>339.1</ele>
        <time>2019-03-10T09:32:19Z</time>
      </trkpt>
      <trkpt lat="44.23349" lon="1.87065">
        <ele>337.7</ele>
        <time>2019-03-10T09:32:23Z</time>
      </trkpt>
      <trkpt lat="44.23365" lon="1.87054">
        <ele>337.7</ele>
        <time>2019-03-10T09:32:27Z</time>
      </trkpt>
      <trkpt lat="44.2338" lon="1.87046">
        <ele>338.3</ele>
        <time>2019-03-10T09:32:31Z</time>
      </trkpt>
      <trkpt lat="44.23399" lon="1.87036">
        <ele>338.7</ele>
        <time>2019-03-10T09:32:35Z</time>
      </trkpt>
      <trkpt lat="44.23416" lon="1.87025">
        <ele>339</ele>
        <time>2019-03-10T09:32:39Z</time>
      </trkpt>
      <trkpt lat="44.23437" lon="1.87011">
        <ele>338.7</ele>
        <time>2019-03-10T09:32:43Z</time>
      </trkpt>
      <trkpt lat="44.23459" lon="1.87009">
        <ele>338.4</ele>
        <time>2019-03-10T09:32:47Z</time>
      </trkpt>
      <trkpt lat="44.2348" lon="1.87005">
        <ele>336.7</ele>
        <time>2019-03-10T09:32:51Z</time>
      </trkpt>
      <trkpt lat="44.23502" lon="1.87001">
        <ele>335.8</ele>
        <time>2019-03-10T09:32:55Z</time>
      </trkpt>
      <trkpt lat="44.23524" lon="1.86999">
        <ele>335.7</ele>
        <time>2019-03-10T09:32:59Z</time>
      </trkpt>
      <trkpt lat="44.23544" lon="1.86996">
        <ele>334.5</ele>
        <time>2019-03-10T09:33:03Z</time>
      </trkpt>
      <trkpt lat="44.2356" lon="1.86989">
        <ele>334.5</ele>
        <time>2019-03-10T09:33:07Z</time>
      </trkpt>
      <trkpt lat="44.23574" lon="1.86987">
        <ele>334.2</ele>
        <time>2019-03-10T09:33:11Z</time>
      </trkpt>
      <trkpt lat="44.23596" lon="1.86989">
        <ele>334.9</ele>
        <time>2019-03-10T09:33:15Z</time>
      </trkpt>
      <trkpt lat="44.23623" lon="1.86998">
        <ele>335</ele>
        <time>2019-03-10T09:33:19Z</time>
      </trkpt>
      <trkpt lat="44.23644" lon="1.87011">
        <ele>334.3</ele>
        <time>2019-03-10T09:33:23Z</time>
      </trkpt>
      <trkpt lat="44.23663" lon="1.87024">
        <ele>333.9</ele>
        <time>2019-03-10T09:33:27Z</time>
      </trkpt>
      <trkpt lat="44.23687" lon="1.87032">
        <ele>333.1</ele>
        <time>2019-03-10T09:33:31Z</time>
      </trkpt>
      <trkpt lat="44.23715" lon="1.8704">
        <ele>331.7</ele>
        <time>2019-03-10T09:33:35Z</time>
      </trkpt>
      <trkpt lat="44.23739" lon="1.87051">
        <ele>330.6</ele>
        <time>2019-03-10T09:33:39Z</time>
      </trkpt>
      <trkpt lat="44.23761" lon="1.87056">
        <ele>330.6</ele>
        <time>2019-03-10T09:33:43Z</time>
      </trkpt>
      <trkpt lat="44.23779" lon="1.87059">
        <ele>329.6</ele>
        <time>2019-03-10T09:33:47Z</time>
      </trkpt>
      <trkpt lat="44.23802" lon="1.87062">
        <ele>329.5</ele>
        <time>2019-03-10T09:33:51Z</time>
      </trkpt>
      <trkpt lat="44.23829" lon="1.87065">
        <ele>329.6</ele>
        <time>2019-03-10T09:33:55Z</time>
      </trkpt>
      <trkpt lat="44.23852" lon="1.87065">
        <ele>329.1</ele>
        <time>2019-03-10T09:33:59Z</time>
      </trkpt>
      <trkpt lat="44.23877" lon="1.87062">
        <ele>330.2</ele>
        <time>2019-03-10T09:34:03Z</time>
      </trkpt>
      <trkpt lat="44.23895" lon="1.87062">
        <ele>331.1</ele>
        <time>2019-03-10T09:34:07Z</time>
      </trkpt>
      <trkpt lat="44.23916" lon="1.87074">
        <ele>331.6</ele>
        <time>2019-03-10T09:34:11Z</time>
      </trkpt>
      <trkpt lat="44.23934" lon="1.87085">
        <ele>332.6</ele>
        <time>2019-03-10T09:34:15Z</time>
      </trkpt>
      <trkpt lat="44.23952" lon="1.87087">
        <ele>333.9</ele>
        <time>2019-03-10T09:34:19Z</time>
      </trkpt>
      <trkpt lat="44.23965" lon="1.87094">
        <ele>335.1</ele>
        <time>2019-03-10T09:34:23Z</time>
      </trkpt>
      <trkpt lat="44.2398" lon="1.87109">
        <ele>336</ele>
        <time>2019-03-10T09:34:27Z</time>
      </trkpt>
      <trkpt lat="44.24002" lon="1.8712">
        <ele>337.4</ele>
        <time>2019-03-10T09:34:31Z</time>
      </trkpt>
      <trkpt lat="44.24015" lon="1.8713">
        <ele>338.8</ele>
        <time>2019-03-10T09:34:35Z</time>
      </trkpt>
      <trkpt lat="44.24028" lon="1.87135">
        <ele>339.6</ele>
        <time>2019-03-10T09:34:39Z</time>
      </trkpt>
      <trkpt lat="44.24042" lon="1.87138">
        <ele>340.8</ele>
        <time>2019-03-10T09:34:43Z</time>
      </trkpt>
      <trkpt lat="44.24055" lon="1.87142">
        <ele>341.3</ele>
        <time>2019-03-10T09:34:47Z</time>
      </trkpt>
      <trkpt lat="44.24073" lon="1.87155">
        <ele>342</ele>
        <time>2019-03-10T09:34:51Z</time>
      </trkpt>
      <trkpt lat="44.24091" lon="1.87167">
        <ele>341.8</ele>
        <time>2019-03-10T09:34:55Z</time>
      </trkpt>
      <trkpt lat="44.24108" lon="1.87177">
        <ele>341.8</ele>
        <time>2019-03-10T09:34:59Z</time>
      </trkpt>
      <trkpt lat="44.24128" lon="1.87186">
        <ele>341.8</ele>
        <time>2019-03-10T09:35:03Z</time>
      </trkpt>
      <trkpt lat="44.24147" lon="1.87195">
        <ele>341.3</ele>
        <time>2019-03-10T09:35:07Z</time>
      </trkpt>
      <trkpt lat="44.24168" lon="1.87196">
        <ele>341.7</ele>
        <time>2019-03-10T09:35:11Z</time>
      </trkpt>
      <trkpt lat="44.24178" lon="1.87213">
        <ele>340.9</ele>
        <time>2019-03-10T09:35:15Z</time>
      </trkpt>
      <trkpt lat="44.24186" lon="1.87234">
        <ele>340.5</ele>
        <time>2019-03-10T09:35:19Z</time>
      </trkpt>
      <trkpt lat="44.24186" lon="1.87259">
        <ele>340.2</ele>
        <time>2019-03-10T09:35:23Z</time>
      </trkpt>
      <trkpt lat="44.24195" lon="1.8729">
        <ele>338.8</ele>
        <time>2019-03-10T09:35:27Z</time>
      </trkpt>
      <trkpt lat="44.24198" lon="1.87326">
        <ele>337.6</ele>
        <time>2019-03-10T09:35:31Z</time>
      </trkpt>
      <trkpt lat="44.24187" lon="1.87369">
        <ele>336.4</ele>
        <time>2019-03-10T09:35:35Z</time>
      </trkpt>
      <trkpt lat="44.24178" lon="1.87406">
        <ele>334.7</ele>
        <time>2019-03-10T09:35:39Z</time>
      </trkpt>
      <trkpt lat="44.24174" lon="1.8744">
        <ele>333.7</ele>
        <time>2019-03-10T09:35:43Z</time>
      </trkpt>
      <trkpt lat="44.24174" lon="1.87472">
        <ele>332</ele>
        <time>2019-03-10T09:35:47Z</time>
      </trkpt>
      <trkpt lat="44.24167" lon="1.87509">
        <ele>331.7</ele>
        <time>2019-03-10T09:35:51Z</time>
      </trkpt>
      <trkpt lat="44.24169" lon="1.87541">
        <ele>332</ele>
        <time>2019-03-10T09:35:55Z</time>
      </trkpt>
      <trkpt lat="44.24165" lon="1.87569">
        <ele>333</ele>
        <time>2019-03-10T09:35:59Z</time>
      </trkpt>
      <trkpt lat="44.24164" lon="1.87598">
        <ele>333.3</ele>
        <time>2019-03-10T09:36:03Z</time>
      </trkpt>
      <trkpt lat="44.24164" lon="1.87623">
        <ele>334.2</ele>
        <time>2019-03-10T09:36:07Z</time>
      </trkpt>
      <trkpt lat="44.24164" lon="1.87655">
        <ele>335</ele>
        <time>2019-03-10T09:36:11Z</time>
      </trkpt>
      <trkpt lat="44.24161" lon="1.87687">
        <ele>335</ele>
        <time>2019-03-10T09:36:15Z</time>
      </trkpt>
      <trkpt lat="44.24158" lon="1.87713">
        <ele>336.8</ele>
        <time>2019-03-10T09:36:19Z</time>
      </trkpt>
      <trkpt lat="44.24157" lon="1.87746">
        <ele>337.6</ele>
        <time>2019-03-10T09:36:23Z</time>
      </trkpt>
      <trkpt lat="44.24157" lon="1.87776">
        <ele>337.6</ele>
        <time>2019-03-10T09:36:27Z</time>
      </trkpt>
      <trkpt lat="44.24158" lon="1.87804">
        <ele>338.6</ele>
        <time>2019-03-10T09:36:31Z</time>
      </trkpt>
      <trkpt lat="44.24154" lon="1.87831">
        <ele>340.1</ele>
        <time>2019-03-10T09:36:35Z</time>
      </trkpt>
      <trkpt lat="44.24149" lon="1.87859">
        <ele>340.8</ele>
        <time>2019-03-10T09:36:39Z</time>
      </trkpt>
      <trkpt lat="44.24144" lon="1.87888">
        <ele>341.9</ele>
        <time>2019-03-10T09:36:43Z</time>
      </trkpt>
      <trkpt lat="44.24139" lon="1.87915">
        <ele>342.1</ele>
        <time>2019-03-10T09:36:47Z</time>
      </trkpt>
      <trkpt lat="44.24136" lon="1.87947">
        <ele>342.1</ele>
        <time>2019-03-10T09:36:51Z</time>
      </trkpt>
      <trkpt lat="44.2413" lon="1.87977">
        <ele>343.4</ele>
        <time>2019-03-10T09:36:55Z</time>
      </trkpt>
      <trkpt lat="44.24123" lon="1.88006">
        <ele>344.1</ele>
        <time>2019-03-10T09:36:59Z</time>
      </trkpt>
      <trkpt lat="44.24128" lon="1.88023">
        <ele>344.1</ele>
        <time>2019-03-10T09:37:03Z</time>
      </trkpt>
      <trkpt lat="44.24143" lon="1.88038">
        <ele>344.4</ele>
        <time>2019-03-10T09:37:07Z</time>
      </trkpt>
      <trkpt lat="44.24162" lon="1.88049">
        <ele>345.1</ele>
        <time>2019-03-10T09:37:11Z</time>
      </trkpt>
      <trkpt lat="44.24185" lon="1.88065">
        <ele>346</ele>
        <time>2019-03-10T09:37:15Z</time>
      </trkpt>
      <trkpt lat="44.24203" lon="1.8808">
        <ele>345.5</ele>
        <time>2019-03-10T09:37:19Z</time>
      </trkpt>
      <trkpt lat="44.24215" lon="1.88087">
        <ele>345.7</ele>
        <time>2019-03-10T09:37:23Z</time>
      </trkpt>
      <trkpt lat="44.2423" lon="1.8809">
        <ele>346.5</ele>
        <time>2019-03-10T09:37:27Z</time>
      </trkpt>
      <trkpt lat="44.24245" lon="1.88096">
        <ele>347.1</ele>
        <time>2019-03-10T09:37:31Z</time>
      </trkpt>
      <trkpt lat="44.24259" lon="1.88099">
        <ele>347.1</ele>
        <time>2019-03-10T09:37:35Z</time>
      </trkpt>
      <trkpt lat="44.24277" lon="1.88099">
        <ele>347.5</ele>
        <time>2019-03-10T09:37:39Z</time>
      </trkpt>
      <trkpt lat="44.24298" lon="1.88102">
        <ele>347.9</ele>
        <time>2019-03-10T09:37:43Z</time>
      </trkpt>
      <trkpt lat="44.24321" lon="1.88104">
        <ele>347.9</ele>
        <time>2019-03-10T09:37:47Z</time>
      </trkpt>
      <trkpt lat="44.24342" lon="1.88112">
        <ele>348.7</ele>
        <time>2019-03-10T09:37:51Z</time>
      </trkpt>
      <trkpt lat="44.24362" lon="1.88119">
        <ele>348.7</ele>
        <time>2019-03-10T09:37:55Z</time>
      </trkpt>
      <trkpt lat="44.24382" lon="1.88131">
        <ele>348.8</ele>
        <time>2019-03-10T09:37:59Z</time>
      </trkpt>
      <trkpt lat="44.24402" lon="1.8814">
        <ele>347.9</ele>
        <time>2019-03-10T09:38:03Z</time>
      </trkpt>
      <trkpt lat="44.24424" lon="1.88153">
        <ele>348.3</ele>
        <time>2019-03-10T09:38:07Z</time>
      </trkpt>
      <trkpt lat="44.24442" lon="1.88167">
        <ele>348.4</ele>
        <time>2019-03-10T09:38:11Z</time>
      </trkpt>
      <trkpt lat="44.24465" lon="1.88182">
        <ele>348.6</ele>
        <time>2019-03-10T09:38:15Z</time>
      </trkpt>
      <trkpt lat="44.24483" lon="1.88201">
        <ele>349.4</ele>
        <time>2019-03-10T09:38:19Z</time>
      </trkpt>
      <trkpt lat="44.24503" lon="1.88211">
        <ele>349.8</ele>
        <time>2019-03-10T09:38:23Z</time>
      </trkpt>
      <trkpt lat="44.24522" lon="1.88219">
        <ele>350.3</ele>
        <time>2019-03-10T09:38:27Z</time>
      </trkpt>
      <trkpt lat="44.24544" lon="1.88232">
        <ele>351</ele>
        <time>2019-03-10T09:38:31Z</time>
      </trkpt>
      <trkpt lat="44.24561" lon="1.88244">
        <ele>351.9</ele>
        <time>2019-03-10T09:38:35Z</time>
      </trkpt>
      <trkpt lat="44.24579" lon="1.88258">
        <ele>352.7</ele>
        <time>2019-03-10T09:38:39Z</time>
      </trkpt>
      <trkpt lat="44.24589" lon="1.88272">
        <ele>352.9</ele>
        <time>2019-03-10T09:38:43Z</time>
      </trkpt>
      <trkpt lat="44.24576" lon="1.88288">
        <ele>352.8</ele>
        <time>2019-03-10T09:38:47Z</time>
      </trkpt>
      <trkpt lat="44.24558" lon="1.88311">
        <ele>353.3</ele>
        <time>2019-03-10T09:38:51Z</time>
      </trkpt>
      <trkpt lat="44.24541" lon="1.88328">
        <ele>352.6</ele>
        <time>2019-03-10T09:38:55Z</time>
      </trkpt>
      <trkpt lat="44.24518" lon="1.88341">
        <ele>352.5</ele>
        <time>2019-03-10T09:38:59Z</time>
      </trkpt>
      <trkpt lat="44.24496" lon="1.88348">
        <ele>352.5</ele>
        <time>2019-03-10T09:39:03Z</time>
      </trkpt>
      <trkpt lat="44.24474" lon="1.88367">
        <ele>351.6</ele>
        <time>2019-03-10T09:39:07Z</time>
      </trkpt>
      <trkpt lat="44.24458" lon="1.88392">
        <ele>351.6</ele>
        <time>2019-03-10T09:39:11Z</time>
      </trkpt>
      <trkpt lat="44.24443" lon="1.88417">
        <ele>349.6</ele>
        <time>2019-03-10T09:39:15Z</time>
      </trkpt>
      <trkpt lat="44.24434" lon="1.88441">
        <ele>348.5</ele>
        <time>2019-03-10T09:39:19Z</time>
      </trkpt>
      <trkpt lat="44.24438" lon="1.88465">
        <ele>348.5</ele>
        <time>2019-03-10T09:39:23Z</time>
      </trkpt>
      <trkpt lat="44.24447" lon="1.88487">
        <ele>347.3</ele>
        <time>2019-03-10T09:39:27Z</time>
      </trkpt>
      <trkpt lat="44.24433" lon="1.88507">
        <ele>346.3</ele>
        <time>2019-03-10T09:39:31Z</time>
      </trkpt>
      <trkpt lat="44.24417" lon="1.88519">
        <ele>346.3</ele>
        <time>2019-03-10T09:39:35Z</time>
      </trkpt>
      <trkpt lat="44.24397" lon="1.88532">
        <ele>346.1</ele>
        <time>2019-03-10T09:39:39Z</time>
      </trkpt>
      <trkpt lat="44.24381" lon="1.88542">
        <ele>346.1</ele>
        <time>2019-03-10T09:39:43Z</time>
      </trkpt>
      <trkpt lat="44.24373" lon="1.88565">
        <ele>343.3</ele>
        <time>2019-03-10T09:39:47Z</time>
      </trkpt>
      <trkpt lat="44.24372" lon="1.88608">
        <ele>342.1</ele>
        <time>2019-03-10T09:39:51Z</time>
      </trkpt>
      <trkpt lat="44.24372" lon="1.88652">
        <ele>337.8</ele>
        <time>2019-03-10T09:39:55Z</time>
      </trkpt>
      <trkpt lat="44.24366" lon="1.88681">
        <ele>334.8</ele>
        <time>2019-03-10T09:39:59Z</time>
      </trkpt>
      <trkpt lat="44.24353" lon="1.88693">
        <ele>332.1</ele>
        <time>2019-03-10T09:40:03Z</time>
      </trkpt>
      <trkpt lat="44.24332" lon="1.88695">
        <ele>332.3</ele>
        <time>2019-03-10T09:40:07Z</time>
      </trkpt>
      <trkpt lat="44.24312" lon="1.88692">
        <ele>332.3</ele>
        <time>2019-03-10T09:40:11Z</time>
      </trkpt>
      <trkpt lat="44.24289" lon="1.8869">
        <ele>331.2</ele>
        <time>2019-03-10T09:40:15Z</time>
      </trkpt>
      <trkpt lat="44.24265" lon="1.88687">
        <ele>330.2</ele>
        <time>2019-03-10T09:40:19Z</time>
      </trkpt>
      <trkpt lat="44.24245" lon="1.8868">
        <ele>326.4</ele>
        <time>2019-03-10T09:40:23Z</time>
      </trkpt>
      <trkpt lat="44.24232" lon="1.88663">
        <ele>323.4</ele>
        <time>2019-03-10T09:40:27Z</time>
      </trkpt>
      <trkpt lat="44.24224" lon="1.8866">
        <ele>321.1</ele>
        <time>2019-03-10T09:40:31Z</time>
      </trkpt>
      <trkpt lat="44.24215" lon="1.88662">
        <ele>318.5</ele>
        <time>2019-03-10T09:40:35Z</time>
      </trkpt>
      <trkpt lat="44.24202" lon="1.88661">
        <ele>315.8</ele>
        <time>2019-03-10T09:40:39Z</time>
      </trkpt>
      <trkpt lat="44.24195" lon="1.88676">
        <ele>310.3</ele>
        <time>2019-03-10T09:40:43Z</time>
      </trkpt>
      <trkpt lat="44.24203" lon="1.88695">
        <ele>308.9</ele>
        <time>2019-03-10T09:40:47Z</time>
      </trkpt>
      <trkpt lat="44.2421" lon="1.88717">
        <ele>306</ele>
        <time>2019-03-10T09:40:51Z</time>
      </trkpt>
      <trkpt lat="44.2422" lon="1.88739">
        <ele>304.6</ele>
        <time>2019-03-10T09:40:55Z</time>
      </trkpt>
      <trkpt lat="44.24228" lon="1.88752">
        <ele>301.9</ele>
        <time>2019-03-10T09:40:59Z</time>
      </trkpt>
      <trkpt lat="44.24236" lon="1.8876">
        <ele>299</ele>
        <time>2019-03-10T09:41:03Z</time>
      </trkpt>
      <trkpt lat="44.24247" lon="1.88769">
        <ele>295.9</ele>
        <time>2019-03-10T09:41:07Z</time>
      </trkpt>
      <trkpt lat="44.24255" lon="1.88776">
        <ele>294.8</ele>
        <time>2019-03-10T09:41:11Z</time>
      </trkpt>
      <trkpt lat="44.24269" lon="1.88782">
        <ele>292.1</ele>
        <time>2019-03-10T09:41:15Z</time>
      </trkpt>
      <trkpt lat="44.24274" lon="1.88791">
        <ele>289.8</ele>
        <time>2019-03-10T09:41:19Z</time>
      </trkpt>
      <trkpt lat="44.24267" lon="1.88791">
        <ele>288.6</ele>
        <time>2019-03-10T09:41:23Z</time>
      </trkpt>
      <trkpt lat="44.24259" lon="1.88791">
        <ele>286.2</ele>
        <time>2019-03-10T09:41:27Z</time>
      </trkpt>
      <trkpt lat="44.24252" lon="1.88793">
        <ele>285.1</ele>
        <time>2019-03-10T09:41:31Z</time>
      </trkpt>
      <trkpt lat="44.24239" lon="1.88792">
        <ele>283.5</ele>
        <time>2019-03-10T09:41:35Z</time>
      </trkpt>
      <trkpt lat="44.24231" lon="1.88791">
        <ele>281.1</ele>
        <time>2019-03-10T09:41:39Z</time>
      </trkpt>
      <trkpt lat="44.24218" lon="1.88787">
        <ele>279.9</ele>
        <time>2019-03-10T09:41:43Z</time>
      </trkpt>
      <trkpt lat="44.24204" lon="1.8878">
        <ele>279.2</ele>
        <time>2019-03-10T09:41:47Z</time>
      </trkpt>
      <trkpt lat="44.24193" lon="1.88771">
        <ele>278.7</ele>
        <time>2019-03-10T09:41:51Z</time>
      </trkpt>
      <trkpt lat="44.24177" lon="1.88761">
        <ele>278.7</ele>
        <time>2019-03-10T09:41:55Z</time>
      </trkpt>
      <trkpt lat="44.2416" lon="1.88747">
        <ele>277.6</ele>
        <time>2019-03-10T09:41:59Z</time>
      </trkpt>
      <trkpt lat="44.2414" lon="1.88734">
        <ele>274.9</ele>
        <time>2019-03-10T09:42:03Z</time>
      </trkpt>
      <trkpt lat="44.24123" lon="1.88721">
        <ele>271.8</ele>
        <time>2019-03-10T09:42:07Z</time>
      </trkpt>
      <trkpt lat="44.2412" lon="1.88715">
        <ele>269.1</ele>
        <time>2019-03-10T09:42:11Z</time>
      </trkpt>
      <trkpt lat="44.24115" lon="1.88709">
        <ele>267.6</ele>
        <time>2019-03-10T09:42:15Z</time>
      </trkpt>
      <trkpt lat="44.24107" lon="1.88707">
        <ele>267.1</ele>
        <time>2019-03-10T09:42:19Z</time>
      </trkpt>
      <trkpt lat="44.24097" lon="1.88695">
        <ele>265.1</ele>
        <time>2019-03-10T09:42:23Z</time>
      </trkpt>
      <trkpt lat="44.2409" lon="1.8867">
        <ele>262.7</ele>
        <time>2019-03-10T09:42:27Z</time>
      </trkpt>
      <trkpt lat="44.2408" lon="1.88652">
        <ele>260.2</ele>
        <time>2019-03-10T09:42:31Z</time>
      </trkpt>
      <trkpt lat="44.24062" lon="1.88632">
        <ele>257.1</ele>
        <time>2019-03-10T09:42:35Z</time>
      </trkpt>
      <trkpt lat="44.24041" lon="1.88619">
        <ele>256</ele>
        <time>2019-03-10T09:42:39Z</time>
      </trkpt>
      <trkpt lat="44.24024" lon="1.88611">
        <ele>252.8</ele>
        <time>2019-03-10T09:42:43Z</time>
      </trkpt>
      <trkpt lat="44.24003" lon="1.88596">
        <ele>250.4</ele>
        <time>2019-03-10T09:42:47Z</time>
      </trkpt>
      <trkpt lat="44.23993" lon="1.88581">
        <ele>249.8</ele>
        <time>2019-03-10T09:42:51Z</time>
      </trkpt>
      <trkpt lat="44.23978" lon="1.88564">
        <ele>249.4</ele>
        <time>2019-03-10T09:42:55Z</time>
      </trkpt>
      <trkpt lat="44.23966" lon="1.8855">
        <ele>248.2</ele>
        <time>2019-03-10T09:42:59Z</time>
      </trkpt>
      <trkpt lat="44.23955" lon="1.88532">
        <ele>248.5</ele>
        <time>2019-03-10T09:43:03Z</time>
      </trkpt>
      <trkpt lat="44.23946" lon="1.88519">
        <ele>248.8</ele>
        <time>2019-03-10T09:43:07Z</time>
      </trkpt>
      <trkpt lat="44.23942" lon="1.88517">
        <ele>248.1</ele>
        <time>2019-03-10T09:43:11Z</time>
      </trkpt>
      <trkpt lat="44.2394" lon="1.88516">
        <ele>247.4</ele>
        <time>2019-03-10T09:43:15Z</time>
      </trkpt>
      <trkpt lat="44.23931" lon="1.88507">
        <ele>247.5</ele>
        <time>2019-03-10T09:43:27Z</time>
      </trkpt>
      <trkpt lat="44.23923" lon="1.88504">
        <ele>247.6</ele>
        <time>2019-03-10T09:43:31Z</time>
      </trkpt>
      <trkpt lat="44.23917" lon="1.88504">
        <ele>247.2</ele>
        <time>2019-03-10T09:43:35Z</time>
      </trkpt>
      <trkpt lat="44.23914" lon="1.88505">
        <ele>247.2</ele>
        <time>2019-03-10T09:43:39Z</time>
      </trkpt>
      <trkpt lat="44.23909" lon="1.88503">
        <ele>246.6</ele>
        <time>2019-03-10T09:43:43Z</time>
      </trkpt>
      <trkpt lat="44.23905" lon="1.88501">
        <ele>246.7</ele>
        <time>2019-03-10T09:43:47Z</time>
      </trkpt>
      <trkpt lat="44.23898" lon="1.88499">
        <ele>247.1</ele>
        <time>2019-03-10T09:43:51Z</time>
      </trkpt>
      <trkpt lat="44.23888" lon="1.88495">
        <ele>246.7</ele>
        <time>2019-03-10T09:43:55Z</time>
      </trkpt>
      <trkpt lat="44.23875" lon="1.88495">
        <ele>246.7</ele>
        <time>2019-03-10T09:43:59Z</time>
      </trkpt>
      <trkpt lat="44.23861" lon="1.88494">
        <ele>246.7</ele>
        <time>2019-03-10T09:44:03Z</time>
      </trkpt>
      <trkpt lat="44.23847" lon="1.88492">
        <ele>247.8</ele>
        <time>2019-03-10T09:44:07Z</time>
      </trkpt>
      <trkpt lat="44.23832" lon="1.88493">
        <ele>249.3</ele>
        <time>2019-03-10T09:44:11Z</time>
      </trkpt>
      <trkpt lat="44.23812" lon="1.88494">
        <ele>250.5</ele>
        <time>2019-03-10T09:44:15Z</time>
      </trkpt>
      <trkpt lat="44.23797" lon="1.88495">
        <ele>251</ele>
        <time>2019-03-10T09:44:19Z</time>
      </trkpt>
      <trkpt lat="44.23783" lon="1.88494">
        <ele>249.9</ele>
        <time>2019-03-10T09:44:23Z</time>
      </trkpt>
      <trkpt lat="44.23765" lon="1.88486">
        <ele>246.9</ele>
        <time>2019-03-10T09:44:27Z</time>
      </trkpt>
      <trkpt lat="44.23751" lon="1.88479">
        <ele>244.5</ele>
        <time>2019-03-10T09:44:31Z</time>
      </trkpt>
      <trkpt lat="44.23744" lon="1.88472">
        <ele>243.1</ele>
        <time>2019-03-10T09:44:35Z</time>
      </trkpt>
      <trkpt lat="44.23734" lon="1.88456">
        <ele>242.6</ele>
        <time>2019-03-10T09:44:39Z</time>
      </trkpt>
      <trkpt lat="44.23723" lon="1.88444">
        <ele>242.8</ele>
        <time>2019-03-10T09:44:43Z</time>
      </trkpt>
      <trkpt lat="44.23714" lon="1.8843">
        <ele>242.8</ele>
        <time>2019-03-10T09:44:47Z</time>
      </trkpt>
      <trkpt lat="44.23706" lon="1.88408">
        <ele>242.3</ele>
        <time>2019-03-10T09:44:51Z</time>
      </trkpt>
      <trkpt lat="44.23697" lon="1.88389">
        <ele>242.3</ele>
        <time>2019-03-10T09:44:55Z</time>
      </trkpt>
      <trkpt lat="44.23683" lon="1.88369">
        <ele>241.1</ele>
        <time>2019-03-10T09:44:59Z</time>
      </trkpt>
      <trkpt lat="44.23676" lon="1.88354">
        <ele>241.1</ele>
        <time>2019-03-10T09:45:03Z</time>
      </trkpt>
      <trkpt lat="44.23674" lon="1.88338">
        <ele>241.7</ele>
        <time>2019-03-10T09:45:07Z</time>
      </trkpt>
      <trkpt lat="44.23669" lon="1.88322">
        <ele>242.6</ele>
        <time>2019-03-10T09:45:11Z</time>
      </trkpt>
      <trkpt lat="44.23662" lon="1.88309">
        <ele>242.8</ele>
        <time>2019-03-10T09:45:15Z</time>
      </trkpt>
      <trkpt lat="44.2365" lon="1.88289">
        <ele>241.7</ele>
        <time>2019-03-10T09:45:19Z</time>
      </trkpt>
      <trkpt lat="44.23643" lon="1.88267">
        <ele>241.3</ele>
        <time>2019-03-10T09:45:23Z</time>
      </trkpt>
      <trkpt lat="44.23635" lon="1.88247">
        <ele>240.5</ele>
        <time>2019-03-10T09:45:27Z</time>
      </trkpt>
      <trkpt lat="44.23625" lon="1.88226">
        <ele>239.7</ele>
        <time>2019-03-10T09:45:31Z</time>
      </trkpt>
      <trkpt lat="44.23614" lon="1.88217">
        <ele>239.2</ele>
        <time>2019-03-10T09:45:35Z</time>
      </trkpt>
      <trkpt lat="44.23607" lon="1.88209">
        <ele>238.1</ele>
        <time>2019-03-10T09:45:39Z</time>
      </trkpt>
      <trkpt lat="44.23604" lon="1.88208">
        <ele>238</ele>
        <time>2019-03-10T09:45:43Z</time>
      </trkpt>
      <trkpt lat="44.23597" lon="1.88207">
        <ele>238.2</ele>
        <time>2019-03-10T09:45:47Z</time>
      </trkpt>
      <trkpt lat="44.23589" lon="1.88211">
        <ele>238.3</ele>
        <time>2019-03-10T09:45:51Z</time>
      </trkpt>
      <trkpt lat="44.23572" lon="1.8821">
        <ele>238.3</ele>
        <time>2019-03-10T09:45:55Z</time>
      </trkpt>
      <trkpt lat="44.23548" lon="1.8821">
        <ele>238.4</ele>
        <time>2019-03-10T09:45:59Z</time>
      </trkpt>
      <trkpt lat="44.23535" lon="1.8821">
        <ele>237</ele>
        <time>2019-03-10T09:46:03Z</time>
      </trkpt>
      <trkpt lat="44.23528" lon="1.88212">
        <ele>236.3</ele>
        <time>2019-03-10T09:46:07Z</time>
      </trkpt>
      <trkpt lat="44.23516" lon="1.88213">
        <ele>236.5</ele>
        <time>2019-03-10T09:46:11Z</time>
      </trkpt>
      <trkpt lat="44.23506" lon="1.88201">
        <ele>237.7</ele>
        <time>2019-03-10T09:46:15Z</time>
      </trkpt>
      <trkpt lat="44.23497" lon="1.88185">
        <ele>237.4</ele>
        <time>2019-03-10T09:46:19Z</time>
      </trkpt>
      <trkpt lat="44.23488" lon="1.88168">
        <ele>237.2</ele>
        <time>2019-03-10T09:46:23Z</time>
      </trkpt>
      <trkpt lat="44.23476" lon="1.88155">
        <ele>235.7</ele>
        <time>2019-03-10T09:46:27Z</time>
      </trkpt>
      <trkpt lat="44.23466" lon="1.88141">
        <ele>235.7</ele>
        <time>2019-03-10T09:46:31Z</time>
      </trkpt>
      <trkpt lat="44.23452" lon="1.88128">
        <ele>236.1</ele>
        <time>2019-03-10T09:46:35Z</time>
      </trkpt>
      <trkpt lat="44.23439" lon="1.8812">
        <ele>236.2</ele>
        <time>2019-03-10T09:46:39Z</time>
      </trkpt>
      <trkpt lat="44.23427" lon="1.88107">
        <ele>235.4</ele>
        <time>2019-03-10T09:46:43Z</time>
      </trkpt>
      <trkpt lat="44.23416" lon="1.88096">
        <ele>236.2</ele>
        <time>2019-03-10T09:46:47Z</time>
      </trkpt>
      <trkpt lat="44.23409" lon="1.88081">
        <ele>235.6</ele>
        <time>2019-03-10T09:46:51Z</time>
      </trkpt>
      <trkpt lat="44.23403" lon="1.88068">
        <ele>234.6</ele>
        <time>2019-03-10T09:46:55Z</time>
      </trkpt>
      <trkpt lat="44.23395" lon="1.88052">
        <ele>234.6</ele>
        <time>2019-03-10T09:46:59Z</time>
      </trkpt>
      <trkpt lat="44.23389" lon="1.88042">
        <ele>235.4</ele>
        <time>2019-03-10T09:47:03Z</time>
      </trkpt>
      <trkpt lat="44.23382" lon="1.88019">
        <ele>235.4</ele>
        <time>2019-03-10T09:47:07Z</time>
      </trkpt>
      <trkpt lat="44.23376" lon="1.87999">
        <ele>235</ele>
        <time>2019-03-10T09:47:11Z</time>
      </trkpt>
      <trkpt lat="44.23367" lon="1.87982">
        <ele>234.7</ele>
        <time>2019-03-10T09:47:15Z</time>
      </trkpt>
      <trkpt lat="44.23358" lon="1.87961">
        <ele>234.3</ele>
        <time>2019-03-10T09:47:19Z</time>
      </trkpt>
      <trkpt lat="44.23357" lon="1.87944">
        <ele>234.3</ele>
        <time>2019-03-10T09:47:23Z</time>
      </trkpt>
      <trkpt lat="44.23353" lon="1.87923">
        <ele>234.3</ele>
        <time>2019-03-10T09:47:27Z</time>
      </trkpt>
      <trkpt lat="44.23352" lon="1.87899">
        <ele>233.5</ele>
        <time>2019-03-10T09:47:31Z</time>
      </trkpt>
      <trkpt lat="44.23347" lon="1.87877">
        <ele>232.8</ele>
        <time>2019-03-10T09:47:35Z</time>
      </trkpt>
      <trkpt lat="44.23341" lon="1.87855">
        <ele>232.4</ele>
        <time>2019-03-10T09:47:39Z</time>
      </trkpt>
      <trkpt lat="44.23332" lon="1.87836">
        <ele>232.4</ele>
        <time>2019-03-10T09:47:43Z</time>
      </trkpt>
      <trkpt lat="44.23323" lon="1.87821">
        <ele>232.2</ele>
        <time>2019-03-10T09:47:47Z</time>
      </trkpt>
      <trkpt lat="44.23313" lon="1.87802">
        <ele>232.2</ele>
        <time>2019-03-10T09:47:51Z</time>
      </trkpt>
      <trkpt lat="44.23298" lon="1.87788">
        <ele>232.4</ele>
        <time>2019-03-10T09:47:55Z</time>
      </trkpt>
      <trkpt lat="44.23283" lon="1.87785">
        <ele>231.9</ele>
        <time>2019-03-10T09:47:59Z</time>
      </trkpt>
      <trkpt lat="44.23279" lon="1.87789">
        <ele>230.3</ele>
        <time>2019-03-10T09:48:03Z</time>
      </trkpt>
      <trkpt lat="44.23277" lon="1.87794">
        <ele>230.8</ele>
        <time>2019-03-10T09:48:07Z</time>
      </trkpt>
      <trkpt lat="44.23276" lon="1.87794">
        <ele>231.2</ele>
        <time>2019-03-10T09:48:11Z</time>
      </trkpt>
      <trkpt lat="44.23268" lon="1.87799">
        <ele>231.7</ele>
        <time>2019-03-10T09:51:27Z</time>
      </trkpt>
      <trkpt lat="44.23262" lon="1.87802">
        <ele>232.3</ele>
        <time>2019-03-10T09:51:31Z</time>
      </trkpt>
      <trkpt lat="44.23255" lon="1.87806">
        <ele>232.9</ele>
        <time>2019-03-10T09:51:35Z</time>
      </trkpt>
      <trkpt lat="44.23248" lon="1.8781">
        <ele>233.9</ele>
        <time>2019-03-10T09:51:39Z</time>
      </trkpt>
      <trkpt lat="44.23238" lon="1.87811">
        <ele>235.1</ele>
        <time>2019-03-10T09:51:43Z</time>
      </trkpt>
      <trkpt lat="44.2323" lon="1.87814">
        <ele>236.1</ele>
        <time>2019-03-10T09:51:47Z</time>
      </trkpt>
      <trkpt lat="44.23223" lon="1.87812">
        <ele>237.6</ele>
        <time>2019-03-10T09:51:51Z</time>
      </trkpt>
      <trkpt lat="44.23208" lon="1.87808">
        <ele>237.6</ele>
        <time>2019-03-10T09:51:55Z</time>
      </trkpt>
      <trkpt lat="44.23186" lon="1.87803">
        <ele>237.9</ele>
        <time>2019-03-10T09:51:59Z</time>
      </trkpt>
      <trkpt lat="44.23166" lon="1.87798">
        <ele>238.2</ele>
        <time>2019-03-10T09:52:03Z</time>
      </trkpt>
      <trkpt lat="44.23148" lon="1.87799">
        <ele>237</ele>
        <time>2019-03-10T09:52:07Z</time>
      </trkpt>
      <trkpt lat="44.23133" lon="1.87799">
        <ele>235.9</ele>
        <time>2019-03-10T09:52:11Z</time>
      </trkpt>
      <trkpt lat="44.23106" lon="1.87797">
        <ele>235.5</ele>
        <time>2019-03-10T09:52:15Z</time>
      </trkpt>
      <trkpt lat="44.2308" lon="1.87795">
        <ele>233.9</ele>
        <time>2019-03-10T09:52:19Z</time>
      </trkpt>
      <trkpt lat="44.23053" lon="1.87795">
        <ele>233.5</ele>
        <time>2019-03-10T09:52:23Z</time>
      </trkpt>
      <trkpt lat="44.2303" lon="1.87794">
        <ele>234</ele>
        <time>2019-03-10T09:52:27Z</time>
      </trkpt>
      <trkpt lat="44.23007" lon="1.87796">
        <ele>233.1</ele>
        <time>2019-03-10T09:52:31Z</time>
      </trkpt>
      <trkpt lat="44.22979" lon="1.87798">
        <ele>233.5</ele>
        <time>2019-03-10T09:52:35Z</time>
      </trkpt>
      <trkpt lat="44.22956" lon="1.87796">
        <ele>233.8</ele>
        <time>2019-03-10T09:52:39Z</time>
      </trkpt>
      <trkpt lat="44.22931" lon="1.87793">
        <ele>232.7</ele>
        <time>2019-03-10T09:52:43Z</time>
      </trkpt>
      <trkpt lat="44.22912" lon="1.878">
        <ele>232</ele>
        <time>2019-03-10T09:52:47Z</time>
      </trkpt>
      <trkpt lat="44.22888" lon="1.87793">
        <ele>230.9</ele>
        <time>2019-03-10T09:52:51Z</time>
      </trkpt>
      <trkpt lat="44.22864" lon="1.87786">
        <ele>230.3</ele>
        <time>2019-03-10T09:52:55Z</time>
      </trkpt>
      <trkpt lat="44.22835" lon="1.8778">
        <ele>229.5</ele>
        <time>2019-03-10T09:52:59Z</time>
      </trkpt>
      <trkpt lat="44.22808" lon="1.87774">
        <ele>229.3</ele>
        <time>2019-03-10T09:53:03Z</time>
      </trkpt>
      <trkpt lat="44.22789" lon="1.8777">
        <ele>229.3</ele>
        <time>2019-03-10T09:53:07Z</time>
      </trkpt>
      <trkpt lat="44.2277" lon="1.87769">
        <ele>229.3</ele>
        <time>2019-03-10T09:53:11Z</time>
      </trkpt>
      <trkpt lat="44.22746" lon="1.87765">
        <ele>229.5</ele>
        <time>2019-03-10T09:53:15Z</time>
      </trkpt>
      <trkpt lat="44.22724" lon="1.87765">
        <ele>229.2</ele>
        <time>2019-03-10T09:53:19Z</time>
      </trkpt>
      <trkpt lat="44.22706" lon="1.87765">
        <ele>230.3</ele>
        <time>2019-03-10T09:53:23Z</time>
      </trkpt>
      <trkpt lat="44.22686" lon="1.87766">
        <ele>230.9</ele>
        <time>2019-03-10T09:53:27Z</time>
      </trkpt>
      <trkpt lat="44.22669" lon="1.87761">
        <ele>230.9</ele>
        <time>2019-03-10T09:53:31Z</time>
      </trkpt>
      <trkpt lat="44.22657" lon="1.87757">
        <ele>230.6</ele>
        <time>2019-03-10T09:53:35Z</time>
      </trkpt>
      <trkpt lat="44.22637" lon="1.87757">
        <ele>230.8</ele>
        <time>2019-03-10T09:53:39Z</time>
      </trkpt>
      <trkpt lat="44.22615" lon="1.8776">
        <ele>230.8</ele>
        <time>2019-03-10T09:53:43Z</time>
      </trkpt>
      <trkpt lat="44.22594" lon="1.87765">
        <ele>230.9</ele>
        <time>2019-03-10T09:53:47Z</time>
      </trkpt>
      <trkpt lat="44.22569" lon="1.87782">
        <ele>230.7</ele>
        <time>2019-03-10T09:53:51Z</time>
      </trkpt>
      <trkpt lat="44.22551" lon="1.87808">
        <ele>229.8</ele>
        <time>2019-03-10T09:53:55Z</time>
      </trkpt>
      <trkpt lat="44.2254" lon="1.87838">
        <ele>228.2</ele>
        <time>2019-03-10T09:53:59Z</time>
      </trkpt>
      <trkpt lat="44.22533" lon="1.87869">
        <ele>226.3</ele>
        <time>2019-03-10T09:54:03Z</time>
      </trkpt>
      <trkpt lat="44.2252" lon="1.87895">
        <ele>225.1</ele>
        <time>2019-03-10T09:54:07Z</time>
      </trkpt>
      <trkpt lat="44.22505" lon="1.8792">
        <ele>224.5</ele>
        <time>2019-03-10T09:54:11Z</time>
      </trkpt>
      <trkpt lat="44.22495" lon="1.87952">
        <ele>223.7</ele>
        <time>2019-03-10T09:54:15Z</time>
      </trkpt>
      <trkpt lat="44.22486" lon="1.87986">
        <ele>222.4</ele>
        <time>2019-03-10T09:54:19Z</time>
      </trkpt>
      <trkpt lat="44.22477" lon="1.88015">
        <ele>221.2</ele>
        <time>2019-03-10T09:54:23Z</time>
      </trkpt>
      <trkpt lat="44.22466" lon="1.88039">
        <ele>220.6</ele>
        <time>2019-03-10T09:54:27Z</time>
      </trkpt>
      <trkpt lat="44.22455" lon="1.8806">
        <ele>221.1</ele>
        <time>2019-03-10T09:54:31Z</time>
      </trkpt>
      <trkpt lat="44.22446" lon="1.88089">
        <ele>222.3</ele>
        <time>2019-03-10T09:54:35Z</time>
      </trkpt>
      <trkpt lat="44.22428" lon="1.8811">
        <ele>222.9</ele>
        <time>2019-03-10T09:54:39Z</time>
      </trkpt>
      <trkpt lat="44.22408" lon="1.88121">
        <ele>222.9</ele>
        <time>2019-03-10T09:54:43Z</time>
      </trkpt>
      <trkpt lat="44.22388" lon="1.88122">
        <ele>222.1</ele>
        <time>2019-03-10T09:54:47Z</time>
      </trkpt>
      <trkpt lat="44.2237" lon="1.88126">
        <ele>221.7</ele>
        <time>2019-03-10T09:54:51Z</time>
      </trkpt>
      <trkpt lat="44.22346" lon="1.88131">
        <ele>221.4</ele>
        <time>2019-03-10T09:54:55Z</time>
      </trkpt>
      <trkpt lat="44.22329" lon="1.88136">
        <ele>221.9</ele>
        <time>2019-03-10T09:54:59Z</time>
      </trkpt>
      <trkpt lat="44.22308" lon="1.88149">
        <ele>221.1</ele>
        <time>2019-03-10T09:55:03Z</time>
      </trkpt>
      <trkpt lat="44.22283" lon="1.8817">
        <ele>220.1</ele>
        <time>2019-03-10T09:55:07Z</time>
      </trkpt>
      <trkpt lat="44.22269" lon="1.88191">
        <ele>219.9</ele>
        <time>2019-03-10T09:55:11Z</time>
      </trkpt>
      <trkpt lat="44.22256" lon="1.88219">
        <ele>219.9</ele>
        <time>2019-03-10T09:55:15Z</time>
      </trkpt>
      <trkpt lat="44.22251" lon="1.88248">
        <ele>220.5</ele>
        <time>2019-03-10T09:55:19Z</time>
      </trkpt>
      <trkpt lat="44.22245" lon="1.88276">
        <ele>221</ele>
        <time>2019-03-10T09:55:23Z</time>
      </trkpt>
      <trkpt lat="44.2224" lon="1.88302">
        <ele>219.8</ele>
        <time>2019-03-10T09:55:27Z</time>
      </trkpt>
      <trkpt lat="44.22235" lon="1.88312">
        <ele>217.1</ele>
        <time>2019-03-10T09:55:31Z</time>
      </trkpt>
      <trkpt lat="44.22233" lon="1.88303">
        <ele>215.9</ele>
        <time>2019-03-10T09:55:35Z</time>
      </trkpt>
      <trkpt lat="44.22231" lon="1.88289">
        <ele>215.7</ele>
        <time>2019-03-10T09:55:39Z</time>
      </trkpt>
      <trkpt lat="44.2223" lon="1.88269">
        <ele>216</ele>
        <time>2019-03-10T09:55:43Z</time>
      </trkpt>
      <trkpt lat="44.22231" lon="1.88246">
        <ele>215.4</ele>
        <time>2019-03-10T09:55:47Z</time>
      </trkpt>
      <trkpt lat="44.22233" lon="1.88236">
        <ele>215.4</ele>
        <time>2019-03-10T09:55:51Z</time>
      </trkpt>
      <trkpt lat="44.22225" lon="1.88229">
        <ele>215.8</ele>
        <time>2019-03-10T09:55:55Z</time>
      </trkpt>
      <trkpt lat="44.22217" lon="1.8823">
        <ele>215.9</ele>
        <time>2019-03-10T09:55:59Z</time>
      </trkpt>
      <trkpt lat="44.22216" lon="1.88235">
        <ele>217.4</ele>
        <time>2019-03-10T09:56:03Z</time>
      </trkpt>
      <trkpt lat="44.22211" lon="1.88243">
        <ele>218.7</ele>
        <time>2019-03-10T09:56:07Z</time>
      </trkpt>
      <trkpt lat="44.22206" lon="1.88254">
        <ele>220.3</ele>
        <time>2019-03-10T09:56:11Z</time>
      </trkpt>
      <trkpt lat="44.22205" lon="1.88265">
        <ele>221.3</ele>
        <time>2019-03-10T09:56:15Z</time>
      </trkpt>
      <trkpt lat="44.22203" lon="1.88273">
        <ele>221.3</ele>
        <time>2019-03-10T09:56:19Z</time>
      </trkpt>
      <trkpt lat="44.22202" lon="1.88284">
        <ele>222.9</ele>
        <time>2019-03-10T09:56:23Z</time>
      </trkpt>
      <trkpt lat="44.222" lon="1.8829">
        <ele>223.5</ele>
        <time>2019-03-10T09:56:27Z</time>
      </trkpt>
      <trkpt lat="44.22199" lon="1.88305">
        <ele>224.5</ele>
        <time>2019-03-10T09:56:31Z</time>
      </trkpt>
      <trkpt lat="44.22197" lon="1.88318">
        <ele>225.5</ele>
        <time>2019-03-10T09:56:35Z</time>
      </trkpt>
      <trkpt lat="44.22202" lon="1.88334">
        <ele>226.8</ele>
        <time>2019-03-10T09:56:39Z</time>
      </trkpt>
      <trkpt lat="44.22207" lon="1.88345">
        <ele>226.9</ele>
        <time>2019-03-10T09:56:43Z</time>
      </trkpt>
      <trkpt lat="44.22205" lon="1.88364">
        <ele>226.7</ele>
        <time>2019-03-10T09:56:47Z</time>
      </trkpt>
      <trkpt lat="44.22197" lon="1.88375">
        <ele>227.3</ele>
        <time>2019-03-10T09:56:51Z</time>
      </trkpt>
      <trkpt lat="44.22191" lon="1.88385">
        <ele>228.1</ele>
        <time>2019-03-10T09:56:55Z</time>
      </trkpt>
      <trkpt lat="44.22184" lon="1.88393">
        <ele>229.3</ele>
        <time>2019-03-10T09:56:59Z</time>
      </trkpt>
      <trkpt lat="44.22177" lon="1.884">
        <ele>230.4</ele>
        <time>2019-03-10T09:57:03Z</time>
      </trkpt>
      <trkpt lat="44.22171" lon="1.88407">
        <ele>231.3</ele>
        <time>2019-03-10T09:57:07Z</time>
      </trkpt>
      <trkpt lat="44.22153" lon="1.88415">
        <ele>231.3</ele>
        <time>2019-03-10T09:57:11Z</time>
      </trkpt>
      <trkpt lat="44.22138" lon="1.88423">
        <ele>231.5</ele>
        <time>2019-03-10T09:57:15Z</time>
      </trkpt>
      <trkpt lat="44.22125" lon="1.88426">
        <ele>230.9</ele>
        <time>2019-03-10T09:57:19Z</time>
      </trkpt>
      <trkpt lat="44.22105" lon="1.88429">
        <ele>229.9</ele>
        <time>2019-03-10T09:57:23Z</time>
      </trkpt>
      <trkpt lat="44.22083" lon="1.88429">
        <ele>228.6</ele>
        <time>2019-03-10T09:57:27Z</time>
      </trkpt>
      <trkpt lat="44.22062" lon="1.88427">
        <ele>227.1</ele>
        <time>2019-03-10T09:57:31Z</time>
      </trkpt>
      <trkpt lat="44.2205" lon="1.88418">
        <ele>226</ele>
        <time>2019-03-10T09:57:35Z</time>
      </trkpt>
      <trkpt lat="44.22043" lon="1.88408">
        <ele>226.5</ele>
        <time>2019-03-10T09:57:39Z</time>
      </trkpt>
      <trkpt lat="44.22036" lon="1.88408">
        <ele>226.5</ele>
        <time>2019-03-10T09:57:43Z</time>
      </trkpt>
      <trkpt lat="44.22028" lon="1.88409">
        <ele>228.6</ele>
        <time>2019-03-10T09:57:47Z</time>
      </trkpt>
      <trkpt lat="44.2202" lon="1.88405">
        <ele>229.7</ele>
        <time>2019-03-10T09:57:51Z</time>
      </trkpt>
      <trkpt lat="44.22017" lon="1.88403">
        <ele>230.8</ele>
        <time>2019-03-10T09:57:55Z</time>
      </trkpt>
      <trkpt lat="44.22015" lon="1.88403">
        <ele>231.9</ele>
        <time>2019-03-10T09:57:59Z</time>
      </trkpt>
      <trkpt lat="44.22" lon="1.88395">
        <ele>233.7</ele>
        <time>2019-03-10T09:58:23Z</time>
      </trkpt>
      <trkpt lat="44.21997" lon="1.88393">
        <ele>234.1</ele>
        <time>2019-03-10T09:58:27Z</time>
      </trkpt>
      <trkpt lat="44.2199" lon="1.8839">
        <ele>235.1</ele>
        <time>2019-03-10T09:58:31Z</time>
      </trkpt>
      <trkpt lat="44.2198" lon="1.8839">
        <ele>235.5</ele>
        <time>2019-03-10T09:58:35Z</time>
      </trkpt>
      <trkpt lat="44.2197" lon="1.88387">
        <ele>235.9</ele>
        <time>2019-03-10T09:58:39Z</time>
      </trkpt>
      <trkpt lat="44.2196" lon="1.88385">
        <ele>236.3</ele>
        <time>2019-03-10T09:58:43Z</time>
      </trkpt>
      <trkpt lat="44.2195" lon="1.88382">
        <ele>237.1</ele>
        <time>2019-03-10T09:58:47Z</time>
      </trkpt>
      <trkpt lat="44.21941" lon="1.88378">
        <ele>238</ele>
        <time>2019-03-10T09:58:51Z</time>
      </trkpt>
      <trkpt lat="44.21933" lon="1.88374">
        <ele>239.6</ele>
        <time>2019-03-10T09:58:55Z</time>
      </trkpt>
      <trkpt lat="44.21925" lon="1.88372">
        <ele>240.4</ele>
        <time>2019-03-10T09:58:59Z</time>
      </trkpt>
      <trkpt lat="44.21917" lon="1.8837">
        <ele>241.7</ele>
        <time>2019-03-10T09:59:03Z</time>
      </trkpt>
      <trkpt lat="44.2191" lon="1.8837">
        <ele>243.9</ele>
        <time>2019-03-10T09:59:07Z</time>
      </trkpt>
      <trkpt lat="44.21902" lon="1.88372">
        <ele>244.6</ele>
        <time>2019-03-10T09:59:11Z</time>
      </trkpt>
      <trkpt lat="44.21894" lon="1.88373">
        <ele>246</ele>
        <time>2019-03-10T09:59:15Z</time>
      </trkpt>
      <trkpt lat="44.21889" lon="1.88375">
        <ele>247</ele>
        <time>2019-03-10T09:59:19Z</time>
      </trkpt>
      <trkpt lat="44.21882" lon="1.8838">
        <ele>247.9</ele>
        <time>2019-03-10T09:59:23Z</time>
      </trkpt>
      <trkpt lat="44.21876" lon="1.88383">
        <ele>248.9</ele>
        <time>2019-03-10T09:59:27Z</time>
      </trkpt>
      <trkpt lat="44.21871" lon="1.88387">
        <ele>248.9</ele>
        <time>2019-03-10T09:59:31Z</time>
      </trkpt>
      <trkpt lat="44.21865" lon="1.88391">
        <ele>250</ele>
        <time>2019-03-10T09:59:35Z</time>
      </trkpt>
      <trkpt lat="44.21859" lon="1.88403">
        <ele>251</ele>
        <time>2019-03-10T09:59:39Z</time>
      </trkpt>
      <trkpt lat="44.21852" lon="1.88425">
        <ele>251</ele>
        <time>2019-03-10T09:59:43Z</time>
      </trkpt>
      <trkpt lat="44.21847" lon="1.88449">
        <ele>248.7</ele>
        <time>2019-03-10T09:59:47Z</time>
      </trkpt>
      <trkpt lat="44.21838" lon="1.88479">
        <ele>246.5</ele>
        <time>2019-03-10T09:59:51Z</time>
      </trkpt>
      <trkpt lat="44.21839" lon="1.88509">
        <ele>242.6</ele>
        <time>2019-03-10T09:59:55Z</time>
      </trkpt>
      <trkpt lat="44.21837" lon="1.88539">
        <ele>238.6</ele>
        <time>2019-03-10T09:59:59Z</time>
      </trkpt>
      <trkpt lat="44.21832" lon="1.88574">
        <ele>234</ele>
        <time>2019-03-10T10:00:03Z</time>
      </trkpt>
      <trkpt lat="44.21829" lon="1.88602">
        <ele>230.2</ele>
        <time>2019-03-10T10:00:07Z</time>
      </trkpt>
      <trkpt lat="44.21821" lon="1.88629">
        <ele>228.5</ele>
        <time>2019-03-10T10:00:11Z</time>
      </trkpt>
      <trkpt lat="44.21809" lon="1.88654">
        <ele>226.7</ele>
        <time>2019-03-10T10:00:15Z</time>
      </trkpt>
      <trkpt lat="44.21796" lon="1.88676">
        <ele>222.7</ele>
        <time>2019-03-10T10:00:19Z</time>
      </trkpt>
      <trkpt lat="44.21784" lon="1.88689">
        <ele>219.8</ele>
        <time>2019-03-10T10:00:23Z</time>
      </trkpt>
      <trkpt lat="44.2177" lon="1.8871">
        <ele>216.7</ele>
        <time>2019-03-10T10:00:27Z</time>
      </trkpt>
      <trkpt lat="44.21756" lon="1.88729">
        <ele>213</ele>
        <time>2019-03-10T10:00:31Z</time>
      </trkpt>
      <trkpt lat="44.21738" lon="1.88757">
        <ele>210.1</ele>
        <time>2019-03-10T10:00:35Z</time>
      </trkpt>
      <trkpt lat="44.21724" lon="1.88773">
        <ele>207.1</ele>
        <time>2019-03-10T10:00:39Z</time>
      </trkpt>
      <trkpt lat="44.21707" lon="1.88787">
        <ele>206.4</ele>
        <time>2019-03-10T10:00:43Z</time>
      </trkpt>
      <trkpt lat="44.21694" lon="1.88796">
        <ele>204.8</ele>
        <time>2019-03-10T10:00:47Z</time>
      </trkpt>
      <trkpt lat="44.21683" lon="1.88803">
        <ele>204.5</ele>
        <time>2019-03-10T10:00:51Z</time>
      </trkpt>
      <trkpt lat="44.21674" lon="1.8881">
        <ele>206.1</ele>
        <time>2019-03-10T10:00:55Z</time>
      </trkpt>
      <trkpt lat="44.21663" lon="1.88817">
        <ele>205.8</ele>
        <time>2019-03-10T10:00:59Z</time>
      </trkpt>
      <trkpt lat="44.21648" lon="1.88826">
        <ele>205.1</ele>
        <time>2019-03-10T10:01:03Z</time>
      </trkpt>
      <trkpt lat="44.21637" lon="1.8883">
        <ele>204.2</ele>
        <time>2019-03-10T10:01:07Z</time>
      </trkpt>
      <trkpt lat="44.21628" lon="1.88838">
        <ele>205.2</ele>
        <time>2019-03-10T10:01:11Z</time>
      </trkpt>
      <trkpt lat="44.21617" lon="1.88843">
        <ele>205.2</ele>
        <time>2019-03-10T10:01:15Z</time>
      </trkpt>
      <trkpt lat="44.21607" lon="1.88847">
        <ele>204.5</ele>
        <time>2019-03-10T10:01:19Z</time>
      </trkpt>
      <trkpt lat="44.21595" lon="1.88851">
        <ele>205.4</ele>
        <time>2019-03-10T10:01:23Z</time>
      </trkpt>
      <trkpt lat="44.21583" lon="1.88856">
        <ele>205.9</ele>
        <time>2019-03-10T10:01:27Z</time>
      </trkpt>
      <trkpt lat="44.21568" lon="1.88864">
        <ele>205.8</ele>
        <time>2019-03-10T10:01:31Z</time>
      </trkpt>
      <trkpt lat="44.21557" lon="1.88867">
        <ele>206.5</ele>
        <time>2019-03-10T10:01:35Z</time>
      </trkpt>
      <trkpt lat="44.21547" lon="1.88869">
        <ele>207.9</ele>
        <time>2019-03-10T10:01:39Z</time>
      </trkpt>
      <trkpt lat="44.21536" lon="1.88872">
        <ele>209.1</ele>
        <time>2019-03-10T10:01:43Z</time>
      </trkpt>
      <trkpt lat="44.21525" lon="1.88872">
        <ele>210.3</ele>
        <time>2019-03-10T10:01:47Z</time>
      </trkpt>
      <trkpt lat="44.21517" lon="1.88876">
        <ele>211.8</ele>
        <time>2019-03-10T10:01:51Z</time>
      </trkpt>
      <trkpt lat="44.2151" lon="1.88877">
        <ele>213.8</ele>
        <time>2019-03-10T10:01:55Z</time>
      </trkpt>
      <trkpt lat="44.21503" lon="1.88879">
        <ele>215.7</ele>
        <time>2019-03-10T10:01:59Z</time>
      </trkpt>
      <trkpt lat="44.21496" lon="1.88881">
        <ele>216.3</ele>
        <time>2019-03-10T10:02:03Z</time>
      </trkpt>
      <trkpt lat="44.21486" lon="1.88883">
        <ele>217.3</ele>
        <time>2019-03-10T10:02:07Z</time>
      </trkpt>
      <trkpt lat="44.21476" lon="1.88886">
        <ele>217.7</ele>
        <time>2019-03-10T10:02:11Z</time>
      </trkpt>
      <trkpt lat="44.21467" lon="1.88891">
        <ele>217.6</ele>
        <time>2019-03-10T10:02:15Z</time>
      </trkpt>
      <trkpt lat="44.21461" lon="1.88895">
        <ele>218.9</ele>
        <time>2019-03-10T10:02:19Z</time>
      </trkpt>
      <trkpt lat="44.21452" lon="1.88901">
        <ele>219.8</ele>
        <time>2019-03-10T10:02:23Z</time>
      </trkpt>
      <trkpt lat="44.21447" lon="1.88906">
        <ele>220.4</ele>
        <time>2019-03-10T10:02:27Z</time>
      </trkpt>
      <trkpt lat="44.21439" lon="1.88914">
        <ele>221.1</ele>
        <time>2019-03-10T10:02:31Z</time>
      </trkpt>
      <trkpt lat="44.21433" lon="1.88922">
        <ele>221.9</ele>
        <time>2019-03-10T10:02:35Z</time>
      </trkpt>
      <trkpt lat="44.21421" lon="1.88937">
        <ele>222.7</ele>
        <time>2019-03-10T10:02:39Z</time>
      </trkpt>
      <trkpt lat="44.21412" lon="1.88947">
        <ele>223.8</ele>
        <time>2019-03-10T10:02:43Z</time>
      </trkpt>
      <trkpt lat="44.21402" lon="1.88951">
        <ele>224.9</ele>
        <time>2019-03-10T10:02:47Z</time>
      </trkpt>
      <trkpt lat="44.21391" lon="1.88961">
        <ele>226</ele>
        <time>2019-03-10T10:02:51Z</time>
      </trkpt>
      <trkpt lat="44.21384" lon="1.88968">
        <ele>227.1</ele>
        <time>2019-03-10T10:02:55Z</time>
      </trkpt>
      <trkpt lat="44.21378" lon="1.88972">
        <ele>228.1</ele>
        <time>2019-03-10T10:02:59Z</time>
      </trkpt>
      <trkpt lat="44.21372" lon="1.88978">
        <ele>229.3</ele>
        <time>2019-03-10T10:03:03Z</time>
      </trkpt>
      <trkpt lat="44.21362" lon="1.88983">
        <ele>230</ele>
        <time>2019-03-10T10:03:07Z</time>
      </trkpt>
      <trkpt lat="44.21356" lon="1.88981">
        <ele>230.8</ele>
        <time>2019-03-10T10:03:11Z</time>
      </trkpt>
      <trkpt lat="44.21348" lon="1.88974">
        <ele>231</ele>
        <time>2019-03-10T10:03:15Z</time>
      </trkpt>
      <trkpt lat="44.21342" lon="1.88964">
        <ele>233.4</ele>
        <time>2019-03-10T10:03:19Z</time>
      </trkpt>
      <trkpt lat="44.21337" lon="1.88961">
        <ele>234.2</ele>
        <time>2019-03-10T10:03:23Z</time>
      </trkpt>
      <trkpt lat="44.21333" lon="1.88954">
        <ele>234.7</ele>
        <time>2019-03-10T10:03:27Z</time>
      </trkpt>
      <trkpt lat="44.21326" lon="1.88949">
        <ele>236.1</ele>
        <time>2019-03-10T10:03:31Z</time>
      </trkpt>
      <trkpt lat="44.21322" lon="1.88946">
        <ele>237.3</ele>
        <time>2019-03-10T10:03:35Z</time>
      </trkpt>
      <trkpt lat="44.21316" lon="1.8894">
        <ele>238.4</ele>
        <time>2019-03-10T10:03:39Z</time>
      </trkpt>
      <trkpt lat="44.21308" lon="1.88934">
        <ele>239.6</ele>
        <time>2019-03-10T10:03:43Z</time>
      </trkpt>
      <trkpt lat="44.21302" lon="1.88929">
        <ele>240.8</ele>
        <time>2019-03-10T10:03:47Z</time>
      </trkpt>
      <trkpt lat="44.21296" lon="1.88924">
        <ele>240.8</ele>
        <time>2019-03-10T10:03:51Z</time>
      </trkpt>
      <trkpt lat="44.21291" lon="1.88919">
        <ele>241.7</ele>
        <time>2019-03-10T10:03:55Z</time>
      </trkpt>
      <trkpt lat="44.21282" lon="1.88914">
        <ele>242.8</ele>
        <time>2019-03-10T10:03:59Z</time>
      </trkpt>
      <trkpt lat="44.21273" lon="1.88911">
        <ele>243.9</ele>
        <time>2019-03-10T10:04:03Z</time>
      </trkpt>
      <trkpt lat="44.21266" lon="1.8891">
        <ele>245.9</ele>
        <time>2019-03-10T10:04:07Z</time>
      </trkpt>
      <trkpt lat="44.21261" lon="1.88912">
        <ele>247.1</ele>
        <time>2019-03-10T10:04:11Z</time>
      </trkpt>
      <trkpt lat="44.21256" lon="1.88912">
        <ele>248.4</ele>
        <time>2019-03-10T10:04:15Z</time>
      </trkpt>
      <trkpt lat="44.21252" lon="1.88914">
        <ele>249.5</ele>
        <time>2019-03-10T10:04:19Z</time>
      </trkpt>
      <trkpt lat="44.21247" lon="1.88914">
        <ele>250.4</ele>
        <time>2019-03-10T10:04:23Z</time>
      </trkpt>
      <trkpt lat="44.21237" lon="1.88918">
        <ele>251.7</ele>
        <time>2019-03-10T10:04:31Z</time>
      </trkpt>
      <trkpt lat="44.21231" lon="1.8892">
        <ele>253.9</ele>
        <time>2019-03-10T10:04:35Z</time>
      </trkpt>
      <trkpt lat="44.21201" lon="1.88942">
        <ele>262.3</ele>
        <time>2019-03-10T10:05:03Z</time>
      </trkpt>
      <trkpt lat="44.21199" lon="1.88948">
        <ele>263.5</ele>
        <time>2019-03-10T10:05:07Z</time>
      </trkpt>
      <trkpt lat="44.21196" lon="1.88953">
        <ele>264.4</ele>
        <time>2019-03-10T10:05:11Z</time>
      </trkpt>
      <trkpt lat="44.21194" lon="1.88958">
        <ele>265.3</ele>
        <time>2019-03-10T10:05:15Z</time>
      </trkpt>
      <trkpt lat="44.212" lon="1.88965">
        <ele>266</ele>
        <time>2019-03-10T10:05:19Z</time>
      </trkpt>
      <trkpt lat="44.212" lon="1.88967">
        <ele>266.8</ele>
        <time>2019-03-10T10:05:23Z</time>
      </trkpt>
      <trkpt lat="44.21202" lon="1.88983">
        <ele>269.1</ele>
        <time>2019-03-10T10:05:27Z</time>
      </trkpt>
      <trkpt lat="44.21208" lon="1.88991">
        <ele>269.3</ele>
        <time>2019-03-10T10:05:31Z</time>
      </trkpt>
      <trkpt lat="44.21213" lon="1.89002">
        <ele>269.3</ele>
        <time>2019-03-10T10:05:35Z</time>
      </trkpt>
      <trkpt lat="44.21214" lon="1.89015">
        <ele>270.5</ele>
        <time>2019-03-10T10:05:39Z</time>
      </trkpt>
      <trkpt lat="44.21217" lon="1.89024">
        <ele>272.3</ele>
        <time>2019-03-10T10:05:43Z</time>
      </trkpt>
      <trkpt lat="44.2122" lon="1.89034">
        <ele>272.4</ele>
        <time>2019-03-10T10:05:47Z</time>
      </trkpt>
      <trkpt lat="44.2122" lon="1.89042">
        <ele>273.5</ele>
        <time>2019-03-10T10:05:51Z</time>
      </trkpt>
      <trkpt lat="44.21215" lon="1.89056">
        <ele>274.3</ele>
        <time>2019-03-10T10:05:55Z</time>
      </trkpt>
      <trkpt lat="44.21214" lon="1.89071">
        <ele>274.7</ele>
        <time>2019-03-10T10:05:59Z</time>
      </trkpt>
      <trkpt lat="44.21206" lon="1.89081">
        <ele>274.7</ele>
        <time>2019-03-10T10:06:03Z</time>
      </trkpt>
      <trkpt lat="44.21202" lon="1.89091">
        <ele>275.7</ele>
        <time>2019-03-10T10:06:07Z</time>
      </trkpt>
      <trkpt lat="44.21197" lon="1.89103">
        <ele>276.8</ele>
        <time>2019-03-10T10:06:11Z</time>
      </trkpt>
      <trkpt lat="44.21191" lon="1.89112">
        <ele>278.2</ele>
        <time>2019-03-10T10:06:15Z</time>
      </trkpt>
      <trkpt lat="44.21182" lon="1.89121">
        <ele>278.9</ele>
        <time>2019-03-10T10:06:19Z</time>
      </trkpt>
      <trkpt lat="44.21178" lon="1.89137">
        <ele>278.9</ele>
        <time>2019-03-10T10:06:23Z</time>
      </trkpt>
      <trkpt lat="44.21179" lon="1.89143">
        <ele>279.9</ele>
        <time>2019-03-10T10:06:27Z</time>
      </trkpt>
      <trkpt lat="44.21179" lon="1.89153">
        <ele>281.3</ele>
        <time>2019-03-10T10:06:31Z</time>
      </trkpt>
      <trkpt lat="44.21178" lon="1.89168">
        <ele>281.5</ele>
        <time>2019-03-10T10:06:35Z</time>
      </trkpt>
      <trkpt lat="44.21172" lon="1.89206">
        <ele>280.3</ele>
        <time>2019-03-10T10:06:39Z</time>
      </trkpt>
      <trkpt lat="44.21169" lon="1.8925">
        <ele>274.7</ele>
        <time>2019-03-10T10:06:43Z</time>
      </trkpt>
      <trkpt lat="44.21168" lon="1.89299">
        <ele>268.6</ele>
        <time>2019-03-10T10:06:47Z</time>
      </trkpt>
      <trkpt lat="44.21164" lon="1.89357">
        <ele>264</ele>
        <time>2019-03-10T10:06:51Z</time>
      </trkpt>
      <trkpt lat="44.21161" lon="1.89416">
        <ele>256.8</ele>
        <time>2019-03-10T10:06:55Z</time>
      </trkpt>
      <trkpt lat="44.21165" lon="1.89476">
        <ele>247.1</ele>
        <time>2019-03-10T10:06:59Z</time>
      </trkpt>
      <trkpt lat="44.21172" lon="1.89518">
        <ele>238.4</ele>
        <time>2019-03-10T10:07:03Z</time>
      </trkpt>
      <trkpt lat="44.2117" lon="1.8956">
        <ele>231.8</ele>
        <time>2019-03-10T10:07:07Z</time>
      </trkpt>
      <trkpt lat="44.21169" lon="1.89594">
        <ele>227.7</ele>
        <time>2019-03-10T10:07:11Z</time>
      </trkpt>
      <trkpt lat="44.21167" lon="1.8961">
        <ele>226.6</ele>
        <time>2019-03-10T10:07:15Z</time>
      </trkpt>
      <trkpt lat="44.21171" lon="1.89625">
        <ele>225.4</ele>
        <time>2019-03-10T10:07:19Z</time>
      </trkpt>
      <trkpt lat="44.21174" lon="1.89646">
        <ele>226.7</ele>
        <time>2019-03-10T10:07:23Z</time>
      </trkpt>
      <trkpt lat="44.21172" lon="1.89662">
        <ele>227.4</ele>
        <time>2019-03-10T10:07:27Z</time>
      </trkpt>
      <trkpt lat="44.21173" lon="1.89682">
        <ele>228.4</ele>
        <time>2019-03-10T10:07:31Z</time>
      </trkpt>
      <trkpt lat="44.21166" lon="1.89709">
        <ele>229.3</ele>
        <time>2019-03-10T10:07:35Z</time>
      </trkpt>
      <trkpt lat="44.21158" lon="1.89731">
        <ele>229.3</ele>
        <time>2019-03-10T10:07:39Z</time>
      </trkpt>
      <trkpt lat="44.21145" lon="1.89746">
        <ele>230</ele>
        <time>2019-03-10T10:07:43Z</time>
      </trkpt>
      <trkpt lat="44.21133" lon="1.89758">
        <ele>230.1</ele>
        <time>2019-03-10T10:07:47Z</time>
      </trkpt>
      <trkpt lat="44.21125" lon="1.89765">
        <ele>230.4</ele>
        <time>2019-03-10T10:07:51Z</time>
      </trkpt>
      <trkpt lat="44.21102" lon="1.89785">
        <ele>228.2</ele>
        <time>2019-03-10T10:07:55Z</time>
      </trkpt>
      <trkpt lat="44.21084" lon="1.898">
        <ele>228.1</ele>
        <time>2019-03-10T10:07:59Z</time>
      </trkpt>
      <trkpt lat="44.21081" lon="1.89816">
        <ele>227.8</ele>
        <time>2019-03-10T10:08:03Z</time>
      </trkpt>
      <trkpt lat="44.21078" lon="1.89838">
        <ele>227</ele>
        <time>2019-03-10T10:08:07Z</time>
      </trkpt>
      <trkpt lat="44.21075" lon="1.89855">
        <ele>227</ele>
        <time>2019-03-10T10:08:11Z</time>
      </trkpt>
      <trkpt lat="44.21065" lon="1.89884">
        <ele>227.9</ele>
        <time>2019-03-10T10:08:15Z</time>
      </trkpt>
      <trkpt lat="44.21061" lon="1.89915">
        <ele>224.7</ele>
        <time>2019-03-10T10:08:20Z</time>
      </trkpt>
      <trkpt lat="44.2106" lon="1.89954">
        <ele>221.3</ele>
        <time>2019-03-10T10:08:24Z</time>
      </trkpt>
      <trkpt lat="44.21051" lon="1.89994">
        <ele>216.3</ele>
        <time>2019-03-10T10:08:28Z</time>
      </trkpt>
      <trkpt lat="44.21048" lon="1.90032">
        <ele>214.6</ele>
        <time>2019-03-10T10:08:32Z</time>
      </trkpt>
      <trkpt lat="44.21048" lon="1.90066">
        <ele>210.9</ele>
        <time>2019-03-10T10:08:36Z</time>
      </trkpt>
      <trkpt lat="44.21049" lon="1.90094">
        <ele>207.3</ele>
        <time>2019-03-10T10:08:40Z</time>
      </trkpt>
      <trkpt lat="44.21046" lon="1.90116">
        <ele>204.7</ele>
        <time>2019-03-10T10:08:44Z</time>
      </trkpt>
      <trkpt lat="44.2104" lon="1.90148">
        <ele>200.5</ele>
        <time>2019-03-10T10:08:48Z</time>
      </trkpt>
      <trkpt lat="44.21031" lon="1.9018">
        <ele>199.4</ele>
        <time>2019-03-10T10:08:52Z</time>
      </trkpt>
      <trkpt lat="44.21028" lon="1.90206">
        <ele>198.6</ele>
        <time>2019-03-10T10:08:56Z</time>
      </trkpt>
      <trkpt lat="44.21025" lon="1.9023">
        <ele>196.1</ele>
        <time>2019-03-10T10:09:00Z</time>
      </trkpt>
      <trkpt lat="44.21023" lon="1.90246">
        <ele>194.6</ele>
        <time>2019-03-10T10:09:04Z</time>
      </trkpt>
      <trkpt lat="44.21023" lon="1.90255">
        <ele>192.4</ele>
        <time>2019-03-10T10:09:08Z</time>
      </trkpt>
      <trkpt lat="44.21023" lon="1.90276">
        <ele>191</ele>
        <time>2019-03-10T10:09:12Z</time>
      </trkpt>
      <trkpt lat="44.21019" lon="1.90297">
        <ele>189.1</ele>
        <time>2019-03-10T10:09:16Z</time>
      </trkpt>
      <trkpt lat="44.21012" lon="1.90328">
        <ele>189.1</ele>
        <time>2019-03-10T10:09:20Z</time>
      </trkpt>
      <trkpt lat="44.20996" lon="1.90358">
        <ele>188.1</ele>
        <time>2019-03-10T10:09:24Z</time>
      </trkpt>
      <trkpt lat="44.2099" lon="1.90382">
        <ele>185.5</ele>
        <time>2019-03-10T10:09:28Z</time>
      </trkpt>
      <trkpt lat="44.20974" lon="1.90409">
        <ele>184</ele>
        <time>2019-03-10T10:09:32Z</time>
      </trkpt>
      <trkpt lat="44.20967" lon="1.90432">
        <ele>182.7</ele>
        <time>2019-03-10T10:09:36Z</time>
      </trkpt>
      <trkpt lat="44.20953" lon="1.90457">
        <ele>181.4</ele>
        <time>2019-03-10T10:09:40Z</time>
      </trkpt>
      <trkpt lat="44.20939" lon="1.90474">
        <ele>180.4</ele>
        <time>2019-03-10T10:09:44Z</time>
      </trkpt>
      <trkpt lat="44.20934" lon="1.90476">
        <ele>180.1</ele>
        <time>2019-03-10T10:09:48Z</time>
      </trkpt>
      <trkpt lat="44.20931" lon="1.90482">
        <ele>179.6</ele>
        <time>2019-03-10T10:09:52Z</time>
      </trkpt>
      <trkpt lat="44.20926" lon="1.9049">
        <ele>179.2</ele>
        <time>2019-03-10T10:09:56Z</time>
      </trkpt>
      <trkpt lat="44.20917" lon="1.90495">
        <ele>179.4</ele>
        <time>2019-03-10T10:10:00Z</time>
      </trkpt>
      <trkpt lat="44.20908" lon="1.90501">
        <ele>179.7</ele>
        <time>2019-03-10T10:10:04Z</time>
      </trkpt>
      <trkpt lat="44.209" lon="1.90508">
        <ele>179.8</ele>
        <time>2019-03-10T10:10:08Z</time>
      </trkpt>
      <trkpt lat="44.20894" lon="1.9051">
        <ele>179</ele>
        <time>2019-03-10T10:10:12Z</time>
      </trkpt>
      <trkpt lat="44.20881" lon="1.90515">
        <ele>179</ele>
        <time>2019-03-10T10:10:16Z</time>
      </trkpt>
      <trkpt lat="44.20864" lon="1.90523">
        <ele>178.6</ele>
        <time>2019-03-10T10:10:20Z</time>
      </trkpt>
      <trkpt lat="44.20846" lon="1.90527">
        <ele>178.1</ele>
        <time>2019-03-10T10:10:24Z</time>
      </trkpt>
      <trkpt lat="44.20829" lon="1.90532">
        <ele>177.9</ele>
        <time>2019-03-10T10:10:28Z</time>
      </trkpt>
      <trkpt lat="44.20812" lon="1.90542">
        <ele>177.6</ele>
        <time>2019-03-10T10:10:32Z</time>
      </trkpt>
      <trkpt lat="44.208" lon="1.90554">
        <ele>177.5</ele>
        <time>2019-03-10T10:10:36Z</time>
      </trkpt>
      <trkpt lat="44.20793" lon="1.90566">
        <ele>177.3</ele>
        <time>2019-03-10T10:10:40Z</time>
      </trkpt>
      <trkpt lat="44.2078" lon="1.9059">
        <ele>177.3</ele>
        <time>2019-03-10T10:10:44Z</time>
      </trkpt>
      <trkpt lat="44.20774" lon="1.9061">
        <ele>177.5</ele>
        <time>2019-03-10T10:10:48Z</time>
      </trkpt>
      <trkpt lat="44.20765" lon="1.9063">
        <ele>176.4</ele>
        <time>2019-03-10T10:10:52Z</time>
      </trkpt>
      <trkpt lat="44.2076" lon="1.90642">
        <ele>176.4</ele>
        <time>2019-03-10T10:10:56Z</time>
      </trkpt>
      <trkpt lat="44.20751" lon="1.90659">
        <ele>176.5</ele>
        <time>2019-03-10T10:11:00Z</time>
      </trkpt>
      <trkpt lat="44.20744" lon="1.90679">
        <ele>175.8</ele>
        <time>2019-03-10T10:11:04Z</time>
      </trkpt>
      <trkpt lat="44.2073" lon="1.90702">
        <ele>175.6</ele>
        <time>2019-03-10T10:11:08Z</time>
      </trkpt>
      <trkpt lat="44.20723" lon="1.90723">
        <ele>174.6</ele>
        <time>2019-03-10T10:11:12Z</time>
      </trkpt>
      <trkpt lat="44.20713" lon="1.90746">
        <ele>174.9</ele>
        <time>2019-03-10T10:11:16Z</time>
      </trkpt>
      <trkpt lat="44.2071" lon="1.90763">
        <ele>174.2</ele>
        <time>2019-03-10T10:11:20Z</time>
      </trkpt>
      <trkpt lat="44.20707" lon="1.90768">
        <ele>174.2</ele>
        <time>2019-03-10T10:11:24Z</time>
      </trkpt>
      <trkpt lat="44.20699" lon="1.90786">
        <ele>174.3</ele>
        <time>2019-03-10T10:11:36Z</time>
      </trkpt>
      <trkpt lat="44.20695" lon="1.90801">
        <ele>174</ele>
        <time>2019-03-10T10:11:40Z</time>
      </trkpt>
      <trkpt lat="44.2069" lon="1.90818">
        <ele>173.2</ele>
        <time>2019-03-10T10:11:44Z</time>
      </trkpt>
      <trkpt lat="44.20689" lon="1.90829">
        <ele>173.2</ele>
        <time>2019-03-10T10:11:48Z</time>
      </trkpt>
      <trkpt lat="44.20688" lon="1.90834">
        <ele>172.3</ele>
        <time>2019-03-10T10:11:52Z</time>
      </trkpt>
      <trkpt lat="44.20689" lon="1.90841">
        <ele>172.8</ele>
        <time>2019-03-10T10:11:56Z</time>
      </trkpt>
      <trkpt lat="44.2068" lon="1.9087">
        <ele>172.2</ele>
        <time>2019-03-10T10:12:08Z</time>
      </trkpt>
      <trkpt lat="44.20675" lon="1.90879">
        <ele>172.2</ele>
        <time>2019-03-10T10:12:12Z</time>
      </trkpt>
      <trkpt lat="44.2067" lon="1.90888">
        <ele>172.2</ele>
        <time>2019-03-10T10:12:16Z</time>
      </trkpt>
      <trkpt lat="44.20668" lon="1.909">
        <ele>172.6</ele>
        <time>2019-03-10T10:12:20Z</time>
      </trkpt>
      <trkpt lat="44.20664" lon="1.90915">
        <ele>173.1</ele>
        <time>2019-03-10T10:12:24Z</time>
      </trkpt>
      <trkpt lat="44.20661" lon="1.90931">
        <ele>173.7</ele>
        <time>2019-03-10T10:12:28Z</time>
      </trkpt>
      <trkpt lat="44.20664" lon="1.90943">
        <ele>174</ele>
        <time>2019-03-10T10:12:32Z</time>
      </trkpt>
      <trkpt lat="44.2067" lon="1.90951">
        <ele>174</ele>
        <time>2019-03-10T10:12:36Z</time>
      </trkpt>
      <trkpt lat="44.20676" lon="1.90955">
        <ele>175</ele>
        <time>2019-03-10T10:12:40Z</time>
      </trkpt>
      <trkpt lat="44.20689" lon="1.90966">
        <ele>175.7</ele>
        <time>2019-03-10T10:12:44Z</time>
      </trkpt>
      <trkpt lat="44.20696" lon="1.90975">
        <ele>175.7</ele>
        <time>2019-03-10T10:12:48Z</time>
      </trkpt>
      <trkpt lat="44.20705" lon="1.90983">
        <ele>177.1</ele>
        <time>2019-03-10T10:12:52Z</time>
      </trkpt>
      <trkpt lat="44.20712" lon="1.90991">
        <ele>177.8</ele>
        <time>2019-03-10T10:12:56Z</time>
      </trkpt>
      <trkpt lat="44.20716" lon="1.91003">
        <ele>178.8</ele>
        <time>2019-03-10T10:13:00Z</time>
      </trkpt>
      <trkpt lat="44.20725" lon="1.91017">
        <ele>178.8</ele>
        <time>2019-03-10T10:13:04Z</time>
      </trkpt>
      <trkpt lat="44.20729" lon="1.91026">
        <ele>178.3</ele>
        <time>2019-03-10T10:13:08Z</time>
      </trkpt>
      <trkpt lat="44.20734" lon="1.91044">
        <ele>177.5</ele>
        <time>2019-03-10T10:13:12Z</time>
      </trkpt>
      <trkpt lat="44.20741" lon="1.91055">
        <ele>177.5</ele>
        <time>2019-03-10T10:13:16Z</time>
      </trkpt>
      <trkpt lat="44.2075" lon="1.91064">
        <ele>177.5</ele>
        <time>2019-03-10T10:13:20Z</time>
      </trkpt>
      <trkpt lat="44.20756" lon="1.9107">
        <ele>178.6</ele>
        <time>2019-03-10T10:13:24Z</time>
      </trkpt>
      <trkpt lat="44.20763" lon="1.91075">
        <ele>179</ele>
        <time>2019-03-10T10:13:28Z</time>
      </trkpt>
      <trkpt lat="44.20771" lon="1.91083">
        <ele>180.2</ele>
        <time>2019-03-10T10:13:32Z</time>
      </trkpt>
      <trkpt lat="44.20778" lon="1.91092">
        <ele>182.3</ele>
        <time>2019-03-10T10:13:36Z</time>
      </trkpt>
      <trkpt lat="44.20785" lon="1.91105">
        <ele>183.1</ele>
        <time>2019-03-10T10:13:40Z</time>
      </trkpt>
      <trkpt lat="44.20793" lon="1.91124">
        <ele>181.9</ele>
        <time>2019-03-10T10:13:44Z</time>
      </trkpt>
      <trkpt lat="44.20795" lon="1.91141">
        <ele>181.7</ele>
        <time>2019-03-10T10:13:48Z</time>
      </trkpt>
      <trkpt lat="44.20804" lon="1.91155">
        <ele>181.7</ele>
        <time>2019-03-10T10:13:52Z</time>
      </trkpt>
      <trkpt lat="44.20813" lon="1.91167">
        <ele>183.1</ele>
        <time>2019-03-10T10:13:56Z</time>
      </trkpt>
      <trkpt lat="44.20817" lon="1.91176">
        <ele>183.1</ele>
        <time>2019-03-10T10:14:00Z</time>
      </trkpt>
      <trkpt lat="44.20821" lon="1.91188">
        <ele>183.4</ele>
        <time>2019-03-10T10:14:04Z</time>
      </trkpt>
      <trkpt lat="44.20828" lon="1.91198">
        <ele>184.2</ele>
        <time>2019-03-10T10:14:08Z</time>
      </trkpt>
      <trkpt lat="44.20837" lon="1.91209">
        <ele>185.1</ele>
        <time>2019-03-10T10:14:12Z</time>
      </trkpt>
      <trkpt lat="44.20846" lon="1.91217">
        <ele>186.7</ele>
        <time>2019-03-10T10:14:16Z</time>
      </trkpt>
      <trkpt lat="44.20853" lon="1.91218">
        <ele>188.4</ele>
        <time>2019-03-10T10:14:20Z</time>
      </trkpt>
      <trkpt lat="44.20863" lon="1.91217">
        <ele>189.9</ele>
        <time>2019-03-10T10:14:24Z</time>
      </trkpt>
      <trkpt lat="44.20874" lon="1.91218">
        <ele>190.7</ele>
        <time>2019-03-10T10:14:28Z</time>
      </trkpt>
      <trkpt lat="44.20884" lon="1.91219">
        <ele>190.7</ele>
        <time>2019-03-10T10:14:32Z</time>
      </trkpt>
      <trkpt lat="44.20894" lon="1.91224">
        <ele>191</ele>
        <time>2019-03-10T10:14:36Z</time>
      </trkpt>
      <trkpt lat="44.20908" lon="1.91236">
        <ele>189.9</ele>
        <time>2019-03-10T10:14:40Z</time>
      </trkpt>
      <trkpt lat="44.20918" lon="1.91242">
        <ele>188</ele>
        <time>2019-03-10T10:14:44Z</time>
      </trkpt>
      <trkpt lat="44.20926" lon="1.91249">
        <ele>187.3</ele>
        <time>2019-03-10T10:14:48Z</time>
      </trkpt>
      <trkpt lat="44.20931" lon="1.91253">
        <ele>186.7</ele>
        <time>2019-03-10T10:14:52Z</time>
      </trkpt>
      <trkpt lat="44.20939" lon="1.91253">
        <ele>187.7</ele>
        <time>2019-03-10T10:14:56Z</time>
      </trkpt>
      <trkpt lat="44.20951" lon="1.91255">
        <ele>188.9</ele>
        <time>2019-03-10T10:15:00Z</time>
      </trkpt>
      <trkpt lat="44.2096" lon="1.91256">
        <ele>188.9</ele>
        <time>2019-03-10T10:15:04Z</time>
      </trkpt>
      <trkpt lat="44.2097" lon="1.91258">
        <ele>190.2</ele>
        <time>2019-03-10T10:15:08Z</time>
      </trkpt>
      <trkpt lat="44.20985" lon="1.91271">
        <ele>190.7</ele>
        <time>2019-03-10T10:15:12Z</time>
      </trkpt>
      <trkpt lat="44.20991" lon="1.91277">
        <ele>191.3</ele>
        <time>2019-03-10T10:15:16Z</time>
      </trkpt>
      <trkpt lat="44.20998" lon="1.91284">
        <ele>192.5</ele>
        <time>2019-03-10T10:15:20Z</time>
      </trkpt>
      <trkpt lat="44.21005" lon="1.91292">
        <ele>193.4</ele>
        <time>2019-03-10T10:15:24Z</time>
      </trkpt>
      <trkpt lat="44.2101" lon="1.91299">
        <ele>193.6</ele>
        <time>2019-03-10T10:15:28Z</time>
      </trkpt>
      <trkpt lat="44.21016" lon="1.91309">
        <ele>193.6</ele>
        <time>2019-03-10T10:15:32Z</time>
      </trkpt>
      <trkpt lat="44.21022" lon="1.91318">
        <ele>194.5</ele>
        <time>2019-03-10T10:15:36Z</time>
      </trkpt>
      <trkpt lat="44.2103" lon="1.91329">
        <ele>193.8</ele>
        <time>2019-03-10T10:15:40Z</time>
      </trkpt>
      <trkpt lat="44.21037" lon="1.91339">
        <ele>194.3</ele>
        <time>2019-03-10T10:15:44Z</time>
      </trkpt>
      <trkpt lat="44.21046" lon="1.91346">
        <ele>194.4</ele>
        <time>2019-03-10T10:15:48Z</time>
      </trkpt>
      <trkpt lat="44.21055" lon="1.91361">
        <ele>194.9</ele>
        <time>2019-03-10T10:15:52Z</time>
      </trkpt>
      <trkpt lat="44.21067" lon="1.91382">
        <ele>195.3</ele>
        <time>2019-03-10T10:15:56Z</time>
      </trkpt>
      <trkpt lat="44.21077" lon="1.91394">
        <ele>195.8</ele>
        <time>2019-03-10T10:16:00Z</time>
      </trkpt>
      <trkpt lat="44.21085" lon="1.91412">
        <ele>196.2</ele>
        <time>2019-03-10T10:16:04Z</time>
      </trkpt>
      <trkpt lat="44.21089" lon="1.91428">
        <ele>196.9</ele>
        <time>2019-03-10T10:16:08Z</time>
      </trkpt>
      <trkpt lat="44.21096" lon="1.91442">
        <ele>196.9</ele>
        <time>2019-03-10T10:16:12Z</time>
      </trkpt>
      <trkpt lat="44.21104" lon="1.91457">
        <ele>197.6</ele>
        <time>2019-03-10T10:16:16Z</time>
      </trkpt>
      <trkpt lat="44.21113" lon="1.9147">
        <ele>197.5</ele>
        <time>2019-03-10T10:16:20Z</time>
      </trkpt>
      <trkpt lat="44.21121" lon="1.91485">
        <ele>198.3</ele>
        <time>2019-03-10T10:16:24Z</time>
      </trkpt>
      <trkpt lat="44.21129" lon="1.91506">
        <ele>198.3</ele>
        <time>2019-03-10T10:16:28Z</time>
      </trkpt>
      <trkpt lat="44.21139" lon="1.91524">
        <ele>199.4</ele>
        <time>2019-03-10T10:16:32Z</time>
      </trkpt>
      <trkpt lat="44.21149" lon="1.9154">
        <ele>200.4</ele>
        <time>2019-03-10T10:16:36Z</time>
      </trkpt>
      <trkpt lat="44.21157" lon="1.91559">
        <ele>201.4</ele>
        <time>2019-03-10T10:16:40Z</time>
      </trkpt>
      <trkpt lat="44.21162" lon="1.91577">
        <ele>201.5</ele>
        <time>2019-03-10T10:16:44Z</time>
      </trkpt>
      <trkpt lat="44.2117" lon="1.91597">
        <ele>202.1</ele>
        <time>2019-03-10T10:16:48Z</time>
      </trkpt>
      <trkpt lat="44.21177" lon="1.91611">
        <ele>202.9</ele>
        <time>2019-03-10T10:16:52Z</time>
      </trkpt>
      <trkpt lat="44.21184" lon="1.91624">
        <ele>203.8</ele>
        <time>2019-03-10T10:16:56Z</time>
      </trkpt>
      <trkpt lat="44.21189" lon="1.91633">
        <ele>204.8</ele>
        <time>2019-03-10T10:17:00Z</time>
      </trkpt>
      <trkpt lat="44.21195" lon="1.91643">
        <ele>205.6</ele>
        <time>2019-03-10T10:17:04Z</time>
      </trkpt>
      <trkpt lat="44.212" lon="1.91649">
        <ele>206.4</ele>
        <time>2019-03-10T10:17:08Z</time>
      </trkpt>
      <trkpt lat="44.21208" lon="1.91656">
        <ele>207.7</ele>
        <time>2019-03-10T10:17:12Z</time>
      </trkpt>
      <trkpt lat="44.21215" lon="1.9167">
        <ele>209</ele>
        <time>2019-03-10T10:17:16Z</time>
      </trkpt>
      <trkpt lat="44.21223" lon="1.91687">
        <ele>209.1</ele>
        <time>2019-03-10T10:17:20Z</time>
      </trkpt>
      <trkpt lat="44.21235" lon="1.91705">
        <ele>208.9</ele>
        <time>2019-03-10T10:17:24Z</time>
      </trkpt>
      <trkpt lat="44.2124" lon="1.91715">
        <ele>209.7</ele>
        <time>2019-03-10T10:17:28Z</time>
      </trkpt>
      <trkpt lat="44.21242" lon="1.91726">
        <ele>210.1</ele>
        <time>2019-03-10T10:17:32Z</time>
      </trkpt>
      <trkpt lat="44.21245" lon="1.91738">
        <ele>208.7</ele>
        <time>2019-03-10T10:17:36Z</time>
      </trkpt>
      <trkpt lat="44.21256" lon="1.91748">
        <ele>208.3</ele>
        <time>2019-03-10T10:17:40Z</time>
      </trkpt>
      <trkpt lat="44.21265" lon="1.91751">
        <ele>209.3</ele>
        <time>2019-03-10T10:17:44Z</time>
      </trkpt>
      <trkpt lat="44.21323" lon="1.91761">
        <ele>209.1</ele>
        <time>2019-03-10T10:18:16Z</time>
      </trkpt>
      <trkpt lat="44.21333" lon="1.91762">
        <ele>209.4</ele>
        <time>2019-03-10T10:18:20Z</time>
      </trkpt>
      <trkpt lat="44.21335" lon="1.91767">
        <ele>210</ele>
        <time>2019-03-10T10:18:24Z</time>
      </trkpt>
      <trkpt lat="44.21333" lon="1.91774">
        <ele>210.7</ele>
        <time>2019-03-10T10:18:28Z</time>
      </trkpt>
      <trkpt lat="44.21331" lon="1.91779">
        <ele>211.5</ele>
        <time>2019-03-10T10:18:32Z</time>
      </trkpt>
      <trkpt lat="44.21332" lon="1.91783">
        <ele>213.4</ele>
        <time>2019-03-10T10:18:36Z</time>
      </trkpt>
      <trkpt lat="44.21312" lon="1.91798">
        <ele>219.3</ele>
        <time>2019-03-10T10:19:28Z</time>
      </trkpt>
      <trkpt lat="44.21306" lon="1.91797">
        <ele>220.3</ele>
        <time>2019-03-10T10:19:32Z</time>
      </trkpt>
      <trkpt lat="44.21299" lon="1.91802">
        <ele>221.4</ele>
        <time>2019-03-10T10:19:36Z</time>
      </trkpt>
      <trkpt lat="44.21292" lon="1.91806">
        <ele>222.4</ele>
        <time>2019-03-10T10:19:40Z</time>
      </trkpt>
      <trkpt lat="44.21286" lon="1.91815">
        <ele>223.6</ele>
        <time>2019-03-10T10:19:44Z</time>
      </trkpt>
      <trkpt lat="44.21283" lon="1.91823">
        <ele>225</ele>
        <time>2019-03-10T10:19:48Z</time>
      </trkpt>
      <trkpt lat="44.21279" lon="1.91829">
        <ele>228.8</ele>
        <time>2019-03-10T10:19:52Z</time>
      </trkpt>
      <trkpt lat="44.21276" lon="1.91837">
        <ele>229.9</ele>
        <time>2019-03-10T10:19:56Z</time>
      </trkpt>
      <trkpt lat="44.21273" lon="1.91844">
        <ele>230.9</ele>
        <time>2019-03-10T10:20:00Z</time>
      </trkpt>
      <trkpt lat="44.21269" lon="1.91851">
        <ele>231.3</ele>
        <time>2019-03-10T10:20:04Z</time>
      </trkpt>
      <trkpt lat="44.21267" lon="1.91858">
        <ele>232.1</ele>
        <time>2019-03-10T10:20:08Z</time>
      </trkpt>
      <trkpt lat="44.21262" lon="1.91864">
        <ele>233.1</ele>
        <time>2019-03-10T10:20:12Z</time>
      </trkpt>
      <trkpt lat="44.21259" lon="1.91871">
        <ele>233.8</ele>
        <time>2019-03-10T10:20:16Z</time>
      </trkpt>
      <trkpt lat="44.21258" lon="1.91878">
        <ele>234.8</ele>
        <time>2019-03-10T10:20:20Z</time>
      </trkpt>
      <trkpt lat="44.21255" lon="1.91883">
        <ele>235.8</ele>
        <time>2019-03-10T10:20:24Z</time>
      </trkpt>
      <trkpt lat="44.21255" lon="1.9188">
        <ele>236.4</ele>
        <time>2019-03-10T10:20:28Z</time>
      </trkpt>
      <trkpt lat="44.21254" lon="1.91876">
        <ele>237</ele>
        <time>2019-03-10T10:20:32Z</time>
      </trkpt>
      <trkpt lat="44.21256" lon="1.91872">
        <ele>237.7</ele>
        <time>2019-03-10T10:20:36Z</time>
      </trkpt>
      <trkpt lat="44.21259" lon="1.91866">
        <ele>238.5</ele>
        <time>2019-03-10T10:20:40Z</time>
      </trkpt>
      <trkpt lat="44.21263" lon="1.91861">
        <ele>239.7</ele>
        <time>2019-03-10T10:20:44Z</time>
      </trkpt>
      <trkpt lat="44.21267" lon="1.91858">
        <ele>241</ele>
        <time>2019-03-10T10:20:48Z</time>
      </trkpt>
      <trkpt lat="44.2127" lon="1.91857">
        <ele>241.6</ele>
        <time>2019-03-10T10:20:52Z</time>
      </trkpt>
      <trkpt lat="44.21275" lon="1.9185">
        <ele>241.6</ele>
        <time>2019-03-10T10:20:56Z</time>
      </trkpt>
      <trkpt lat="44.21278" lon="1.91849">
        <ele>243.1</ele>
        <time>2019-03-10T10:21:00Z</time>
      </trkpt>
      <trkpt lat="44.21299" lon="1.91858">
        <ele>244.6</ele>
        <time>2019-03-10T10:21:12Z</time>
      </trkpt>
      <trkpt lat="44.21309" lon="1.91865">
        <ele>245.6</ele>
        <time>2019-03-10T10:21:16Z</time>
      </trkpt>
      <trkpt lat="44.21315" lon="1.91869">
        <ele>246.7</ele>
        <time>2019-03-10T10:21:20Z</time>
      </trkpt>
      <trkpt lat="44.2132" lon="1.91872">
        <ele>247.8</ele>
        <time>2019-03-10T10:21:24Z</time>
      </trkpt>
      <trkpt lat="44.21326" lon="1.91871">
        <ele>250</ele>
        <time>2019-03-10T10:21:28Z</time>
      </trkpt>
      <trkpt lat="44.21334" lon="1.91877">
        <ele>250.7</ele>
        <time>2019-03-10T10:21:32Z</time>
      </trkpt>
      <trkpt lat="44.21338" lon="1.91884">
        <ele>251.7</ele>
        <time>2019-03-10T10:21:36Z</time>
      </trkpt>
      <trkpt lat="44.21347" lon="1.91894">
        <ele>252.9</ele>
        <time>2019-03-10T10:21:40Z</time>
      </trkpt>
      <trkpt lat="44.21352" lon="1.91898">
        <ele>254.2</ele>
        <time>2019-03-10T10:21:44Z</time>
      </trkpt>
      <trkpt lat="44.21359" lon="1.91904">
        <ele>255.2</ele>
        <time>2019-03-10T10:21:48Z</time>
      </trkpt>
      <trkpt lat="44.21364" lon="1.9191">
        <ele>257.3</ele>
        <time>2019-03-10T10:21:52Z</time>
      </trkpt>
      <trkpt lat="44.21371" lon="1.91921">
        <ele>258.7</ele>
        <time>2019-03-10T10:21:56Z</time>
      </trkpt>
      <trkpt lat="44.21375" lon="1.91927">
        <ele>259.7</ele>
        <time>2019-03-10T10:22:00Z</time>
      </trkpt>
      <trkpt lat="44.21377" lon="1.91926">
        <ele>260.8</ele>
        <time>2019-03-10T10:22:04Z</time>
      </trkpt>
      <trkpt lat="44.21373" lon="1.91925">
        <ele>261.7</ele>
        <time>2019-03-10T10:22:08Z</time>
      </trkpt>
      <trkpt lat="44.21367" lon="1.91923">
        <ele>263.1</ele>
        <time>2019-03-10T10:22:12Z</time>
      </trkpt>
      <trkpt lat="44.21363" lon="1.91923">
        <ele>263.6</ele>
        <time>2019-03-10T10:22:16Z</time>
      </trkpt>
      <trkpt lat="44.21358" lon="1.91925">
        <ele>264.6</ele>
        <time>2019-03-10T10:22:20Z</time>
      </trkpt>
      <trkpt lat="44.21352" lon="1.91927">
        <ele>265.5</ele>
        <time>2019-03-10T10:22:24Z</time>
      </trkpt>
      <trkpt lat="44.21344" lon="1.91926">
        <ele>266.9</ele>
        <time>2019-03-10T10:22:28Z</time>
      </trkpt>
      <trkpt lat="44.21334" lon="1.91923">
        <ele>268.1</ele>
        <time>2019-03-10T10:22:32Z</time>
      </trkpt>
      <trkpt lat="44.21327" lon="1.91923">
        <ele>269</ele>
        <time>2019-03-10T10:22:36Z</time>
      </trkpt>
      <trkpt lat="44.21319" lon="1.91927">
        <ele>270.1</ele>
        <time>2019-03-10T10:22:40Z</time>
      </trkpt>
      <trkpt lat="44.21314" lon="1.91932">
        <ele>271.3</ele>
        <time>2019-03-10T10:22:44Z</time>
      </trkpt>
      <trkpt lat="44.21308" lon="1.91938">
        <ele>272.6</ele>
        <time>2019-03-10T10:22:48Z</time>
      </trkpt>
      <trkpt lat="44.21304" lon="1.91946">
        <ele>272.8</ele>
        <time>2019-03-10T10:22:52Z</time>
      </trkpt>
      <trkpt lat="44.21299" lon="1.91953">
        <ele>274</ele>
        <time>2019-03-10T10:22:56Z</time>
      </trkpt>
      <trkpt lat="44.21293" lon="1.9196">
        <ele>275.3</ele>
        <time>2019-03-10T10:23:00Z</time>
      </trkpt>
      <trkpt lat="44.21289" lon="1.91969">
        <ele>276.5</ele>
        <time>2019-03-10T10:23:04Z</time>
      </trkpt>
      <trkpt lat="44.21289" lon="1.91979">
        <ele>278.8</ele>
        <time>2019-03-10T10:23:08Z</time>
      </trkpt>
      <trkpt lat="44.21287" lon="1.91987">
        <ele>280.1</ele>
        <time>2019-03-10T10:23:12Z</time>
      </trkpt>
      <trkpt lat="44.21288" lon="1.91997">
        <ele>280.6</ele>
        <time>2019-03-10T10:23:16Z</time>
      </trkpt>
      <trkpt lat="44.21288" lon="1.92008">
        <ele>281.4</ele>
        <time>2019-03-10T10:23:20Z</time>
      </trkpt>
      <trkpt lat="44.21288" lon="1.92018">
        <ele>282.6</ele>
        <time>2019-03-10T10:23:24Z</time>
      </trkpt>
      <trkpt lat="44.21287" lon="1.92027">
        <ele>283.2</ele>
        <time>2019-03-10T10:23:28Z</time>
      </trkpt>
      <trkpt lat="44.21288" lon="1.92037">
        <ele>284.8</ele>
        <time>2019-03-10T10:23:32Z</time>
      </trkpt>
      <trkpt lat="44.21289" lon="1.92047">
        <ele>286.6</ele>
        <time>2019-03-10T10:23:36Z</time>
      </trkpt>
      <trkpt lat="44.21291" lon="1.92059">
        <ele>288.3</ele>
        <time>2019-03-10T10:23:40Z</time>
      </trkpt>
      <trkpt lat="44.2129" lon="1.92068">
        <ele>289</ele>
        <time>2019-03-10T10:23:44Z</time>
      </trkpt>
      <trkpt lat="44.21289" lon="1.92078">
        <ele>289.2</ele>
        <time>2019-03-10T10:23:48Z</time>
      </trkpt>
      <trkpt lat="44.21289" lon="1.92087">
        <ele>291.4</ele>
        <time>2019-03-10T10:23:52Z</time>
      </trkpt>
      <trkpt lat="44.21289" lon="1.92095">
        <ele>292.6</ele>
        <time>2019-03-10T10:23:56Z</time>
      </trkpt>
      <trkpt lat="44.21287" lon="1.92105">
        <ele>293.6</ele>
        <time>2019-03-10T10:24:00Z</time>
      </trkpt>
      <trkpt lat="44.21288" lon="1.92114">
        <ele>294.7</ele>
        <time>2019-03-10T10:24:04Z</time>
      </trkpt>
      <trkpt lat="44.21288" lon="1.92126">
        <ele>296.5</ele>
        <time>2019-03-10T10:24:08Z</time>
      </trkpt>
      <trkpt lat="44.21289" lon="1.92134">
        <ele>297.9</ele>
        <time>2019-03-10T10:24:12Z</time>
      </trkpt>
      <trkpt lat="44.2129" lon="1.92142">
        <ele>299.7</ele>
        <time>2019-03-10T10:24:16Z</time>
      </trkpt>
      <trkpt lat="44.21294" lon="1.92153">
        <ele>301.1</ele>
        <time>2019-03-10T10:24:20Z</time>
      </trkpt>
      <trkpt lat="44.21298" lon="1.92161">
        <ele>302.8</ele>
        <time>2019-03-10T10:24:24Z</time>
      </trkpt>
      <trkpt lat="44.213" lon="1.92171">
        <ele>304.4</ele>
        <time>2019-03-10T10:24:28Z</time>
      </trkpt>
      <trkpt lat="44.21304" lon="1.9218">
        <ele>305.9</ele>
        <time>2019-03-10T10:24:32Z</time>
      </trkpt>
      <trkpt lat="44.21312" lon="1.92189">
        <ele>306.5</ele>
        <time>2019-03-10T10:24:36Z</time>
      </trkpt>
      <trkpt lat="44.21317" lon="1.92202">
        <ele>307.1</ele>
        <time>2019-03-10T10:24:40Z</time>
      </trkpt>
      <trkpt lat="44.2132" lon="1.92214">
        <ele>308.3</ele>
        <time>2019-03-10T10:24:44Z</time>
      </trkpt>
      <trkpt lat="44.21321" lon="1.92223">
        <ele>309.5</ele>
        <time>2019-03-10T10:24:48Z</time>
      </trkpt>
      <trkpt lat="44.2132" lon="1.92232">
        <ele>310.2</ele>
        <time>2019-03-10T10:24:52Z</time>
      </trkpt>
      <trkpt lat="44.21328" lon="1.92242">
        <ele>311.2</ele>
        <time>2019-03-10T10:24:56Z</time>
      </trkpt>
      <trkpt lat="44.21336" lon="1.92249">
        <ele>312.1</ele>
        <time>2019-03-10T10:25:00Z</time>
      </trkpt>
      <trkpt lat="44.21341" lon="1.92248">
        <ele>312.8</ele>
        <time>2019-03-10T10:25:04Z</time>
      </trkpt>
      <trkpt lat="44.21342" lon="1.92258">
        <ele>313.9</ele>
        <time>2019-03-10T10:25:08Z</time>
      </trkpt>
      <trkpt lat="44.2134" lon="1.92272">
        <ele>314.5</ele>
        <time>2019-03-10T10:25:12Z</time>
      </trkpt>
      <trkpt lat="44.21339" lon="1.92287">
        <ele>312.8</ele>
        <time>2019-03-10T10:25:16Z</time>
      </trkpt>
      <trkpt lat="44.21335" lon="1.92304">
        <ele>310.6</ele>
        <time>2019-03-10T10:25:20Z</time>
      </trkpt>
      <trkpt lat="44.21327" lon="1.92319">
        <ele>310</ele>
        <time>2019-03-10T10:25:24Z</time>
      </trkpt>
      <trkpt lat="44.21309" lon="1.9232">
        <ele>307.3</ele>
        <time>2019-03-10T10:25:28Z</time>
      </trkpt>
      <trkpt lat="44.21292" lon="1.92324">
        <ele>306.9</ele>
        <time>2019-03-10T10:25:32Z</time>
      </trkpt>
      <trkpt lat="44.21286" lon="1.92328">
        <ele>305.4</ele>
        <time>2019-03-10T10:25:36Z</time>
      </trkpt>
      <trkpt lat="44.21281" lon="1.92325">
        <ele>305</ele>
        <time>2019-03-10T10:25:40Z</time>
      </trkpt>
      <trkpt lat="44.21275" lon="1.92323">
        <ele>305</ele>
        <time>2019-03-10T10:25:44Z</time>
      </trkpt>
      <trkpt lat="44.21267" lon="1.92325">
        <ele>306.3</ele>
        <time>2019-03-10T10:25:48Z</time>
      </trkpt>
      <trkpt lat="44.21262" lon="1.92328">
        <ele>307</ele>
        <time>2019-03-10T10:25:52Z</time>
      </trkpt>
      <trkpt lat="44.2125" lon="1.92331">
        <ele>308.4</ele>
        <time>2019-03-10T10:26:00Z</time>
      </trkpt>
      <trkpt lat="44.21245" lon="1.92337">
        <ele>309.3</ele>
        <time>2019-03-10T10:26:04Z</time>
      </trkpt>
      <trkpt lat="44.21237" lon="1.92342">
        <ele>310.4</ele>
        <time>2019-03-10T10:26:08Z</time>
      </trkpt>
      <trkpt lat="44.21231" lon="1.92348">
        <ele>311.2</ele>
        <time>2019-03-10T10:26:12Z</time>
      </trkpt>
      <trkpt lat="44.21223" lon="1.9235">
        <ele>311.8</ele>
        <time>2019-03-10T10:26:16Z</time>
      </trkpt>
      <trkpt lat="44.21214" lon="1.92349">
        <ele>312.5</ele>
        <time>2019-03-10T10:26:20Z</time>
      </trkpt>
      <trkpt lat="44.21209" lon="1.92343">
        <ele>314.1</ele>
        <time>2019-03-10T10:26:24Z</time>
      </trkpt>
      <trkpt lat="44.21202" lon="1.92326">
        <ele>313.5</ele>
        <time>2019-03-10T10:26:28Z</time>
      </trkpt>
      <trkpt lat="44.21195" lon="1.92311">
        <ele>313.4</ele>
        <time>2019-03-10T10:26:32Z</time>
      </trkpt>
      <trkpt lat="44.21193" lon="1.92295">
        <ele>313.4</ele>
        <time>2019-03-10T10:26:36Z</time>
      </trkpt>
      <trkpt lat="44.21192" lon="1.92283">
        <ele>313.5</ele>
        <time>2019-03-10T10:26:40Z</time>
      </trkpt>
      <trkpt lat="44.2119" lon="1.92267">
        <ele>313.4</ele>
        <time>2019-03-10T10:26:44Z</time>
      </trkpt>
      <trkpt lat="44.21191" lon="1.92239">
        <ele>313.2</ele>
        <time>2019-03-10T10:26:48Z</time>
      </trkpt>
      <trkpt lat="44.21183" lon="1.92215">
        <ele>311.9</ele>
        <time>2019-03-10T10:26:52Z</time>
      </trkpt>
      <trkpt lat="44.21186" lon="1.92193">
        <ele>310.8</ele>
        <time>2019-03-10T10:26:56Z</time>
      </trkpt>
      <trkpt lat="44.21187" lon="1.92174">
        <ele>309.3</ele>
        <time>2019-03-10T10:27:00Z</time>
      </trkpt>
      <trkpt lat="44.21171" lon="1.92151">
        <ele>309.2</ele>
        <time>2019-03-10T10:27:04Z</time>
      </trkpt>
      <trkpt lat="44.21158" lon="1.92136">
        <ele>309.2</ele>
        <time>2019-03-10T10:27:08Z</time>
      </trkpt>
      <trkpt lat="44.21137" lon="1.92129">
        <ele>309.4</ele>
        <time>2019-03-10T10:27:12Z</time>
      </trkpt>
      <trkpt lat="44.21119" lon="1.92126">
        <ele>309</ele>
        <time>2019-03-10T10:27:16Z</time>
      </trkpt>
      <trkpt lat="44.21105" lon="1.92131">
        <ele>308.9</ele>
        <time>2019-03-10T10:27:20Z</time>
      </trkpt>
      <trkpt lat="44.21093" lon="1.92139">
        <ele>308.9</ele>
        <time>2019-03-10T10:27:24Z</time>
      </trkpt>
      <trkpt lat="44.21078" lon="1.92153">
        <ele>308.6</ele>
        <time>2019-03-10T10:27:28Z</time>
      </trkpt>
      <trkpt lat="44.21065" lon="1.92162">
        <ele>307.7</ele>
        <time>2019-03-10T10:27:32Z</time>
      </trkpt>
      <trkpt lat="44.21053" lon="1.92179">
        <ele>306.3</ele>
        <time>2019-03-10T10:27:36Z</time>
      </trkpt>
      <trkpt lat="44.2104" lon="1.92196">
        <ele>305.7</ele>
        <time>2019-03-10T10:27:40Z</time>
      </trkpt>
      <trkpt lat="44.21032" lon="1.92202">
        <ele>303.7</ele>
        <time>2019-03-10T10:27:44Z</time>
      </trkpt>
      <trkpt lat="44.21027" lon="1.92207">
        <ele>300.3</ele>
        <time>2019-03-10T10:27:48Z</time>
      </trkpt>
      <trkpt lat="44.21018" lon="1.92219">
        <ele>299.4</ele>
        <time>2019-03-10T10:27:52Z</time>
      </trkpt>
      <trkpt lat="44.21017" lon="1.92213">
        <ele>299.6</ele>
        <time>2019-03-10T10:27:56Z</time>
      </trkpt>
      <trkpt lat="44.21017" lon="1.92208">
        <ele>299.8</ele>
        <time>2019-03-10T10:28:00Z</time>
      </trkpt>
      <trkpt lat="44.21014" lon="1.92197">
        <ele>301.3</ele>
        <time>2019-03-10T10:28:04Z</time>
      </trkpt>
      <trkpt lat="44.21015" lon="1.92186">
        <ele>302.1</ele>
        <time>2019-03-10T10:28:08Z</time>
      </trkpt>
      <trkpt lat="44.21012" lon="1.92182">
        <ele>303</ele>
        <time>2019-03-10T10:28:12Z</time>
      </trkpt>
      <trkpt lat="44.21005" lon="1.92169">
        <ele>303.1</ele>
        <time>2019-03-10T10:28:16Z</time>
      </trkpt>
      <trkpt lat="44.21" lon="1.92152">
        <ele>304.3</ele>
        <time>2019-03-10T10:28:20Z</time>
      </trkpt>
      <trkpt lat="44.20998" lon="1.92136">
        <ele>305.2</ele>
        <time>2019-03-10T10:28:24Z</time>
      </trkpt>
      <trkpt lat="44.20988" lon="1.92121">
        <ele>306.7</ele>
        <time>2019-03-10T10:28:28Z</time>
      </trkpt>
      <trkpt lat="44.20982" lon="1.92111">
        <ele>307.7</ele>
        <time>2019-03-10T10:28:32Z</time>
      </trkpt>
      <trkpt lat="44.20976" lon="1.921">
        <ele>308.9</ele>
        <time>2019-03-10T10:28:36Z</time>
      </trkpt>
      <trkpt lat="44.20979" lon="1.92084">
        <ele>310.2</ele>
        <time>2019-03-10T10:28:40Z</time>
      </trkpt>
      <trkpt lat="44.20968" lon="1.92079">
        <ele>311.1</ele>
        <time>2019-03-10T10:28:44Z</time>
      </trkpt>
      <trkpt lat="44.20954" lon="1.9207">
        <ele>311.1</ele>
        <time>2019-03-10T10:28:48Z</time>
      </trkpt>
      <trkpt lat="44.20951" lon="1.92058">
        <ele>310.4</ele>
        <time>2019-03-10T10:28:52Z</time>
      </trkpt>
      <trkpt lat="44.20964" lon="1.92034">
        <ele>309.6</ele>
        <time>2019-03-10T10:28:56Z</time>
      </trkpt>
      <trkpt lat="44.20979" lon="1.92013">
        <ele>309.5</ele>
        <time>2019-03-10T10:29:00Z</time>
      </trkpt>
      <trkpt lat="44.20987" lon="1.91994">
        <ele>308.3</ele>
        <time>2019-03-10T10:29:04Z</time>
      </trkpt>
      <trkpt lat="44.20998" lon="1.9198">
        <ele>308.1</ele>
        <time>2019-03-10T10:29:08Z</time>
      </trkpt>
      <trkpt lat="44.21015" lon="1.91961">
        <ele>307.5</ele>
        <time>2019-03-10T10:29:12Z</time>
      </trkpt>
      <trkpt lat="44.21027" lon="1.91938">
        <ele>307.5</ele>
        <time>2019-03-10T10:29:16Z</time>
      </trkpt>
      <trkpt lat="44.21037" lon="1.91921">
        <ele>308</ele>
        <time>2019-03-10T10:29:20Z</time>
      </trkpt>
      <trkpt lat="44.21052" lon="1.91901">
        <ele>307.8</ele>
        <time>2019-03-10T10:29:24Z</time>
      </trkpt>
      <trkpt lat="44.21064" lon="1.91879">
        <ele>308.7</ele>
        <time>2019-03-10T10:29:28Z</time>
      </trkpt>
      <trkpt lat="44.21076" lon="1.91861">
        <ele>308.7</ele>
        <time>2019-03-10T10:29:32Z</time>
      </trkpt>
      <trkpt lat="44.21082" lon="1.91845">
        <ele>308.1</ele>
        <time>2019-03-10T10:29:36Z</time>
      </trkpt>
      <trkpt lat="44.21085" lon="1.91816">
        <ele>306.4</ele>
        <time>2019-03-10T10:29:40Z</time>
      </trkpt>
      <trkpt lat="44.21092" lon="1.9178">
        <ele>303.5</ele>
        <time>2019-03-10T10:29:44Z</time>
      </trkpt>
      <trkpt lat="44.21092" lon="1.91755">
        <ele>300.6</ele>
        <time>2019-03-10T10:29:48Z</time>
      </trkpt>
      <trkpt lat="44.21081" lon="1.91744">
        <ele>300.4</ele>
        <time>2019-03-10T10:29:52Z</time>
      </trkpt>
      <trkpt lat="44.21075" lon="1.91709">
        <ele>297.8</ele>
        <time>2019-03-10T10:29:56Z</time>
      </trkpt>
      <trkpt lat="44.21062" lon="1.91695">
        <ele>295.2</ele>
        <time>2019-03-10T10:30:00Z</time>
      </trkpt>
      <trkpt lat="44.21054" lon="1.91672">
        <ele>290.7</ele>
        <time>2019-03-10T10:30:04Z</time>
      </trkpt>
      <trkpt lat="44.21052" lon="1.91642">
        <ele>288</ele>
        <time>2019-03-10T10:30:08Z</time>
      </trkpt>
      <trkpt lat="44.21036" lon="1.91603">
        <ele>283.3</ele>
        <time>2019-03-10T10:30:12Z</time>
      </trkpt>
      <trkpt lat="44.21026" lon="1.91553">
        <ele>281.5</ele>
        <time>2019-03-10T10:30:16Z</time>
      </trkpt>
      <trkpt lat="44.2102" lon="1.91532">
        <ele>277.4</ele>
        <time>2019-03-10T10:30:20Z</time>
      </trkpt>
      <trkpt lat="44.21013" lon="1.91526">
        <ele>275.9</ele>
        <time>2019-03-10T10:30:24Z</time>
      </trkpt>
      <trkpt lat="44.21007" lon="1.91527">
        <ele>275.3</ele>
        <time>2019-03-10T10:30:28Z</time>
      </trkpt>
      <trkpt lat="44.21" lon="1.91525">
        <ele>275.6</ele>
        <time>2019-03-10T10:30:32Z</time>
      </trkpt>
      <trkpt lat="44.20993" lon="1.91515">
        <ele>275.8</ele>
        <time>2019-03-10T10:30:36Z</time>
      </trkpt>
      <trkpt lat="44.20981" lon="1.91503">
        <ele>276.2</ele>
        <time>2019-03-10T10:30:40Z</time>
      </trkpt>
      <trkpt lat="44.20962" lon="1.91492">
        <ele>276.4</ele>
        <time>2019-03-10T10:30:44Z</time>
      </trkpt>
      <trkpt lat="44.2095" lon="1.91486">
        <ele>276.5</ele>
        <time>2019-03-10T10:30:48Z</time>
      </trkpt>
      <trkpt lat="44.20936" lon="1.91481">
        <ele>275.1</ele>
        <time>2019-03-10T10:30:52Z</time>
      </trkpt>
      <trkpt lat="44.20919" lon="1.91478">
        <ele>274.8</ele>
        <time>2019-03-10T10:30:56Z</time>
      </trkpt>
      <trkpt lat="44.20902" lon="1.9147">
        <ele>273</ele>
        <time>2019-03-10T10:31:00Z</time>
      </trkpt>
      <trkpt lat="44.20883" lon="1.91472">
        <ele>271.8</ele>
        <time>2019-03-10T10:31:04Z</time>
      </trkpt>
      <trkpt lat="44.20869" lon="1.91479">
        <ele>271.1</ele>
        <time>2019-03-10T10:31:08Z</time>
      </trkpt>
      <trkpt lat="44.20857" lon="1.91489">
        <ele>272.1</ele>
        <time>2019-03-10T10:31:12Z</time>
      </trkpt>
      <trkpt lat="44.2085" lon="1.91503">
        <ele>273.5</ele>
        <time>2019-03-10T10:31:16Z</time>
      </trkpt>
      <trkpt lat="44.20841" lon="1.91515">
        <ele>274.3</ele>
        <time>2019-03-10T10:31:20Z</time>
      </trkpt>
      <trkpt lat="44.20833" lon="1.91533">
        <ele>274.6</ele>
        <time>2019-03-10T10:31:24Z</time>
      </trkpt>
      <trkpt lat="44.20826" lon="1.91551">
        <ele>274.6</ele>
        <time>2019-03-10T10:31:28Z</time>
      </trkpt>
      <trkpt lat="44.20814" lon="1.91564">
        <ele>275.2</ele>
        <time>2019-03-10T10:31:32Z</time>
      </trkpt>
      <trkpt lat="44.20802" lon="1.91582">
        <ele>274.2</ele>
        <time>2019-03-10T10:31:36Z</time>
      </trkpt>
      <trkpt lat="44.20792" lon="1.91595">
        <ele>273.9</ele>
        <time>2019-03-10T10:31:40Z</time>
      </trkpt>
      <trkpt lat="44.20787" lon="1.9161">
        <ele>274.6</ele>
        <time>2019-03-10T10:31:44Z</time>
      </trkpt>
      <trkpt lat="44.20785" lon="1.91623">
        <ele>275.2</ele>
        <time>2019-03-10T10:31:48Z</time>
      </trkpt>
      <trkpt lat="44.2078" lon="1.91629">
        <ele>275.9</ele>
        <time>2019-03-10T10:31:52Z</time>
      </trkpt>
      <trkpt lat="44.20775" lon="1.91636">
        <ele>277</ele>
        <time>2019-03-10T10:31:56Z</time>
      </trkpt>
      <trkpt lat="44.20767" lon="1.91643">
        <ele>278.5</ele>
        <time>2019-03-10T10:32:00Z</time>
      </trkpt>
      <trkpt lat="44.2076" lon="1.91648">
        <ele>279.9</ele>
        <time>2019-03-10T10:32:04Z</time>
      </trkpt>
      <trkpt lat="44.20757" lon="1.91647">
        <ele>281.6</ele>
        <time>2019-03-10T10:32:08Z</time>
      </trkpt>
      <trkpt lat="44.20754" lon="1.91642">
        <ele>282.3</ele>
        <time>2019-03-10T10:32:12Z</time>
      </trkpt>
      <trkpt lat="44.2075" lon="1.9163">
        <ele>282.3</ele>
        <time>2019-03-10T10:32:16Z</time>
      </trkpt>
      <trkpt lat="44.20742" lon="1.91626">
        <ele>283.6</ele>
        <time>2019-03-10T10:32:20Z</time>
      </trkpt>
      <trkpt lat="44.20737" lon="1.91618">
        <ele>284.4</ele>
        <time>2019-03-10T10:32:24Z</time>
      </trkpt>
      <trkpt lat="44.20742" lon="1.91595">
        <ele>281.3</ele>
        <time>2019-03-10T10:32:28Z</time>
      </trkpt>
      <trkpt lat="44.20746" lon="1.91563">
        <ele>278.7</ele>
        <time>2019-03-10T10:32:32Z</time>
      </trkpt>
      <trkpt lat="44.20756" lon="1.91524">
        <ele>275.2</ele>
        <time>2019-03-10T10:32:36Z</time>
      </trkpt>
      <trkpt lat="44.20761" lon="1.91495">
        <ele>271.9</ele>
        <time>2019-03-10T10:32:40Z</time>
      </trkpt>
      <trkpt lat="44.20763" lon="1.9147">
        <ele>269.2</ele>
        <time>2019-03-10T10:32:44Z</time>
      </trkpt>
      <trkpt lat="44.20761" lon="1.91442">
        <ele>267.8</ele>
        <time>2019-03-10T10:32:48Z</time>
      </trkpt>
      <trkpt lat="44.20756" lon="1.91414">
        <ele>266.7</ele>
        <time>2019-03-10T10:32:52Z</time>
      </trkpt>
      <trkpt lat="44.2075" lon="1.91391">
        <ele>264.4</ele>
        <time>2019-03-10T10:32:56Z</time>
      </trkpt>
      <trkpt lat="44.20744" lon="1.91366">
        <ele>263</ele>
        <time>2019-03-10T10:33:00Z</time>
      </trkpt>
      <trkpt lat="44.20737" lon="1.91339">
        <ele>263</ele>
        <time>2019-03-10T10:33:04Z</time>
      </trkpt>
      <trkpt lat="44.20735" lon="1.91312">
        <ele>261.9</ele>
        <time>2019-03-10T10:33:08Z</time>
      </trkpt>
      <trkpt lat="44.20732" lon="1.91297">
        <ele>261.5</ele>
        <time>2019-03-10T10:33:12Z</time>
      </trkpt>
      <trkpt lat="44.20723" lon="1.91281">
        <ele>259.7</ele>
        <time>2019-03-10T10:33:16Z</time>
      </trkpt>
      <trkpt lat="44.20714" lon="1.91276">
        <ele>258.3</ele>
        <time>2019-03-10T10:33:20Z</time>
      </trkpt>
      <trkpt lat="44.2071" lon="1.91273">
        <ele>256.5</ele>
        <time>2019-03-10T10:33:24Z</time>
      </trkpt>
      <trkpt lat="44.20704" lon="1.91253">
        <ele>256.6</ele>
        <time>2019-03-10T10:33:40Z</time>
      </trkpt>
      <trkpt lat="44.20698" lon="1.91251">
        <ele>256.5</ele>
        <time>2019-03-10T10:33:44Z</time>
      </trkpt>
      <trkpt lat="44.20694" lon="1.91248">
        <ele>256.7</ele>
        <time>2019-03-10T10:33:48Z</time>
      </trkpt>
      <trkpt lat="44.20692" lon="1.91246">
        <ele>256.8</ele>
        <time>2019-03-10T10:33:52Z</time>
      </trkpt>
      <trkpt lat="44.20686" lon="1.91241">
        <ele>256.3</ele>
        <time>2019-03-10T10:33:56Z</time>
      </trkpt>
      <trkpt lat="44.20684" lon="1.91234">
        <ele>255.7</ele>
        <time>2019-03-10T10:34:00Z</time>
      </trkpt>
      <trkpt lat="44.2068" lon="1.91226">
        <ele>255</ele>
        <time>2019-03-10T10:34:04Z</time>
      </trkpt>
      <trkpt lat="44.20675" lon="1.91219">
        <ele>254.5</ele>
        <time>2019-03-10T10:34:08Z</time>
      </trkpt>
      <trkpt lat="44.20671" lon="1.91213">
        <ele>254.6</ele>
        <time>2019-03-10T10:34:12Z</time>
      </trkpt>
      <trkpt lat="44.20667" lon="1.91208">
        <ele>254.7</ele>
        <time>2019-03-10T10:34:16Z</time>
      </trkpt>
      <trkpt lat="44.20662" lon="1.91204">
        <ele>254.9</ele>
        <time>2019-03-10T10:34:20Z</time>
      </trkpt>
      <trkpt lat="44.20654" lon="1.912">
        <ele>255.2</ele>
        <time>2019-03-10T10:34:24Z</time>
      </trkpt>
      <trkpt lat="44.20645" lon="1.91194">
        <ele>255.3</ele>
        <time>2019-03-10T10:34:28Z</time>
      </trkpt>
      <trkpt lat="44.20635" lon="1.91191">
        <ele>254.9</ele>
        <time>2019-03-10T10:34:32Z</time>
      </trkpt>
      <trkpt lat="44.20626" lon="1.91192">
        <ele>254.2</ele>
        <time>2019-03-10T10:34:36Z</time>
      </trkpt>
      <trkpt lat="44.20616" lon="1.91193">
        <ele>254.2</ele>
        <time>2019-03-10T10:34:40Z</time>
      </trkpt>
      <trkpt lat="44.20602" lon="1.91192">
        <ele>254.2</ele>
        <time>2019-03-10T10:34:44Z</time>
      </trkpt>
      <trkpt lat="44.2059" lon="1.912">
        <ele>254.2</ele>
        <time>2019-03-10T10:34:48Z</time>
      </trkpt>
      <trkpt lat="44.20575" lon="1.91206">
        <ele>253.9</ele>
        <time>2019-03-10T10:34:52Z</time>
      </trkpt>
      <trkpt lat="44.2056" lon="1.91212">
        <ele>253.3</ele>
        <time>2019-03-10T10:34:56Z</time>
      </trkpt>
      <trkpt lat="44.20545" lon="1.91223">
        <ele>251.8</ele>
        <time>2019-03-10T10:35:00Z</time>
      </trkpt>
      <trkpt lat="44.20533" lon="1.91236">
        <ele>251.4</ele>
        <time>2019-03-10T10:35:04Z</time>
      </trkpt>
      <trkpt lat="44.2052" lon="1.91252">
        <ele>251.4</ele>
        <time>2019-03-10T10:35:08Z</time>
      </trkpt>
      <trkpt lat="44.20509" lon="1.91267">
        <ele>251.4</ele>
        <time>2019-03-10T10:35:12Z</time>
      </trkpt>
      <trkpt lat="44.20493" lon="1.91279">
        <ele>250.8</ele>
        <time>2019-03-10T10:35:16Z</time>
      </trkpt>
      <trkpt lat="44.2048" lon="1.91295">
        <ele>250.8</ele>
        <time>2019-03-10T10:35:20Z</time>
      </trkpt>
      <trkpt lat="44.20467" lon="1.9131">
        <ele>249.9</ele>
        <time>2019-03-10T10:35:24Z</time>
      </trkpt>
      <trkpt lat="44.20453" lon="1.91322">
        <ele>250.2</ele>
        <time>2019-03-10T10:35:28Z</time>
      </trkpt>
      <trkpt lat="44.20442" lon="1.91338">
        <ele>250.1</ele>
        <time>2019-03-10T10:35:32Z</time>
      </trkpt>
      <trkpt lat="44.20435" lon="1.91345">
        <ele>249</ele>
        <time>2019-03-10T10:35:36Z</time>
      </trkpt>
      <trkpt lat="44.20426" lon="1.91359">
        <ele>249.6</ele>
        <time>2019-03-10T10:35:40Z</time>
      </trkpt>
      <trkpt lat="44.20416" lon="1.91373">
        <ele>249.8</ele>
        <time>2019-03-10T10:35:44Z</time>
      </trkpt>
      <trkpt lat="44.20405" lon="1.91385">
        <ele>249.3</ele>
        <time>2019-03-10T10:35:48Z</time>
      </trkpt>
      <trkpt lat="44.2039" lon="1.91399">
        <ele>249.9</ele>
        <time>2019-03-10T10:35:52Z</time>
      </trkpt>
      <trkpt lat="44.20376" lon="1.91413">
        <ele>249.5</ele>
        <time>2019-03-10T10:35:56Z</time>
      </trkpt>
      <trkpt lat="44.20362" lon="1.9143">
        <ele>249.6</ele>
        <time>2019-03-10T10:36:00Z</time>
      </trkpt>
      <trkpt lat="44.20349" lon="1.91447">
        <ele>249.6</ele>
        <time>2019-03-10T10:36:04Z</time>
      </trkpt>
      <trkpt lat="44.20338" lon="1.91463">
        <ele>250</ele>
        <time>2019-03-10T10:36:08Z</time>
      </trkpt>
      <trkpt lat="44.20332" lon="1.9148">
        <ele>248.9</ele>
        <time>2019-03-10T10:36:12Z</time>
      </trkpt>
      <trkpt lat="44.20328" lon="1.91498">
        <ele>248.8</ele>
        <time>2019-03-10T10:36:16Z</time>
      </trkpt>
      <trkpt lat="44.20326" lon="1.91513">
        <ele>247.6</ele>
        <time>2019-03-10T10:36:20Z</time>
      </trkpt>
      <trkpt lat="44.20323" lon="1.91519">
        <ele>247.5</ele>
        <time>2019-03-10T10:36:24Z</time>
      </trkpt>
      <trkpt lat="44.2032" lon="1.91516">
        <ele>248.2</ele>
        <time>2019-03-10T10:36:28Z</time>
      </trkpt>
      <trkpt lat="44.20324" lon="1.91506">
        <ele>249.2</ele>
        <time>2019-03-10T10:36:32Z</time>
      </trkpt>
      <trkpt lat="44.20333" lon="1.91487">
        <ele>248.2</ele>
        <time>2019-03-10T10:36:36Z</time>
      </trkpt>
      <trkpt lat="44.2034" lon="1.91459">
        <ele>247.3</ele>
        <time>2019-03-10T10:36:40Z</time>
      </trkpt>
      <trkpt lat="44.20342" lon="1.91424">
        <ele>245.2</ele>
        <time>2019-03-10T10:36:44Z</time>
      </trkpt>
      <trkpt lat="44.20342" lon="1.91396">
        <ele>243.8</ele>
        <time>2019-03-10T10:36:48Z</time>
      </trkpt>
      <trkpt lat="44.20341" lon="1.9137">
        <ele>242.7</ele>
        <time>2019-03-10T10:36:52Z</time>
      </trkpt>
      <trkpt lat="44.20341" lon="1.91343">
        <ele>242.7</ele>
        <time>2019-03-10T10:36:56Z</time>
      </trkpt>
      <trkpt lat="44.20345" lon="1.91323">
        <ele>241.5</ele>
        <time>2019-03-10T10:37:00Z</time>
      </trkpt>
      <trkpt lat="44.20353" lon="1.91305">
        <ele>241.4</ele>
        <time>2019-03-10T10:37:04Z</time>
      </trkpt>
      <trkpt lat="44.2035" lon="1.91285">
        <ele>241.4</ele>
        <time>2019-03-10T10:37:08Z</time>
      </trkpt>
      <trkpt lat="44.20352" lon="1.91269">
        <ele>240.7</ele>
        <time>2019-03-10T10:37:12Z</time>
      </trkpt>
      <trkpt lat="44.20356" lon="1.91251">
        <ele>240.1</ele>
        <time>2019-03-10T10:37:16Z</time>
      </trkpt>
      <trkpt lat="44.20365" lon="1.91234">
        <ele>240.5</ele>
        <time>2019-03-10T10:37:20Z</time>
      </trkpt>
      <trkpt lat="44.20368" lon="1.91213">
        <ele>240</ele>
        <time>2019-03-10T10:37:24Z</time>
      </trkpt>
      <trkpt lat="44.20372" lon="1.91197">
        <ele>238.8</ele>
        <time>2019-03-10T10:37:28Z</time>
      </trkpt>
      <trkpt lat="44.20383" lon="1.91178">
        <ele>236.6</ele>
        <time>2019-03-10T10:37:32Z</time>
      </trkpt>
      <trkpt lat="44.2038" lon="1.91156">
        <ele>235.4</ele>
        <time>2019-03-10T10:37:36Z</time>
      </trkpt>
      <trkpt lat="44.20363" lon="1.91147">
        <ele>233.2</ele>
        <time>2019-03-10T10:37:40Z</time>
      </trkpt>
      <trkpt lat="44.20336" lon="1.91126">
        <ele>227.6</ele>
        <time>2019-03-10T10:37:44Z</time>
      </trkpt>
      <trkpt lat="44.20315" lon="1.91109">
        <ele>226.2</ele>
        <time>2019-03-10T10:37:48Z</time>
      </trkpt>
      <trkpt lat="44.20297" lon="1.91091">
        <ele>225.5</ele>
        <time>2019-03-10T10:37:52Z</time>
      </trkpt>
      <trkpt lat="44.20279" lon="1.91071">
        <ele>223.4</ele>
        <time>2019-03-10T10:37:56Z</time>
      </trkpt>
      <trkpt lat="44.20262" lon="1.91045">
        <ele>221.5</ele>
        <time>2019-03-10T10:38:00Z</time>
      </trkpt>
      <trkpt lat="44.20242" lon="1.91022">
        <ele>221.5</ele>
        <time>2019-03-10T10:38:04Z</time>
      </trkpt>
      <trkpt lat="44.2022" lon="1.91018">
        <ele>221.5</ele>
        <time>2019-03-10T10:38:08Z</time>
      </trkpt>
      <trkpt lat="44.20203" lon="1.91033">
        <ele>222.6</ele>
        <time>2019-03-10T10:38:12Z</time>
      </trkpt>
      <trkpt lat="44.2018" lon="1.91035">
        <ele>221.3</ele>
        <time>2019-03-10T10:38:16Z</time>
      </trkpt>
      <trkpt lat="44.20157" lon="1.91033">
        <ele>219.9</ele>
        <time>2019-03-10T10:38:20Z</time>
      </trkpt>
      <trkpt lat="44.20136" lon="1.91027">
        <ele>217.5</ele>
        <time>2019-03-10T10:38:24Z</time>
      </trkpt>
      <trkpt lat="44.20118" lon="1.91015">
        <ele>216.1</ele>
        <time>2019-03-10T10:38:28Z</time>
      </trkpt>
      <trkpt lat="44.20108" lon="1.91001">
        <ele>213.8</ele>
        <time>2019-03-10T10:38:32Z</time>
      </trkpt>
      <trkpt lat="44.20087" lon="1.90991">
        <ele>211.1</ele>
        <time>2019-03-10T10:38:36Z</time>
      </trkpt>
      <trkpt lat="44.20072" lon="1.90992">
        <ele>208.3</ele>
        <time>2019-03-10T10:38:40Z</time>
      </trkpt>
      <trkpt lat="44.2007" lon="1.90977">
        <ele>207</ele>
        <time>2019-03-10T10:38:44Z</time>
      </trkpt>
      <trkpt lat="44.20064" lon="1.90946">
        <ele>205.7</ele>
        <time>2019-03-10T10:38:48Z</time>
      </trkpt>
      <trkpt lat="44.2006" lon="1.90916">
        <ele>204.5</ele>
        <time>2019-03-10T10:38:52Z</time>
      </trkpt>
      <trkpt lat="44.20052" lon="1.9088">
        <ele>203.3</ele>
        <time>2019-03-10T10:38:56Z</time>
      </trkpt>
      <trkpt lat="44.20043" lon="1.9084">
        <ele>200.6</ele>
        <time>2019-03-10T10:39:00Z</time>
      </trkpt>
      <trkpt lat="44.20017" lon="1.90814">
        <ele>199.3</ele>
        <time>2019-03-10T10:39:04Z</time>
      </trkpt>
      <trkpt lat="44.19984" lon="1.90794">
        <ele>198.1</ele>
        <time>2019-03-10T10:39:08Z</time>
      </trkpt>
      <trkpt lat="44.19953" lon="1.90765">
        <ele>197.3</ele>
        <time>2019-03-10T10:39:12Z</time>
      </trkpt>
      <trkpt lat="44.19928" lon="1.90735">
        <ele>196.1</ele>
        <time>2019-03-10T10:39:16Z</time>
      </trkpt>
      <trkpt lat="44.19906" lon="1.90706">
        <ele>194.2</ele>
        <time>2019-03-10T10:39:20Z</time>
      </trkpt>
      <trkpt lat="44.19877" lon="1.90691">
        <ele>192.2</ele>
        <time>2019-03-10T10:39:24Z</time>
      </trkpt>
      <trkpt lat="44.19854" lon="1.90672">
        <ele>188</ele>
        <time>2019-03-10T10:39:28Z</time>
      </trkpt>
      <trkpt lat="44.19832" lon="1.90674">
        <ele>184.4</ele>
        <time>2019-03-10T10:39:32Z</time>
      </trkpt>
      <trkpt lat="44.19815" lon="1.90672">
        <ele>181.2</ele>
        <time>2019-03-10T10:39:36Z</time>
      </trkpt>
      <trkpt lat="44.19804" lon="1.90648">
        <ele>178.4</ele>
        <time>2019-03-10T10:39:40Z</time>
      </trkpt>
      <trkpt lat="44.19789" lon="1.90625">
        <ele>173.7</ele>
        <time>2019-03-10T10:39:44Z</time>
      </trkpt>
      <trkpt lat="44.19771" lon="1.906">
        <ele>170.7</ele>
        <time>2019-03-10T10:39:48Z</time>
      </trkpt>
      <trkpt lat="44.19756" lon="1.90581">
        <ele>167.8</ele>
        <time>2019-03-10T10:39:52Z</time>
      </trkpt>
      <trkpt lat="44.19735" lon="1.9056">
        <ele>161.6</ele>
        <time>2019-03-10T10:39:56Z</time>
      </trkpt>
      <trkpt lat="44.19711" lon="1.90541">
        <ele>157.7</ele>
        <time>2019-03-10T10:40:00Z</time>
      </trkpt>
      <trkpt lat="44.19702" lon="1.90516">
        <ele>156.6</ele>
        <time>2019-03-10T10:40:04Z</time>
      </trkpt>
      <trkpt lat="44.19705" lon="1.90503">
        <ele>156.1</ele>
        <time>2019-03-10T10:40:08Z</time>
      </trkpt>
      <trkpt lat="44.19697" lon="1.90494">
        <ele>156.1</ele>
        <time>2019-03-10T10:40:12Z</time>
      </trkpt>
      <trkpt lat="44.19689" lon="1.90486">
        <ele>155.5</ele>
        <time>2019-03-10T10:40:16Z</time>
      </trkpt>
      <trkpt lat="44.19688" lon="1.90484">
        <ele>155.4</ele>
        <time>2019-03-10T10:40:20Z</time>
      </trkpt>
      <trkpt lat="44.19674" lon="1.90484">
        <ele>155.2</ele>
        <time>2019-03-10T10:41:28Z</time>
      </trkpt>
      <trkpt lat="44.19667" lon="1.90482">
        <ele>155.1</ele>
        <time>2019-03-10T10:41:32Z</time>
      </trkpt>
      <trkpt lat="44.1966" lon="1.90475">
        <ele>155.4</ele>
        <time>2019-03-10T10:41:36Z</time>
      </trkpt>
      <trkpt lat="44.19648" lon="1.90465">
        <ele>155.7</ele>
        <time>2019-03-10T10:41:40Z</time>
      </trkpt>
      <trkpt lat="44.19629" lon="1.90453">
        <ele>156</ele>
        <time>2019-03-10T10:41:44Z</time>
      </trkpt>
      <trkpt lat="44.19611" lon="1.90439">
        <ele>156</ele>
        <time>2019-03-10T10:41:48Z</time>
      </trkpt>
      <trkpt lat="44.19595" lon="1.90429">
        <ele>155.1</ele>
        <time>2019-03-10T10:41:52Z</time>
      </trkpt>
      <trkpt lat="44.19575" lon="1.90415">
        <ele>153.9</ele>
        <time>2019-03-10T10:41:56Z</time>
      </trkpt>
      <trkpt lat="44.19553" lon="1.90401">
        <ele>153.9</ele>
        <time>2019-03-10T10:42:00Z</time>
      </trkpt>
      <trkpt lat="44.19531" lon="1.90402">
        <ele>154.7</ele>
        <time>2019-03-10T10:42:04Z</time>
      </trkpt>
      <trkpt lat="44.19514" lon="1.90402">
        <ele>154.3</ele>
        <time>2019-03-10T10:42:08Z</time>
      </trkpt>
      <trkpt lat="44.19491" lon="1.90399">
        <ele>153.7</ele>
        <time>2019-03-10T10:42:12Z</time>
      </trkpt>
      <trkpt lat="44.19472" lon="1.90387">
        <ele>154.9</ele>
        <time>2019-03-10T10:42:16Z</time>
      </trkpt>
      <trkpt lat="44.19451" lon="1.9038">
        <ele>155.5</ele>
        <time>2019-03-10T10:42:20Z</time>
      </trkpt>
      <trkpt lat="44.19428" lon="1.90367">
        <ele>155.5</ele>
        <time>2019-03-10T10:42:24Z</time>
      </trkpt>
      <trkpt lat="44.1941" lon="1.90351">
        <ele>156.7</ele>
        <time>2019-03-10T10:42:28Z</time>
      </trkpt>
      <trkpt lat="44.19401" lon="1.90336">
        <ele>157.4</ele>
        <time>2019-03-10T10:42:32Z</time>
      </trkpt>
      <trkpt lat="44.19394" lon="1.90327">
        <ele>158.5</ele>
        <time>2019-03-10T10:42:36Z</time>
      </trkpt>
      <trkpt lat="44.19388" lon="1.9032">
        <ele>159.7</ele>
        <time>2019-03-10T10:42:40Z</time>
      </trkpt>
      <trkpt lat="44.19381" lon="1.90313">
        <ele>160.8</ele>
        <time>2019-03-10T10:42:44Z</time>
      </trkpt>
      <trkpt lat="44.19375" lon="1.90304">
        <ele>162.4</ele>
        <time>2019-03-10T10:42:48Z</time>
      </trkpt>
      <trkpt lat="44.19369" lon="1.90297">
        <ele>163.7</ele>
        <time>2019-03-10T10:42:52Z</time>
      </trkpt>
      <trkpt lat="44.19364" lon="1.90287">
        <ele>165.5</ele>
        <time>2019-03-10T10:42:56Z</time>
      </trkpt>
      <trkpt lat="44.1936" lon="1.90279">
        <ele>166.5</ele>
        <time>2019-03-10T10:43:00Z</time>
      </trkpt>
      <trkpt lat="44.19355" lon="1.90268">
        <ele>168</ele>
        <time>2019-03-10T10:43:04Z</time>
      </trkpt>
      <trkpt lat="44.19351" lon="1.9026">
        <ele>170</ele>
        <time>2019-03-10T10:43:08Z</time>
      </trkpt>
      <trkpt lat="44.19345" lon="1.9025">
        <ele>170.8</ele>
        <time>2019-03-10T10:43:12Z</time>
      </trkpt>
      <trkpt lat="44.19341" lon="1.9024">
        <ele>170.8</ele>
        <time>2019-03-10T10:43:16Z</time>
      </trkpt>
      <trkpt lat="44.19336" lon="1.90231">
        <ele>173</ele>
        <time>2019-03-10T10:43:20Z</time>
      </trkpt>
      <trkpt lat="44.19331" lon="1.90222">
        <ele>174.5</ele>
        <time>2019-03-10T10:43:24Z</time>
      </trkpt>
      <trkpt lat="44.19327" lon="1.90214">
        <ele>176</ele>
        <time>2019-03-10T10:43:28Z</time>
      </trkpt>
      <trkpt lat="44.19323" lon="1.90207">
        <ele>177.2</ele>
        <time>2019-03-10T10:43:32Z</time>
      </trkpt>
      <trkpt lat="44.19318" lon="1.90201">
        <ele>178.1</ele>
        <time>2019-03-10T10:43:36Z</time>
      </trkpt>
      <trkpt lat="44.19312" lon="1.90194">
        <ele>179</ele>
        <time>2019-03-10T10:43:40Z</time>
      </trkpt>
      <trkpt lat="44.19309" lon="1.90185">
        <ele>180.4</ele>
        <time>2019-03-10T10:43:44Z</time>
      </trkpt>
      <trkpt lat="44.19306" lon="1.90177">
        <ele>181.4</ele>
        <time>2019-03-10T10:43:48Z</time>
      </trkpt>
      <trkpt lat="44.19304" lon="1.90168">
        <ele>181.4</ele>
        <time>2019-03-10T10:43:52Z</time>
      </trkpt>
      <trkpt lat="44.19302" lon="1.90161">
        <ele>183.4</ele>
        <time>2019-03-10T10:43:56Z</time>
      </trkpt>
      <trkpt lat="44.193" lon="1.90152">
        <ele>185.4</ele>
        <time>2019-03-10T10:44:00Z</time>
      </trkpt>
      <trkpt lat="44.19299" lon="1.90141">
        <ele>185.3</ele>
        <time>2019-03-10T10:44:04Z</time>
      </trkpt>
      <trkpt lat="44.19299" lon="1.90129">
        <ele>186.3</ele>
        <time>2019-03-10T10:44:08Z</time>
      </trkpt>
      <trkpt lat="44.19299" lon="1.90119">
        <ele>186.9</ele>
        <time>2019-03-10T10:44:12Z</time>
      </trkpt>
      <trkpt lat="44.19299" lon="1.90108">
        <ele>187.9</ele>
        <time>2019-03-10T10:44:16Z</time>
      </trkpt>
      <trkpt lat="44.19298" lon="1.90097">
        <ele>189.1</ele>
        <time>2019-03-10T10:44:20Z</time>
      </trkpt>
      <trkpt lat="44.19298" lon="1.90085">
        <ele>189.9</ele>
        <time>2019-03-10T10:44:24Z</time>
      </trkpt>
      <trkpt lat="44.193" lon="1.90073">
        <ele>191.2</ele>
        <time>2019-03-10T10:44:28Z</time>
      </trkpt>
      <trkpt lat="44.193" lon="1.90061">
        <ele>192.6</ele>
        <time>2019-03-10T10:44:32Z</time>
      </trkpt>
      <trkpt lat="44.193" lon="1.90049">
        <ele>194.3</ele>
        <time>2019-03-10T10:44:36Z</time>
      </trkpt>
      <trkpt lat="44.19299" lon="1.9004">
        <ele>196.1</ele>
        <time>2019-03-10T10:44:40Z</time>
      </trkpt>
      <trkpt lat="44.193" lon="1.90028">
        <ele>197.8</ele>
        <time>2019-03-10T10:44:44Z</time>
      </trkpt>
      <trkpt lat="44.19302" lon="1.90016">
        <ele>198.5</ele>
        <time>2019-03-10T10:44:48Z</time>
      </trkpt>
      <trkpt lat="44.19304" lon="1.90006">
        <ele>200.8</ele>
        <time>2019-03-10T10:44:52Z</time>
      </trkpt>
      <trkpt lat="44.19305" lon="1.89996">
        <ele>202.3</ele>
        <time>2019-03-10T10:44:56Z</time>
      </trkpt>
      <trkpt lat="44.19308" lon="1.89987">
        <ele>203.7</ele>
        <time>2019-03-10T10:45:00Z</time>
      </trkpt>
      <trkpt lat="44.1931" lon="1.89977">
        <ele>204.7</ele>
        <time>2019-03-10T10:45:04Z</time>
      </trkpt>
      <trkpt lat="44.19313" lon="1.89968">
        <ele>206.1</ele>
        <time>2019-03-10T10:45:08Z</time>
      </trkpt>
      <trkpt lat="44.19315" lon="1.89959">
        <ele>207.8</ele>
        <time>2019-03-10T10:45:12Z</time>
      </trkpt>
      <trkpt lat="44.19317" lon="1.89951">
        <ele>210</ele>
        <time>2019-03-10T10:45:16Z</time>
      </trkpt>
      <trkpt lat="44.19319" lon="1.89944">
        <ele>211</ele>
        <time>2019-03-10T10:45:20Z</time>
      </trkpt>
      <trkpt lat="44.1932" lon="1.89935">
        <ele>212</ele>
        <time>2019-03-10T10:45:24Z</time>
      </trkpt>
      <trkpt lat="44.19321" lon="1.89927">
        <ele>213.6</ele>
        <time>2019-03-10T10:45:28Z</time>
      </trkpt>
      <trkpt lat="44.19321" lon="1.89918">
        <ele>214.7</ele>
        <time>2019-03-10T10:45:32Z</time>
      </trkpt>
      <trkpt lat="44.19319" lon="1.89909">
        <ele>216</ele>
        <time>2019-03-10T10:45:36Z</time>
      </trkpt>
      <trkpt lat="44.19321" lon="1.89898">
        <ele>217</ele>
        <time>2019-03-10T10:45:40Z</time>
      </trkpt>
      <trkpt lat="44.19321" lon="1.89889">
        <ele>218.1</ele>
        <time>2019-03-10T10:45:44Z</time>
      </trkpt>
      <trkpt lat="44.19324" lon="1.89879">
        <ele>218.9</ele>
        <time>2019-03-10T10:45:48Z</time>
      </trkpt>
      <trkpt lat="44.19324" lon="1.8987">
        <ele>220.2</ele>
        <time>2019-03-10T10:45:52Z</time>
      </trkpt>
      <trkpt lat="44.19326" lon="1.89862">
        <ele>221.4</ele>
        <time>2019-03-10T10:45:56Z</time>
      </trkpt>
      <trkpt lat="44.19328" lon="1.89854">
        <ele>222.1</ele>
        <time>2019-03-10T10:46:00Z</time>
      </trkpt>
      <trkpt lat="44.19328" lon="1.89845">
        <ele>223.3</ele>
        <time>2019-03-10T10:46:04Z</time>
      </trkpt>
      <trkpt lat="44.19331" lon="1.89838">
        <ele>225.1</ele>
        <time>2019-03-10T10:46:08Z</time>
      </trkpt>
      <trkpt lat="44.19333" lon="1.89831">
        <ele>226.4</ele>
        <time>2019-03-10T10:46:12Z</time>
      </trkpt>
      <trkpt lat="44.19337" lon="1.89823">
        <ele>227.4</ele>
        <time>2019-03-10T10:46:16Z</time>
      </trkpt>
      <trkpt lat="44.1934" lon="1.89814">
        <ele>228.4</ele>
        <time>2019-03-10T10:46:20Z</time>
      </trkpt>
      <trkpt lat="44.19343" lon="1.89806">
        <ele>229.7</ele>
        <time>2019-03-10T10:46:24Z</time>
      </trkpt>
      <trkpt lat="44.19346" lon="1.89797">
        <ele>230.8</ele>
        <time>2019-03-10T10:46:28Z</time>
      </trkpt>
      <trkpt lat="44.19349" lon="1.89788">
        <ele>231.1</ele>
        <time>2019-03-10T10:46:32Z</time>
      </trkpt>
      <trkpt lat="44.19351" lon="1.89778">
        <ele>232</ele>
        <time>2019-03-10T10:46:36Z</time>
      </trkpt>
      <trkpt lat="44.19352" lon="1.89767">
        <ele>233.2</ele>
        <time>2019-03-10T10:46:40Z</time>
      </trkpt>
      <trkpt lat="44.19354" lon="1.89757">
        <ele>234.7</ele>
        <time>2019-03-10T10:46:44Z</time>
      </trkpt>
      <trkpt lat="44.19356" lon="1.89746">
        <ele>235.1</ele>
        <time>2019-03-10T10:46:48Z</time>
      </trkpt>
      <trkpt lat="44.19358" lon="1.89736">
        <ele>235.1</ele>
        <time>2019-03-10T10:46:52Z</time>
      </trkpt>
      <trkpt lat="44.19361" lon="1.89724">
        <ele>235.7</ele>
        <time>2019-03-10T10:46:56Z</time>
      </trkpt>
      <trkpt lat="44.19364" lon="1.89709">
        <ele>236.7</ele>
        <time>2019-03-10T10:47:00Z</time>
      </trkpt>
      <trkpt lat="44.19366" lon="1.89697">
        <ele>237.9</ele>
        <time>2019-03-10T10:47:04Z</time>
      </trkpt>
      <trkpt lat="44.19368" lon="1.89685">
        <ele>238.1</ele>
        <time>2019-03-10T10:47:08Z</time>
      </trkpt>
      <trkpt lat="44.19371" lon="1.89672">
        <ele>239.2</ele>
        <time>2019-03-10T10:47:12Z</time>
      </trkpt>
      <trkpt lat="44.19375" lon="1.89659">
        <ele>240</ele>
        <time>2019-03-10T10:47:16Z</time>
      </trkpt>
      <trkpt lat="44.19379" lon="1.89648">
        <ele>240.1</ele>
        <time>2019-03-10T10:47:20Z</time>
      </trkpt>
      <trkpt lat="44.19384" lon="1.89634">
        <ele>240.3</ele>
        <time>2019-03-10T10:47:24Z</time>
      </trkpt>
      <trkpt lat="44.19389" lon="1.89622">
        <ele>240.3</ele>
        <time>2019-03-10T10:47:28Z</time>
      </trkpt>
      <trkpt lat="44.19393" lon="1.89608">
        <ele>241</ele>
        <time>2019-03-10T10:47:32Z</time>
      </trkpt>
      <trkpt lat="44.19397" lon="1.89595">
        <ele>242</ele>
        <time>2019-03-10T10:47:36Z</time>
      </trkpt>
      <trkpt lat="44.19402" lon="1.89583">
        <ele>243.2</ele>
        <time>2019-03-10T10:47:40Z</time>
      </trkpt>
      <trkpt lat="44.19406" lon="1.89572">
        <ele>243.9</ele>
        <time>2019-03-10T10:47:44Z</time>
      </trkpt>
      <trkpt lat="44.1941" lon="1.89562">
        <ele>245.6</ele>
        <time>2019-03-10T10:47:48Z</time>
      </trkpt>
      <trkpt lat="44.19416" lon="1.89558">
        <ele>246.7</ele>
        <time>2019-03-10T10:47:52Z</time>
      </trkpt>
      <trkpt lat="44.19415" lon="1.89567">
        <ele>247.2</ele>
        <time>2019-03-10T10:47:56Z</time>
      </trkpt>
      <trkpt lat="44.19413" lon="1.89578">
        <ele>247.2</ele>
        <time>2019-03-10T10:48:00Z</time>
      </trkpt>
      <trkpt lat="44.19412" lon="1.8959">
        <ele>248.4</ele>
        <time>2019-03-10T10:48:04Z</time>
      </trkpt>
      <trkpt lat="44.19409" lon="1.89601">
        <ele>249.4</ele>
        <time>2019-03-10T10:48:08Z</time>
      </trkpt>
      <trkpt lat="44.19408" lon="1.89614">
        <ele>250.5</ele>
        <time>2019-03-10T10:48:12Z</time>
      </trkpt>
      <trkpt lat="44.19406" lon="1.89626">
        <ele>251.5</ele>
        <time>2019-03-10T10:48:16Z</time>
      </trkpt>
      <trkpt lat="44.19404" lon="1.89637">
        <ele>252.3</ele>
        <time>2019-03-10T10:48:20Z</time>
      </trkpt>
      <trkpt lat="44.19406" lon="1.8965">
        <ele>253</ele>
        <time>2019-03-10T10:48:24Z</time>
      </trkpt>
      <trkpt lat="44.19408" lon="1.89662">
        <ele>253.8</ele>
        <time>2019-03-10T10:48:28Z</time>
      </trkpt>
      <trkpt lat="44.19408" lon="1.89674">
        <ele>254.4</ele>
        <time>2019-03-10T10:48:32Z</time>
      </trkpt>
      <trkpt lat="44.19408" lon="1.89685">
        <ele>255.1</ele>
        <time>2019-03-10T10:48:36Z</time>
      </trkpt>
      <trkpt lat="44.19411" lon="1.89696">
        <ele>256.6</ele>
        <time>2019-03-10T10:48:40Z</time>
      </trkpt>
      <trkpt lat="44.1941" lon="1.89707">
        <ele>257.5</ele>
        <time>2019-03-10T10:48:44Z</time>
      </trkpt>
      <trkpt lat="44.19413" lon="1.89719">
        <ele>258.5</ele>
        <time>2019-03-10T10:48:48Z</time>
      </trkpt>
      <trkpt lat="44.19413" lon="1.89731">
        <ele>259.3</ele>
        <time>2019-03-10T10:48:52Z</time>
      </trkpt>
      <trkpt lat="44.19416" lon="1.89742">
        <ele>259.5</ele>
        <time>2019-03-10T10:48:56Z</time>
      </trkpt>
      <trkpt lat="44.19415" lon="1.89753">
        <ele>261.1</ele>
        <time>2019-03-10T10:49:00Z</time>
      </trkpt>
      <trkpt lat="44.19415" lon="1.89763">
        <ele>261.1</ele>
        <time>2019-03-10T10:49:04Z</time>
      </trkpt>
      <trkpt lat="44.19415" lon="1.89773">
        <ele>262.9</ele>
        <time>2019-03-10T10:49:08Z</time>
      </trkpt>
      <trkpt lat="44.19415" lon="1.89784">
        <ele>263.8</ele>
        <time>2019-03-10T10:49:12Z</time>
      </trkpt>
      <trkpt lat="44.19418" lon="1.89797">
        <ele>264.4</ele>
        <time>2019-03-10T10:49:16Z</time>
      </trkpt>
      <trkpt lat="44.19421" lon="1.89808">
        <ele>265</ele>
        <time>2019-03-10T10:49:20Z</time>
      </trkpt>
      <trkpt lat="44.1942" lon="1.89819">
        <ele>265.9</ele>
        <time>2019-03-10T10:49:24Z</time>
      </trkpt>
      <trkpt lat="44.19425" lon="1.89826">
        <ele>266.5</ele>
        <time>2019-03-10T10:49:28Z</time>
      </trkpt>
      <trkpt lat="44.19427" lon="1.89836">
        <ele>267.8</ele>
        <time>2019-03-10T10:49:32Z</time>
      </trkpt>
      <trkpt lat="44.19427" lon="1.89845">
        <ele>269.1</ele>
        <time>2019-03-10T10:49:36Z</time>
      </trkpt>
      <trkpt lat="44.19427" lon="1.89852">
        <ele>269.5</ele>
        <time>2019-03-10T10:49:40Z</time>
      </trkpt>
      <trkpt lat="44.19429" lon="1.89858">
        <ele>270.1</ele>
        <time>2019-03-10T10:49:44Z</time>
      </trkpt>
      <trkpt lat="44.19431" lon="1.89869">
        <ele>271.1</ele>
        <time>2019-03-10T10:49:48Z</time>
      </trkpt>
      <trkpt lat="44.19437" lon="1.89878">
        <ele>272.4</ele>
        <time>2019-03-10T10:49:52Z</time>
      </trkpt>
      <trkpt lat="44.19442" lon="1.89889">
        <ele>273.5</ele>
        <time>2019-03-10T10:49:56Z</time>
      </trkpt>
      <trkpt lat="44.19441" lon="1.89897">
        <ele>274.2</ele>
        <time>2019-03-10T10:50:00Z</time>
      </trkpt>
      <trkpt lat="44.19447" lon="1.89908">
        <ele>275</ele>
        <time>2019-03-10T10:50:04Z</time>
      </trkpt>
      <trkpt lat="44.19451" lon="1.89916">
        <ele>277</ele>
        <time>2019-03-10T10:50:08Z</time>
      </trkpt>
      <trkpt lat="44.19453" lon="1.89924">
        <ele>277.8</ele>
        <time>2019-03-10T10:50:12Z</time>
      </trkpt>
      <trkpt lat="44.19457" lon="1.89934">
        <ele>278.9</ele>
        <time>2019-03-10T10:50:16Z</time>
      </trkpt>
      <trkpt lat="44.19461" lon="1.89944">
        <ele>279.3</ele>
        <time>2019-03-10T10:50:20Z</time>
      </trkpt>
      <trkpt lat="44.19462" lon="1.89954">
        <ele>280.1</ele>
        <time>2019-03-10T10:50:24Z</time>
      </trkpt>
      <trkpt lat="44.19463" lon="1.89959">
        <ele>280.9</ele>
        <time>2019-03-10T10:50:28Z</time>
      </trkpt>
      <trkpt lat="44.19468" lon="1.89967">
        <ele>281.1</ele>
        <time>2019-03-10T10:50:32Z</time>
      </trkpt>
      <trkpt lat="44.19472" lon="1.89968">
        <ele>282.4</ele>
        <time>2019-03-10T10:50:36Z</time>
      </trkpt>
      <trkpt lat="44.19481" lon="1.89971">
        <ele>282.8</ele>
        <time>2019-03-10T10:50:40Z</time>
      </trkpt>
      <trkpt lat="44.19491" lon="1.8997">
        <ele>283.2</ele>
        <time>2019-03-10T10:50:44Z</time>
      </trkpt>
      <trkpt lat="44.19498" lon="1.89971">
        <ele>284.5</ele>
        <time>2019-03-10T10:50:48Z</time>
      </trkpt>
      <trkpt lat="44.19506" lon="1.89971">
        <ele>285.3</ele>
        <time>2019-03-10T10:50:52Z</time>
      </trkpt>
      <trkpt lat="44.19511" lon="1.89973">
        <ele>286</ele>
        <time>2019-03-10T10:50:56Z</time>
      </trkpt>
      <trkpt lat="44.19512" lon="1.89975">
        <ele>286.8</ele>
        <time>2019-03-10T10:51:00Z</time>
      </trkpt>
      <trkpt lat="44.19509" lon="1.8997">
        <ele>287.8</ele>
        <time>2019-03-10T10:51:04Z</time>
      </trkpt>
      <trkpt lat="44.19504" lon="1.89961">
        <ele>288.5</ele>
        <time>2019-03-10T10:51:08Z</time>
      </trkpt>
      <trkpt lat="44.19502" lon="1.8995">
        <ele>288.9</ele>
        <time>2019-03-10T10:51:12Z</time>
      </trkpt>
      <trkpt lat="44.19503" lon="1.8994">
        <ele>289.1</ele>
        <time>2019-03-10T10:51:16Z</time>
      </trkpt>
      <trkpt lat="44.19502" lon="1.89926">
        <ele>289.7</ele>
        <time>2019-03-10T10:51:20Z</time>
      </trkpt>
      <trkpt lat="44.19499" lon="1.89919">
        <ele>290.1</ele>
        <time>2019-03-10T10:51:24Z</time>
      </trkpt>
      <trkpt lat="44.19498" lon="1.89903">
        <ele>290.2</ele>
        <time>2019-03-10T10:51:28Z</time>
      </trkpt>
      <trkpt lat="44.19497" lon="1.89894">
        <ele>291.3</ele>
        <time>2019-03-10T10:51:32Z</time>
      </trkpt>
      <trkpt lat="44.19496" lon="1.89886">
        <ele>291.6</ele>
        <time>2019-03-10T10:51:36Z</time>
      </trkpt>
      <trkpt lat="44.19496" lon="1.89872">
        <ele>291.4</ele>
        <time>2019-03-10T10:51:40Z</time>
      </trkpt>
      <trkpt lat="44.19502" lon="1.89863">
        <ele>292.5</ele>
        <time>2019-03-10T10:51:44Z</time>
      </trkpt>
      <trkpt lat="44.19508" lon="1.8985">
        <ele>293.9</ele>
        <time>2019-03-10T10:51:48Z</time>
      </trkpt>
      <trkpt lat="44.19514" lon="1.8984">
        <ele>294.2</ele>
        <time>2019-03-10T10:51:52Z</time>
      </trkpt>
      <trkpt lat="44.19518" lon="1.8983">
        <ele>295.3</ele>
        <time>2019-03-10T10:51:56Z</time>
      </trkpt>
      <trkpt lat="44.19519" lon="1.89819">
        <ele>295.4</ele>
        <time>2019-03-10T10:52:00Z</time>
      </trkpt>
      <trkpt lat="44.19521" lon="1.89811">
        <ele>297</ele>
        <time>2019-03-10T10:52:04Z</time>
      </trkpt>
      <trkpt lat="44.19525" lon="1.89801">
        <ele>297.5</ele>
        <time>2019-03-10T10:52:08Z</time>
      </trkpt>
      <trkpt lat="44.19528" lon="1.89792">
        <ele>298.3</ele>
        <time>2019-03-10T10:52:12Z</time>
      </trkpt>
      <trkpt lat="44.19533" lon="1.89784">
        <ele>299.4</ele>
        <time>2019-03-10T10:52:16Z</time>
      </trkpt>
      <trkpt lat="44.19536" lon="1.89776">
        <ele>300.1</ele>
        <time>2019-03-10T10:52:20Z</time>
      </trkpt>
      <trkpt lat="44.1954" lon="1.89767">
        <ele>301.1</ele>
        <time>2019-03-10T10:52:24Z</time>
      </trkpt>
      <trkpt lat="44.19544" lon="1.89758">
        <ele>301.6</ele>
        <time>2019-03-10T10:52:28Z</time>
      </trkpt>
      <trkpt lat="44.19549" lon="1.89752">
        <ele>302.5</ele>
        <time>2019-03-10T10:52:32Z</time>
      </trkpt>
      <trkpt lat="44.19553" lon="1.89746">
        <ele>303.1</ele>
        <time>2019-03-10T10:52:36Z</time>
      </trkpt>
      <trkpt lat="44.19558" lon="1.89739">
        <ele>304</ele>
        <time>2019-03-10T10:52:40Z</time>
      </trkpt>
      <trkpt lat="44.19562" lon="1.89733">
        <ele>304.7</ele>
        <time>2019-03-10T10:52:44Z</time>
      </trkpt>
      <trkpt lat="44.19569" lon="1.89727">
        <ele>305.1</ele>
        <time>2019-03-10T10:52:48Z</time>
      </trkpt>
      <trkpt lat="44.19573" lon="1.89722">
        <ele>305.8</ele>
        <time>2019-03-10T10:52:52Z</time>
      </trkpt>
      <trkpt lat="44.19578" lon="1.89718">
        <ele>306.5</ele>
        <time>2019-03-10T10:52:56Z</time>
      </trkpt>
      <trkpt lat="44.19583" lon="1.89711">
        <ele>307.5</ele>
        <time>2019-03-10T10:53:00Z</time>
      </trkpt>
      <trkpt lat="44.19588" lon="1.89705">
        <ele>308.2</ele>
        <time>2019-03-10T10:53:04Z</time>
      </trkpt>
      <trkpt lat="44.19591" lon="1.89701">
        <ele>308.2</ele>
        <time>2019-03-10T10:53:08Z</time>
      </trkpt>
      <trkpt lat="44.19597" lon="1.89697">
        <ele>309.1</ele>
        <time>2019-03-10T10:53:12Z</time>
      </trkpt>
      <trkpt lat="44.19603" lon="1.89694">
        <ele>309.4</ele>
        <time>2019-03-10T10:53:16Z</time>
      </trkpt>
      <trkpt lat="44.19609" lon="1.89692">
        <ele>310.2</ele>
        <time>2019-03-10T10:53:20Z</time>
      </trkpt>
      <trkpt lat="44.19616" lon="1.8969">
        <ele>310.6</ele>
        <time>2019-03-10T10:53:24Z</time>
      </trkpt>
      <trkpt lat="44.19621" lon="1.89688">
        <ele>311.5</ele>
        <time>2019-03-10T10:53:28Z</time>
      </trkpt>
      <trkpt lat="44.19625" lon="1.89688">
        <ele>312.6</ele>
        <time>2019-03-10T10:53:32Z</time>
      </trkpt>
      <trkpt lat="44.19629" lon="1.8969">
        <ele>313.4</ele>
        <time>2019-03-10T10:53:36Z</time>
      </trkpt>
      <trkpt lat="44.19633" lon="1.89689">
        <ele>314</ele>
        <time>2019-03-10T10:53:40Z</time>
      </trkpt>
      <trkpt lat="44.19639" lon="1.89694">
        <ele>314.6</ele>
        <time>2019-03-10T10:53:44Z</time>
      </trkpt>
      <trkpt lat="44.19648" lon="1.89693">
        <ele>316.5</ele>
        <time>2019-03-10T10:53:48Z</time>
      </trkpt>
      <trkpt lat="44.19656" lon="1.89691">
        <ele>316.9</ele>
        <time>2019-03-10T10:53:52Z</time>
      </trkpt>
      <trkpt lat="44.19661" lon="1.89684">
        <ele>317.2</ele>
        <time>2019-03-10T10:53:56Z</time>
      </trkpt>
      <trkpt lat="44.19666" lon="1.89678">
        <ele>317.3</ele>
        <time>2019-03-10T10:54:00Z</time>
      </trkpt>
      <trkpt lat="44.19672" lon="1.89667">
        <ele>317.3</ele>
        <time>2019-03-10T10:54:04Z</time>
      </trkpt>
      <trkpt lat="44.19679" lon="1.89655">
        <ele>316.9</ele>
        <time>2019-03-10T10:54:08Z</time>
      </trkpt>
      <trkpt lat="44.19689" lon="1.89646">
        <ele>316.9</ele>
        <time>2019-03-10T10:54:12Z</time>
      </trkpt>
      <trkpt lat="44.19696" lon="1.89635">
        <ele>316.2</ele>
        <time>2019-03-10T10:54:16Z</time>
      </trkpt>
      <trkpt lat="44.19701" lon="1.89617">
        <ele>316.1</ele>
        <time>2019-03-10T10:54:20Z</time>
      </trkpt>
      <trkpt lat="44.1971" lon="1.89592">
        <ele>315.4</ele>
        <time>2019-03-10T10:54:24Z</time>
      </trkpt>
      <trkpt lat="44.19717" lon="1.89566">
        <ele>314.1</ele>
        <time>2019-03-10T10:54:28Z</time>
      </trkpt>
      <trkpt lat="44.19722" lon="1.89541">
        <ele>312.9</ele>
        <time>2019-03-10T10:54:32Z</time>
      </trkpt>
      <trkpt lat="44.19725" lon="1.89519">
        <ele>312.6</ele>
        <time>2019-03-10T10:54:36Z</time>
      </trkpt>
      <trkpt lat="44.1973" lon="1.89502">
        <ele>313.2</ele>
        <time>2019-03-10T10:54:40Z</time>
      </trkpt>
      <trkpt lat="44.19733" lon="1.89486">
        <ele>314.4</ele>
        <time>2019-03-10T10:54:44Z</time>
      </trkpt>
      <trkpt lat="44.19736" lon="1.89472">
        <ele>315.6</ele>
        <time>2019-03-10T10:54:48Z</time>
      </trkpt>
      <trkpt lat="44.1974" lon="1.89458">
        <ele>316</ele>
        <time>2019-03-10T10:54:52Z</time>
      </trkpt>
      <trkpt lat="44.19744" lon="1.89446">
        <ele>317.1</ele>
        <time>2019-03-10T10:54:56Z</time>
      </trkpt>
      <trkpt lat="44.19747" lon="1.89432">
        <ele>317.1</ele>
        <time>2019-03-10T10:55:00Z</time>
      </trkpt>
      <trkpt lat="44.1975" lon="1.89414">
        <ele>318.3</ele>
        <time>2019-03-10T10:55:04Z</time>
      </trkpt>
      <trkpt lat="44.19754" lon="1.89403">
        <ele>320.1</ele>
        <time>2019-03-10T10:55:08Z</time>
      </trkpt>
      <trkpt lat="44.19759" lon="1.8939">
        <ele>321.2</ele>
        <time>2019-03-10T10:55:12Z</time>
      </trkpt>
      <trkpt lat="44.19766" lon="1.89381">
        <ele>322.5</ele>
        <time>2019-03-10T10:55:16Z</time>
      </trkpt>
      <trkpt lat="44.19772" lon="1.89369">
        <ele>322.8</ele>
        <time>2019-03-10T10:55:20Z</time>
      </trkpt>
      <trkpt lat="44.19778" lon="1.89357">
        <ele>322.2</ele>
        <time>2019-03-10T10:55:24Z</time>
      </trkpt>
      <trkpt lat="44.19781" lon="1.89347">
        <ele>323.3</ele>
        <time>2019-03-10T10:55:28Z</time>
      </trkpt>
      <trkpt lat="44.19788" lon="1.89339">
        <ele>323.4</ele>
        <time>2019-03-10T10:55:32Z</time>
      </trkpt>
      <trkpt lat="44.19798" lon="1.8933">
        <ele>323.4</ele>
        <time>2019-03-10T10:55:36Z</time>
      </trkpt>
      <trkpt lat="44.19805" lon="1.89325">
        <ele>323.9</ele>
        <time>2019-03-10T10:55:40Z</time>
      </trkpt>
      <trkpt lat="44.19815" lon="1.89321">
        <ele>323.8</ele>
        <time>2019-03-10T10:55:44Z</time>
      </trkpt>
      <trkpt lat="44.19824" lon="1.89313">
        <ele>323.2</ele>
        <time>2019-03-10T10:55:48Z</time>
      </trkpt>
      <trkpt lat="44.19834" lon="1.89303">
        <ele>323.2</ele>
        <time>2019-03-10T10:55:52Z</time>
      </trkpt>
      <trkpt lat="44.1984" lon="1.89277">
        <ele>320.6</ele>
        <time>2019-03-10T10:55:56Z</time>
      </trkpt>
      <trkpt lat="44.19834" lon="1.89255">
        <ele>319.3</ele>
        <time>2019-03-10T10:56:00Z</time>
      </trkpt>
      <trkpt lat="44.19831" lon="1.89223">
        <ele>319.7</ele>
        <time>2019-03-10T10:56:04Z</time>
      </trkpt>
      <trkpt lat="44.19829" lon="1.89207">
        <ele>320.1</ele>
        <time>2019-03-10T10:56:08Z</time>
      </trkpt>
      <trkpt lat="44.1983" lon="1.89189">
        <ele>321.7</ele>
        <time>2019-03-10T10:56:12Z</time>
      </trkpt>
      <trkpt lat="44.19831" lon="1.89167">
        <ele>323</ele>
        <time>2019-03-10T10:56:16Z</time>
      </trkpt>
      <trkpt lat="44.19831" lon="1.89153">
        <ele>324.2</ele>
        <time>2019-03-10T10:56:20Z</time>
      </trkpt>
      <trkpt lat="44.19833" lon="1.89136">
        <ele>324.7</ele>
        <time>2019-03-10T10:56:24Z</time>
      </trkpt>
      <trkpt lat="44.19835" lon="1.89121">
        <ele>325.1</ele>
        <time>2019-03-10T10:56:28Z</time>
      </trkpt>
      <trkpt lat="44.19838" lon="1.89106">
        <ele>326.5</ele>
        <time>2019-03-10T10:56:32Z</time>
      </trkpt>
      <trkpt lat="44.19842" lon="1.89091">
        <ele>327.3</ele>
        <time>2019-03-10T10:56:36Z</time>
      </trkpt>
      <trkpt lat="44.19844" lon="1.8908">
        <ele>327.6</ele>
        <time>2019-03-10T10:56:40Z</time>
      </trkpt>
      <trkpt lat="44.19848" lon="1.89065">
        <ele>327.7</ele>
        <time>2019-03-10T10:56:44Z</time>
      </trkpt>
      <trkpt lat="44.19848" lon="1.89053">
        <ele>328</ele>
        <time>2019-03-10T10:56:48Z</time>
      </trkpt>
      <trkpt lat="44.19849" lon="1.89044">
        <ele>327.3</ele>
        <time>2019-03-10T10:56:52Z</time>
      </trkpt>
      <trkpt lat="44.19847" lon="1.89034">
        <ele>326.9</ele>
        <time>2019-03-10T10:56:56Z</time>
      </trkpt>
      <trkpt lat="44.19849" lon="1.89027">
        <ele>326.9</ele>
        <time>2019-03-10T10:57:00Z</time>
      </trkpt>
      <trkpt lat="44.1985" lon="1.89016">
        <ele>326.6</ele>
        <time>2019-03-10T10:57:04Z</time>
      </trkpt>
      <trkpt lat="44.1985" lon="1.89001">
        <ele>326.6</ele>
        <time>2019-03-10T10:57:08Z</time>
      </trkpt>
      <trkpt lat="44.19852" lon="1.88992">
        <ele>326.6</ele>
        <time>2019-03-10T10:57:12Z</time>
      </trkpt>
      <trkpt lat="44.19854" lon="1.8899">
        <ele>326.1</ele>
        <time>2019-03-10T10:57:16Z</time>
      </trkpt>
      <trkpt lat="44.19851" lon="1.88984">
        <ele>326.5</ele>
        <time>2019-03-10T10:57:20Z</time>
      </trkpt>
      <trkpt lat="44.19848" lon="1.88971">
        <ele>326.6</ele>
        <time>2019-03-10T10:57:24Z</time>
      </trkpt>
      <trkpt lat="44.1985" lon="1.88949">
        <ele>325.5</ele>
        <time>2019-03-10T10:57:28Z</time>
      </trkpt>
      <trkpt lat="44.19848" lon="1.88921">
        <ele>325.5</ele>
        <time>2019-03-10T10:57:32Z</time>
      </trkpt>
      <trkpt lat="44.19849" lon="1.88885">
        <ele>322.8</ele>
        <time>2019-03-10T10:57:36Z</time>
      </trkpt>
      <trkpt lat="44.19849" lon="1.88852">
        <ele>320.9</ele>
        <time>2019-03-10T10:57:40Z</time>
      </trkpt>
      <trkpt lat="44.1984" lon="1.88819">
        <ele>318.3</ele>
        <time>2019-03-10T10:57:44Z</time>
      </trkpt>
      <trkpt lat="44.19827" lon="1.88794">
        <ele>317.8</ele>
        <time>2019-03-10T10:57:48Z</time>
      </trkpt>
      <trkpt lat="44.19812" lon="1.88775">
        <ele>317.8</ele>
        <time>2019-03-10T10:57:52Z</time>
      </trkpt>
      <trkpt lat="44.19791" lon="1.8875">
        <ele>315</ele>
        <time>2019-03-10T10:57:56Z</time>
      </trkpt>
      <trkpt lat="44.19768" lon="1.88728">
        <ele>312.8</ele>
        <time>2019-03-10T10:58:00Z</time>
      </trkpt>
      <trkpt lat="44.19736" lon="1.88701">
        <ele>310</ele>
        <time>2019-03-10T10:58:04Z</time>
      </trkpt>
      <trkpt lat="44.19703" lon="1.8867">
        <ele>307.7</ele>
        <time>2019-03-10T10:58:08Z</time>
      </trkpt>
      <trkpt lat="44.19671" lon="1.88642">
        <ele>304.1</ele>
        <time>2019-03-10T10:58:12Z</time>
      </trkpt>
      <trkpt lat="44.19639" lon="1.88623">
        <ele>298.1</ele>
        <time>2019-03-10T10:58:16Z</time>
      </trkpt>
      <trkpt lat="44.19616" lon="1.88601">
        <ele>296.8</ele>
        <time>2019-03-10T10:58:20Z</time>
      </trkpt>
      <trkpt lat="44.19596" lon="1.88584">
        <ele>297.9</ele>
        <time>2019-03-10T10:58:24Z</time>
      </trkpt>
      <trkpt lat="44.19575" lon="1.8857">
        <ele>296.6</ele>
        <time>2019-03-10T10:58:28Z</time>
      </trkpt>
      <trkpt lat="44.19561" lon="1.88548">
        <ele>295.5</ele>
        <time>2019-03-10T10:58:32Z</time>
      </trkpt>
      <trkpt lat="44.19554" lon="1.88521">
        <ele>294.4</ele>
        <time>2019-03-10T10:58:36Z</time>
      </trkpt>
      <trkpt lat="44.1956" lon="1.88486">
        <ele>291.8</ele>
        <time>2019-03-10T10:58:40Z</time>
      </trkpt>
      <trkpt lat="44.19575" lon="1.88458">
        <ele>287.8</ele>
        <time>2019-03-10T10:58:44Z</time>
      </trkpt>
      <trkpt lat="44.19596" lon="1.88456">
        <ele>283.6</ele>
        <time>2019-03-10T10:58:48Z</time>
      </trkpt>
      <trkpt lat="44.19596" lon="1.88442">
        <ele>282.4</ele>
        <time>2019-03-10T10:58:52Z</time>
      </trkpt>
      <trkpt lat="44.19583" lon="1.88419">
        <ele>281</ele>
        <time>2019-03-10T10:58:56Z</time>
      </trkpt>
      <trkpt lat="44.19569" lon="1.88403">
        <ele>278.8</ele>
        <time>2019-03-10T10:59:00Z</time>
      </trkpt>
      <trkpt lat="44.19579" lon="1.884">
        <ele>276.9</ele>
        <time>2019-03-10T10:59:04Z</time>
      </trkpt>
      <trkpt lat="44.19584" lon="1.88399">
        <ele>274.9</ele>
        <time>2019-03-10T10:59:08Z</time>
      </trkpt>
      <trkpt lat="44.19581" lon="1.88387">
        <ele>274.8</ele>
        <time>2019-03-10T10:59:12Z</time>
      </trkpt>
      <trkpt lat="44.19574" lon="1.88368">
        <ele>274.8</ele>
        <time>2019-03-10T10:59:16Z</time>
      </trkpt>
      <trkpt lat="44.19583" lon="1.88338">
        <ele>271.2</ele>
        <time>2019-03-10T10:59:20Z</time>
      </trkpt>
      <trkpt lat="44.19597" lon="1.88292">
        <ele>264.4</ele>
        <time>2019-03-10T10:59:24Z</time>
      </trkpt>
      <trkpt lat="44.19588" lon="1.88256">
        <ele>258.3</ele>
        <time>2019-03-10T10:59:28Z</time>
      </trkpt>
      <trkpt lat="44.19589" lon="1.88223">
        <ele>257.1</ele>
        <time>2019-03-10T10:59:32Z</time>
      </trkpt>
      <trkpt lat="44.19593" lon="1.88191">
        <ele>255.9</ele>
        <time>2019-03-10T10:59:36Z</time>
      </trkpt>
      <trkpt lat="44.19601" lon="1.8816">
        <ele>255.1</ele>
        <time>2019-03-10T10:59:40Z</time>
      </trkpt>
      <trkpt lat="44.1961" lon="1.8813">
        <ele>255.1</ele>
        <time>2019-03-10T10:59:44Z</time>
      </trkpt>
      <trkpt lat="44.19621" lon="1.88102">
        <ele>253.9</ele>
        <time>2019-03-10T10:59:48Z</time>
      </trkpt>
      <trkpt lat="44.19637" lon="1.88075">
        <ele>251.5</ele>
        <time>2019-03-10T10:59:52Z</time>
      </trkpt>
      <trkpt lat="44.19647" lon="1.88065">
        <ele>249</ele>
        <time>2019-03-10T10:59:56Z</time>
      </trkpt>
      <trkpt lat="44.1965" lon="1.88062">
        <ele>248</ele>
        <time>2019-03-10T11:00:00Z</time>
      </trkpt>
      <trkpt lat="44.19653" lon="1.88058">
        <ele>248.1</ele>
        <time>2019-03-10T11:00:07Z</time>
      </trkpt>
      <trkpt lat="44.19652" lon="1.88048">
        <ele>249.3</ele>
        <time>2019-03-10T11:00:39Z</time>
      </trkpt>
      <trkpt lat="44.19651" lon="1.88042">
        <ele>249.6</ele>
        <time>2019-03-10T11:00:43Z</time>
      </trkpt>
      <trkpt lat="44.19646" lon="1.88036">
        <ele>250</ele>
        <time>2019-03-10T11:00:47Z</time>
      </trkpt>
      <trkpt lat="44.19634" lon="1.8803">
        <ele>250.4</ele>
        <time>2019-03-10T11:00:51Z</time>
      </trkpt>
      <trkpt lat="44.19625" lon="1.88023">
        <ele>250.8</ele>
        <time>2019-03-10T11:00:55Z</time>
      </trkpt>
      <trkpt lat="44.19612" lon="1.88025">
        <ele>251.3</ele>
        <time>2019-03-10T11:00:59Z</time>
      </trkpt>
      <trkpt lat="44.19598" lon="1.88024">
        <ele>252.5</ele>
        <time>2019-03-10T11:01:03Z</time>
      </trkpt>
      <trkpt lat="44.19587" lon="1.88031">
        <ele>253.5</ele>
        <time>2019-03-10T11:01:07Z</time>
      </trkpt>
      <trkpt lat="44.19572" lon="1.88052">
        <ele>251.1</ele>
        <time>2019-03-10T11:01:11Z</time>
      </trkpt>
      <trkpt lat="44.19561" lon="1.88094">
        <ele>248.7</ele>
        <time>2019-03-10T11:01:15Z</time>
      </trkpt>
      <trkpt lat="44.19551" lon="1.88139">
        <ele>246.2</ele>
        <time>2019-03-10T11:01:19Z</time>
      </trkpt>
      <trkpt lat="44.19532" lon="1.88187">
        <ele>242.8</ele>
        <time>2019-03-10T11:01:23Z</time>
      </trkpt>
      <trkpt lat="44.19514" lon="1.88235">
        <ele>236.8</ele>
        <time>2019-03-10T11:01:27Z</time>
      </trkpt>
      <trkpt lat="44.19488" lon="1.88268">
        <ele>231.1</ele>
        <time>2019-03-10T11:01:31Z</time>
      </trkpt>
      <trkpt lat="44.19456" lon="1.88307">
        <ele>227.4</ele>
        <time>2019-03-10T11:01:35Z</time>
      </trkpt>
      <trkpt lat="44.19427" lon="1.88345">
        <ele>222</ele>
        <time>2019-03-10T11:01:39Z</time>
      </trkpt>
      <trkpt lat="44.194" lon="1.88354">
        <ele>214.5</ele>
        <time>2019-03-10T11:01:43Z</time>
      </trkpt>
      <trkpt lat="44.19384" lon="1.88327">
        <ele>212.2</ele>
        <time>2019-03-10T11:01:47Z</time>
      </trkpt>
      <trkpt lat="44.19368" lon="1.88306">
        <ele>212.8</ele>
        <time>2019-03-10T11:01:51Z</time>
      </trkpt>
      <trkpt lat="44.19348" lon="1.88283">
        <ele>211.6</ele>
        <time>2019-03-10T11:01:55Z</time>
      </trkpt>
      <trkpt lat="44.19336" lon="1.88253">
        <ele>210.5</ele>
        <time>2019-03-10T11:01:59Z</time>
      </trkpt>
      <trkpt lat="44.19319" lon="1.88223">
        <ele>209.4</ele>
        <time>2019-03-10T11:02:03Z</time>
      </trkpt>
      <trkpt lat="44.19287" lon="1.88208">
        <ele>206.5</ele>
        <time>2019-03-10T11:02:07Z</time>
      </trkpt>
      <trkpt lat="44.19247" lon="1.88194">
        <ele>204.1</ele>
        <time>2019-03-10T11:02:11Z</time>
      </trkpt>
      <trkpt lat="44.19211" lon="1.88168">
        <ele>200.9</ele>
        <time>2019-03-10T11:02:15Z</time>
      </trkpt>
      <trkpt lat="44.19186" lon="1.88148">
        <ele>197.5</ele>
        <time>2019-03-10T11:02:19Z</time>
      </trkpt>
      <trkpt lat="44.1915" lon="1.88128">
        <ele>194.2</ele>
        <time>2019-03-10T11:02:23Z</time>
      </trkpt>
      <trkpt lat="44.19122" lon="1.88101">
        <ele>193</ele>
        <time>2019-03-10T11:02:27Z</time>
      </trkpt>
      <trkpt lat="44.19093" lon="1.88083">
        <ele>188.5</ele>
        <time>2019-03-10T11:02:31Z</time>
      </trkpt>
      <trkpt lat="44.19065" lon="1.88074">
        <ele>185.3</ele>
        <time>2019-03-10T11:02:35Z</time>
      </trkpt>
      <trkpt lat="44.19044" lon="1.88042">
        <ele>184.4</ele>
        <time>2019-03-10T11:02:39Z</time>
      </trkpt>
      <trkpt lat="44.19023" lon="1.88011">
        <ele>183.3</ele>
        <time>2019-03-10T11:02:43Z</time>
      </trkpt>
      <trkpt lat="44.19002" lon="1.87979">
        <ele>181.7</ele>
        <time>2019-03-10T11:02:47Z</time>
      </trkpt>
      <trkpt lat="44.18983" lon="1.87944">
        <ele>178.6</ele>
        <time>2019-03-10T11:02:51Z</time>
      </trkpt>
      <trkpt lat="44.18962" lon="1.87909">
        <ele>177</ele>
        <time>2019-03-10T11:02:55Z</time>
      </trkpt>
      <trkpt lat="44.1894" lon="1.87873">
        <ele>175.8</ele>
        <time>2019-03-10T11:02:59Z</time>
      </trkpt>
      <trkpt lat="44.18916" lon="1.8785">
        <ele>174.2</ele>
        <time>2019-03-10T11:03:03Z</time>
      </trkpt>
      <trkpt lat="44.18891" lon="1.8784">
        <ele>173.6</ele>
        <time>2019-03-10T11:03:07Z</time>
      </trkpt>
      <trkpt lat="44.18867" lon="1.87832">
        <ele>173.1</ele>
        <time>2019-03-10T11:03:11Z</time>
      </trkpt>
      <trkpt lat="44.18849" lon="1.87842">
        <ele>173</ele>
        <time>2019-03-10T11:03:15Z</time>
      </trkpt>
      <trkpt lat="44.18837" lon="1.87854">
        <ele>172.5</ele>
        <time>2019-03-10T11:03:19Z</time>
      </trkpt>
      <trkpt lat="44.18822" lon="1.87862">
        <ele>173.4</ele>
        <time>2019-03-10T11:03:23Z</time>
      </trkpt>
      <trkpt lat="44.18815" lon="1.87871">
        <ele>173.5</ele>
        <time>2019-03-10T11:03:27Z</time>
      </trkpt>
      <trkpt lat="44.18802" lon="1.87879">
        <ele>174.8</ele>
        <time>2019-03-10T11:03:31Z</time>
      </trkpt>
      <trkpt lat="44.18791" lon="1.87889">
        <ele>175.7</ele>
        <time>2019-03-10T11:03:35Z</time>
      </trkpt>
      <trkpt lat="44.18784" lon="1.87897">
        <ele>176.9</ele>
        <time>2019-03-10T11:03:39Z</time>
      </trkpt>
      <trkpt lat="44.18778" lon="1.87903">
        <ele>177.6</ele>
        <time>2019-03-10T11:03:43Z</time>
      </trkpt>
      <trkpt lat="44.18762" lon="1.87904">
        <ele>178.1</ele>
        <time>2019-03-10T11:03:47Z</time>
      </trkpt>
      <trkpt lat="44.18748" lon="1.87892">
        <ele>178.1</ele>
        <time>2019-03-10T11:03:51Z</time>
      </trkpt>
      <trkpt lat="44.18741" lon="1.87884">
        <ele>178.1</ele>
        <time>2019-03-10T11:03:55Z</time>
      </trkpt>
      <trkpt lat="44.18725" lon="1.87874">
        <ele>179.3</ele>
        <time>2019-03-10T11:03:59Z</time>
      </trkpt>
      <trkpt lat="44.18711" lon="1.87863">
        <ele>180.8</ele>
        <time>2019-03-10T11:04:03Z</time>
      </trkpt>
      <trkpt lat="44.18693" lon="1.87852">
        <ele>183.6</ele>
        <time>2019-03-10T11:04:07Z</time>
      </trkpt>
      <trkpt lat="44.18687" lon="1.87837">
        <ele>186.1</ele>
        <time>2019-03-10T11:04:11Z</time>
      </trkpt>
      <trkpt lat="44.18691" lon="1.87825">
        <ele>187.1</ele>
        <time>2019-03-10T11:04:15Z</time>
      </trkpt>
      <trkpt lat="44.18692" lon="1.87818">
        <ele>188.5</ele>
        <time>2019-03-10T11:04:19Z</time>
      </trkpt>
      <trkpt lat="44.18699" lon="1.87814">
        <ele>188.8</ele>
        <time>2019-03-10T11:04:23Z</time>
      </trkpt>
      <trkpt lat="44.18701" lon="1.87804">
        <ele>189.9</ele>
        <time>2019-03-10T11:04:27Z</time>
      </trkpt>
      <trkpt lat="44.18706" lon="1.87791">
        <ele>191.1</ele>
        <time>2019-03-10T11:04:31Z</time>
      </trkpt>
      <trkpt lat="44.18705" lon="1.87787">
        <ele>192</ele>
        <time>2019-03-10T11:04:35Z</time>
      </trkpt>
      <trkpt lat="44.18715" lon="1.87768">
        <ele>192.6</ele>
        <time>2019-03-10T11:04:39Z</time>
      </trkpt>
      <trkpt lat="44.18715" lon="1.87753">
        <ele>193.5</ele>
        <time>2019-03-10T11:04:43Z</time>
      </trkpt>
      <trkpt lat="44.18722" lon="1.87743">
        <ele>194.2</ele>
        <time>2019-03-10T11:04:47Z</time>
      </trkpt>
      <trkpt lat="44.18724" lon="1.87727">
        <ele>195</ele>
        <time>2019-03-10T11:04:51Z</time>
      </trkpt>
      <trkpt lat="44.18732" lon="1.87712">
        <ele>195.5</ele>
        <time>2019-03-10T11:04:55Z</time>
      </trkpt>
      <trkpt lat="44.18733" lon="1.87705">
        <ele>194.9</ele>
        <time>2019-03-10T11:04:59Z</time>
      </trkpt>
      <trkpt lat="44.18736" lon="1.87693">
        <ele>194.8</ele>
        <time>2019-03-10T11:05:03Z</time>
      </trkpt>
      <trkpt lat="44.18726" lon="1.87684">
        <ele>195.7</ele>
        <time>2019-03-10T11:05:07Z</time>
      </trkpt>
      <trkpt lat="44.18729" lon="1.87677">
        <ele>195.7</ele>
        <time>2019-03-10T11:05:11Z</time>
      </trkpt>
      <trkpt lat="44.18727" lon="1.87677">
        <ele>196.5</ele>
        <time>2019-03-10T11:05:15Z</time>
      </trkpt>
      <trkpt lat="44.18715" lon="1.87662">
        <ele>196</ele>
        <time>2019-03-10T11:05:19Z</time>
      </trkpt>
      <trkpt lat="44.18709" lon="1.87652">
        <ele>196</ele>
        <time>2019-03-10T11:05:23Z</time>
      </trkpt>
      <trkpt lat="44.18711" lon="1.87644">
        <ele>195.1</ele>
        <time>2019-03-10T11:05:27Z</time>
      </trkpt>
      <trkpt lat="44.18706" lon="1.87641">
        <ele>194.3</ele>
        <time>2019-03-10T11:05:35Z</time>
      </trkpt>
      <trkpt lat="44.18724" lon="1.8765">
        <ele>194.6</ele>
        <time>2019-03-10T11:06:31Z</time>
      </trkpt>
      <trkpt lat="44.18727" lon="1.87654">
        <ele>194.6</ele>
        <time>2019-03-10T11:06:35Z</time>
      </trkpt>
      <trkpt lat="44.18685" lon="1.87635">
        <ele>194.8</ele>
        <time>2019-03-10T11:09:27Z</time>
      </trkpt>
      <trkpt lat="44.18688" lon="1.87635">
        <ele>194.9</ele>
        <time>2019-03-10T11:09:31Z</time>
      </trkpt>
      <trkpt lat="44.18687" lon="1.87633">
        <ele>194.9</ele>
        <time>2019-03-10T11:09:35Z</time>
      </trkpt>
      <trkpt lat="44.18685" lon="1.87631">
        <ele>194.9</ele>
        <time>2019-03-10T11:09:39Z</time>
      </trkpt>
      <trkpt lat="44.18675" lon="1.87629">
        <ele>194.9</ele>
        <time>2019-03-10T11:11:11Z</time>
      </trkpt>
      <trkpt lat="44.1868" lon="1.87634">
        <ele>194.9</ele>
        <time>2019-03-10T11:11:15Z</time>
      </trkpt>
      <trkpt lat="44.18684" lon="1.87638">
        <ele>195</ele>
        <time>2019-03-10T11:11:19Z</time>
      </trkpt>
      <trkpt lat="44.18679" lon="1.8764">
        <ele>194.9</ele>
        <time>2019-03-10T11:11:35Z</time>
      </trkpt>
      <trkpt lat="44.18685" lon="1.87645">
        <ele>195</ele>
        <time>2019-03-10T11:11:39Z</time>
      </trkpt>
      <trkpt lat="44.18716" lon="1.8764">
        <ele>194.8</ele>
        <time>2019-03-10T11:12:35Z</time>
      </trkpt>
      <trkpt lat="44.18718" lon="1.8763">
        <ele>194.9</ele>
        <time>2019-03-10T11:12:39Z</time>
      </trkpt>
      <trkpt lat="44.18707" lon="1.87614">
        <ele>194.4</ele>
        <time>2019-03-10T11:12:43Z</time>
      </trkpt>
      <trkpt lat="44.18703" lon="1.87599">
        <ele>193.8</ele>
        <time>2019-03-10T11:12:47Z</time>
      </trkpt>
      <trkpt lat="44.18702" lon="1.87593">
        <ele>193.4</ele>
        <time>2019-03-10T11:12:51Z</time>
      </trkpt>
      <trkpt lat="44.18705" lon="1.87587">
        <ele>193.3</ele>
        <time>2019-03-10T11:12:55Z</time>
      </trkpt>
      <trkpt lat="44.18706" lon="1.87573">
        <ele>193</ele>
        <time>2019-03-10T11:12:59Z</time>
      </trkpt>
      <trkpt lat="44.18715" lon="1.8756">
        <ele>192.6</ele>
        <time>2019-03-10T11:13:03Z</time>
      </trkpt>
      <trkpt lat="44.18724" lon="1.87533">
        <ele>191.8</ele>
        <time>2019-03-10T11:13:07Z</time>
      </trkpt>
      <trkpt lat="44.1872" lon="1.87498">
        <ele>189.3</ele>
        <time>2019-03-10T11:13:11Z</time>
      </trkpt>
      <trkpt lat="44.18725" lon="1.8749">
        <ele>186.7</ele>
        <time>2019-03-10T11:13:15Z</time>
      </trkpt>
      <trkpt lat="44.18738" lon="1.8748">
        <ele>185.9</ele>
        <time>2019-03-10T11:13:19Z</time>
      </trkpt>
      <trkpt lat="44.18745" lon="1.87469">
        <ele>184.1</ele>
        <time>2019-03-10T11:13:23Z</time>
      </trkpt>
      <trkpt lat="44.1875" lon="1.87467">
        <ele>181.1</ele>
        <time>2019-03-10T11:13:27Z</time>
      </trkpt>
      <trkpt lat="44.18749" lon="1.87462">
        <ele>180.7</ele>
        <time>2019-03-10T11:13:34Z</time>
      </trkpt>
      <trkpt lat="44.18769" lon="1.87471">
        <ele>180.8</ele>
        <time>2019-03-10T11:13:42Z</time>
      </trkpt>
      <trkpt lat="44.18791" lon="1.87485">
        <ele>178.4</ele>
        <time>2019-03-10T11:13:46Z</time>
      </trkpt>
      <trkpt lat="44.18804" lon="1.87491">
        <ele>175.9</ele>
        <time>2019-03-10T11:13:50Z</time>
      </trkpt>
      <trkpt lat="44.18817" lon="1.87474">
        <ele>174.8</ele>
        <time>2019-03-10T11:13:54Z</time>
      </trkpt>
      <trkpt lat="44.18835" lon="1.87434">
        <ele>173.3</ele>
        <time>2019-03-10T11:13:58Z</time>
      </trkpt>
      <trkpt lat="44.18854" lon="1.87391">
        <ele>169.9</ele>
        <time>2019-03-10T11:14:02Z</time>
      </trkpt>
      <trkpt lat="44.18851" lon="1.8735">
        <ele>164.5</ele>
        <time>2019-03-10T11:14:06Z</time>
      </trkpt>
      <trkpt lat="44.18846" lon="1.87316">
        <ele>160.1</ele>
        <time>2019-03-10T11:14:10Z</time>
      </trkpt>
      <trkpt lat="44.18866" lon="1.87296">
        <ele>159</ele>
        <time>2019-03-10T11:14:14Z</time>
      </trkpt>
      <trkpt lat="44.18878" lon="1.87285">
        <ele>159.2</ele>
        <time>2019-03-10T11:14:18Z</time>
      </trkpt>
      <trkpt lat="44.18888" lon="1.87275">
        <ele>158.6</ele>
        <time>2019-03-10T11:14:22Z</time>
      </trkpt>
      <trkpt lat="44.189" lon="1.87259">
        <ele>158.6</ele>
        <time>2019-03-10T11:14:26Z</time>
      </trkpt>
      <trkpt lat="44.18914" lon="1.87243">
        <ele>158.5</ele>
        <time>2019-03-10T11:14:30Z</time>
      </trkpt>
      <trkpt lat="44.18936" lon="1.87228">
        <ele>158.5</ele>
        <time>2019-03-10T11:14:34Z</time>
      </trkpt>
      <trkpt lat="44.18956" lon="1.87221">
        <ele>159</ele>
        <time>2019-03-10T11:14:38Z</time>
      </trkpt>
      <trkpt lat="44.18979" lon="1.87221">
        <ele>158.1</ele>
        <time>2019-03-10T11:14:42Z</time>
      </trkpt>
      <trkpt lat="44.18988" lon="1.87238">
        <ele>157.8</ele>
        <time>2019-03-10T11:14:46Z</time>
      </trkpt>
      <trkpt lat="44.18993" lon="1.87268">
        <ele>158.9</ele>
        <time>2019-03-10T11:14:50Z</time>
      </trkpt>
      <trkpt lat="44.18991" lon="1.87292">
        <ele>159.1</ele>
        <time>2019-03-10T11:14:54Z</time>
      </trkpt>
      <trkpt lat="44.18985" lon="1.87312">
        <ele>159.3</ele>
        <time>2019-03-10T11:14:58Z</time>
      </trkpt>
      <trkpt lat="44.18982" lon="1.87341">
        <ele>159.3</ele>
        <time>2019-03-10T11:15:02Z</time>
      </trkpt>
      <trkpt lat="44.18985" lon="1.87363">
        <ele>160</ele>
        <time>2019-03-10T11:15:06Z</time>
      </trkpt>
      <trkpt lat="44.18992" lon="1.87378">
        <ele>160.9</ele>
        <time>2019-03-10T11:15:10Z</time>
      </trkpt>
      <trkpt lat="44.19012" lon="1.87396">
        <ele>162.1</ele>
        <time>2019-03-10T11:15:14Z</time>
      </trkpt>
      <trkpt lat="44.19025" lon="1.87413">
        <ele>162.7</ele>
        <time>2019-03-10T11:15:18Z</time>
      </trkpt>
      <trkpt lat="44.19036" lon="1.87426">
        <ele>163.7</ele>
        <time>2019-03-10T11:15:22Z</time>
      </trkpt>
      <trkpt lat="44.19043" lon="1.8744">
        <ele>164.7</ele>
        <time>2019-03-10T11:15:26Z</time>
      </trkpt>
      <trkpt lat="44.19055" lon="1.87438">
        <ele>165.5</ele>
        <time>2019-03-10T11:15:30Z</time>
      </trkpt>
      <trkpt lat="44.19067" lon="1.87426">
        <ele>165.6</ele>
        <time>2019-03-10T11:15:34Z</time>
      </trkpt>
      <trkpt lat="44.19082" lon="1.87408">
        <ele>165.1</ele>
        <time>2019-03-10T11:15:38Z</time>
      </trkpt>
      <trkpt lat="44.19093" lon="1.87391">
        <ele>165.3</ele>
        <time>2019-03-10T11:15:42Z</time>
      </trkpt>
      <trkpt lat="44.19112" lon="1.87373">
        <ele>163.9</ele>
        <time>2019-03-10T11:15:46Z</time>
      </trkpt>
      <trkpt lat="44.19126" lon="1.87356">
        <ele>163.9</ele>
        <time>2019-03-10T11:15:50Z</time>
      </trkpt>
      <trkpt lat="44.19141" lon="1.87335">
        <ele>161.1</ele>
        <time>2019-03-10T11:15:54Z</time>
      </trkpt>
      <trkpt lat="44.19157" lon="1.8732">
        <ele>161</ele>
        <time>2019-03-10T11:15:58Z</time>
      </trkpt>
      <trkpt lat="44.19169" lon="1.87301">
        <ele>162</ele>
        <time>2019-03-10T11:16:02Z</time>
      </trkpt>
      <trkpt lat="44.19182" lon="1.87291">
        <ele>161.7</ele>
        <time>2019-03-10T11:16:06Z</time>
      </trkpt>
      <trkpt lat="44.19202" lon="1.87277">
        <ele>162.2</ele>
        <time>2019-03-10T11:16:10Z</time>
      </trkpt>
      <trkpt lat="44.1922" lon="1.87259">
        <ele>163</ele>
        <time>2019-03-10T11:16:14Z</time>
      </trkpt>
      <trkpt lat="44.19237" lon="1.87241">
        <ele>163.5</ele>
        <time>2019-03-10T11:16:18Z</time>
      </trkpt>
      <trkpt lat="44.19256" lon="1.87236">
        <ele>163.9</ele>
        <time>2019-03-10T11:16:22Z</time>
      </trkpt>
      <trkpt lat="44.19273" lon="1.87221">
        <ele>163.9</ele>
        <time>2019-03-10T11:16:26Z</time>
      </trkpt>
      <trkpt lat="44.19288" lon="1.87206">
        <ele>164.8</ele>
        <time>2019-03-10T11:16:30Z</time>
      </trkpt>
      <trkpt lat="44.19305" lon="1.87198">
        <ele>164.1</ele>
        <time>2019-03-10T11:16:34Z</time>
      </trkpt>
      <trkpt lat="44.19325" lon="1.87172">
        <ele>164.6</ele>
        <time>2019-03-10T11:16:38Z</time>
      </trkpt>
      <trkpt lat="44.19342" lon="1.8717">
        <ele>164.4</ele>
        <time>2019-03-10T11:16:42Z</time>
      </trkpt>
      <trkpt lat="44.19366" lon="1.87157">
        <ele>165.1</ele>
        <time>2019-03-10T11:16:46Z</time>
      </trkpt>
      <trkpt lat="44.19383" lon="1.87147">
        <ele>166</ele>
        <time>2019-03-10T11:16:50Z</time>
      </trkpt>
      <trkpt lat="44.19396" lon="1.87132">
        <ele>166.5</ele>
        <time>2019-03-10T11:16:54Z</time>
      </trkpt>
      <trkpt lat="44.19408" lon="1.87125">
        <ele>166.7</ele>
        <time>2019-03-10T11:16:58Z</time>
      </trkpt>
      <trkpt lat="44.19426" lon="1.87112">
        <ele>167</ele>
        <time>2019-03-10T11:17:02Z</time>
      </trkpt>
      <trkpt lat="44.19442" lon="1.87092">
        <ele>167</ele>
        <time>2019-03-10T11:17:06Z</time>
      </trkpt>
      <trkpt lat="44.19452" lon="1.8707">
        <ele>165.8</ele>
        <time>2019-03-10T11:17:10Z</time>
      </trkpt>
      <trkpt lat="44.19459" lon="1.87044">
        <ele>165.3</ele>
        <time>2019-03-10T11:17:14Z</time>
      </trkpt>
      <trkpt lat="44.19469" lon="1.87024">
        <ele>165.3</ele>
        <time>2019-03-10T11:17:18Z</time>
      </trkpt>
      <trkpt lat="44.19466" lon="1.86998">
        <ele>164.1</ele>
        <time>2019-03-10T11:17:22Z</time>
      </trkpt>
      <trkpt lat="44.19449" lon="1.86985">
        <ele>163.8</ele>
        <time>2019-03-10T11:17:26Z</time>
      </trkpt>
      <trkpt lat="44.19428" lon="1.86968">
        <ele>163</ele>
        <time>2019-03-10T11:17:30Z</time>
      </trkpt>
      <trkpt lat="44.1942" lon="1.86946">
        <ele>163.2</ele>
        <time>2019-03-10T11:17:34Z</time>
      </trkpt>
      <trkpt lat="44.19396" lon="1.86921">
        <ele>163.3</ele>
        <time>2019-03-10T11:17:38Z</time>
      </trkpt>
      <trkpt lat="44.19379" lon="1.86892">
        <ele>162.3</ele>
        <time>2019-03-10T11:17:42Z</time>
      </trkpt>
      <trkpt lat="44.19371" lon="1.86865">
        <ele>162.3</ele>
        <time>2019-03-10T11:17:46Z</time>
      </trkpt>
      <trkpt lat="44.19365" lon="1.86833">
        <ele>162.3</ele>
        <time>2019-03-10T11:17:50Z</time>
      </trkpt>
      <trkpt lat="44.19365" lon="1.86808">
        <ele>161.8</ele>
        <time>2019-03-10T11:17:54Z</time>
      </trkpt>
      <trkpt lat="44.19357" lon="1.86786">
        <ele>161</ele>
        <time>2019-03-10T11:17:58Z</time>
      </trkpt>
      <trkpt lat="44.19361" lon="1.86773">
        <ele>160.8</ele>
        <time>2019-03-10T11:18:02Z</time>
      </trkpt>
      <trkpt lat="44.19363" lon="1.86757">
        <ele>161.9</ele>
        <time>2019-03-10T11:18:06Z</time>
      </trkpt>
      <trkpt lat="44.19352" lon="1.86732">
        <ele>162.4</ele>
        <time>2019-03-10T11:18:10Z</time>
      </trkpt>
      <trkpt lat="44.1934" lon="1.86707">
        <ele>163.4</ele>
        <time>2019-03-10T11:18:14Z</time>
      </trkpt>
      <trkpt lat="44.1934" lon="1.8668">
        <ele>163.7</ele>
        <time>2019-03-10T11:18:18Z</time>
      </trkpt>
      <trkpt lat="44.19343" lon="1.86657">
        <ele>164.1</ele>
        <time>2019-03-10T11:18:22Z</time>
      </trkpt>
      <trkpt lat="44.1934" lon="1.86634">
        <ele>164.6</ele>
        <time>2019-03-10T11:18:26Z</time>
      </trkpt>
      <trkpt lat="44.19336" lon="1.86612">
        <ele>165.1</ele>
        <time>2019-03-10T11:18:30Z</time>
      </trkpt>
      <trkpt lat="44.1934" lon="1.86591">
        <ele>165.8</ele>
        <time>2019-03-10T11:18:34Z</time>
      </trkpt>
      <trkpt lat="44.19347" lon="1.86568">
        <ele>166.1</ele>
        <time>2019-03-10T11:18:38Z</time>
      </trkpt>
      <trkpt lat="44.19365" lon="1.86557">
        <ele>166.2</ele>
        <time>2019-03-10T11:18:42Z</time>
      </trkpt>
      <trkpt lat="44.1938" lon="1.86552">
        <ele>167.1</ele>
        <time>2019-03-10T11:18:46Z</time>
      </trkpt>
      <trkpt lat="44.19386" lon="1.86537">
        <ele>167.8</ele>
        <time>2019-03-10T11:18:50Z</time>
      </trkpt>
      <trkpt lat="44.19374" lon="1.86524">
        <ele>168.9</ele>
        <time>2019-03-10T11:18:54Z</time>
      </trkpt>
      <trkpt lat="44.19362" lon="1.86507">
        <ele>170.5</ele>
        <time>2019-03-10T11:18:58Z</time>
      </trkpt>
      <trkpt lat="44.19367" lon="1.86492">
        <ele>172.2</ele>
        <time>2019-03-10T11:19:02Z</time>
      </trkpt>
      <trkpt lat="44.19372" lon="1.86474">
        <ele>173.6</ele>
        <time>2019-03-10T11:19:06Z</time>
      </trkpt>
      <trkpt lat="44.19373" lon="1.86461">
        <ele>174.6</ele>
        <time>2019-03-10T11:19:10Z</time>
      </trkpt>
      <trkpt lat="44.19375" lon="1.86445">
        <ele>175.7</ele>
        <time>2019-03-10T11:19:14Z</time>
      </trkpt>
      <trkpt lat="44.19375" lon="1.86425">
        <ele>176.1</ele>
        <time>2019-03-10T11:19:18Z</time>
      </trkpt>
      <trkpt lat="44.19381" lon="1.86414">
        <ele>176.4</ele>
        <time>2019-03-10T11:19:22Z</time>
      </trkpt>
      <trkpt lat="44.19389" lon="1.86402">
        <ele>176.4</ele>
        <time>2019-03-10T11:19:26Z</time>
      </trkpt>
      <trkpt lat="44.1939" lon="1.86386">
        <ele>178.8</ele>
        <time>2019-03-10T11:19:30Z</time>
      </trkpt>
      <trkpt lat="44.1939" lon="1.86373">
        <ele>180</ele>
        <time>2019-03-10T11:19:34Z</time>
      </trkpt>
      <trkpt lat="44.19392" lon="1.86362">
        <ele>181.2</ele>
        <time>2019-03-10T11:19:38Z</time>
      </trkpt>
      <trkpt lat="44.19388" lon="1.86353">
        <ele>182</ele>
        <time>2019-03-10T11:19:42Z</time>
      </trkpt>
      <trkpt lat="44.19379" lon="1.86345">
        <ele>182.9</ele>
        <time>2019-03-10T11:19:46Z</time>
      </trkpt>
      <trkpt lat="44.19377" lon="1.86335">
        <ele>183.5</ele>
        <time>2019-03-10T11:19:50Z</time>
      </trkpt>
      <trkpt lat="44.19365" lon="1.86326">
        <ele>183.5</ele>
        <time>2019-03-10T11:19:54Z</time>
      </trkpt>
      <trkpt lat="44.19353" lon="1.8631">
        <ele>183.2</ele>
        <time>2019-03-10T11:19:58Z</time>
      </trkpt>
      <trkpt lat="44.19341" lon="1.86301">
        <ele>182.7</ele>
        <time>2019-03-10T11:20:02Z</time>
      </trkpt>
      <trkpt lat="44.19327" lon="1.86294">
        <ele>182.7</ele>
        <time>2019-03-10T11:20:06Z</time>
      </trkpt>
      <trkpt lat="44.19303" lon="1.8628">
        <ele>180.7</ele>
        <time>2019-03-10T11:20:10Z</time>
      </trkpt>
      <trkpt lat="44.19282" lon="1.86259">
        <ele>180.7</ele>
        <time>2019-03-10T11:20:14Z</time>
      </trkpt>
      <trkpt lat="44.19269" lon="1.86238">
        <ele>180.7</ele>
        <time>2019-03-10T11:20:18Z</time>
      </trkpt>
      <trkpt lat="44.19259" lon="1.86215">
        <ele>179.9</ele>
        <time>2019-03-10T11:20:22Z</time>
      </trkpt>
      <trkpt lat="44.19247" lon="1.86198">
        <ele>181</ele>
        <time>2019-03-10T11:20:26Z</time>
      </trkpt>
      <trkpt lat="44.19237" lon="1.86181">
        <ele>181.7</ele>
        <time>2019-03-10T11:20:30Z</time>
      </trkpt>
      <trkpt lat="44.19234" lon="1.86169">
        <ele>181.8</ele>
        <time>2019-03-10T11:20:34Z</time>
      </trkpt>
      <trkpt lat="44.19227" lon="1.86152">
        <ele>181.8</ele>
        <time>2019-03-10T11:20:38Z</time>
      </trkpt>
      <trkpt lat="44.19221" lon="1.86142">
        <ele>182.7</ele>
        <time>2019-03-10T11:20:42Z</time>
      </trkpt>
      <trkpt lat="44.19213" lon="1.86127">
        <ele>183.3</ele>
        <time>2019-03-10T11:20:46Z</time>
      </trkpt>
      <trkpt lat="44.19205" lon="1.8611">
        <ele>183.7</ele>
        <time>2019-03-10T11:20:50Z</time>
      </trkpt>
      <trkpt lat="44.19202" lon="1.86096">
        <ele>184.7</ele>
        <time>2019-03-10T11:20:54Z</time>
      </trkpt>
      <trkpt lat="44.19196" lon="1.86083">
        <ele>185.5</ele>
        <time>2019-03-10T11:20:58Z</time>
      </trkpt>
      <trkpt lat="44.1919" lon="1.86067">
        <ele>186.4</ele>
        <time>2019-03-10T11:21:02Z</time>
      </trkpt>
      <trkpt lat="44.19188" lon="1.86052">
        <ele>186.8</ele>
        <time>2019-03-10T11:21:06Z</time>
      </trkpt>
      <trkpt lat="44.19185" lon="1.86038">
        <ele>186.8</ele>
        <time>2019-03-10T11:21:10Z</time>
      </trkpt>
      <trkpt lat="44.19182" lon="1.86025">
        <ele>188.1</ele>
        <time>2019-03-10T11:21:14Z</time>
      </trkpt>
      <trkpt lat="44.19182" lon="1.86012">
        <ele>188.2</ele>
        <time>2019-03-10T11:21:18Z</time>
      </trkpt>
      <trkpt lat="44.19173" lon="1.85997">
        <ele>189</ele>
        <time>2019-03-10T11:21:22Z</time>
      </trkpt>
      <trkpt lat="44.19172" lon="1.85986">
        <ele>189</ele>
        <time>2019-03-10T11:21:26Z</time>
      </trkpt>
      <trkpt lat="44.19169" lon="1.8597">
        <ele>190.4</ele>
        <time>2019-03-10T11:21:30Z</time>
      </trkpt>
      <trkpt lat="44.19162" lon="1.85959">
        <ele>190.9</ele>
        <time>2019-03-10T11:21:34Z</time>
      </trkpt>
      <trkpt lat="44.1916" lon="1.85947">
        <ele>191.7</ele>
        <time>2019-03-10T11:21:38Z</time>
      </trkpt>
      <trkpt lat="44.19155" lon="1.85929">
        <ele>191.7</ele>
        <time>2019-03-10T11:21:42Z</time>
      </trkpt>
      <trkpt lat="44.1915" lon="1.85914">
        <ele>192.2</ele>
        <time>2019-03-10T11:21:46Z</time>
      </trkpt>
      <trkpt lat="44.19149" lon="1.859">
        <ele>193.4</ele>
        <time>2019-03-10T11:21:50Z</time>
      </trkpt>
      <trkpt lat="44.19151" lon="1.85889">
        <ele>193.5</ele>
        <time>2019-03-10T11:21:54Z</time>
      </trkpt>
      <trkpt lat="44.19146" lon="1.85878">
        <ele>194.2</ele>
        <time>2019-03-10T11:21:58Z</time>
      </trkpt>
      <trkpt lat="44.19142" lon="1.85861">
        <ele>194.6</ele>
        <time>2019-03-10T11:22:02Z</time>
      </trkpt>
      <trkpt lat="44.19135" lon="1.8585">
        <ele>195.5</ele>
        <time>2019-03-10T11:22:06Z</time>
      </trkpt>
      <trkpt lat="44.19129" lon="1.85845">
        <ele>196.9</ele>
        <time>2019-03-10T11:22:10Z</time>
      </trkpt>
      <trkpt lat="44.19126" lon="1.85844">
        <ele>197.4</ele>
        <time>2019-03-10T11:22:14Z</time>
      </trkpt>
      <trkpt lat="44.19112" lon="1.85841">
        <ele>198.2</ele>
        <time>2019-03-10T11:22:18Z</time>
      </trkpt>
      <trkpt lat="44.19103" lon="1.85832">
        <ele>199.5</ele>
        <time>2019-03-10T11:22:22Z</time>
      </trkpt>
      <trkpt lat="44.19093" lon="1.85831">
        <ele>200.4</ele>
        <time>2019-03-10T11:22:26Z</time>
      </trkpt>
      <trkpt lat="44.19085" lon="1.85829">
        <ele>200.6</ele>
        <time>2019-03-10T11:22:30Z</time>
      </trkpt>
      <trkpt lat="44.19075" lon="1.85824">
        <ele>200.9</ele>
        <time>2019-03-10T11:22:34Z</time>
      </trkpt>
      <trkpt lat="44.19067" lon="1.85817">
        <ele>200.9</ele>
        <time>2019-03-10T11:22:38Z</time>
      </trkpt>
      <trkpt lat="44.19057" lon="1.85814">
        <ele>202.5</ele>
        <time>2019-03-10T11:22:42Z</time>
      </trkpt>
      <trkpt lat="44.19048" lon="1.85812">
        <ele>204</ele>
        <time>2019-03-10T11:22:46Z</time>
      </trkpt>
      <trkpt lat="44.19043" lon="1.85811">
        <ele>204.5</ele>
        <time>2019-03-10T11:22:50Z</time>
      </trkpt>
      <trkpt lat="44.19031" lon="1.85804">
        <ele>205</ele>
        <time>2019-03-10T11:22:54Z</time>
      </trkpt>
      <trkpt lat="44.19023" lon="1.85799">
        <ele>205.6</ele>
        <time>2019-03-10T11:22:58Z</time>
      </trkpt>
      <trkpt lat="44.19016" lon="1.85791">
        <ele>206.6</ele>
        <time>2019-03-10T11:23:02Z</time>
      </trkpt>
      <trkpt lat="44.19013" lon="1.85781">
        <ele>207.5</ele>
        <time>2019-03-10T11:23:06Z</time>
      </trkpt>
      <trkpt lat="44.19014" lon="1.85774">
        <ele>208.2</ele>
        <time>2019-03-10T11:23:10Z</time>
      </trkpt>
      <trkpt lat="44.19012" lon="1.85763">
        <ele>209.7</ele>
        <time>2019-03-10T11:23:14Z</time>
      </trkpt>
      <trkpt lat="44.19012" lon="1.85754">
        <ele>210.1</ele>
        <time>2019-03-10T11:23:18Z</time>
      </trkpt>
      <trkpt lat="44.19011" lon="1.85744">
        <ele>211.8</ele>
        <time>2019-03-10T11:23:22Z</time>
      </trkpt>
      <trkpt lat="44.19013" lon="1.85735">
        <ele>212.7</ele>
        <time>2019-03-10T11:23:26Z</time>
      </trkpt>
      <trkpt lat="44.19014" lon="1.85728">
        <ele>213.3</ele>
        <time>2019-03-10T11:23:30Z</time>
      </trkpt>
      <trkpt lat="44.19019" lon="1.85726">
        <ele>213.5</ele>
        <time>2019-03-10T11:23:34Z</time>
      </trkpt>
      <trkpt lat="44.19019" lon="1.85717">
        <ele>214.5</ele>
        <time>2019-03-10T11:23:38Z</time>
      </trkpt>
      <trkpt lat="44.19021" lon="1.85706">
        <ele>215.7</ele>
        <time>2019-03-10T11:23:42Z</time>
      </trkpt>
      <trkpt lat="44.19025" lon="1.85702">
        <ele>216.7</ele>
        <time>2019-03-10T11:23:46Z</time>
      </trkpt>
      <trkpt lat="44.19027" lon="1.85697">
        <ele>216.7</ele>
        <time>2019-03-10T11:23:50Z</time>
      </trkpt>
      <trkpt lat="44.19031" lon="1.8569">
        <ele>218.1</ele>
        <time>2019-03-10T11:23:54Z</time>
      </trkpt>
      <trkpt lat="44.19032" lon="1.85687">
        <ele>219.3</ele>
        <time>2019-03-10T11:23:58Z</time>
      </trkpt>
      <trkpt lat="44.19037" lon="1.85676">
        <ele>220.1</ele>
        <time>2019-03-10T11:24:02Z</time>
      </trkpt>
      <trkpt lat="44.19041" lon="1.85664">
        <ele>221.1</ele>
        <time>2019-03-10T11:24:06Z</time>
      </trkpt>
      <trkpt lat="44.19041" lon="1.85655">
        <ele>222.2</ele>
        <time>2019-03-10T11:24:10Z</time>
      </trkpt>
      <trkpt lat="44.19041" lon="1.85645">
        <ele>223.2</ele>
        <time>2019-03-10T11:24:14Z</time>
      </trkpt>
      <trkpt lat="44.1904" lon="1.85639">
        <ele>224.5</ele>
        <time>2019-03-10T11:24:18Z</time>
      </trkpt>
      <trkpt lat="44.19047" lon="1.85632">
        <ele>224.7</ele>
        <time>2019-03-10T11:24:22Z</time>
      </trkpt>
      <trkpt lat="44.19048" lon="1.85628">
        <ele>226.3</ele>
        <time>2019-03-10T11:24:26Z</time>
      </trkpt>
      <trkpt lat="44.19055" lon="1.85619">
        <ele>227.4</ele>
        <time>2019-03-10T11:24:30Z</time>
      </trkpt>
      <trkpt lat="44.19055" lon="1.8561">
        <ele>228.5</ele>
        <time>2019-03-10T11:24:34Z</time>
      </trkpt>
      <trkpt lat="44.19063" lon="1.85606">
        <ele>229.1</ele>
        <time>2019-03-10T11:24:38Z</time>
      </trkpt>
      <trkpt lat="44.19066" lon="1.85591">
        <ele>229.1</ele>
        <time>2019-03-10T11:24:42Z</time>
      </trkpt>
      <trkpt lat="44.19067" lon="1.85579">
        <ele>230.4</ele>
        <time>2019-03-10T11:24:46Z</time>
      </trkpt>
      <trkpt lat="44.19067" lon="1.85567">
        <ele>231.4</ele>
        <time>2019-03-10T11:24:50Z</time>
      </trkpt>
      <trkpt lat="44.19075" lon="1.85561">
        <ele>231.7</ele>
        <time>2019-03-10T11:24:54Z</time>
      </trkpt>
      <trkpt lat="44.19084" lon="1.85554">
        <ele>232.3</ele>
        <time>2019-03-10T11:24:58Z</time>
      </trkpt>
      <trkpt lat="44.19089" lon="1.85546">
        <ele>232.9</ele>
        <time>2019-03-10T11:25:02Z</time>
      </trkpt>
      <trkpt lat="44.1909" lon="1.85537">
        <ele>233.9</ele>
        <time>2019-03-10T11:25:06Z</time>
      </trkpt>
      <trkpt lat="44.19093" lon="1.85528">
        <ele>234</ele>
        <time>2019-03-10T11:25:10Z</time>
      </trkpt>
      <trkpt lat="44.19093" lon="1.85516">
        <ele>235.1</ele>
        <time>2019-03-10T11:25:14Z</time>
      </trkpt>
      <trkpt lat="44.19093" lon="1.85502">
        <ele>235.7</ele>
        <time>2019-03-10T11:25:18Z</time>
      </trkpt>
      <trkpt lat="44.19089" lon="1.85491">
        <ele>236.7</ele>
        <time>2019-03-10T11:25:22Z</time>
      </trkpt>
      <trkpt lat="44.19096" lon="1.85483">
        <ele>237.2</ele>
        <time>2019-03-10T11:25:26Z</time>
      </trkpt>
      <trkpt lat="44.19104" lon="1.85477">
        <ele>237.8</ele>
        <time>2019-03-10T11:25:30Z</time>
      </trkpt>
      <trkpt lat="44.19104" lon="1.85466">
        <ele>237.8</ele>
        <time>2019-03-10T11:25:34Z</time>
      </trkpt>
      <trkpt lat="44.19106" lon="1.85458">
        <ele>239.2</ele>
        <time>2019-03-10T11:25:38Z</time>
      </trkpt>
      <trkpt lat="44.19108" lon="1.85446">
        <ele>240</ele>
        <time>2019-03-10T11:25:42Z</time>
      </trkpt>
      <trkpt lat="44.19108" lon="1.85433">
        <ele>240.6</ele>
        <time>2019-03-10T11:25:46Z</time>
      </trkpt>
      <trkpt lat="44.1911" lon="1.85422">
        <ele>241</ele>
        <time>2019-03-10T11:25:50Z</time>
      </trkpt>
      <trkpt lat="44.19114" lon="1.85414">
        <ele>241.3</ele>
        <time>2019-03-10T11:25:54Z</time>
      </trkpt>
      <trkpt lat="44.19123" lon="1.85407">
        <ele>241.3</ele>
        <time>2019-03-10T11:25:58Z</time>
      </trkpt>
      <trkpt lat="44.19133" lon="1.85398">
        <ele>242</ele>
        <time>2019-03-10T11:26:02Z</time>
      </trkpt>
      <trkpt lat="44.19135" lon="1.8538">
        <ele>241.8</ele>
        <time>2019-03-10T11:26:06Z</time>
      </trkpt>
      <trkpt lat="44.19135" lon="1.85363">
        <ele>241.9</ele>
        <time>2019-03-10T11:26:10Z</time>
      </trkpt>
      <trkpt lat="44.19139" lon="1.85352">
        <ele>242.1</ele>
        <time>2019-03-10T11:26:14Z</time>
      </trkpt>
      <trkpt lat="44.19145" lon="1.85323">
        <ele>242</ele>
        <time>2019-03-10T11:26:18Z</time>
      </trkpt>
      <trkpt lat="44.19151" lon="1.85304">
        <ele>241.3</ele>
        <time>2019-03-10T11:26:22Z</time>
      </trkpt>
      <trkpt lat="44.1916" lon="1.85289">
        <ele>241.4</ele>
        <time>2019-03-10T11:26:26Z</time>
      </trkpt>
      <trkpt lat="44.19174" lon="1.85274">
        <ele>241.5</ele>
        <time>2019-03-10T11:26:30Z</time>
      </trkpt>
      <trkpt lat="44.19184" lon="1.85257">
        <ele>240.7</ele>
        <time>2019-03-10T11:26:34Z</time>
      </trkpt>
      <trkpt lat="44.19195" lon="1.85238">
        <ele>241.9</ele>
        <time>2019-03-10T11:26:38Z</time>
      </trkpt>
      <trkpt lat="44.19202" lon="1.85222">
        <ele>242.2</ele>
        <time>2019-03-10T11:26:42Z</time>
      </trkpt>
      <trkpt lat="44.19216" lon="1.8521">
        <ele>243.1</ele>
        <time>2019-03-10T11:26:46Z</time>
      </trkpt>
      <trkpt lat="44.19215" lon="1.85195">
        <ele>243.1</ele>
        <time>2019-03-10T11:26:50Z</time>
      </trkpt>
      <trkpt lat="44.19217" lon="1.85192">
        <ele>244.4</ele>
        <time>2019-03-10T11:26:54Z</time>
      </trkpt>
      <trkpt lat="44.19215" lon="1.85184">
        <ele>246.1</ele>
        <time>2019-03-10T11:26:58Z</time>
      </trkpt>
      <trkpt lat="44.19214" lon="1.85171">
        <ele>247.1</ele>
        <time>2019-03-10T11:27:02Z</time>
      </trkpt>
      <trkpt lat="44.19212" lon="1.85154">
        <ele>248.9</ele>
        <time>2019-03-10T11:27:06Z</time>
      </trkpt>
      <trkpt lat="44.19209" lon="1.85139">
        <ele>250.5</ele>
        <time>2019-03-10T11:27:10Z</time>
      </trkpt>
      <trkpt lat="44.1921" lon="1.85138">
        <ele>251.5</ele>
        <time>2019-03-10T11:27:14Z</time>
      </trkpt>
      <trkpt lat="44.19214" lon="1.8512">
        <ele>253</ele>
        <time>2019-03-10T11:27:46Z</time>
      </trkpt>
      <trkpt lat="44.19221" lon="1.85118">
        <ele>253.9</ele>
        <time>2019-03-10T11:27:50Z</time>
      </trkpt>
      <trkpt lat="44.19227" lon="1.85106">
        <ele>254.7</ele>
        <time>2019-03-10T11:27:54Z</time>
      </trkpt>
      <trkpt lat="44.19229" lon="1.85098">
        <ele>255.6</ele>
        <time>2019-03-10T11:27:58Z</time>
      </trkpt>
      <trkpt lat="44.1923" lon="1.8509">
        <ele>256.6</ele>
        <time>2019-03-10T11:28:02Z</time>
      </trkpt>
      <trkpt lat="44.19233" lon="1.8508">
        <ele>257.8</ele>
        <time>2019-03-10T11:28:06Z</time>
      </trkpt>
      <trkpt lat="44.19231" lon="1.85068">
        <ele>260.3</ele>
        <time>2019-03-10T11:28:10Z</time>
      </trkpt>
      <trkpt lat="44.19238" lon="1.85062">
        <ele>261.8</ele>
        <time>2019-03-10T11:28:14Z</time>
      </trkpt>
      <trkpt lat="44.19236" lon="1.85047">
        <ele>263.2</ele>
        <time>2019-03-10T11:28:18Z</time>
      </trkpt>
      <trkpt lat="44.19241" lon="1.8504">
        <ele>264.5</ele>
        <time>2019-03-10T11:28:22Z</time>
      </trkpt>
      <trkpt lat="44.19245" lon="1.85035">
        <ele>265.3</ele>
        <time>2019-03-10T11:28:26Z</time>
      </trkpt>
      <trkpt lat="44.19257" lon="1.85028">
        <ele>265.9</ele>
        <time>2019-03-10T11:28:30Z</time>
      </trkpt>
      <trkpt lat="44.19261" lon="1.85022">
        <ele>267.3</ele>
        <time>2019-03-10T11:28:34Z</time>
      </trkpt>
      <trkpt lat="44.19264" lon="1.85015">
        <ele>268.4</ele>
        <time>2019-03-10T11:28:38Z</time>
      </trkpt>
      <trkpt lat="44.19269" lon="1.8501">
        <ele>269.3</ele>
        <time>2019-03-10T11:28:42Z</time>
      </trkpt>
      <trkpt lat="44.1927" lon="1.84997">
        <ele>269.8</ele>
        <time>2019-03-10T11:28:46Z</time>
      </trkpt>
      <trkpt lat="44.19275" lon="1.84991">
        <ele>270.9</ele>
        <time>2019-03-10T11:28:50Z</time>
      </trkpt>
      <trkpt lat="44.19282" lon="1.84984">
        <ele>271.9</ele>
        <time>2019-03-10T11:28:54Z</time>
      </trkpt>
      <trkpt lat="44.19283" lon="1.84975">
        <ele>272.6</ele>
        <time>2019-03-10T11:28:58Z</time>
      </trkpt>
      <trkpt lat="44.19285" lon="1.84972">
        <ele>273.6</ele>
        <time>2019-03-10T11:29:02Z</time>
      </trkpt>
      <trkpt lat="44.19286" lon="1.84961">
        <ele>273.7</ele>
        <time>2019-03-10T11:29:06Z</time>
      </trkpt>
      <trkpt lat="44.19294" lon="1.84954">
        <ele>274.8</ele>
        <time>2019-03-10T11:29:10Z</time>
      </trkpt>
      <trkpt lat="44.19299" lon="1.84946">
        <ele>275.5</ele>
        <time>2019-03-10T11:29:14Z</time>
      </trkpt>
      <trkpt lat="44.19303" lon="1.84941">
        <ele>275.7</ele>
        <time>2019-03-10T11:29:18Z</time>
      </trkpt>
      <trkpt lat="44.19307" lon="1.84935">
        <ele>277</ele>
        <time>2019-03-10T11:29:22Z</time>
      </trkpt>
      <trkpt lat="44.19312" lon="1.8493">
        <ele>277.9</ele>
        <time>2019-03-10T11:29:26Z</time>
      </trkpt>
      <trkpt lat="44.19319" lon="1.84916">
        <ele>278.4</ele>
        <time>2019-03-10T11:29:30Z</time>
      </trkpt>
      <trkpt lat="44.19323" lon="1.84907">
        <ele>279</ele>
        <time>2019-03-10T11:29:34Z</time>
      </trkpt>
      <trkpt lat="44.19325" lon="1.84902">
        <ele>279.7</ele>
        <time>2019-03-10T11:29:38Z</time>
      </trkpt>
      <trkpt lat="44.19334" lon="1.84894">
        <ele>280.6</ele>
        <time>2019-03-10T11:29:42Z</time>
      </trkpt>
      <trkpt lat="44.19332" lon="1.84882">
        <ele>281.2</ele>
        <time>2019-03-10T11:29:46Z</time>
      </trkpt>
      <trkpt lat="44.19336" lon="1.8487">
        <ele>281.5</ele>
        <time>2019-03-10T11:29:50Z</time>
      </trkpt>
      <trkpt lat="44.19343" lon="1.84866">
        <ele>281.9</ele>
        <time>2019-03-10T11:29:54Z</time>
      </trkpt>
      <trkpt lat="44.19349" lon="1.84862">
        <ele>282.1</ele>
        <time>2019-03-10T11:29:58Z</time>
      </trkpt>
      <trkpt lat="44.19363" lon="1.8486">
        <ele>283</ele>
        <time>2019-03-10T11:30:02Z</time>
      </trkpt>
      <trkpt lat="44.19366" lon="1.84859">
        <ele>283.8</ele>
        <time>2019-03-10T11:30:06Z</time>
      </trkpt>
      <trkpt lat="44.19375" lon="1.8485">
        <ele>285.2</ele>
        <time>2019-03-10T11:30:10Z</time>
      </trkpt>
      <trkpt lat="44.19378" lon="1.84843">
        <ele>286.2</ele>
        <time>2019-03-10T11:30:14Z</time>
      </trkpt>
      <trkpt lat="44.19385" lon="1.84847">
        <ele>287.3</ele>
        <time>2019-03-10T11:30:18Z</time>
      </trkpt>
      <trkpt lat="44.19401" lon="1.84858">
        <ele>288.2</ele>
        <time>2019-03-10T11:30:22Z</time>
      </trkpt>
      <trkpt lat="44.19412" lon="1.8487">
        <ele>288.7</ele>
        <time>2019-03-10T11:30:26Z</time>
      </trkpt>
      <trkpt lat="44.19424" lon="1.84881">
        <ele>288.7</ele>
        <time>2019-03-10T11:30:30Z</time>
      </trkpt>
      <trkpt lat="44.19432" lon="1.84882">
        <ele>289.9</ele>
        <time>2019-03-10T11:30:34Z</time>
      </trkpt>
      <trkpt lat="44.19435" lon="1.84873">
        <ele>291.1</ele>
        <time>2019-03-10T11:30:38Z</time>
      </trkpt>
      <trkpt lat="44.1944" lon="1.84859">
        <ele>291.1</ele>
        <time>2019-03-10T11:30:42Z</time>
      </trkpt>
      <trkpt lat="44.19443" lon="1.84854">
        <ele>292.1</ele>
        <time>2019-03-10T11:30:46Z</time>
      </trkpt>
      <trkpt lat="44.19446" lon="1.84846">
        <ele>292.7</ele>
        <time>2019-03-10T11:30:50Z</time>
      </trkpt>
      <trkpt lat="44.19454" lon="1.8483">
        <ele>293.5</ele>
        <time>2019-03-10T11:30:54Z</time>
      </trkpt>
      <trkpt lat="44.19455" lon="1.84825">
        <ele>294.4</ele>
        <time>2019-03-10T11:30:58Z</time>
      </trkpt>
      <trkpt lat="44.19461" lon="1.84821">
        <ele>294.4</ele>
        <time>2019-03-10T11:31:02Z</time>
      </trkpt>
      <trkpt lat="44.19461" lon="1.84817">
        <ele>295</ele>
        <time>2019-03-10T11:31:06Z</time>
      </trkpt>
      <trkpt lat="44.19456" lon="1.84812">
        <ele>295</ele>
        <time>2019-03-10T11:31:10Z</time>
      </trkpt>
      <trkpt lat="44.19451" lon="1.84791">
        <ele>293.5</ele>
        <time>2019-03-10T11:31:14Z</time>
      </trkpt>
      <trkpt lat="44.19459" lon="1.84765">
        <ele>292.8</ele>
        <time>2019-03-10T11:31:18Z</time>
      </trkpt>
      <trkpt lat="44.19475" lon="1.84746">
        <ele>291.8</ele>
        <time>2019-03-10T11:31:22Z</time>
      </trkpt>
      <trkpt lat="44.19482" lon="1.84719">
        <ele>291.1</ele>
        <time>2019-03-10T11:31:26Z</time>
      </trkpt>
      <trkpt lat="44.19493" lon="1.84702">
        <ele>290.7</ele>
        <time>2019-03-10T11:31:30Z</time>
      </trkpt>
      <trkpt lat="44.19508" lon="1.8469">
        <ele>290.1</ele>
        <time>2019-03-10T11:31:34Z</time>
      </trkpt>
      <trkpt lat="44.19513" lon="1.84675">
        <ele>291.4</ele>
        <time>2019-03-10T11:31:38Z</time>
      </trkpt>
      <trkpt lat="44.19506" lon="1.84656">
        <ele>292.7</ele>
        <time>2019-03-10T11:31:42Z</time>
      </trkpt>
      <trkpt lat="44.19514" lon="1.84649">
        <ele>293.9</ele>
        <time>2019-03-10T11:31:46Z</time>
      </trkpt>
      <trkpt lat="44.19516" lon="1.84635">
        <ele>295.3</ele>
        <time>2019-03-10T11:31:50Z</time>
      </trkpt>
      <trkpt lat="44.19511" lon="1.84618">
        <ele>296.4</ele>
        <time>2019-03-10T11:31:54Z</time>
      </trkpt>
      <trkpt lat="44.19505" lon="1.84601">
        <ele>297.2</ele>
        <time>2019-03-10T11:31:58Z</time>
      </trkpt>
      <trkpt lat="44.19506" lon="1.84584">
        <ele>298.6</ele>
        <time>2019-03-10T11:32:02Z</time>
      </trkpt>
      <trkpt lat="44.19508" lon="1.84567">
        <ele>299.9</ele>
        <time>2019-03-10T11:32:06Z</time>
      </trkpt>
      <trkpt lat="44.19509" lon="1.84558">
        <ele>301</ele>
        <time>2019-03-10T11:32:10Z</time>
      </trkpt>
      <trkpt lat="44.19509" lon="1.84541">
        <ele>301.6</ele>
        <time>2019-03-10T11:32:14Z</time>
      </trkpt>
      <trkpt lat="44.19514" lon="1.84526">
        <ele>302.1</ele>
        <time>2019-03-10T11:32:18Z</time>
      </trkpt>
      <trkpt lat="44.19511" lon="1.84512">
        <ele>303.1</ele>
        <time>2019-03-10T11:32:22Z</time>
      </trkpt>
      <trkpt lat="44.1951" lon="1.8449">
        <ele>303.3</ele>
        <time>2019-03-10T11:32:26Z</time>
      </trkpt>
      <trkpt lat="44.19509" lon="1.84478">
        <ele>304.2</ele>
        <time>2019-03-10T11:32:30Z</time>
      </trkpt>
      <trkpt lat="44.19504" lon="1.84469">
        <ele>304.4</ele>
        <time>2019-03-10T11:32:34Z</time>
      </trkpt>
      <trkpt lat="44.19498" lon="1.84461">
        <ele>305.3</ele>
        <time>2019-03-10T11:32:38Z</time>
      </trkpt>
      <trkpt lat="44.19495" lon="1.84456">
        <ele>305.9</ele>
        <time>2019-03-10T11:32:42Z</time>
      </trkpt>
      <trkpt lat="44.19486" lon="1.84445">
        <ele>306.8</ele>
        <time>2019-03-10T11:32:46Z</time>
      </trkpt>
      <trkpt lat="44.19481" lon="1.84444">
        <ele>307.7</ele>
        <time>2019-03-10T11:32:50Z</time>
      </trkpt>
      <trkpt lat="44.1948" lon="1.84446">
        <ele>308.9</ele>
        <time>2019-03-10T11:32:54Z</time>
      </trkpt>
      <trkpt lat="44.19474" lon="1.84437">
        <ele>309.8</ele>
        <time>2019-03-10T11:32:58Z</time>
      </trkpt>
      <trkpt lat="44.19463" lon="1.8443">
        <ele>311.2</ele>
        <time>2019-03-10T11:33:02Z</time>
      </trkpt>
      <trkpt lat="44.19463" lon="1.8443">
        <ele>312.7</ele>
        <time>2019-03-10T11:33:06Z</time>
      </trkpt>
      <trkpt lat="44.19457" lon="1.84427">
        <ele>313.4</ele>
        <time>2019-03-10T11:33:10Z</time>
      </trkpt>
      <trkpt lat="44.19456" lon="1.84432">
        <ele>314.7</ele>
        <time>2019-03-10T11:33:14Z</time>
      </trkpt>
      <trkpt lat="44.19455" lon="1.84422">
        <ele>315.3</ele>
        <time>2019-03-10T11:33:18Z</time>
      </trkpt>
      <trkpt lat="44.19449" lon="1.84409">
        <ele>316.3</ele>
        <time>2019-03-10T11:33:22Z</time>
      </trkpt>
      <trkpt lat="44.19445" lon="1.84392">
        <ele>316.6</ele>
        <time>2019-03-10T11:33:26Z</time>
      </trkpt>
      <trkpt lat="44.19445" lon="1.84383">
        <ele>317.2</ele>
        <time>2019-03-10T11:33:30Z</time>
      </trkpt>
      <trkpt lat="44.1944" lon="1.84374">
        <ele>317.2</ele>
        <time>2019-03-10T11:33:34Z</time>
      </trkpt>
      <trkpt lat="44.19438" lon="1.84363">
        <ele>318.8</ele>
        <time>2019-03-10T11:33:38Z</time>
      </trkpt>
      <trkpt lat="44.19437" lon="1.84351">
        <ele>319.1</ele>
        <time>2019-03-10T11:33:42Z</time>
      </trkpt>
      <trkpt lat="44.19428" lon="1.8434">
        <ele>319.1</ele>
        <time>2019-03-10T11:33:46Z</time>
      </trkpt>
      <trkpt lat="44.19422" lon="1.8433">
        <ele>320.1</ele>
        <time>2019-03-10T11:33:50Z</time>
      </trkpt>
      <trkpt lat="44.1941" lon="1.84316">
        <ele>320.5</ele>
        <time>2019-03-10T11:33:54Z</time>
      </trkpt>
      <trkpt lat="44.19408" lon="1.84315">
        <ele>321.2</ele>
        <time>2019-03-10T11:33:58Z</time>
      </trkpt>
      <trkpt lat="44.19402" lon="1.84307">
        <ele>321.9</ele>
        <time>2019-03-10T11:34:02Z</time>
      </trkpt>
      <trkpt lat="44.19394" lon="1.843">
        <ele>322.6</ele>
        <time>2019-03-10T11:34:06Z</time>
      </trkpt>
      <trkpt lat="44.19384" lon="1.84289">
        <ele>323.2</ele>
        <time>2019-03-10T11:34:10Z</time>
      </trkpt>
      <trkpt lat="44.19379" lon="1.84288">
        <ele>323.7</ele>
        <time>2019-03-10T11:34:14Z</time>
      </trkpt>
      <trkpt lat="44.19377" lon="1.84282">
        <ele>324.3</ele>
        <time>2019-03-10T11:34:18Z</time>
      </trkpt>
      <trkpt lat="44.19367" lon="1.84267">
        <ele>325.3</ele>
        <time>2019-03-10T11:34:22Z</time>
      </trkpt>
      <trkpt lat="44.19362" lon="1.84255">
        <ele>326.7</ele>
        <time>2019-03-10T11:34:26Z</time>
      </trkpt>
      <trkpt lat="44.19356" lon="1.84241">
        <ele>327.9</ele>
        <time>2019-03-10T11:34:30Z</time>
      </trkpt>
      <trkpt lat="44.19355" lon="1.84234">
        <ele>328.3</ele>
        <time>2019-03-10T11:34:34Z</time>
      </trkpt>
      <trkpt lat="44.1935" lon="1.84225">
        <ele>328.3</ele>
        <time>2019-03-10T11:34:38Z</time>
      </trkpt>
      <trkpt lat="44.19347" lon="1.84215">
        <ele>329.4</ele>
        <time>2019-03-10T11:34:42Z</time>
      </trkpt>
      <trkpt lat="44.19345" lon="1.84206">
        <ele>330.6</ele>
        <time>2019-03-10T11:34:46Z</time>
      </trkpt>
      <trkpt lat="44.19343" lon="1.84196">
        <ele>331.1</ele>
        <time>2019-03-10T11:34:50Z</time>
      </trkpt>
      <trkpt lat="44.19335" lon="1.84182">
        <ele>332.1</ele>
        <time>2019-03-10T11:34:54Z</time>
      </trkpt>
      <trkpt lat="44.19334" lon="1.84178">
        <ele>333</ele>
        <time>2019-03-10T11:34:58Z</time>
      </trkpt>
      <trkpt lat="44.19333" lon="1.84175">
        <ele>333.3</ele>
        <time>2019-03-10T11:35:02Z</time>
      </trkpt>
      <trkpt lat="44.19327" lon="1.84168">
        <ele>334.1</ele>
        <time>2019-03-10T11:35:06Z</time>
      </trkpt>
      <trkpt lat="44.19325" lon="1.84159">
        <ele>335.2</ele>
        <time>2019-03-10T11:35:10Z</time>
      </trkpt>
      <trkpt lat="44.19325" lon="1.84148">
        <ele>335.6</ele>
        <time>2019-03-10T11:35:14Z</time>
      </trkpt>
      <trkpt lat="44.1932" lon="1.84138">
        <ele>335.6</ele>
        <time>2019-03-10T11:35:18Z</time>
      </trkpt>
      <trkpt lat="44.19318" lon="1.84123">
        <ele>336.1</ele>
        <time>2019-03-10T11:35:22Z</time>
      </trkpt>
      <trkpt lat="44.19313" lon="1.84109">
        <ele>335.4</ele>
        <time>2019-03-10T11:35:26Z</time>
      </trkpt>
      <trkpt lat="44.19308" lon="1.84092">
        <ele>335.4</ele>
        <time>2019-03-10T11:35:30Z</time>
      </trkpt>
      <trkpt lat="44.19302" lon="1.84077">
        <ele>336.3</ele>
        <time>2019-03-10T11:35:34Z</time>
      </trkpt>
      <trkpt lat="44.19302" lon="1.8407">
        <ele>335.6</ele>
        <time>2019-03-10T11:35:38Z</time>
      </trkpt>
      <trkpt lat="44.193" lon="1.84058">
        <ele>335.6</ele>
        <time>2019-03-10T11:35:42Z</time>
      </trkpt>
      <trkpt lat="44.19297" lon="1.84038">
        <ele>334.9</ele>
        <time>2019-03-10T11:35:46Z</time>
      </trkpt>
      <trkpt lat="44.19293" lon="1.84016">
        <ele>334.9</ele>
        <time>2019-03-10T11:35:50Z</time>
      </trkpt>
      <trkpt lat="44.19289" lon="1.83997">
        <ele>335.9</ele>
        <time>2019-03-10T11:35:54Z</time>
      </trkpt>
      <trkpt lat="44.19292" lon="1.83984">
        <ele>334.5</ele>
        <time>2019-03-10T11:35:58Z</time>
      </trkpt>
      <trkpt lat="44.19291" lon="1.83963">
        <ele>334.5</ele>
        <time>2019-03-10T11:36:02Z</time>
      </trkpt>
      <trkpt lat="44.19293" lon="1.83942">
        <ele>334.7</ele>
        <time>2019-03-10T11:36:06Z</time>
      </trkpt>
      <trkpt lat="44.19287" lon="1.83917">
        <ele>334.7</ele>
        <time>2019-03-10T11:36:10Z</time>
      </trkpt>
      <trkpt lat="44.19281" lon="1.83893">
        <ele>333.6</ele>
        <time>2019-03-10T11:36:14Z</time>
      </trkpt>
      <trkpt lat="44.19276" lon="1.83871">
        <ele>332.9</ele>
        <time>2019-03-10T11:36:18Z</time>
      </trkpt>
      <trkpt lat="44.19272" lon="1.83845">
        <ele>333.9</ele>
        <time>2019-03-10T11:36:22Z</time>
      </trkpt>
      <trkpt lat="44.19267" lon="1.83818">
        <ele>333.9</ele>
        <time>2019-03-10T11:36:26Z</time>
      </trkpt>
      <trkpt lat="44.1927" lon="1.83796">
        <ele>333.6</ele>
        <time>2019-03-10T11:36:30Z</time>
      </trkpt>
      <trkpt lat="44.19269" lon="1.83771">
        <ele>334</ele>
        <time>2019-03-10T11:36:34Z</time>
      </trkpt>
      <trkpt lat="44.19274" lon="1.83752">
        <ele>333.5</ele>
        <time>2019-03-10T11:36:38Z</time>
      </trkpt>
      <trkpt lat="44.19282" lon="1.83734">
        <ele>333.5</ele>
        <time>2019-03-10T11:36:42Z</time>
      </trkpt>
      <trkpt lat="44.19289" lon="1.83707">
        <ele>334</ele>
        <time>2019-03-10T11:36:46Z</time>
      </trkpt>
      <trkpt lat="44.19295" lon="1.83683">
        <ele>334</ele>
        <time>2019-03-10T11:36:50Z</time>
      </trkpt>
      <trkpt lat="44.19305" lon="1.8367">
        <ele>334.6</ele>
        <time>2019-03-10T11:36:54Z</time>
      </trkpt>
      <trkpt lat="44.1931" lon="1.83653">
        <ele>335.3</ele>
        <time>2019-03-10T11:36:58Z</time>
      </trkpt>
      <trkpt lat="44.19319" lon="1.8363">
        <ele>335.9</ele>
        <time>2019-03-10T11:37:02Z</time>
      </trkpt>
      <trkpt lat="44.1933" lon="1.8361">
        <ele>336.1</ele>
        <time>2019-03-10T11:37:06Z</time>
      </trkpt>
      <trkpt lat="44.19338" lon="1.83584">
        <ele>336.8</ele>
        <time>2019-03-10T11:37:10Z</time>
      </trkpt>
      <trkpt lat="44.19342" lon="1.83557">
        <ele>337.9</ele>
        <time>2019-03-10T11:37:14Z</time>
      </trkpt>
      <trkpt lat="44.1934" lon="1.83527">
        <ele>338.6</ele>
        <time>2019-03-10T11:37:18Z</time>
      </trkpt>
      <trkpt lat="44.19336" lon="1.83501">
        <ele>337.4</ele>
        <time>2019-03-10T11:37:22Z</time>
      </trkpt>
      <trkpt lat="44.19324" lon="1.83471">
        <ele>337.1</ele>
        <time>2019-03-10T11:37:26Z</time>
      </trkpt>
      <trkpt lat="44.19313" lon="1.83446">
        <ele>336.6</ele>
        <time>2019-03-10T11:37:30Z</time>
      </trkpt>
      <trkpt lat="44.19316" lon="1.83424">
        <ele>335.5</ele>
        <time>2019-03-10T11:37:34Z</time>
      </trkpt>
      <trkpt lat="44.19316" lon="1.83403">
        <ele>335</ele>
        <time>2019-03-10T11:37:38Z</time>
      </trkpt>
      <trkpt lat="44.19321" lon="1.83374">
        <ele>334.4</ele>
        <time>2019-03-10T11:37:42Z</time>
      </trkpt>
      <trkpt lat="44.19324" lon="1.83346">
        <ele>333.5</ele>
        <time>2019-03-10T11:37:46Z</time>
      </trkpt>
      <trkpt lat="44.19327" lon="1.83321">
        <ele>333.3</ele>
        <time>2019-03-10T11:37:50Z</time>
      </trkpt>
      <trkpt lat="44.19323" lon="1.83283">
        <ele>332.7</ele>
        <time>2019-03-10T11:37:54Z</time>
      </trkpt>
      <trkpt lat="44.1932" lon="1.83249">
        <ele>332.2</ele>
        <time>2019-03-10T11:37:58Z</time>
      </trkpt>
      <trkpt lat="44.19313" lon="1.83216">
        <ele>331.6</ele>
        <time>2019-03-10T11:38:02Z</time>
      </trkpt>
      <trkpt lat="44.19304" lon="1.83194">
        <ele>331.1</ele>
        <time>2019-03-10T11:38:06Z</time>
      </trkpt>
      <trkpt lat="44.1929" lon="1.83169">
        <ele>329.5</ele>
        <time>2019-03-10T11:38:10Z</time>
      </trkpt>
      <trkpt lat="44.1928" lon="1.83148">
        <ele>328.6</ele>
        <time>2019-03-10T11:38:14Z</time>
      </trkpt>
      <trkpt lat="44.19265" lon="1.83125">
        <ele>328.3</ele>
        <time>2019-03-10T11:38:18Z</time>
      </trkpt>
      <trkpt lat="44.19253" lon="1.83099">
        <ele>328.3</ele>
        <time>2019-03-10T11:38:22Z</time>
      </trkpt>
      <trkpt lat="44.1924" lon="1.83078">
        <ele>328.3</ele>
        <time>2019-03-10T11:38:26Z</time>
      </trkpt>
      <trkpt lat="44.19224" lon="1.8306">
        <ele>328.9</ele>
        <time>2019-03-10T11:38:30Z</time>
      </trkpt>
      <trkpt lat="44.1921" lon="1.83047">
        <ele>328.9</ele>
        <time>2019-03-10T11:38:34Z</time>
      </trkpt>
      <trkpt lat="44.19201" lon="1.83032">
        <ele>329.5</ele>
        <time>2019-03-10T11:38:38Z</time>
      </trkpt>
      <trkpt lat="44.19193" lon="1.83005">
        <ele>329.2</ele>
        <time>2019-03-10T11:38:42Z</time>
      </trkpt>
      <trkpt lat="44.19186" lon="1.82986">
        <ele>330.2</ele>
        <time>2019-03-10T11:38:46Z</time>
      </trkpt>
      <trkpt lat="44.19176" lon="1.82967">
        <ele>331.2</ele>
        <time>2019-03-10T11:38:50Z</time>
      </trkpt>
      <trkpt lat="44.19173" lon="1.82953">
        <ele>332.1</ele>
        <time>2019-03-10T11:38:54Z</time>
      </trkpt>
      <trkpt lat="44.19166" lon="1.82927">
        <ele>333.3</ele>
        <time>2019-03-10T11:38:58Z</time>
      </trkpt>
      <trkpt lat="44.1916" lon="1.82902">
        <ele>335</ele>
        <time>2019-03-10T11:39:02Z</time>
      </trkpt>
      <trkpt lat="44.19158" lon="1.82893">
        <ele>336.5</ele>
        <time>2019-03-10T11:39:06Z</time>
      </trkpt>
      <trkpt lat="44.19149" lon="1.82873">
        <ele>337.4</ele>
        <time>2019-03-10T11:39:10Z</time>
      </trkpt>
      <trkpt lat="44.19143" lon="1.82865">
        <ele>338.4</ele>
        <time>2019-03-10T11:39:14Z</time>
      </trkpt>
      <trkpt lat="44.19144" lon="1.82849">
        <ele>339.6</ele>
        <time>2019-03-10T11:39:18Z</time>
      </trkpt>
      <trkpt lat="44.19144" lon="1.82841">
        <ele>339.6</ele>
        <time>2019-03-10T11:39:22Z</time>
      </trkpt>
      <trkpt lat="44.19144" lon="1.82829">
        <ele>340.8</ele>
        <time>2019-03-10T11:39:26Z</time>
      </trkpt>
      <trkpt lat="44.19146" lon="1.82813">
        <ele>341.8</ele>
        <time>2019-03-10T11:39:30Z</time>
      </trkpt>
      <trkpt lat="44.19151" lon="1.82799">
        <ele>342.8</ele>
        <time>2019-03-10T11:39:34Z</time>
      </trkpt>
      <trkpt lat="44.19154" lon="1.82782">
        <ele>343.7</ele>
        <time>2019-03-10T11:39:38Z</time>
      </trkpt>
      <trkpt lat="44.19159" lon="1.82767">
        <ele>344.6</ele>
        <time>2019-03-10T11:39:42Z</time>
      </trkpt>
      <trkpt lat="44.19163" lon="1.82751">
        <ele>345</ele>
        <time>2019-03-10T11:39:46Z</time>
      </trkpt>
      <trkpt lat="44.1916" lon="1.82726">
        <ele>345.6</ele>
        <time>2019-03-10T11:39:50Z</time>
      </trkpt>
      <trkpt lat="44.19153" lon="1.82699">
        <ele>345.6</ele>
        <time>2019-03-10T11:39:54Z</time>
      </trkpt>
      <trkpt lat="44.19153" lon="1.82679">
        <ele>346.4</ele>
        <time>2019-03-10T11:39:58Z</time>
      </trkpt>
      <trkpt lat="44.19148" lon="1.82658">
        <ele>346.6</ele>
        <time>2019-03-10T11:40:02Z</time>
      </trkpt>
      <trkpt lat="44.19142" lon="1.82633">
        <ele>346.9</ele>
        <time>2019-03-10T11:40:06Z</time>
      </trkpt>
      <trkpt lat="44.19141" lon="1.82607">
        <ele>347.4</ele>
        <time>2019-03-10T11:40:10Z</time>
      </trkpt>
      <trkpt lat="44.19131" lon="1.82577">
        <ele>348.2</ele>
        <time>2019-03-10T11:40:14Z</time>
      </trkpt>
      <trkpt lat="44.19119" lon="1.82553">
        <ele>348.5</ele>
        <time>2019-03-10T11:40:18Z</time>
      </trkpt>
      <trkpt lat="44.19115" lon="1.82544">
        <ele>349</ele>
        <time>2019-03-10T11:40:22Z</time>
      </trkpt>
      <trkpt lat="44.19107" lon="1.8252">
        <ele>348.5</ele>
        <time>2019-03-10T11:40:26Z</time>
      </trkpt>
      <trkpt lat="44.191" lon="1.82503">
        <ele>348.5</ele>
        <time>2019-03-10T11:40:30Z</time>
      </trkpt>
      <trkpt lat="44.19096" lon="1.82485">
        <ele>349.5</ele>
        <time>2019-03-10T11:40:34Z</time>
      </trkpt>
      <trkpt lat="44.19094" lon="1.82464">
        <ele>349.9</ele>
        <time>2019-03-10T11:40:38Z</time>
      </trkpt>
      <trkpt lat="44.1909" lon="1.82444">
        <ele>349.9</ele>
        <time>2019-03-10T11:40:42Z</time>
      </trkpt>
      <trkpt lat="44.19086" lon="1.82426">
        <ele>350.1</ele>
        <time>2019-03-10T11:40:46Z</time>
      </trkpt>
      <trkpt lat="44.19084" lon="1.82406">
        <ele>350.5</ele>
        <time>2019-03-10T11:40:50Z</time>
      </trkpt>
      <trkpt lat="44.19081" lon="1.82381">
        <ele>349.4</ele>
        <time>2019-03-10T11:40:54Z</time>
      </trkpt>
      <trkpt lat="44.19078" lon="1.82356">
        <ele>348.3</ele>
        <time>2019-03-10T11:40:58Z</time>
      </trkpt>
      <trkpt lat="44.19066" lon="1.82318">
        <ele>347.2</ele>
        <time>2019-03-10T11:41:02Z</time>
      </trkpt>
      <trkpt lat="44.19057" lon="1.82287">
        <ele>345.6</ele>
        <time>2019-03-10T11:41:06Z</time>
      </trkpt>
      <trkpt lat="44.19044" lon="1.82262">
        <ele>344.3</ele>
        <time>2019-03-10T11:41:10Z</time>
      </trkpt>
      <trkpt lat="44.19022" lon="1.82242">
        <ele>343.4</ele>
        <time>2019-03-10T11:41:14Z</time>
      </trkpt>
      <trkpt lat="44.19005" lon="1.82219">
        <ele>342.9</ele>
        <time>2019-03-10T11:41:18Z</time>
      </trkpt>
      <trkpt lat="44.18989" lon="1.822">
        <ele>343.4</ele>
        <time>2019-03-10T11:41:22Z</time>
      </trkpt>
      <trkpt lat="44.18974" lon="1.82186">
        <ele>342.8</ele>
        <time>2019-03-10T11:41:26Z</time>
      </trkpt>
      <trkpt lat="44.18962" lon="1.82168">
        <ele>343.2</ele>
        <time>2019-03-10T11:41:30Z</time>
      </trkpt>
      <trkpt lat="44.18949" lon="1.82149">
        <ele>342.9</ele>
        <time>2019-03-10T11:41:34Z</time>
      </trkpt>
      <trkpt lat="44.18937" lon="1.82136">
        <ele>343.9</ele>
        <time>2019-03-10T11:41:38Z</time>
      </trkpt>
      <trkpt lat="44.18929" lon="1.82122">
        <ele>342.7</ele>
        <time>2019-03-10T11:41:42Z</time>
      </trkpt>
      <trkpt lat="44.18913" lon="1.82098">
        <ele>341.7</ele>
        <time>2019-03-10T11:41:46Z</time>
      </trkpt>
      <trkpt lat="44.18889" lon="1.82077">
        <ele>341.7</ele>
        <time>2019-03-10T11:41:50Z</time>
      </trkpt>
      <trkpt lat="44.18869" lon="1.82048">
        <ele>339.3</ele>
        <time>2019-03-10T11:41:54Z</time>
      </trkpt>
      <trkpt lat="44.18855" lon="1.82013">
        <ele>338.2</ele>
        <time>2019-03-10T11:41:58Z</time>
      </trkpt>
      <trkpt lat="44.18851" lon="1.81992">
        <ele>336.9</ele>
        <time>2019-03-10T11:42:02Z</time>
      </trkpt>
      <trkpt lat="44.18866" lon="1.81997">
        <ele>334.6</ele>
        <time>2019-03-10T11:42:06Z</time>
      </trkpt>
      <trkpt lat="44.18885" lon="1.81998">
        <ele>334.6</ele>
        <time>2019-03-10T11:42:10Z</time>
      </trkpt>
      <trkpt lat="44.18907" lon="1.82004">
        <ele>332.1</ele>
        <time>2019-03-10T11:42:14Z</time>
      </trkpt>
      <trkpt lat="44.18913" lon="1.81997">
        <ele>329.4</ele>
        <time>2019-03-10T11:42:18Z</time>
      </trkpt>
      <trkpt lat="44.18912" lon="1.81986">
        <ele>326.6</ele>
        <time>2019-03-10T11:42:22Z</time>
      </trkpt>
      <trkpt lat="44.18906" lon="1.81948">
        <ele>325</ele>
        <time>2019-03-10T11:42:26Z</time>
      </trkpt>
      <trkpt lat="44.18901" lon="1.81926">
        <ele>319.2</ele>
        <time>2019-03-10T11:42:30Z</time>
      </trkpt>
      <trkpt lat="44.18883" lon="1.81877">
        <ele>313.9</ele>
        <time>2019-03-10T11:42:34Z</time>
      </trkpt>
      <trkpt lat="44.18876" lon="1.81845">
        <ele>312.1</ele>
        <time>2019-03-10T11:42:38Z</time>
      </trkpt>
      <trkpt lat="44.18878" lon="1.81817">
        <ele>311.4</ele>
        <time>2019-03-10T11:42:42Z</time>
      </trkpt>
      <trkpt lat="44.18878" lon="1.81783">
        <ele>307.9</ele>
        <time>2019-03-10T11:42:46Z</time>
      </trkpt>
      <trkpt lat="44.18881" lon="1.81762">
        <ele>306.9</ele>
        <time>2019-03-10T11:42:50Z</time>
      </trkpt>
      <trkpt lat="44.18885" lon="1.81758">
        <ele>306.4</ele>
        <time>2019-03-10T11:42:54Z</time>
      </trkpt>
      <trkpt lat="44.18887" lon="1.81757">
        <ele>306.4</ele>
        <time>2019-03-10T11:42:58Z</time>
      </trkpt>
      <trkpt lat="44.18892" lon="1.81757">
        <ele>306.4</ele>
        <time>2019-03-10T11:43:02Z</time>
      </trkpt>
      <trkpt lat="44.18898" lon="1.81754">
        <ele>306.4</ele>
        <time>2019-03-10T11:43:06Z</time>
      </trkpt>
      <trkpt lat="44.18904" lon="1.81749">
        <ele>305.6</ele>
        <time>2019-03-10T11:43:10Z</time>
      </trkpt>
      <trkpt lat="44.1892" lon="1.81758">
        <ele>304.6</ele>
        <time>2019-03-10T11:43:14Z</time>
      </trkpt>
      <trkpt lat="44.18926" lon="1.81752">
        <ele>304.5</ele>
        <time>2019-03-10T11:43:18Z</time>
      </trkpt>
      <trkpt lat="44.18924" lon="1.81742">
        <ele>303.8</ele>
        <time>2019-03-10T11:43:22Z</time>
      </trkpt>
      <trkpt lat="44.18936" lon="1.8174">
        <ele>303.7</ele>
        <time>2019-03-10T11:43:26Z</time>
      </trkpt>
      <trkpt lat="44.18948" lon="1.81727">
        <ele>304</ele>
        <time>2019-03-10T11:43:30Z</time>
      </trkpt>
      <trkpt lat="44.18954" lon="1.81727">
        <ele>303.2</ele>
        <time>2019-03-10T11:43:34Z</time>
      </trkpt>
      <trkpt lat="44.18962" lon="1.81723">
        <ele>302.9</ele>
        <time>2019-03-10T11:43:38Z</time>
      </trkpt>
      <trkpt lat="44.18971" lon="1.81722">
        <ele>301.8</ele>
        <time>2019-03-10T11:43:42Z</time>
      </trkpt>
      <trkpt lat="44.18977" lon="1.81726">
        <ele>301.3</ele>
        <time>2019-03-10T11:43:46Z</time>
      </trkpt>
      <trkpt lat="44.18976" lon="1.81722">
        <ele>301</ele>
        <time>2019-03-10T11:43:50Z</time>
      </trkpt>
      <trkpt lat="44.1898" lon="1.81693">
        <ele>301.1</ele>
        <time>2019-03-10T11:44:02Z</time>
      </trkpt>
      <trkpt lat="44.18977" lon="1.81684">
        <ele>301.1</ele>
        <time>2019-03-10T11:44:06Z</time>
      </trkpt>
      <trkpt lat="44.18977" lon="1.81682">
        <ele>301</ele>
        <time>2019-03-10T11:44:10Z</time>
      </trkpt>
      <trkpt lat="44.18988" lon="1.81678">
        <ele>301.2</ele>
        <time>2019-03-10T11:44:14Z</time>
      </trkpt>
      <trkpt lat="44.18994" lon="1.81655">
        <ele>301.1</ele>
        <time>2019-03-10T11:44:18Z</time>
      </trkpt>
      <trkpt lat="44.1899" lon="1.81636">
        <ele>301.1</ele>
        <time>2019-03-10T11:44:22Z</time>
      </trkpt>
      <trkpt lat="44.19001" lon="1.81629">
        <ele>302.1</ele>
        <time>2019-03-10T11:44:26Z</time>
      </trkpt>
      <trkpt lat="44.19004" lon="1.81618">
        <ele>302.1</ele>
        <time>2019-03-10T11:44:30Z</time>
      </trkpt>
      <trkpt lat="44.19006" lon="1.81612">
        <ele>302.7</ele>
        <time>2019-03-10T11:44:34Z</time>
      </trkpt>
      <trkpt lat="44.19" lon="1.81595">
        <ele>303.1</ele>
        <time>2019-03-10T11:44:38Z</time>
      </trkpt>
      <trkpt lat="44.19" lon="1.81592">
        <ele>303.1</ele>
        <time>2019-03-10T11:44:42Z</time>
      </trkpt>
      <trkpt lat="44.19" lon="1.81591">
        <ele>301.7</ele>
        <time>2019-03-10T11:44:46Z</time>
      </trkpt>
      <trkpt lat="44.18998" lon="1.81583">
        <ele>301.1</ele>
        <time>2019-03-10T11:44:50Z</time>
      </trkpt>
      <trkpt lat="44.1901" lon="1.81585">
        <ele>302.2</ele>
        <time>2019-03-10T11:44:54Z</time>
      </trkpt>
      <trkpt lat="44.19007" lon="1.81574">
        <ele>302.6</ele>
        <time>2019-03-10T11:44:58Z</time>
      </trkpt>
      <trkpt lat="44.19006" lon="1.8157">
        <ele>302.8</ele>
        <time>2019-03-10T11:45:02Z</time>
      </trkpt>
      <trkpt lat="44.19007" lon="1.81563">
        <ele>303.2</ele>
        <time>2019-03-10T11:45:06Z</time>
      </trkpt>
      <trkpt lat="44.19009" lon="1.81553">
        <ele>303.6</ele>
        <time>2019-03-10T11:45:10Z</time>
      </trkpt>
      <trkpt lat="44.19016" lon="1.81551">
        <ele>303.6</ele>
        <time>2019-03-10T11:45:14Z</time>
      </trkpt>
      <trkpt lat="44.19015" lon="1.81532">
        <ele>303.9</ele>
        <time>2019-03-10T11:45:18Z</time>
      </trkpt>
      <trkpt lat="44.19013" lon="1.81518">
        <ele>304.4</ele>
        <time>2019-03-10T11:45:22Z</time>
      </trkpt>
      <trkpt lat="44.19011" lon="1.81505">
        <ele>304.8</ele>
        <time>2019-03-10T11:45:26Z</time>
      </trkpt>
      <trkpt lat="44.19013" lon="1.81498">
        <ele>304.9</ele>
        <time>2019-03-10T11:45:30Z</time>
      </trkpt>
      <trkpt lat="44.19017" lon="1.81491">
        <ele>304.6</ele>
        <time>2019-03-10T11:45:34Z</time>
      </trkpt>
      <trkpt lat="44.19013" lon="1.81476">
        <ele>304.7</ele>
        <time>2019-03-10T11:45:38Z</time>
      </trkpt>
      <trkpt lat="44.19017" lon="1.8147">
        <ele>304.5</ele>
        <time>2019-03-10T11:45:42Z</time>
      </trkpt>
      <trkpt lat="44.19019" lon="1.81458">
        <ele>304.3</ele>
        <time>2019-03-10T11:45:46Z</time>
      </trkpt>
      <trkpt lat="44.19015" lon="1.81439">
        <ele>305.7</ele>
        <time>2019-03-10T11:45:50Z</time>
      </trkpt>
      <trkpt lat="44.19014" lon="1.8143">
        <ele>306.5</ele>
        <time>2019-03-10T11:45:54Z</time>
      </trkpt>
      <trkpt lat="44.19013" lon="1.81428">
        <ele>306.9</ele>
        <time>2019-03-10T11:45:58Z</time>
      </trkpt>
      <trkpt lat="44.19017" lon="1.81411">
        <ele>307.8</ele>
        <time>2019-03-10T11:46:02Z</time>
      </trkpt>
      <trkpt lat="44.19018" lon="1.81402">
        <ele>307.8</ele>
        <time>2019-03-10T11:46:06Z</time>
      </trkpt>
      <trkpt lat="44.19015" lon="1.81391">
        <ele>309.1</ele>
        <time>2019-03-10T11:46:10Z</time>
      </trkpt>
      <trkpt lat="44.19011" lon="1.81382">
        <ele>310.2</ele>
        <time>2019-03-10T11:46:14Z</time>
      </trkpt>
      <trkpt lat="44.19001" lon="1.81373">
        <ele>310.9</ele>
        <time>2019-03-10T11:46:18Z</time>
      </trkpt>
      <trkpt lat="44.18996" lon="1.81373">
        <ele>312.1</ele>
        <time>2019-03-10T11:46:22Z</time>
      </trkpt>
      <trkpt lat="44.18994" lon="1.81377">
        <ele>313</ele>
        <time>2019-03-10T11:46:26Z</time>
      </trkpt>
      <trkpt lat="44.18989" lon="1.81381">
        <ele>314.3</ele>
        <time>2019-03-10T11:46:30Z</time>
      </trkpt>
      <trkpt lat="44.18977" lon="1.81371">
        <ele>315.4</ele>
        <time>2019-03-10T11:46:34Z</time>
      </trkpt>
      <trkpt lat="44.1897" lon="1.81364">
        <ele>316.4</ele>
        <time>2019-03-10T11:46:38Z</time>
      </trkpt>
      <trkpt lat="44.18962" lon="1.81358">
        <ele>317.4</ele>
        <time>2019-03-10T11:46:42Z</time>
      </trkpt>
      <trkpt lat="44.18953" lon="1.81348">
        <ele>317.9</ele>
        <time>2019-03-10T11:46:46Z</time>
      </trkpt>
      <trkpt lat="44.18948" lon="1.81345">
        <ele>319.4</ele>
        <time>2019-03-10T11:46:50Z</time>
      </trkpt>
      <trkpt lat="44.18945" lon="1.81345">
        <ele>320</ele>
        <time>2019-03-10T11:46:54Z</time>
      </trkpt>
      <trkpt lat="44.18943" lon="1.81328">
        <ele>319.5</ele>
        <time>2019-03-10T11:46:58Z</time>
      </trkpt>
      <trkpt lat="44.18945" lon="1.81308">
        <ele>318</ele>
        <time>2019-03-10T11:47:02Z</time>
      </trkpt>
      <trkpt lat="44.18948" lon="1.81283">
        <ele>316.8</ele>
        <time>2019-03-10T11:47:06Z</time>
      </trkpt>
      <trkpt lat="44.18947" lon="1.8126">
        <ele>315.3</ele>
        <time>2019-03-10T11:47:10Z</time>
      </trkpt>
      <trkpt lat="44.18949" lon="1.81253">
        <ele>314.7</ele>
        <time>2019-03-10T11:47:14Z</time>
      </trkpt>
      <trkpt lat="44.18952" lon="1.81239">
        <ele>314.1</ele>
        <time>2019-03-10T11:47:18Z</time>
      </trkpt>
      <trkpt lat="44.18951" lon="1.81218">
        <ele>313.1</ele>
        <time>2019-03-10T11:47:22Z</time>
      </trkpt>
      <trkpt lat="44.18956" lon="1.81207">
        <ele>312.2</ele>
        <time>2019-03-10T11:47:26Z</time>
      </trkpt>
      <trkpt lat="44.18957" lon="1.81196">
        <ele>312.2</ele>
        <time>2019-03-10T11:47:30Z</time>
      </trkpt>
      <trkpt lat="44.18961" lon="1.8118">
        <ele>312.2</ele>
        <time>2019-03-10T11:47:34Z</time>
      </trkpt>
      <trkpt lat="44.18958" lon="1.81166">
        <ele>312.1</ele>
        <time>2019-03-10T11:47:38Z</time>
      </trkpt>
      <trkpt lat="44.18957" lon="1.81144">
        <ele>312.4</ele>
        <time>2019-03-10T11:47:42Z</time>
      </trkpt>
      <trkpt lat="44.18961" lon="1.81131">
        <ele>313.2</ele>
        <time>2019-03-10T11:47:46Z</time>
      </trkpt>
      <trkpt lat="44.18963" lon="1.81125">
        <ele>313.9</ele>
        <time>2019-03-10T11:47:50Z</time>
      </trkpt>
      <trkpt lat="44.1897" lon="1.81115">
        <ele>315.5</ele>
        <time>2019-03-10T11:47:54Z</time>
      </trkpt>
      <trkpt lat="44.18979" lon="1.81117">
        <ele>316.6</ele>
        <time>2019-03-10T11:47:58Z</time>
      </trkpt>
      <trkpt lat="44.18989" lon="1.81117">
        <ele>317.8</ele>
        <time>2019-03-10T11:48:02Z</time>
      </trkpt>
      <trkpt lat="44.18991" lon="1.81107">
        <ele>319</ele>
        <time>2019-03-10T11:48:06Z</time>
      </trkpt>
      <trkpt lat="44.19002" lon="1.81099">
        <ele>320.7</ele>
        <time>2019-03-10T11:48:10Z</time>
      </trkpt>
      <trkpt lat="44.1901" lon="1.81099">
        <ele>322.1</ele>
        <time>2019-03-10T11:48:14Z</time>
      </trkpt>
      <trkpt lat="44.19007" lon="1.81085">
        <ele>323</ele>
        <time>2019-03-10T11:48:18Z</time>
      </trkpt>
      <trkpt lat="44.19012" lon="1.81082">
        <ele>324</ele>
        <time>2019-03-10T11:48:22Z</time>
      </trkpt>
      <trkpt lat="44.19012" lon="1.81076">
        <ele>324.7</ele>
        <time>2019-03-10T11:48:26Z</time>
      </trkpt>
      <trkpt lat="44.19013" lon="1.8106">
        <ele>324.9</ele>
        <time>2019-03-10T11:48:30Z</time>
      </trkpt>
      <trkpt lat="44.19008" lon="1.81041">
        <ele>323.6</ele>
        <time>2019-03-10T11:48:34Z</time>
      </trkpt>
      <trkpt lat="44.19014" lon="1.81023">
        <ele>322.2</ele>
        <time>2019-03-10T11:48:38Z</time>
      </trkpt>
      <trkpt lat="44.19018" lon="1.81013">
        <ele>320.8</ele>
        <time>2019-03-10T11:48:42Z</time>
      </trkpt>
      <trkpt lat="44.19035" lon="1.8098">
        <ele>319.5</ele>
        <time>2019-03-10T11:48:46Z</time>
      </trkpt>
      <trkpt lat="44.19045" lon="1.80966">
        <ele>318.9</ele>
        <time>2019-03-10T11:48:50Z</time>
      </trkpt>
      <trkpt lat="44.1905" lon="1.80946">
        <ele>319</ele>
        <time>2019-03-10T11:48:54Z</time>
      </trkpt>
      <trkpt lat="44.19056" lon="1.8093">
        <ele>318.1</ele>
        <time>2019-03-10T11:48:58Z</time>
      </trkpt>
      <trkpt lat="44.19066" lon="1.80921">
        <ele>319.2</ele>
        <time>2019-03-10T11:49:02Z</time>
      </trkpt>
      <trkpt lat="44.19057" lon="1.80897">
        <ele>319.2</ele>
        <time>2019-03-10T11:49:06Z</time>
      </trkpt>
      <trkpt lat="44.19049" lon="1.80885">
        <ele>318.7</ele>
        <time>2019-03-10T11:49:10Z</time>
      </trkpt>
      <trkpt lat="44.1904" lon="1.80876">
        <ele>319.7</ele>
        <time>2019-03-10T11:49:14Z</time>
      </trkpt>
      <trkpt lat="44.19029" lon="1.80867">
        <ele>321</ele>
        <time>2019-03-10T11:49:18Z</time>
      </trkpt>
      <trkpt lat="44.19022" lon="1.80862">
        <ele>321.7</ele>
        <time>2019-03-10T11:49:22Z</time>
      </trkpt>
      <trkpt lat="44.1901" lon="1.80851">
        <ele>322.5</ele>
        <time>2019-03-10T11:49:26Z</time>
      </trkpt>
      <trkpt lat="44.18997" lon="1.80835">
        <ele>322.5</ele>
        <time>2019-03-10T11:49:30Z</time>
      </trkpt>
      <trkpt lat="44.18984" lon="1.80818">
        <ele>322.3</ele>
        <time>2019-03-10T11:49:34Z</time>
      </trkpt>
      <trkpt lat="44.18972" lon="1.80804">
        <ele>323.4</ele>
        <time>2019-03-10T11:49:38Z</time>
      </trkpt>
      <trkpt lat="44.18966" lon="1.80797">
        <ele>324</ele>
        <time>2019-03-10T11:49:42Z</time>
      </trkpt>
      <trkpt lat="44.18961" lon="1.80783">
        <ele>325.2</ele>
        <time>2019-03-10T11:49:46Z</time>
      </trkpt>
      <trkpt lat="44.18957" lon="1.80767">
        <ele>325.6</ele>
        <time>2019-03-10T11:49:50Z</time>
      </trkpt>
      <trkpt lat="44.18954" lon="1.80746">
        <ele>325.6</ele>
        <time>2019-03-10T11:49:54Z</time>
      </trkpt>
      <trkpt lat="44.18959" lon="1.80737">
        <ele>326.7</ele>
        <time>2019-03-10T11:49:58Z</time>
      </trkpt>
      <trkpt lat="44.18964" lon="1.80722">
        <ele>329.2</ele>
        <time>2019-03-10T11:50:02Z</time>
      </trkpt>
      <trkpt lat="44.18971" lon="1.80711">
        <ele>330.3</ele>
        <time>2019-03-10T11:50:06Z</time>
      </trkpt>
      <trkpt lat="44.18983" lon="1.80702">
        <ele>331.5</ele>
        <time>2019-03-10T11:50:10Z</time>
      </trkpt>
      <trkpt lat="44.18987" lon="1.8069">
        <ele>333.9</ele>
        <time>2019-03-10T11:50:14Z</time>
      </trkpt>
      <trkpt lat="44.18983" lon="1.80671">
        <ele>335</ele>
        <time>2019-03-10T11:50:18Z</time>
      </trkpt>
      <trkpt lat="44.18981" lon="1.80669">
        <ele>335.6</ele>
        <time>2019-03-10T11:50:22Z</time>
      </trkpt>
      <trkpt lat="44.18971" lon="1.80671">
        <ele>335</ele>
        <time>2019-03-10T11:50:26Z</time>
      </trkpt>
      <trkpt lat="44.18957" lon="1.80665">
        <ele>335.7</ele>
        <time>2019-03-10T11:50:30Z</time>
      </trkpt>
      <trkpt lat="44.18947" lon="1.80664">
        <ele>336.6</ele>
        <time>2019-03-10T11:50:34Z</time>
      </trkpt>
      <trkpt lat="44.18934" lon="1.80669">
        <ele>336.6</ele>
        <time>2019-03-10T11:50:38Z</time>
      </trkpt>
      <trkpt lat="44.18918" lon="1.80677">
        <ele>337</ele>
        <time>2019-03-10T11:50:42Z</time>
      </trkpt>
      <trkpt lat="44.18901" lon="1.80672">
        <ele>337.2</ele>
        <time>2019-03-10T11:50:46Z</time>
      </trkpt>
      <trkpt lat="44.1889" lon="1.80678">
        <ele>337.2</ele>
        <time>2019-03-10T11:50:50Z</time>
      </trkpt>
      <trkpt lat="44.18874" lon="1.80689">
        <ele>338.7</ele>
        <time>2019-03-10T11:50:54Z</time>
      </trkpt>
      <trkpt lat="44.18858" lon="1.80696">
        <ele>339.2</ele>
        <time>2019-03-10T11:50:58Z</time>
      </trkpt>
      <trkpt lat="44.1884" lon="1.807">
        <ele>339.7</ele>
        <time>2019-03-10T11:51:02Z</time>
      </trkpt>
      <trkpt lat="44.18822" lon="1.80707">
        <ele>339.5</ele>
        <time>2019-03-10T11:51:06Z</time>
      </trkpt>
      <trkpt lat="44.18805" lon="1.80709">
        <ele>340.4</ele>
        <time>2019-03-10T11:51:10Z</time>
      </trkpt>
      <trkpt lat="44.18791" lon="1.80709">
        <ele>340.8</ele>
        <time>2019-03-10T11:51:14Z</time>
      </trkpt>
      <trkpt lat="44.18772" lon="1.807">
        <ele>341.2</ele>
        <time>2019-03-10T11:51:18Z</time>
      </trkpt>
      <trkpt lat="44.18755" lon="1.80698">
        <ele>341.8</ele>
        <time>2019-03-10T11:51:22Z</time>
      </trkpt>
      <trkpt lat="44.18738" lon="1.80692">
        <ele>342.3</ele>
        <time>2019-03-10T11:51:26Z</time>
      </trkpt>
      <trkpt lat="44.18723" lon="1.80688">
        <ele>342.3</ele>
        <time>2019-03-10T11:51:30Z</time>
      </trkpt>
      <trkpt lat="44.18704" lon="1.80686">
        <ele>341.8</ele>
        <time>2019-03-10T11:51:34Z</time>
      </trkpt>
      <trkpt lat="44.18687" lon="1.80686">
        <ele>342.3</ele>
        <time>2019-03-10T11:51:38Z</time>
      </trkpt>
      <trkpt lat="44.18664" lon="1.80677">
        <ele>342.8</ele>
        <time>2019-03-10T11:51:42Z</time>
      </trkpt>
      <trkpt lat="44.18646" lon="1.80666">
        <ele>342.8</ele>
        <time>2019-03-10T11:51:46Z</time>
      </trkpt>
      <trkpt lat="44.18626" lon="1.80652">
        <ele>342.3</ele>
        <time>2019-03-10T11:51:50Z</time>
      </trkpt>
      <trkpt lat="44.18607" lon="1.80648">
        <ele>343.4</ele>
        <time>2019-03-10T11:51:54Z</time>
      </trkpt>
      <trkpt lat="44.18594" lon="1.80639">
        <ele>343.9</ele>
        <time>2019-03-10T11:51:58Z</time>
      </trkpt>
      <trkpt lat="44.18579" lon="1.80631">
        <ele>343.8</ele>
        <time>2019-03-10T11:52:02Z</time>
      </trkpt>
      <trkpt lat="44.1856" lon="1.80619">
        <ele>344.3</ele>
        <time>2019-03-10T11:52:06Z</time>
      </trkpt>
      <trkpt lat="44.18537" lon="1.80605">
        <ele>343.7</ele>
        <time>2019-03-10T11:52:10Z</time>
      </trkpt>
      <trkpt lat="44.18519" lon="1.80599">
        <ele>343.7</ele>
        <time>2019-03-10T11:52:14Z</time>
      </trkpt>
      <trkpt lat="44.18498" lon="1.80588">
        <ele>344.2</ele>
        <time>2019-03-10T11:52:18Z</time>
      </trkpt>
      <trkpt lat="44.18473" lon="1.80574">
        <ele>344.4</ele>
        <time>2019-03-10T11:52:22Z</time>
      </trkpt>
      <trkpt lat="44.18451" lon="1.80565">
        <ele>343.9</ele>
        <time>2019-03-10T11:52:26Z</time>
      </trkpt>
      <trkpt lat="44.1843" lon="1.80561">
        <ele>344.2</ele>
        <time>2019-03-10T11:52:30Z</time>
      </trkpt>
      <trkpt lat="44.18406" lon="1.80558">
        <ele>344.3</ele>
        <time>2019-03-10T11:52:34Z</time>
      </trkpt>
      <trkpt lat="44.18386" lon="1.80568">
        <ele>343.7</ele>
        <time>2019-03-10T11:52:38Z</time>
      </trkpt>
      <trkpt lat="44.1837" lon="1.80586">
        <ele>343.3</ele>
        <time>2019-03-10T11:52:42Z</time>
      </trkpt>
      <trkpt lat="44.18355" lon="1.80603">
        <ele>343.2</ele>
        <time>2019-03-10T11:52:46Z</time>
      </trkpt>
      <trkpt lat="44.18337" lon="1.80618">
        <ele>344.1</ele>
        <time>2019-03-10T11:52:50Z</time>
      </trkpt>
      <trkpt lat="44.18318" lon="1.80623">
        <ele>344.6</ele>
        <time>2019-03-10T11:52:54Z</time>
      </trkpt>
      <trkpt lat="44.18301" lon="1.80609">
        <ele>345.3</ele>
        <time>2019-03-10T11:52:58Z</time>
      </trkpt>
      <trkpt lat="44.18287" lon="1.80587">
        <ele>345.8</ele>
        <time>2019-03-10T11:53:02Z</time>
      </trkpt>
      <trkpt lat="44.1827" lon="1.80562">
        <ele>345.6</ele>
        <time>2019-03-10T11:53:06Z</time>
      </trkpt>
      <trkpt lat="44.18255" lon="1.80543">
        <ele>345.9</ele>
        <time>2019-03-10T11:53:10Z</time>
      </trkpt>
      <trkpt lat="44.1824" lon="1.8053">
        <ele>344.9</ele>
        <time>2019-03-10T11:53:14Z</time>
      </trkpt>
      <trkpt lat="44.18224" lon="1.8051">
        <ele>343.8</ele>
        <time>2019-03-10T11:53:18Z</time>
      </trkpt>
      <trkpt lat="44.18202" lon="1.80486">
        <ele>342.7</ele>
        <time>2019-03-10T11:53:22Z</time>
      </trkpt>
      <trkpt lat="44.18186" lon="1.80472">
        <ele>341.2</ele>
        <time>2019-03-10T11:53:26Z</time>
      </trkpt>
      <trkpt lat="44.1817" lon="1.80451">
        <ele>340</ele>
        <time>2019-03-10T11:53:30Z</time>
      </trkpt>
      <trkpt lat="44.1815" lon="1.80431">
        <ele>340</ele>
        <time>2019-03-10T11:53:34Z</time>
      </trkpt>
      <trkpt lat="44.18136" lon="1.80407">
        <ele>337.9</ele>
        <time>2019-03-10T11:53:38Z</time>
      </trkpt>
      <trkpt lat="44.18138" lon="1.8038">
        <ele>338</ele>
        <time>2019-03-10T11:53:42Z</time>
      </trkpt>
      <trkpt lat="44.18146" lon="1.80359">
        <ele>338.2</ele>
        <time>2019-03-10T11:53:46Z</time>
      </trkpt>
      <trkpt lat="44.18154" lon="1.80344">
        <ele>337.6</ele>
        <time>2019-03-10T11:53:50Z</time>
      </trkpt>
      <trkpt lat="44.18168" lon="1.80321">
        <ele>338.3</ele>
        <time>2019-03-10T11:53:54Z</time>
      </trkpt>
      <trkpt lat="44.18174" lon="1.80303">
        <ele>337.9</ele>
        <time>2019-03-10T11:53:58Z</time>
      </trkpt>
      <trkpt lat="44.18178" lon="1.80291">
        <ele>338.5</ele>
        <time>2019-03-10T11:54:02Z</time>
      </trkpt>
      <trkpt lat="44.18183" lon="1.80267">
        <ele>339.1</ele>
        <time>2019-03-10T11:54:06Z</time>
      </trkpt>
      <trkpt lat="44.18187" lon="1.80242">
        <ele>339.4</ele>
        <time>2019-03-10T11:54:10Z</time>
      </trkpt>
      <trkpt lat="44.1819" lon="1.80217">
        <ele>339.4</ele>
        <time>2019-03-10T11:54:14Z</time>
      </trkpt>
      <trkpt lat="44.18192" lon="1.80193">
        <ele>339.9</ele>
        <time>2019-03-10T11:54:18Z</time>
      </trkpt>
      <trkpt lat="44.18192" lon="1.80185">
        <ele>338.8</ele>
        <time>2019-03-10T11:54:22Z</time>
      </trkpt>
      <trkpt lat="44.18192" lon="1.80136">
        <ele>337.7</ele>
        <time>2019-03-10T11:54:26Z</time>
      </trkpt>
      <trkpt lat="44.18189" lon="1.80111">
        <ele>338.4</ele>
        <time>2019-03-10T11:54:30Z</time>
      </trkpt>
      <trkpt lat="44.1818" lon="1.80067">
        <ele>337.3</ele>
        <time>2019-03-10T11:54:34Z</time>
      </trkpt>
      <trkpt lat="44.1817" lon="1.80019">
        <ele>335.9</ele>
        <time>2019-03-10T11:54:38Z</time>
      </trkpt>
      <trkpt lat="44.18165" lon="1.79992">
        <ele>335.1</ele>
        <time>2019-03-10T11:54:42Z</time>
      </trkpt>
      <trkpt lat="44.18161" lon="1.79962">
        <ele>334</ele>
        <time>2019-03-10T11:54:46Z</time>
      </trkpt>
      <trkpt lat="44.18157" lon="1.7993">
        <ele>332.9</ele>
        <time>2019-03-10T11:54:50Z</time>
      </trkpt>
      <trkpt lat="44.18154" lon="1.799">
        <ele>332.9</ele>
        <time>2019-03-10T11:54:54Z</time>
      </trkpt>
      <trkpt lat="44.1816" lon="1.79874">
        <ele>333</ele>
        <time>2019-03-10T11:54:58Z</time>
      </trkpt>
      <trkpt lat="44.18166" lon="1.7984">
        <ele>331.9</ele>
        <time>2019-03-10T11:55:02Z</time>
      </trkpt>
      <trkpt lat="44.18174" lon="1.79816">
        <ele>332.5</ele>
        <time>2019-03-10T11:55:06Z</time>
      </trkpt>
      <trkpt lat="44.18182" lon="1.79793">
        <ele>332.9</ele>
        <time>2019-03-10T11:55:10Z</time>
      </trkpt>
      <trkpt lat="44.1819" lon="1.79775">
        <ele>333.4</ele>
        <time>2019-03-10T11:55:14Z</time>
      </trkpt>
      <trkpt lat="44.1819" lon="1.79739">
        <ele>334.6</ele>
        <time>2019-03-10T11:55:18Z</time>
      </trkpt>
      <trkpt lat="44.18189" lon="1.79706">
        <ele>335.6</ele>
        <time>2019-03-10T11:55:22Z</time>
      </trkpt>
      <trkpt lat="44.1819" lon="1.79681">
        <ele>335.6</ele>
        <time>2019-03-10T11:55:26Z</time>
      </trkpt>
      <trkpt lat="44.1819" lon="1.79665">
        <ele>336.8</ele>
        <time>2019-03-10T11:55:30Z</time>
      </trkpt>
      <trkpt lat="44.18188" lon="1.79628">
        <ele>336.9</ele>
        <time>2019-03-10T11:55:34Z</time>
      </trkpt>
      <trkpt lat="44.18189" lon="1.79604">
        <ele>336.9</ele>
        <time>2019-03-10T11:55:38Z</time>
      </trkpt>
      <trkpt lat="44.18192" lon="1.79576">
        <ele>336.5</ele>
        <time>2019-03-10T11:55:42Z</time>
      </trkpt>
      <trkpt lat="44.18194" lon="1.79552">
        <ele>335.3</ele>
        <time>2019-03-10T11:55:46Z</time>
      </trkpt>
      <trkpt lat="44.18187" lon="1.79513">
        <ele>334.4</ele>
        <time>2019-03-10T11:55:50Z</time>
      </trkpt>
      <trkpt lat="44.18191" lon="1.79476">
        <ele>332.2</ele>
        <time>2019-03-10T11:55:54Z</time>
      </trkpt>
      <trkpt lat="44.18191" lon="1.79432">
        <ele>330.1</ele>
        <time>2019-03-10T11:55:58Z</time>
      </trkpt>
      <trkpt lat="44.18197" lon="1.79405">
        <ele>328.5</ele>
        <time>2019-03-10T11:56:02Z</time>
      </trkpt>
      <trkpt lat="44.18201" lon="1.79382">
        <ele>326.4</ele>
        <time>2019-03-10T11:56:06Z</time>
      </trkpt>
      <trkpt lat="44.1821" lon="1.79352">
        <ele>324.7</ele>
        <time>2019-03-10T11:56:10Z</time>
      </trkpt>
      <trkpt lat="44.18207" lon="1.79319">
        <ele>321.7</ele>
        <time>2019-03-10T11:56:14Z</time>
      </trkpt>
      <trkpt lat="44.18208" lon="1.79223">
        <ele>317.5</ele>
        <time>2019-03-10T11:56:18Z</time>
      </trkpt>
      <trkpt lat="44.18218" lon="1.79166">
        <ele>315.3</ele>
        <time>2019-03-10T11:56:22Z</time>
      </trkpt>
      <trkpt lat="44.18226" lon="1.79129">
        <ele>314.4</ele>
        <time>2019-03-10T11:56:26Z</time>
      </trkpt>
      <trkpt lat="44.1822" lon="1.79094">
        <ele>313.9</ele>
        <time>2019-03-10T11:56:30Z</time>
      </trkpt>
      <trkpt lat="44.18211" lon="1.7908">
        <ele>313.9</ele>
        <time>2019-03-10T11:56:34Z</time>
      </trkpt>
      <trkpt lat="44.18208" lon="1.79066">
        <ele>314.9</ele>
        <time>2019-03-10T11:56:38Z</time>
      </trkpt>
      <trkpt lat="44.18203" lon="1.79048">
        <ele>315.9</ele>
        <time>2019-03-10T11:56:42Z</time>
      </trkpt>
      <trkpt lat="44.18201" lon="1.79038">
        <ele>316.9</ele>
        <time>2019-03-10T11:56:46Z</time>
      </trkpt>
      <trkpt lat="44.18199" lon="1.79033">
        <ele>316.9</ele>
        <time>2019-03-10T11:56:50Z</time>
      </trkpt>
      <trkpt lat="44.18193" lon="1.79026">
        <ele>319</ele>
        <time>2019-03-10T11:56:54Z</time>
      </trkpt>
      <trkpt lat="44.18188" lon="1.79014">
        <ele>319.9</ele>
        <time>2019-03-10T11:56:58Z</time>
      </trkpt>
      <trkpt lat="44.18185" lon="1.79006">
        <ele>321.6</ele>
        <time>2019-03-10T11:57:02Z</time>
      </trkpt>
      <trkpt lat="44.18181" lon="1.78998">
        <ele>321.8</ele>
        <time>2019-03-10T11:57:06Z</time>
      </trkpt>
      <trkpt lat="44.18172" lon="1.78985">
        <ele>323.1</ele>
        <time>2019-03-10T11:57:10Z</time>
      </trkpt>
      <trkpt lat="44.1817" lon="1.78975">
        <ele>325.5</ele>
        <time>2019-03-10T11:57:14Z</time>
      </trkpt>
      <trkpt lat="44.18166" lon="1.78966">
        <ele>326.6</ele>
        <time>2019-03-10T11:57:18Z</time>
      </trkpt>
      <trkpt lat="44.18158" lon="1.78954">
        <ele>327.7</ele>
        <time>2019-03-10T11:57:22Z</time>
      </trkpt>
      <trkpt lat="44.18153" lon="1.78946">
        <ele>328.9</ele>
        <time>2019-03-10T11:57:26Z</time>
      </trkpt>
      <trkpt lat="44.18146" lon="1.78929">
        <ele>329.6</ele>
        <time>2019-03-10T11:57:30Z</time>
      </trkpt>
      <trkpt lat="44.18147" lon="1.78924">
        <ele>329.6</ele>
        <time>2019-03-10T11:57:34Z</time>
      </trkpt>
      <trkpt lat="44.18144" lon="1.78912">
        <ele>330.6</ele>
        <time>2019-03-10T11:57:38Z</time>
      </trkpt>
      <trkpt lat="44.18137" lon="1.78902">
        <ele>331</ele>
        <time>2019-03-10T11:57:42Z</time>
      </trkpt>
      <trkpt lat="44.18138" lon="1.78888">
        <ele>331.5</ele>
        <time>2019-03-10T11:57:46Z</time>
      </trkpt>
      <trkpt lat="44.18138" lon="1.78873">
        <ele>332.5</ele>
        <time>2019-03-10T11:57:50Z</time>
      </trkpt>
      <trkpt lat="44.18136" lon="1.78865">
        <ele>333.3</ele>
        <time>2019-03-10T11:57:54Z</time>
      </trkpt>
      <trkpt lat="44.18136" lon="1.78854">
        <ele>334</ele>
        <time>2019-03-10T11:57:58Z</time>
      </trkpt>
      <trkpt lat="44.18137" lon="1.78851">
        <ele>334.7</ele>
        <time>2019-03-10T11:58:02Z</time>
      </trkpt>
      <trkpt lat="44.18138" lon="1.7883">
        <ele>335.4</ele>
        <time>2019-03-10T11:58:06Z</time>
      </trkpt>
      <trkpt lat="44.18138" lon="1.78811">
        <ele>335.9</ele>
        <time>2019-03-10T11:58:10Z</time>
      </trkpt>
      <trkpt lat="44.18139" lon="1.78802">
        <ele>335.9</ele>
        <time>2019-03-10T11:58:14Z</time>
      </trkpt>
      <trkpt lat="44.18139" lon="1.78792">
        <ele>336.9</ele>
        <time>2019-03-10T11:58:18Z</time>
      </trkpt>
      <trkpt lat="44.1814" lon="1.78781">
        <ele>337.6</ele>
        <time>2019-03-10T11:58:22Z</time>
      </trkpt>
      <trkpt lat="44.18134" lon="1.78764">
        <ele>338</ele>
        <time>2019-03-10T11:58:26Z</time>
      </trkpt>
      <trkpt lat="44.18133" lon="1.78744">
        <ele>338.5</ele>
        <time>2019-03-10T11:58:30Z</time>
      </trkpt>
      <trkpt lat="44.18134" lon="1.78724">
        <ele>337.8</ele>
        <time>2019-03-10T11:58:34Z</time>
      </trkpt>
      <trkpt lat="44.18127" lon="1.78709">
        <ele>337.1</ele>
        <time>2019-03-10T11:58:38Z</time>
      </trkpt>
      <trkpt lat="44.18116" lon="1.78693">
        <ele>336.5</ele>
        <time>2019-03-10T11:58:42Z</time>
      </trkpt>
      <trkpt lat="44.18105" lon="1.78681">
        <ele>336.1</ele>
        <time>2019-03-10T11:58:46Z</time>
      </trkpt>
      <trkpt lat="44.18091" lon="1.78671">
        <ele>335.9</ele>
        <time>2019-03-10T11:58:50Z</time>
      </trkpt>
      <trkpt lat="44.18073" lon="1.78649">
        <ele>335.2</ele>
        <time>2019-03-10T11:58:54Z</time>
      </trkpt>
      <trkpt lat="44.18062" lon="1.78633">
        <ele>335.6</ele>
        <time>2019-03-10T11:58:58Z</time>
      </trkpt>
      <trkpt lat="44.18053" lon="1.78618">
        <ele>335.8</ele>
        <time>2019-03-10T11:59:02Z</time>
      </trkpt>
      <trkpt lat="44.18047" lon="1.78599">
        <ele>335.6</ele>
        <time>2019-03-10T11:59:06Z</time>
      </trkpt>
      <trkpt lat="44.18046" lon="1.7859">
        <ele>335.7</ele>
        <time>2019-03-10T11:59:10Z</time>
      </trkpt>
      <trkpt lat="44.18039" lon="1.78566">
        <ele>333.5</ele>
        <time>2019-03-10T11:59:14Z</time>
      </trkpt>
      <trkpt lat="44.18029" lon="1.78543">
        <ele>332.2</ele>
        <time>2019-03-10T11:59:18Z</time>
      </trkpt>
      <trkpt lat="44.18019" lon="1.78522">
        <ele>331.6</ele>
        <time>2019-03-10T11:59:22Z</time>
      </trkpt>
      <trkpt lat="44.18007" lon="1.78501">
        <ele>332.1</ele>
        <time>2019-03-10T11:59:26Z</time>
      </trkpt>
      <trkpt lat="44.17999" lon="1.78491">
        <ele>331.5</ele>
        <time>2019-03-10T11:59:30Z</time>
      </trkpt>
      <trkpt lat="44.17977" lon="1.78456">
        <ele>332</ele>
        <time>2019-03-10T11:59:34Z</time>
      </trkpt>
      <trkpt lat="44.17972" lon="1.78444">
        <ele>330.8</ele>
        <time>2019-03-10T11:59:38Z</time>
      </trkpt>
      <trkpt lat="44.17961" lon="1.78432">
        <ele>330.8</ele>
        <time>2019-03-10T11:59:42Z</time>
      </trkpt>
      <trkpt lat="44.17927" lon="1.78388">
        <ele>330.9</ele>
        <time>2019-03-10T11:59:46Z</time>
      </trkpt>
      <trkpt lat="44.17915" lon="1.78369">
        <ele>330.6</ele>
        <time>2019-03-10T11:59:50Z</time>
      </trkpt>
      <trkpt lat="44.17898" lon="1.78333">
        <ele>330.6</ele>
        <time>2019-03-10T11:59:54Z</time>
      </trkpt>
      <trkpt lat="44.17887" lon="1.78317">
        <ele>331.1</ele>
        <time>2019-03-10T11:59:58Z</time>
      </trkpt>
      <trkpt lat="44.17864" lon="1.78289">
        <ele>331.1</ele>
        <time>2019-03-10T12:00:02Z</time>
      </trkpt>
      <trkpt lat="44.1784" lon="1.78281">
        <ele>330.5</ele>
        <time>2019-03-10T12:00:06Z</time>
      </trkpt>
      <trkpt lat="44.1782" lon="1.78274">
        <ele>330.8</ele>
        <time>2019-03-10T12:00:10Z</time>
      </trkpt>
      <trkpt lat="44.17801" lon="1.78271">
        <ele>330.7</ele>
        <time>2019-03-10T12:00:14Z</time>
      </trkpt>
      <trkpt lat="44.17781" lon="1.78266">
        <ele>330.4</ele>
        <time>2019-03-10T12:00:18Z</time>
      </trkpt>
      <trkpt lat="44.1778" lon="1.78266">
        <ele>329.2</ele>
        <time>2019-03-10T12:00:22Z</time>
      </trkpt>
      <trkpt lat="44.1778" lon="1.78266">
        <ele>328</ele>
        <time>2019-03-10T12:00:26Z</time>
      </trkpt>
      <trkpt lat="44.1778" lon="1.78266">
        <ele>325.6</ele>
        <time>2019-03-10T12:00:30Z</time>
      </trkpt>
      <trkpt lat="44.17672" lon="1.78226">
        <ele>322.3</ele>
        <time>2019-03-10T12:00:34Z</time>
      </trkpt>
      <trkpt lat="44.17649" lon="1.78217">
        <ele>318.6</ele>
        <time>2019-03-10T12:00:38Z</time>
      </trkpt>
      <trkpt lat="44.17637" lon="1.78206">
        <ele>315.4</ele>
        <time>2019-03-10T12:00:42Z</time>
      </trkpt>
      <trkpt lat="44.17629" lon="1.78199">
        <ele>314</ele>
        <time>2019-03-10T12:00:46Z</time>
      </trkpt>
      <trkpt lat="44.1762" lon="1.78201">
        <ele>312.7</ele>
        <time>2019-03-10T12:00:50Z</time>
      </trkpt>
      <trkpt lat="44.1762" lon="1.78203">
        <ele>312.3</ele>
        <time>2019-03-10T12:00:54Z</time>
      </trkpt>
      <trkpt lat="44.17628" lon="1.78205">
        <ele>313</ele>
        <time>2019-03-10T12:00:58Z</time>
      </trkpt>
      <trkpt lat="44.17633" lon="1.78207">
        <ele>313.6</ele>
        <time>2019-03-10T12:01:02Z</time>
      </trkpt>
      <trkpt lat="44.17643" lon="1.78209">
        <ele>313.7</ele>
        <time>2019-03-10T12:01:06Z</time>
      </trkpt>
      <trkpt lat="44.17649" lon="1.78217">
        <ele>314.6</ele>
        <time>2019-03-10T12:01:10Z</time>
      </trkpt>
      <trkpt lat="44.17657" lon="1.78215">
        <ele>315.1</ele>
        <time>2019-03-10T12:01:14Z</time>
      </trkpt>
      <trkpt lat="44.17645" lon="1.78207">
        <ele>315.6</ele>
        <time>2019-03-10T12:01:18Z</time>
      </trkpt>
      <trkpt lat="44.17625" lon="1.78194">
        <ele>315.6</ele>
        <time>2019-03-10T12:01:22Z</time>
      </trkpt>
      <trkpt lat="44.17598" lon="1.78187">
        <ele>313.7</ele>
        <time>2019-03-10T12:01:26Z</time>
      </trkpt>
      <trkpt lat="44.17567" lon="1.78177">
        <ele>312.2</ele>
        <time>2019-03-10T12:01:30Z</time>
      </trkpt>
      <trkpt lat="44.17535" lon="1.78166">
        <ele>310.5</ele>
        <time>2019-03-10T12:01:34Z</time>
      </trkpt>
      <trkpt lat="44.17513" lon="1.78157">
        <ele>309.6</ele>
        <time>2019-03-10T12:01:38Z</time>
      </trkpt>
      <trkpt lat="44.17486" lon="1.78128">
        <ele>308.1</ele>
        <time>2019-03-10T12:01:42Z</time>
      </trkpt>
      <trkpt lat="44.17471" lon="1.78105">
        <ele>308</ele>
        <time>2019-03-10T12:01:46Z</time>
      </trkpt>
      <trkpt lat="44.17454" lon="1.78089">
        <ele>308.9</ele>
        <time>2019-03-10T12:01:50Z</time>
      </trkpt>
      <trkpt lat="44.17438" lon="1.78075">
        <ele>310</ele>
        <time>2019-03-10T12:01:54Z</time>
      </trkpt>
      <trkpt lat="44.1742" lon="1.78074">
        <ele>310.9</ele>
        <time>2019-03-10T12:01:58Z</time>
      </trkpt>
      <trkpt lat="44.17405" lon="1.7809">
        <ele>311</ele>
        <time>2019-03-10T12:02:02Z</time>
      </trkpt>
      <trkpt lat="44.17391" lon="1.78108">
        <ele>311</ele>
        <time>2019-03-10T12:02:06Z</time>
      </trkpt>
      <trkpt lat="44.17374" lon="1.78132">
        <ele>312.2</ele>
        <time>2019-03-10T12:02:10Z</time>
      </trkpt>
      <trkpt lat="44.1736" lon="1.78148">
        <ele>312.8</ele>
        <time>2019-03-10T12:02:14Z</time>
      </trkpt>
      <trkpt lat="44.17346" lon="1.78145">
        <ele>312.8</ele>
        <time>2019-03-10T12:02:18Z</time>
      </trkpt>
      <trkpt lat="44.17339" lon="1.78132">
        <ele>313.7</ele>
        <time>2019-03-10T12:02:22Z</time>
      </trkpt>
      <trkpt lat="44.17328" lon="1.78109">
        <ele>313.7</ele>
        <time>2019-03-10T12:02:26Z</time>
      </trkpt>
      <trkpt lat="44.17318" lon="1.78082">
        <ele>312.4</ele>
        <time>2019-03-10T12:02:30Z</time>
      </trkpt>
      <trkpt lat="44.17302" lon="1.78054">
        <ele>310.9</ele>
        <time>2019-03-10T12:02:34Z</time>
      </trkpt>
      <trkpt lat="44.17287" lon="1.78016">
        <ele>308.6</ele>
        <time>2019-03-10T12:02:38Z</time>
      </trkpt>
      <trkpt lat="44.17262" lon="1.77996">
        <ele>306</ele>
        <time>2019-03-10T12:02:42Z</time>
      </trkpt>
      <trkpt lat="44.17224" lon="1.77976">
        <ele>303.2</ele>
        <time>2019-03-10T12:02:46Z</time>
      </trkpt>
      <trkpt lat="44.1719" lon="1.77972">
        <ele>299.6</ele>
        <time>2019-03-10T12:02:50Z</time>
      </trkpt>
      <trkpt lat="44.17167" lon="1.77951">
        <ele>296.8</ele>
        <time>2019-03-10T12:02:54Z</time>
      </trkpt>
      <trkpt lat="44.17163" lon="1.77925">
        <ele>295.5</ele>
        <time>2019-03-10T12:02:58Z</time>
      </trkpt>
      <trkpt lat="44.17157" lon="1.77905">
        <ele>295.5</ele>
        <time>2019-03-10T12:03:02Z</time>
      </trkpt>
      <trkpt lat="44.17154" lon="1.77887">
        <ele>296.7</ele>
        <time>2019-03-10T12:03:06Z</time>
      </trkpt>
      <trkpt lat="44.17153" lon="1.77876">
        <ele>298.1</ele>
        <time>2019-03-10T12:03:10Z</time>
      </trkpt>
      <trkpt lat="44.17151" lon="1.77858">
        <ele>299.5</ele>
        <time>2019-03-10T12:03:14Z</time>
      </trkpt>
      <trkpt lat="44.17148" lon="1.77841">
        <ele>300.5</ele>
        <time>2019-03-10T12:03:18Z</time>
      </trkpt>
      <trkpt lat="44.17141" lon="1.77828">
        <ele>301.4</ele>
        <time>2019-03-10T12:03:22Z</time>
      </trkpt>
      <trkpt lat="44.17131" lon="1.77814">
        <ele>302.2</ele>
        <time>2019-03-10T12:03:26Z</time>
      </trkpt>
      <trkpt lat="44.17121" lon="1.77796">
        <ele>302.2</ele>
        <time>2019-03-10T12:03:30Z</time>
      </trkpt>
      <trkpt lat="44.17114" lon="1.77774">
        <ele>302.9</ele>
        <time>2019-03-10T12:03:34Z</time>
      </trkpt>
      <trkpt lat="44.17109" lon="1.7775">
        <ele>303.1</ele>
        <time>2019-03-10T12:03:38Z</time>
      </trkpt>
      <trkpt lat="44.17103" lon="1.77727">
        <ele>301.9</ele>
        <time>2019-03-10T12:03:42Z</time>
      </trkpt>
      <trkpt lat="44.17094" lon="1.77706">
        <ele>301.9</ele>
        <time>2019-03-10T12:03:46Z</time>
      </trkpt>
      <trkpt lat="44.17084" lon="1.77679">
        <ele>299.6</ele>
        <time>2019-03-10T12:03:50Z</time>
      </trkpt>
      <trkpt lat="44.17072" lon="1.7765">
        <ele>298.6</ele>
        <time>2019-03-10T12:03:54Z</time>
      </trkpt>
      <trkpt lat="44.1706" lon="1.77621">
        <ele>297</ele>
        <time>2019-03-10T12:03:58Z</time>
      </trkpt>
      <trkpt lat="44.17042" lon="1.77585">
        <ele>295.6</ele>
        <time>2019-03-10T12:04:02Z</time>
      </trkpt>
      <trkpt lat="44.17038" lon="1.77551">
        <ele>292.6</ele>
        <time>2019-03-10T12:04:06Z</time>
      </trkpt>
      <trkpt lat="44.1704" lon="1.77512">
        <ele>291.3</ele>
        <time>2019-03-10T12:04:10Z</time>
      </trkpt>
      <trkpt lat="44.17023" lon="1.7747">
        <ele>288.7</ele>
        <time>2019-03-10T12:04:14Z</time>
      </trkpt>
      <trkpt lat="44.17008" lon="1.7744">
        <ele>287.7</ele>
        <time>2019-03-10T12:04:18Z</time>
      </trkpt>
      <trkpt lat="44.16998" lon="1.77409">
        <ele>287.6</ele>
        <time>2019-03-10T12:04:22Z</time>
      </trkpt>
      <trkpt lat="44.16991" lon="1.77382">
        <ele>288.3</ele>
        <time>2019-03-10T12:04:26Z</time>
      </trkpt>
      <trkpt lat="44.16994" lon="1.77362">
        <ele>288.3</ele>
        <time>2019-03-10T12:04:30Z</time>
      </trkpt>
      <trkpt lat="44.17008" lon="1.77343">
        <ele>287.5</ele>
        <time>2019-03-10T12:04:34Z</time>
      </trkpt>
      <trkpt lat="44.17024" lon="1.7732">
        <ele>288.4</ele>
        <time>2019-03-10T12:04:38Z</time>
      </trkpt>
      <trkpt lat="44.17041" lon="1.77302">
        <ele>288.5</ele>
        <time>2019-03-10T12:04:42Z</time>
      </trkpt>
      <trkpt lat="44.17059" lon="1.77286">
        <ele>288.8</ele>
        <time>2019-03-10T12:04:46Z</time>
      </trkpt>
      <trkpt lat="44.17075" lon="1.77266">
        <ele>288.7</ele>
        <time>2019-03-10T12:04:50Z</time>
      </trkpt>
      <trkpt lat="44.17077" lon="1.77232">
        <ele>289.7</ele>
        <time>2019-03-10T12:04:54Z</time>
      </trkpt>
      <trkpt lat="44.17078" lon="1.77205">
        <ele>290.5</ele>
        <time>2019-03-10T12:04:58Z</time>
      </trkpt>
      <trkpt lat="44.17073" lon="1.7718">
        <ele>291.8</ele>
        <time>2019-03-10T12:05:02Z</time>
      </trkpt>
      <trkpt lat="44.17071" lon="1.77157">
        <ele>293.1</ele>
        <time>2019-03-10T12:05:06Z</time>
      </trkpt>
      <trkpt lat="44.17068" lon="1.77121">
        <ele>293.5</ele>
        <time>2019-03-10T12:05:10Z</time>
      </trkpt>
      <trkpt lat="44.17067" lon="1.77094">
        <ele>294.3</ele>
        <time>2019-03-10T12:05:14Z</time>
      </trkpt>
      <trkpt lat="44.17063" lon="1.77068">
        <ele>294.9</ele>
        <time>2019-03-10T12:05:18Z</time>
      </trkpt>
      <trkpt lat="44.17059" lon="1.77041">
        <ele>295.7</ele>
        <time>2019-03-10T12:05:22Z</time>
      </trkpt>
      <trkpt lat="44.17057" lon="1.77015">
        <ele>295.8</ele>
        <time>2019-03-10T12:05:26Z</time>
      </trkpt>
      <trkpt lat="44.17056" lon="1.7699">
        <ele>297.2</ele>
        <time>2019-03-10T12:05:30Z</time>
      </trkpt>
      <trkpt lat="44.1705" lon="1.76976">
        <ele>298.6</ele>
        <time>2019-03-10T12:05:34Z</time>
      </trkpt>
      <trkpt lat="44.17048" lon="1.76956">
        <ele>300.8</ele>
        <time>2019-03-10T12:05:38Z</time>
      </trkpt>
      <trkpt lat="44.17049" lon="1.76942">
        <ele>301.7</ele>
        <time>2019-03-10T12:05:42Z</time>
      </trkpt>
      <trkpt lat="44.17046" lon="1.76927">
        <ele>302.7</ele>
        <time>2019-03-10T12:05:46Z</time>
      </trkpt>
      <trkpt lat="44.1705" lon="1.7691">
        <ele>303.8</ele>
        <time>2019-03-10T12:05:50Z</time>
      </trkpt>
      <trkpt lat="44.17053" lon="1.76891">
        <ele>304.8</ele>
        <time>2019-03-10T12:05:54Z</time>
      </trkpt>
      <trkpt lat="44.17052" lon="1.7687">
        <ele>305.8</ele>
        <time>2019-03-10T12:05:58Z</time>
      </trkpt>
      <trkpt lat="44.17051" lon="1.76851">
        <ele>306.5</ele>
        <time>2019-03-10T12:06:02Z</time>
      </trkpt>
      <trkpt lat="44.17051" lon="1.76837">
        <ele>307.5</ele>
        <time>2019-03-10T12:06:06Z</time>
      </trkpt>
      <trkpt lat="44.17053" lon="1.76819">
        <ele>307.5</ele>
        <time>2019-03-10T12:06:10Z</time>
      </trkpt>
      <trkpt lat="44.1705" lon="1.76803">
        <ele>308.2</ele>
        <time>2019-03-10T12:06:14Z</time>
      </trkpt>
      <trkpt lat="44.17047" lon="1.7678">
        <ele>308.9</ele>
        <time>2019-03-10T12:06:18Z</time>
      </trkpt>
      <trkpt lat="44.17047" lon="1.76761">
        <ele>309.3</ele>
        <time>2019-03-10T12:06:22Z</time>
      </trkpt>
      <trkpt lat="44.17046" lon="1.76736">
        <ele>309.3</ele>
        <time>2019-03-10T12:06:26Z</time>
      </trkpt>
      <trkpt lat="44.17045" lon="1.76718">
        <ele>309.5</ele>
        <time>2019-03-10T12:06:30Z</time>
      </trkpt>
      <trkpt lat="44.17038" lon="1.76695">
        <ele>310.5</ele>
        <time>2019-03-10T12:06:34Z</time>
      </trkpt>
      <trkpt lat="44.17029" lon="1.76678">
        <ele>310.5</ele>
        <time>2019-03-10T12:06:38Z</time>
      </trkpt>
      <trkpt lat="44.17021" lon="1.76651">
        <ele>310.9</ele>
        <time>2019-03-10T12:06:42Z</time>
      </trkpt>
      <trkpt lat="44.17015" lon="1.76626">
        <ele>310.5</ele>
        <time>2019-03-10T12:06:46Z</time>
      </trkpt>
      <trkpt lat="44.17017" lon="1.76599">
        <ele>309.9</ele>
        <time>2019-03-10T12:06:50Z</time>
      </trkpt>
      <trkpt lat="44.17024" lon="1.7657">
        <ele>308.4</ele>
        <time>2019-03-10T12:06:54Z</time>
      </trkpt>
      <trkpt lat="44.17026" lon="1.76539">
        <ele>308.1</ele>
        <time>2019-03-10T12:06:58Z</time>
      </trkpt>
      <trkpt lat="44.17033" lon="1.76514">
        <ele>308.2</ele>
        <time>2019-03-10T12:07:02Z</time>
      </trkpt>
      <trkpt lat="44.17049" lon="1.76493">
        <ele>307.3</ele>
        <time>2019-03-10T12:07:06Z</time>
      </trkpt>
      <trkpt lat="44.17065" lon="1.76467">
        <ele>307</ele>
        <time>2019-03-10T12:07:10Z</time>
      </trkpt>
      <trkpt lat="44.1708" lon="1.76441">
        <ele>307</ele>
        <time>2019-03-10T12:07:14Z</time>
      </trkpt>
      <trkpt lat="44.17095" lon="1.76418">
        <ele>306.4</ele>
        <time>2019-03-10T12:07:18Z</time>
      </trkpt>
      <trkpt lat="44.17109" lon="1.76397">
        <ele>306.6</ele>
        <time>2019-03-10T12:07:22Z</time>
      </trkpt>
      <trkpt lat="44.17119" lon="1.7637">
        <ele>306.1</ele>
        <time>2019-03-10T12:07:26Z</time>
      </trkpt>
      <trkpt lat="44.17128" lon="1.7634">
        <ele>305.3</ele>
        <time>2019-03-10T12:07:30Z</time>
      </trkpt>
      <trkpt lat="44.17138" lon="1.76309">
        <ele>303.9</ele>
        <time>2019-03-10T12:07:34Z</time>
      </trkpt>
      <trkpt lat="44.17145" lon="1.76269">
        <ele>301.8</ele>
        <time>2019-03-10T12:07:38Z</time>
      </trkpt>
      <trkpt lat="44.17156" lon="1.76225">
        <ele>298.7</ele>
        <time>2019-03-10T12:07:42Z</time>
      </trkpt>
      <trkpt lat="44.17166" lon="1.76168">
        <ele>294</ele>
        <time>2019-03-10T12:07:46Z</time>
      </trkpt>
      <trkpt lat="44.1717" lon="1.76106">
        <ele>289.5</ele>
        <time>2019-03-10T12:07:50Z</time>
      </trkpt>
      <trkpt lat="44.1718" lon="1.76049">
        <ele>286.7</ele>
        <time>2019-03-10T12:07:54Z</time>
      </trkpt>
      <trkpt lat="44.1719" lon="1.76013">
        <ele>285.5</ele>
        <time>2019-03-10T12:07:58Z</time>
      </trkpt>
      <trkpt lat="44.17184" lon="1.75987">
        <ele>283.2</ele>
        <time>2019-03-10T12:08:02Z</time>
      </trkpt>
      <trkpt lat="44.17166" lon="1.75984">
        <ele>282.2</ele>
        <time>2019-03-10T12:08:06Z</time>
      </trkpt>
      <trkpt lat="44.17149" lon="1.75992">
        <ele>282.2</ele>
        <time>2019-03-10T12:08:10Z</time>
      </trkpt>
      <trkpt lat="44.17128" lon="1.75999">
        <ele>281</ele>
        <time>2019-03-10T12:08:14Z</time>
      </trkpt>
      <trkpt lat="44.17104" lon="1.76009">
        <ele>279.8</ele>
        <time>2019-03-10T12:08:18Z</time>
      </trkpt>
      <trkpt lat="44.17085" lon="1.76018">
        <ele>277.6</ele>
        <time>2019-03-10T12:08:22Z</time>
      </trkpt>
      <trkpt lat="44.17078" lon="1.76043">
        <ele>275.3</ele>
        <time>2019-03-10T12:08:26Z</time>
      </trkpt>
      <trkpt lat="44.17063" lon="1.76065">
        <ele>273.9</ele>
        <time>2019-03-10T12:08:30Z</time>
      </trkpt>
      <trkpt lat="44.17034" lon="1.7608">
        <ele>272.2</ele>
        <time>2019-03-10T12:08:34Z</time>
      </trkpt>
      <trkpt lat="44.16999" lon="1.76092">
        <ele>269.8</ele>
        <time>2019-03-10T12:08:38Z</time>
      </trkpt>
      <trkpt lat="44.16963" lon="1.76097">
        <ele>267</ele>
        <time>2019-03-10T12:08:42Z</time>
      </trkpt>
      <trkpt lat="44.16941" lon="1.76087">
        <ele>264.6</ele>
        <time>2019-03-10T12:08:46Z</time>
      </trkpt>
      <trkpt lat="44.16943" lon="1.76068">
        <ele>263.8</ele>
        <time>2019-03-10T12:08:50Z</time>
      </trkpt>
      <trkpt lat="44.16944" lon="1.76043">
        <ele>264.3</ele>
        <time>2019-03-10T12:08:54Z</time>
      </trkpt>
      <trkpt lat="44.16947" lon="1.76025">
        <ele>265.7</ele>
        <time>2019-03-10T12:08:58Z</time>
      </trkpt>
      <trkpt lat="44.16944" lon="1.76002">
        <ele>265.9</ele>
        <time>2019-03-10T12:09:02Z</time>
      </trkpt>
      <trkpt lat="44.16943" lon="1.75981">
        <ele>267.1</ele>
        <time>2019-03-10T12:09:06Z</time>
      </trkpt>
      <trkpt lat="44.16942" lon="1.75962">
        <ele>268</ele>
        <time>2019-03-10T12:09:10Z</time>
      </trkpt>
      <trkpt lat="44.1694" lon="1.75949">
        <ele>268.1</ele>
        <time>2019-03-10T12:09:14Z</time>
      </trkpt>
      <trkpt lat="44.16939" lon="1.75932">
        <ele>269.4</ele>
        <time>2019-03-10T12:09:18Z</time>
      </trkpt>
      <trkpt lat="44.16934" lon="1.75915">
        <ele>270.7</ele>
        <time>2019-03-10T12:09:22Z</time>
      </trkpt>
      <trkpt lat="44.16932" lon="1.75907">
        <ele>272.6</ele>
        <time>2019-03-10T12:09:26Z</time>
      </trkpt>
      <trkpt lat="44.16932" lon="1.75895">
        <ele>273.8</ele>
        <time>2019-03-10T12:09:30Z</time>
      </trkpt>
      <trkpt lat="44.16936" lon="1.75886">
        <ele>275.2</ele>
        <time>2019-03-10T12:09:34Z</time>
      </trkpt>
      <trkpt lat="44.16939" lon="1.75878">
        <ele>275.2</ele>
        <time>2019-03-10T12:09:38Z</time>
      </trkpt>
      <trkpt lat="44.16939" lon="1.75865">
        <ele>276.8</ele>
        <time>2019-03-10T12:09:42Z</time>
      </trkpt>
      <trkpt lat="44.16937" lon="1.75854">
        <ele>278</ele>
        <time>2019-03-10T12:09:46Z</time>
      </trkpt>
      <trkpt lat="44.16935" lon="1.75846">
        <ele>279</ele>
        <time>2019-03-10T12:09:50Z</time>
      </trkpt>
      <trkpt lat="44.16933" lon="1.75839">
        <ele>279.7</ele>
        <time>2019-03-10T12:09:54Z</time>
      </trkpt>
      <trkpt lat="44.16929" lon="1.75831">
        <ele>279.8</ele>
        <time>2019-03-10T12:09:58Z</time>
      </trkpt>
      <trkpt lat="44.16928" lon="1.75821">
        <ele>279.8</ele>
        <time>2019-03-10T12:10:02Z</time>
      </trkpt>
      <trkpt lat="44.16925" lon="1.75812">
        <ele>279.6</ele>
        <time>2019-03-10T12:10:06Z</time>
      </trkpt>
      <trkpt lat="44.16915" lon="1.75805">
        <ele>279.6</ele>
        <time>2019-03-10T12:10:10Z</time>
      </trkpt>
      <trkpt lat="44.16902" lon="1.75797">
        <ele>277.6</ele>
        <time>2019-03-10T12:10:14Z</time>
      </trkpt>
      <trkpt lat="44.16891" lon="1.75804">
        <ele>275.9</ele>
        <time>2019-03-10T12:10:18Z</time>
      </trkpt>
      <trkpt lat="44.16879" lon="1.75811">
        <ele>275.6</ele>
        <time>2019-03-10T12:10:22Z</time>
      </trkpt>
      <trkpt lat="44.16867" lon="1.75807">
        <ele>276.6</ele>
        <time>2019-03-10T12:10:26Z</time>
      </trkpt>
      <trkpt lat="44.16851" lon="1.75793">
        <ele>276.6</ele>
        <time>2019-03-10T12:10:30Z</time>
      </trkpt>
      <trkpt lat="44.16844" lon="1.75774">
        <ele>275.4</ele>
        <time>2019-03-10T12:10:34Z</time>
      </trkpt>
      <trkpt lat="44.16836" lon="1.75744">
        <ele>274.4</ele>
        <time>2019-03-10T12:10:38Z</time>
      </trkpt>
      <trkpt lat="44.16832" lon="1.75713">
        <ele>273.2</ele>
        <time>2019-03-10T12:10:42Z</time>
      </trkpt>
      <trkpt lat="44.16827" lon="1.75683">
        <ele>270.6</ele>
        <time>2019-03-10T12:10:46Z</time>
      </trkpt>
      <trkpt lat="44.16824" lon="1.75651">
        <ele>268</ele>
        <time>2019-03-10T12:10:50Z</time>
      </trkpt>
      <trkpt lat="44.16817" lon="1.75628">
        <ele>266.6</ele>
        <time>2019-03-10T12:10:54Z</time>
      </trkpt>
      <trkpt lat="44.16808" lon="1.75607">
        <ele>265.7</ele>
        <time>2019-03-10T12:10:58Z</time>
      </trkpt>
      <trkpt lat="44.16799" lon="1.75593">
        <ele>266.1</ele>
        <time>2019-03-10T12:11:02Z</time>
      </trkpt>
      <trkpt lat="44.16791" lon="1.75575">
        <ele>266.7</ele>
        <time>2019-03-10T12:11:06Z</time>
      </trkpt>
      <trkpt lat="44.16787" lon="1.75565">
        <ele>268.2</ele>
        <time>2019-03-10T12:11:10Z</time>
      </trkpt>
      <trkpt lat="44.16784" lon="1.7555">
        <ele>268.4</ele>
        <time>2019-03-10T12:11:14Z</time>
      </trkpt>
      <trkpt lat="44.16782" lon="1.75535">
        <ele>268.4</ele>
        <time>2019-03-10T12:11:18Z</time>
      </trkpt>
      <trkpt lat="44.16799" lon="1.75526">
        <ele>267.2</ele>
        <time>2019-03-10T12:11:22Z</time>
      </trkpt>
      <trkpt lat="44.16814" lon="1.75505">
        <ele>266.3</ele>
        <time>2019-03-10T12:11:26Z</time>
      </trkpt>
      <trkpt lat="44.16818" lon="1.75475">
        <ele>264.6</ele>
        <time>2019-03-10T12:11:30Z</time>
      </trkpt>
      <trkpt lat="44.16804" lon="1.75465">
        <ele>263.2</ele>
        <time>2019-03-10T12:11:34Z</time>
      </trkpt>
      <trkpt lat="44.16778" lon="1.75467">
        <ele>262</ele>
        <time>2019-03-10T12:11:38Z</time>
      </trkpt>
      <trkpt lat="44.16747" lon="1.75478">
        <ele>258.7</ele>
        <time>2019-03-10T12:11:42Z</time>
      </trkpt>
      <trkpt lat="44.16721" lon="1.75491">
        <ele>252.1</ele>
        <time>2019-03-10T12:11:46Z</time>
      </trkpt>
      <trkpt lat="44.16707" lon="1.75505">
        <ele>249.4</ele>
        <time>2019-03-10T12:11:50Z</time>
      </trkpt>
      <trkpt lat="44.16706" lon="1.75506">
        <ele>248.2</ele>
        <time>2019-03-10T12:11:54Z</time>
      </trkpt>
      <trkpt lat="44.16706" lon="1.75503">
        <ele>247.1</ele>
        <time>2019-03-10T12:11:58Z</time>
      </trkpt>
      <trkpt lat="44.16712" lon="1.75498">
        <ele>246.3</ele>
        <time>2019-03-10T12:12:18Z</time>
      </trkpt>
      <trkpt lat="44.16718" lon="1.75485">
        <ele>244.8</ele>
        <time>2019-03-10T12:12:22Z</time>
      </trkpt>
      <trkpt lat="44.16724" lon="1.75471">
        <ele>242.8</ele>
        <time>2019-03-10T12:12:26Z</time>
      </trkpt>
      <trkpt lat="44.16728" lon="1.75463">
        <ele>241.2</ele>
        <time>2019-03-10T12:12:30Z</time>
      </trkpt>
      <trkpt lat="44.1672" lon="1.75459">
        <ele>238.9</ele>
        <time>2019-03-10T12:12:34Z</time>
      </trkpt>
      <trkpt lat="44.16709" lon="1.75464">
        <ele>237.5</ele>
        <time>2019-03-10T12:12:38Z</time>
      </trkpt>
      <trkpt lat="44.16694" lon="1.7547">
        <ele>235.1</ele>
        <time>2019-03-10T12:12:42Z</time>
      </trkpt>
      <trkpt lat="44.16677" lon="1.75481">
        <ele>232</ele>
        <time>2019-03-10T12:12:46Z</time>
      </trkpt>
      <trkpt lat="44.16667" lon="1.75485">
        <ele>228</ele>
        <time>2019-03-10T12:12:50Z</time>
      </trkpt>
      <trkpt lat="44.16656" lon="1.75488">
        <ele>226.7</ele>
        <time>2019-03-10T12:12:54Z</time>
      </trkpt>
      <trkpt lat="44.16646" lon="1.75492">
        <ele>223.8</ele>
        <time>2019-03-10T12:12:58Z</time>
      </trkpt>
      <trkpt lat="44.16633" lon="1.75497">
        <ele>219.8</ele>
        <time>2019-03-10T12:13:02Z</time>
      </trkpt>
      <trkpt lat="44.16619" lon="1.75498">
        <ele>218.7</ele>
        <time>2019-03-10T12:13:06Z</time>
      </trkpt>
      <trkpt lat="44.1661" lon="1.75498">
        <ele>216</ele>
        <time>2019-03-10T12:13:10Z</time>
      </trkpt>
      <trkpt lat="44.16596" lon="1.75499">
        <ele>213</ele>
        <time>2019-03-10T12:13:14Z</time>
      </trkpt>
      <trkpt lat="44.16586" lon="1.755">
        <ele>209.2</ele>
        <time>2019-03-10T12:13:18Z</time>
      </trkpt>
      <trkpt lat="44.16581" lon="1.75508">
        <ele>206</ele>
        <time>2019-03-10T12:13:22Z</time>
      </trkpt>
      <trkpt lat="44.16572" lon="1.75508">
        <ele>203.7</ele>
        <time>2019-03-10T12:13:26Z</time>
      </trkpt>
      <trkpt lat="44.1656" lon="1.75507">
        <ele>201</ele>
        <time>2019-03-10T12:13:30Z</time>
      </trkpt>
      <trkpt lat="44.16563" lon="1.75501">
        <ele>199.7</ele>
        <time>2019-03-10T12:13:34Z</time>
      </trkpt>
      <trkpt lat="44.16573" lon="1.7549">
        <ele>196.6</ele>
        <time>2019-03-10T12:13:38Z</time>
      </trkpt>
      <trkpt lat="44.16581" lon="1.75483">
        <ele>193.1</ele>
        <time>2019-03-10T12:13:42Z</time>
      </trkpt>
      <trkpt lat="44.16587" lon="1.75472">
        <ele>189.7</ele>
        <time>2019-03-10T12:13:46Z</time>
      </trkpt>
      <trkpt lat="44.16593" lon="1.75461">
        <ele>188.6</ele>
        <time>2019-03-10T12:13:50Z</time>
      </trkpt>
      <trkpt lat="44.16597" lon="1.75456">
        <ele>187.5</ele>
        <time>2019-03-10T12:13:54Z</time>
      </trkpt>
      <trkpt lat="44.16603" lon="1.7545">
        <ele>184.9</ele>
        <time>2019-03-10T12:13:58Z</time>
      </trkpt>
      <trkpt lat="44.16614" lon="1.75446">
        <ele>182.2</ele>
        <time>2019-03-10T12:14:02Z</time>
      </trkpt>
      <trkpt lat="44.16628" lon="1.75444">
        <ele>179.2</ele>
        <time>2019-03-10T12:14:06Z</time>
      </trkpt>
      <trkpt lat="44.16639" lon="1.75441">
        <ele>176.4</ele>
        <time>2019-03-10T12:14:10Z</time>
      </trkpt>
      <trkpt lat="44.16646" lon="1.7544">
        <ele>173.4</ele>
        <time>2019-03-10T12:14:14Z</time>
      </trkpt>
      <trkpt lat="44.16635" lon="1.75417">
        <ele>169.6</ele>
        <time>2019-03-10T12:14:18Z</time>
      </trkpt>
      <trkpt lat="44.16644" lon="1.75402">
        <ele>166.4</ele>
        <time>2019-03-10T12:14:22Z</time>
      </trkpt>
      <trkpt lat="44.16651" lon="1.75394">
        <ele>163.7</ele>
        <time>2019-03-10T12:14:26Z</time>
      </trkpt>
      <trkpt lat="44.16657" lon="1.75382">
        <ele>162.5</ele>
        <time>2019-03-10T12:14:30Z</time>
      </trkpt>
      <trkpt lat="44.16657" lon="1.75357">
        <ele>158</ele>
        <time>2019-03-10T12:14:34Z</time>
      </trkpt>
      <trkpt lat="44.16655" lon="1.7534">
        <ele>155.5</ele>
        <time>2019-03-10T12:14:38Z</time>
      </trkpt>
      <trkpt lat="44.16656" lon="1.75325">
        <ele>152.9</ele>
        <time>2019-03-10T12:14:42Z</time>
      </trkpt>
      <trkpt lat="44.16653" lon="1.75314">
        <ele>150.5</ele>
        <time>2019-03-10T12:14:46Z</time>
      </trkpt>
      <trkpt lat="44.16651" lon="1.75297">
        <ele>148.4</ele>
        <time>2019-03-10T12:14:50Z</time>
      </trkpt>
      <trkpt lat="44.16651" lon="1.75292">
        <ele>145.8</ele>
        <time>2019-03-10T12:14:54Z</time>
      </trkpt>
      <trkpt lat="44.16648" lon="1.753">
        <ele>145.1</ele>
        <time>2019-03-10T12:14:58Z</time>
      </trkpt>
      <trkpt lat="44.16645" lon="1.75311">
        <ele>144.7</ele>
        <time>2019-03-10T12:15:02Z</time>
      </trkpt>
      <trkpt lat="44.16635" lon="1.75318">
        <ele>144.7</ele>
        <time>2019-03-10T12:15:06Z</time>
      </trkpt>
      <trkpt lat="44.16629" lon="1.75334">
        <ele>144.8</ele>
        <time>2019-03-10T12:15:10Z</time>
      </trkpt>
      <trkpt lat="44.16619" lon="1.75346">
        <ele>143.5</ele>
        <time>2019-03-10T12:15:14Z</time>
      </trkpt>
      <trkpt lat="44.16613" lon="1.75361">
        <ele>143.1</ele>
        <time>2019-03-10T12:15:18Z</time>
      </trkpt>
      <trkpt lat="44.16597" lon="1.75369">
        <ele>144</ele>
        <time>2019-03-10T12:15:22Z</time>
      </trkpt>
      <trkpt lat="44.16579" lon="1.75373">
        <ele>143.7</ele>
        <time>2019-03-10T12:15:26Z</time>
      </trkpt>
      <trkpt lat="44.16563" lon="1.75385">
        <ele>144.7</ele>
        <time>2019-03-10T12:15:30Z</time>
      </trkpt>
      <trkpt lat="44.16556" lon="1.75392">
        <ele>146.1</ele>
        <time>2019-03-10T12:15:34Z</time>
      </trkpt>
      <trkpt lat="44.16546" lon="1.75398">
        <ele>146.6</ele>
        <time>2019-03-10T12:15:38Z</time>
      </trkpt>
      <trkpt lat="44.16534" lon="1.75403">
        <ele>146.6</ele>
        <time>2019-03-10T12:15:42Z</time>
      </trkpt>
      <trkpt lat="44.16525" lon="1.75406">
        <ele>145.9</ele>
        <time>2019-03-10T12:15:46Z</time>
      </trkpt>
      <trkpt lat="44.16522" lon="1.75412">
        <ele>145.5</ele>
        <time>2019-03-10T12:15:50Z</time>
      </trkpt>
      <trkpt lat="44.1652" lon="1.75408">
        <ele>146.1</ele>
        <time>2019-03-10T12:15:54Z</time>
      </trkpt>
      <trkpt lat="44.16516" lon="1.75405">
        <ele>146.3</ele>
        <time>2019-03-10T12:15:58Z</time>
      </trkpt>
      <trkpt lat="44.16503" lon="1.754">
        <ele>147</ele>
        <time>2019-03-10T12:16:18Z</time>
      </trkpt>
      <trkpt lat="44.16493" lon="1.75399">
        <ele>147.2</ele>
        <time>2019-03-10T12:16:22Z</time>
      </trkpt>
      <trkpt lat="44.16486" lon="1.75396">
        <ele>147.8</ele>
        <time>2019-03-10T12:16:26Z</time>
      </trkpt>
      <trkpt lat="44.16476" lon="1.754">
        <ele>148.4</ele>
        <time>2019-03-10T12:16:30Z</time>
      </trkpt>
      <trkpt lat="44.16463" lon="1.75406">
        <ele>149</ele>
        <time>2019-03-10T12:16:34Z</time>
      </trkpt>
      <trkpt lat="44.16458" lon="1.7541">
        <ele>149.5</ele>
        <time>2019-03-10T12:16:38Z</time>
      </trkpt>
      <trkpt lat="44.1645" lon="1.75416">
        <ele>150.4</ele>
        <time>2019-03-10T12:16:42Z</time>
      </trkpt>
      <trkpt lat="44.16444" lon="1.75425">
        <ele>150.4</ele>
        <time>2019-03-10T12:16:46Z</time>
      </trkpt>
      <trkpt lat="44.16436" lon="1.75435">
        <ele>149.5</ele>
        <time>2019-03-10T12:16:50Z</time>
      </trkpt>
      <trkpt lat="44.1643" lon="1.75445">
        <ele>150</ele>
        <time>2019-03-10T12:16:54Z</time>
      </trkpt>
      <trkpt lat="44.16421" lon="1.75456">
        <ele>150.4</ele>
        <time>2019-03-10T12:16:58Z</time>
      </trkpt>
      <trkpt lat="44.1641" lon="1.75465">
        <ele>150</ele>
        <time>2019-03-10T12:17:02Z</time>
      </trkpt>
      <trkpt lat="44.16401" lon="1.75486">
        <ele>149.9</ele>
        <time>2019-03-10T12:17:06Z</time>
      </trkpt>
      <trkpt lat="44.16394" lon="1.75494">
        <ele>149</ele>
        <time>2019-03-10T12:17:10Z</time>
      </trkpt>
      <trkpt lat="44.16388" lon="1.75499">
        <ele>148.8</ele>
        <time>2019-03-10T12:17:14Z</time>
      </trkpt>
      <trkpt lat="44.16377" lon="1.75505">
        <ele>149.8</ele>
        <time>2019-03-10T12:17:18Z</time>
      </trkpt>
      <trkpt lat="44.16365" lon="1.75517">
        <ele>149.8</ele>
        <time>2019-03-10T12:17:22Z</time>
      </trkpt>
      <trkpt lat="44.16359" lon="1.75527">
        <ele>149.1</ele>
        <time>2019-03-10T12:17:26Z</time>
      </trkpt>
      <trkpt lat="44.16353" lon="1.75535">
        <ele>148.6</ele>
        <time>2019-03-10T12:17:30Z</time>
      </trkpt>
      <trkpt lat="44.16347" lon="1.75557">
        <ele>148.6</ele>
        <time>2019-03-10T12:17:34Z</time>
      </trkpt>
      <trkpt lat="44.16342" lon="1.75579">
        <ele>147.7</ele>
        <time>2019-03-10T12:17:38Z</time>
      </trkpt>
      <trkpt lat="44.16339" lon="1.756">
        <ele>147.6</ele>
        <time>2019-03-10T12:17:42Z</time>
      </trkpt>
      <trkpt lat="44.16333" lon="1.7562">
        <ele>145.2</ele>
        <time>2019-03-10T12:17:46Z</time>
      </trkpt>
      <trkpt lat="44.16323" lon="1.75628">
        <ele>141.7</ele>
        <time>2019-03-10T12:17:50Z</time>
      </trkpt>
      <trkpt lat="44.16306" lon="1.75631">
        <ele>138.2</ele>
        <time>2019-03-10T12:17:54Z</time>
      </trkpt>
      <trkpt lat="44.16294" lon="1.75633">
        <ele>137</ele>
        <time>2019-03-10T12:17:58Z</time>
      </trkpt>
      <trkpt lat="44.16275" lon="1.7564">
        <ele>134.5</ele>
        <time>2019-03-10T12:18:02Z</time>
      </trkpt>
      <trkpt lat="44.16261" lon="1.75648">
        <ele>131.9</ele>
        <time>2019-03-10T12:18:06Z</time>
      </trkpt>
      <trkpt lat="44.16246" lon="1.75657">
        <ele>130.7</ele>
        <time>2019-03-10T12:18:10Z</time>
      </trkpt>
      <trkpt lat="44.16224" lon="1.75671">
        <ele>128.5</ele>
        <time>2019-03-10T12:18:14Z</time>
      </trkpt>
      <trkpt lat="44.16214" lon="1.75684">
        <ele>127.4</ele>
        <time>2019-03-10T12:18:18Z</time>
      </trkpt>
      <trkpt lat="44.16204" lon="1.75703">
        <ele>127.1</ele>
        <time>2019-03-10T12:18:22Z</time>
      </trkpt>
      <trkpt lat="44.16195" lon="1.75715">
        <ele>127.9</ele>
        <time>2019-03-10T12:18:26Z</time>
      </trkpt>
      <trkpt lat="44.16184" lon="1.7573">
        <ele>128.4</ele>
        <time>2019-03-10T12:18:30Z</time>
      </trkpt>
      <trkpt lat="44.1617" lon="1.75742">
        <ele>126.7</ele>
        <time>2019-03-10T12:18:34Z</time>
      </trkpt>
      <trkpt lat="44.16155" lon="1.7576">
        <ele>125</ele>
        <time>2019-03-10T12:18:38Z</time>
      </trkpt>
      <trkpt lat="44.16144" lon="1.75779">
        <ele>124.9</ele>
        <time>2019-03-10T12:18:42Z</time>
      </trkpt>
      <trkpt lat="44.1613" lon="1.75796">
        <ele>124.4</ele>
        <time>2019-03-10T12:18:46Z</time>
      </trkpt>
      <trkpt lat="44.16117" lon="1.75811">
        <ele>124.2</ele>
        <time>2019-03-10T12:18:50Z</time>
      </trkpt>
      <trkpt lat="44.16108" lon="1.75833">
        <ele>123</ele>
        <time>2019-03-10T12:18:54Z</time>
      </trkpt>
      <trkpt lat="44.1609" lon="1.75855">
        <ele>122.6</ele>
        <time>2019-03-10T12:18:58Z</time>
      </trkpt>
      <trkpt lat="44.16071" lon="1.75878">
        <ele>121.2</ele>
        <time>2019-03-10T12:19:02Z</time>
      </trkpt>
      <trkpt lat="44.16057" lon="1.75891">
        <ele>120.7</ele>
        <time>2019-03-10T12:19:06Z</time>
      </trkpt>
      <trkpt lat="44.1604" lon="1.75901">
        <ele>120.7</ele>
        <time>2019-03-10T12:19:10Z</time>
      </trkpt>
      <trkpt lat="44.16023" lon="1.75899">
        <ele>120.5</ele>
        <time>2019-03-10T12:19:14Z</time>
      </trkpt>
      <trkpt lat="44.16006" lon="1.75897">
        <ele>121.6</ele>
        <time>2019-03-10T12:19:18Z</time>
      </trkpt>
      <trkpt lat="44.15989" lon="1.75891">
        <ele>122.5</ele>
        <time>2019-03-10T12:19:22Z</time>
      </trkpt>
      <trkpt lat="44.15977" lon="1.75887">
        <ele>123.3</ele>
        <time>2019-03-10T12:19:26Z</time>
      </trkpt>
      <trkpt lat="44.15959" lon="1.75885">
        <ele>123.4</ele>
        <time>2019-03-10T12:19:30Z</time>
      </trkpt>
      <trkpt lat="44.1594" lon="1.75875">
        <ele>123.4</ele>
        <time>2019-03-10T12:19:34Z</time>
      </trkpt>
      <trkpt lat="44.15924" lon="1.75871">
        <ele>124.4</ele>
        <time>2019-03-10T12:19:38Z</time>
      </trkpt>
      <trkpt lat="44.15906" lon="1.75866">
        <ele>124.4</ele>
        <time>2019-03-10T12:19:42Z</time>
      </trkpt>
      <trkpt lat="44.15887" lon="1.75855">
        <ele>123.2</ele>
        <time>2019-03-10T12:19:46Z</time>
      </trkpt>
      <trkpt lat="44.15868" lon="1.75851">
        <ele>122.2</ele>
        <time>2019-03-10T12:19:50Z</time>
      </trkpt>
      <trkpt lat="44.1585" lon="1.75848">
        <ele>122.1</ele>
        <time>2019-03-10T12:19:54Z</time>
      </trkpt>
      <trkpt lat="44.15833" lon="1.75849">
        <ele>122.5</ele>
        <time>2019-03-10T12:19:58Z</time>
      </trkpt>
      <trkpt lat="44.15815" lon="1.75855">
        <ele>122</ele>
        <time>2019-03-10T12:20:02Z</time>
      </trkpt>
      <trkpt lat="44.158" lon="1.75863">
        <ele>121.6</ele>
        <time>2019-03-10T12:20:06Z</time>
      </trkpt>
      <trkpt lat="44.15779" lon="1.75865">
        <ele>121.6</ele>
        <time>2019-03-10T12:20:10Z</time>
      </trkpt>
      <trkpt lat="44.1577" lon="1.75867">
        <ele>119.7</ele>
        <time>2019-03-10T12:20:14Z</time>
      </trkpt>
      <trkpt lat="44.15774" lon="1.75859">
        <ele>119.1</ele>
        <time>2019-03-10T12:20:18Z</time>
      </trkpt>
      <trkpt lat="44.1579" lon="1.75848">
        <ele>118.6</ele>
        <time>2019-03-10T12:20:22Z</time>
      </trkpt>
      <trkpt lat="44.15809" lon="1.75827">
        <ele>117.3</ele>
        <time>2019-03-10T12:20:26Z</time>
      </trkpt>
      <trkpt lat="44.15832" lon="1.75791">
        <ele>114.7</ele>
        <time>2019-03-10T12:20:30Z</time>
      </trkpt>
      <trkpt lat="44.15855" lon="1.7575">
        <ele>112</ele>
        <time>2019-03-10T12:20:34Z</time>
      </trkpt>
      <trkpt lat="44.1587" lon="1.75713">
        <ele>109.7</ele>
        <time>2019-03-10T12:20:38Z</time>
      </trkpt>
      <trkpt lat="44.1588" lon="1.75692">
        <ele>108.9</ele>
        <time>2019-03-10T12:20:42Z</time>
      </trkpt>
      <trkpt lat="44.15902" lon="1.7569">
        <ele>108.8</ele>
        <time>2019-03-10T12:20:46Z</time>
      </trkpt>
      <trkpt lat="44.1592" lon="1.75688">
        <ele>109.5</ele>
        <time>2019-03-10T12:20:50Z</time>
      </trkpt>
      <trkpt lat="44.15936" lon="1.75689">
        <ele>109.1</ele>
        <time>2019-03-10T12:20:54Z</time>
      </trkpt>
      <trkpt lat="44.15949" lon="1.75687">
        <ele>109.1</ele>
        <time>2019-03-10T12:20:58Z</time>
      </trkpt>
      <trkpt lat="44.15971" lon="1.75679">
        <ele>108.6</ele>
        <time>2019-03-10T12:21:02Z</time>
      </trkpt>
      <trkpt lat="44.15992" lon="1.75664">
        <ele>108.6</ele>
        <time>2019-03-10T12:21:06Z</time>
      </trkpt>
      <trkpt lat="44.16011" lon="1.75648">
        <ele>108.5</ele>
        <time>2019-03-10T12:21:10Z</time>
      </trkpt>
      <trkpt lat="44.16025" lon="1.75635">
        <ele>108.5</ele>
        <time>2019-03-10T12:21:14Z</time>
      </trkpt>
      <trkpt lat="44.1604" lon="1.75624">
        <ele>108.5</ele>
        <time>2019-03-10T12:21:18Z</time>
      </trkpt>
      <trkpt lat="44.16052" lon="1.75613">
        <ele>108.5</ele>
        <time>2019-03-10T12:21:22Z</time>
      </trkpt>
      <trkpt lat="44.16066" lon="1.75601">
        <ele>108.9</ele>
        <time>2019-03-10T12:21:26Z</time>
      </trkpt>
      <trkpt lat="44.16077" lon="1.75587">
        <ele>108.8</ele>
        <time>2019-03-10T12:21:30Z</time>
      </trkpt>
      <trkpt lat="44.16086" lon="1.75568">
        <ele>109.5</ele>
        <time>2019-03-10T12:21:34Z</time>
      </trkpt>
      <trkpt lat="44.16094" lon="1.75551">
        <ele>109.6</ele>
        <time>2019-03-10T12:21:38Z</time>
      </trkpt>
      <trkpt lat="44.16099" lon="1.75532">
        <ele>109.6</ele>
        <time>2019-03-10T12:21:42Z</time>
      </trkpt>
      <trkpt lat="44.16108" lon="1.75513">
        <ele>109.6</ele>
        <time>2019-03-10T12:21:46Z</time>
      </trkpt>
      <trkpt lat="44.16118" lon="1.75496">
        <ele>109.8</ele>
        <time>2019-03-10T12:21:50Z</time>
      </trkpt>
      <trkpt lat="44.16122" lon="1.7548">
        <ele>109.8</ele>
        <time>2019-03-10T12:21:54Z</time>
      </trkpt>
      <trkpt lat="44.16127" lon="1.75461">
        <ele>110.7</ele>
        <time>2019-03-10T12:21:58Z</time>
      </trkpt>
      <trkpt lat="44.16129" lon="1.75443">
        <ele>110.2</ele>
        <time>2019-03-10T12:22:02Z</time>
      </trkpt>
      <trkpt lat="44.16116" lon="1.75428">
        <ele>110.2</ele>
        <time>2019-03-10T12:22:06Z</time>
      </trkpt>
      <trkpt lat="44.16102" lon="1.75421">
        <ele>111.4</ele>
        <time>2019-03-10T12:22:10Z</time>
      </trkpt>
      <trkpt lat="44.16087" lon="1.75423">
        <ele>111.9</ele>
        <time>2019-03-10T12:22:14Z</time>
      </trkpt>
      <trkpt lat="44.16072" lon="1.75434">
        <ele>112.8</ele>
        <time>2019-03-10T12:22:18Z</time>
      </trkpt>
      <trkpt lat="44.16059" lon="1.75445">
        <ele>113.6</ele>
        <time>2019-03-10T12:22:22Z</time>
      </trkpt>
      <trkpt lat="44.16049" lon="1.7546">
        <ele>113.2</ele>
        <time>2019-03-10T12:22:26Z</time>
      </trkpt>
      <trkpt lat="44.16034" lon="1.75478">
        <ele>113</ele>
        <time>2019-03-10T12:22:30Z</time>
      </trkpt>
      <trkpt lat="44.16012" lon="1.75486">
        <ele>113</ele>
        <time>2019-03-10T12:22:34Z</time>
      </trkpt>
      <trkpt lat="44.1599" lon="1.75495">
        <ele>111.8</ele>
        <time>2019-03-10T12:22:38Z</time>
      </trkpt>
      <trkpt lat="44.15967" lon="1.75501">
        <ele>111.3</ele>
        <time>2019-03-10T12:22:42Z</time>
      </trkpt>
      <trkpt lat="44.15943" lon="1.75506">
        <ele>110.8</ele>
        <time>2019-03-10T12:22:46Z</time>
      </trkpt>
      <trkpt lat="44.15921" lon="1.7551">
        <ele>110.7</ele>
        <time>2019-03-10T12:22:50Z</time>
      </trkpt>
      <trkpt lat="44.159" lon="1.75514">
        <ele>111</ele>
        <time>2019-03-10T12:22:54Z</time>
      </trkpt>
      <trkpt lat="44.15879" lon="1.75515">
        <ele>110.8</ele>
        <time>2019-03-10T12:22:58Z</time>
      </trkpt>
      <trkpt lat="44.15859" lon="1.75512">
        <ele>110.5</ele>
        <time>2019-03-10T12:23:02Z</time>
      </trkpt>
      <trkpt lat="44.1584" lon="1.75509">
        <ele>110.5</ele>
        <time>2019-03-10T12:23:06Z</time>
      </trkpt>
      <trkpt lat="44.15815" lon="1.75504">
        <ele>110.6</ele>
        <time>2019-03-10T12:23:10Z</time>
      </trkpt>
      <trkpt lat="44.15796" lon="1.755">
        <ele>110.3</ele>
        <time>2019-03-10T12:23:14Z</time>
      </trkpt>
      <trkpt lat="44.15774" lon="1.75507">
        <ele>110.8</ele>
        <time>2019-03-10T12:23:18Z</time>
      </trkpt>
      <trkpt lat="44.15757" lon="1.75499">
        <ele>112.2</ele>
        <time>2019-03-10T12:23:22Z</time>
      </trkpt>
      <trkpt lat="44.15738" lon="1.75488">
        <ele>112.7</ele>
        <time>2019-03-10T12:23:26Z</time>
      </trkpt>
      <trkpt lat="44.15721" lon="1.7548">
        <ele>113</ele>
        <time>2019-03-10T12:23:30Z</time>
      </trkpt>
      <trkpt lat="44.15702" lon="1.75471">
        <ele>113.6</ele>
        <time>2019-03-10T12:23:34Z</time>
      </trkpt>
      <trkpt lat="44.15683" lon="1.75464">
        <ele>113.7</ele>
        <time>2019-03-10T12:23:38Z</time>
      </trkpt>
      <trkpt lat="44.15667" lon="1.75448">
        <ele>112.5</ele>
        <time>2019-03-10T12:23:42Z</time>
      </trkpt>
      <trkpt lat="44.15646" lon="1.75433">
        <ele>112.5</ele>
        <time>2019-03-10T12:23:46Z</time>
      </trkpt>
      <trkpt lat="44.15625" lon="1.75439">
        <ele>111.3</ele>
        <time>2019-03-10T12:23:50Z</time>
      </trkpt>
      <trkpt lat="44.15602" lon="1.75474">
        <ele>110</ele>
        <time>2019-03-10T12:23:54Z</time>
      </trkpt>
      <trkpt lat="44.15582" lon="1.75505">
        <ele>108.9</ele>
        <time>2019-03-10T12:23:58Z</time>
      </trkpt>
      <trkpt lat="44.15561" lon="1.75514">
        <ele>107.9</ele>
        <time>2019-03-10T12:24:02Z</time>
      </trkpt>
      <trkpt lat="44.1554" lon="1.75512">
        <ele>106.8</ele>
        <time>2019-03-10T12:24:06Z</time>
      </trkpt>
      <trkpt lat="44.1552" lon="1.75515">
        <ele>106.8</ele>
        <time>2019-03-10T12:24:10Z</time>
      </trkpt>
      <trkpt lat="44.155" lon="1.75522">
        <ele>106.8</ele>
        <time>2019-03-10T12:24:14Z</time>
      </trkpt>
      <trkpt lat="44.15482" lon="1.7553">
        <ele>107.6</ele>
        <time>2019-03-10T12:24:18Z</time>
      </trkpt>
      <trkpt lat="44.15465" lon="1.75536">
        <ele>107.6</ele>
        <time>2019-03-10T12:24:22Z</time>
      </trkpt>
      <trkpt lat="44.15451" lon="1.7554">
        <ele>107</ele>
        <time>2019-03-10T12:24:26Z</time>
      </trkpt>
      <trkpt lat="44.15432" lon="1.75536">
        <ele>107.2</ele>
        <time>2019-03-10T12:24:30Z</time>
      </trkpt>
      <trkpt lat="44.15415" lon="1.75531">
        <ele>106.7</ele>
        <time>2019-03-10T12:24:34Z</time>
      </trkpt>
      <trkpt lat="44.15395" lon="1.7553">
        <ele>107.3</ele>
        <time>2019-03-10T12:24:38Z</time>
      </trkpt>
      <trkpt lat="44.15379" lon="1.75527">
        <ele>107.3</ele>
        <time>2019-03-10T12:24:42Z</time>
      </trkpt>
      <trkpt lat="44.15367" lon="1.75517">
        <ele>107.3</ele>
        <time>2019-03-10T12:24:46Z</time>
      </trkpt>
      <trkpt lat="44.15353" lon="1.75511">
        <ele>108</ele>
        <time>2019-03-10T12:24:50Z</time>
      </trkpt>
      <trkpt lat="44.15338" lon="1.75501">
        <ele>108.2</ele>
        <time>2019-03-10T12:24:54Z</time>
      </trkpt>
      <trkpt lat="44.15328" lon="1.75495">
        <ele>107.1</ele>
        <time>2019-03-10T12:24:58Z</time>
      </trkpt>
      <trkpt lat="44.15321" lon="1.75483">
        <ele>107.1</ele>
        <time>2019-03-10T12:25:02Z</time>
      </trkpt>
      <trkpt lat="44.15323" lon="1.75461">
        <ele>107.3</ele>
        <time>2019-03-10T12:25:06Z</time>
      </trkpt>
      <trkpt lat="44.15325" lon="1.75439">
        <ele>106.8</ele>
        <time>2019-03-10T12:25:10Z</time>
      </trkpt>
      <trkpt lat="44.15329" lon="1.7541">
        <ele>106</ele>
        <time>2019-03-10T12:25:14Z</time>
      </trkpt>
      <trkpt lat="44.15326" lon="1.75387">
        <ele>106</ele>
        <time>2019-03-10T12:25:18Z</time>
      </trkpt>
      <trkpt lat="44.15317" lon="1.75369">
        <ele>106.1</ele>
        <time>2019-03-10T12:25:22Z</time>
      </trkpt>
      <trkpt lat="44.15307" lon="1.75357">
        <ele>105.6</ele>
        <time>2019-03-10T12:25:26Z</time>
      </trkpt>
      <trkpt lat="44.15295" lon="1.75346">
        <ele>105.2</ele>
        <time>2019-03-10T12:25:30Z</time>
      </trkpt>
      <trkpt lat="44.15281" lon="1.75336">
        <ele>105.2</ele>
        <time>2019-03-10T12:25:34Z</time>
      </trkpt>
      <trkpt lat="44.15273" lon="1.75334">
        <ele>105.6</ele>
        <time>2019-03-10T12:25:38Z</time>
      </trkpt>
      <trkpt lat="44.15258" lon="1.75326">
        <ele>105.6</ele>
        <time>2019-03-10T12:25:42Z</time>
      </trkpt>
      <trkpt lat="44.15245" lon="1.75322">
        <ele>105.7</ele>
        <time>2019-03-10T12:25:46Z</time>
      </trkpt>
      <trkpt lat="44.15233" lon="1.75316">
        <ele>105.5</ele>
        <time>2019-03-10T12:25:50Z</time>
      </trkpt>
      <trkpt lat="44.1522" lon="1.75316">
        <ele>105.3</ele>
        <time>2019-03-10T12:25:54Z</time>
      </trkpt>
      <trkpt lat="44.15208" lon="1.75318">
        <ele>105.1</ele>
        <time>2019-03-10T12:25:58Z</time>
      </trkpt>
      <trkpt lat="44.15197" lon="1.7531">
        <ele>105.1</ele>
        <time>2019-03-10T12:26:02Z</time>
      </trkpt>
      <trkpt lat="44.15184" lon="1.75305">
        <ele>104.7</ele>
        <time>2019-03-10T12:26:06Z</time>
      </trkpt>
      <trkpt lat="44.15166" lon="1.75311">
        <ele>105</ele>
        <time>2019-03-10T12:26:10Z</time>
      </trkpt>
      <trkpt lat="44.15093" lon="1.75372">
        <ele>126.8</ele>
      </trkpt>
      <trkpt lat="44.15035" lon="1.7553">
        <ele>127.4</ele>
      </trkpt>
      <trkpt lat="44.15088" lon="1.75544">
        <ele>131</ele>
      </trkpt>
      <trkpt lat="44.15075" lon="1.75634">
        <ele>132.3</ele>
      </trkpt>
      <trkpt lat="44.15066" lon="1.75628">
        <ele>131.6</ele>
      </trkpt>
      <trkpt lat="44.15053" lon="1.75689">
        <ele>132.9</ele>
      </trkpt>
      <trkpt lat="44.15061" lon="1.7569">
        <ele>133.5</ele>
      </trkpt>
      <trkpt lat="44.15054" lon="1.75766">
        <ele>135.8</ele>
      </trkpt>
      <trkpt lat="44.15069" lon="1.75781">
        <ele>138.4</ele>
      </trkpt>
      <trkpt lat="44.15055" lon="1.7581">
        <ele>138.6</ele>
      </trkpt>
      <trkpt lat="44.15055" lon="1.75989">
        <ele>149.7</ele>
      </trkpt>
      <trkpt lat="44.15003" lon="1.7607">
        <ele>143.5</ele>
      </trkpt>
      <trkpt lat="44.14953" lon="1.76317">
        <ele>143.1</ele>
      </trkpt>
      <trkpt lat="44.14968" lon="1.76416">
        <ele>142</ele>
      </trkpt>
      <trkpt lat="44.15166" lon="1.76709">
        <ele>135.9</ele>
      </trkpt>
      <trkpt lat="44.15309" lon="1.76916">
        <ele>137.9</ele>
      </trkpt>
      <trkpt lat="44.15407" lon="1.77145">
        <ele>132.2</ele>
      </trkpt>
      <trkpt lat="44.154" lon="1.77286">
        <ele>129.3</ele>
      </trkpt>
      <trkpt lat="44.15332" lon="1.77571">
        <ele>125.2</ele>
      </trkpt>
      <trkpt lat="44.15265" lon="1.77772">
        <ele>125.6</ele>
      </trkpt>
      <trkpt lat="44.1521" lon="1.78177">
        <ele>129.1</ele>
      </trkpt>
      <trkpt lat="44.15179" lon="1.78265">
        <ele>131.1</ele>
      </trkpt>
      <trkpt lat="44.15196" lon="1.78304">
        <ele>134.2</ele>
      </trkpt>
      <trkpt lat="44.15299" lon="1.78396">
        <ele>140.7</ele>
      </trkpt>
      <trkpt lat="44.1537" lon="1.78511">
        <ele>146.5</ele>
      </trkpt>
      <trkpt lat="44.1545" lon="1.78617">
        <ele>149.5</ele>
      </trkpt>
      <trkpt lat="44.15545" lon="1.78729">
        <ele>154.6</ele>
      </trkpt>
      <trkpt lat="44.15598" lon="1.78764">
        <ele>155.3</ele>
        <time>2019-03-10T07:37:30Z</time>
      </trkpt>
    </trkseg>
  </trk>
</gpx>